<?xml version="1.0" encoding="UTF-8" standalone="no" ?>
<gpx xmlns="http://www.topografix.com/GPX/1/1" xmlns:xsi="http://www.w3.org/2001/XMLSchema-instance" xsi:schemaLocation="http://www.topografix.com/GPX/1/1 http://www.topografix.com/GPX/1/1/gpx.xsd" version="1.1" creator="VisuGPX - https://www.visugpx.com">
  <metadata>
    <name>VTT du mercredi 28 fevrier 2018 (après-midi)</name>
    <desc><![CDATA[Malgré les températures glaciales qui sévissent depuis quelques jours, nous sommes partis l'après midi (pas fous !) et nous avons eu du soleil ce qui était très sympa. Très sympa aussi que les sols soient gelés : pas de boue, pas de vélo à laver. Il a fallu souvent contourner des arbres cassés ou déracinés qui barraient les chemins. Néanmoins le parcours était très bien. Bons produits liquides et mousseux,d'origine belge, à l'arrivée.]]></desc>
  </metadata>
  <trk>
    <name><![CDATA[2018-02-28 13:39]]></name>
    <desc><![CDATA[<p>Heure de départ: 02/28/2018 13:39<br/>Heure d'arrivée: 02/28/2018 15:54<br/>Distance: 21,9 km (02:15)<br/>Temps déplacement: 01:49<br/>Vitesse moyenne: 9,7 km/h<br/>Vitesse moyenne mouv.: 11,93 km/h<br/>Vitesse Max.: 40,09 km/h<br/>Altitude minimale: 206 m<br/>Altitude maximale: 319 m<br/>Vitesse de montée: 158,7 m/h<br/>Vitesse de descente: -242,4 m/h<br/>Gain d'altitude: 157 m<br/>Perte d'altitude: -155 m<br/>Temps de montée: 00:59<br/>Temps de descente: 00:38<br/></p><hr align="center" width="480" style="height: 2px; width: 517px"/>]]></desc>
    <trkseg>
      <trkpt lat="47.68627" lon="6.04554">
        <ele>232.51</ele>
        <time>2018-02-28T12:39:32Z</time>
      </trkpt>
      <trkpt lat="47.6863" lon="6.04546">
        <ele>232.94</ele>
        <time>2018-02-28T12:40:27Z</time>
      </trkpt>
      <trkpt lat="47.68632" lon="6.04538">
        <ele>232.69</ele>
        <time>2018-02-28T12:40:37Z</time>
      </trkpt>
      <trkpt lat="47.68632" lon="6.04531">
        <ele>232.57</ele>
        <time>2018-02-28T12:40:39Z</time>
      </trkpt>
      <trkpt lat="47.68628" lon="6.04524">
        <ele>232.43</ele>
        <time>2018-02-28T12:40:41Z</time>
      </trkpt>
      <trkpt lat="47.68621" lon="6.04519">
        <ele>231.76</ele>
        <time>2018-02-28T12:40:43Z</time>
      </trkpt>
      <trkpt lat="47.68617" lon="6.04517">
        <ele>231.13</ele>
        <time>2018-02-28T12:40:44Z</time>
      </trkpt>
      <trkpt lat="47.68612" lon="6.04514">
        <ele>230.54</ele>
        <time>2018-02-28T12:40:45Z</time>
      </trkpt>
      <trkpt lat="47.68608" lon="6.04511">
        <ele>230.02</ele>
        <time>2018-02-28T12:40:46Z</time>
      </trkpt>
      <trkpt lat="47.68603" lon="6.04507">
        <ele>229.56</ele>
        <time>2018-02-28T12:40:47Z</time>
      </trkpt>
      <trkpt lat="47.68598" lon="6.04503">
        <ele>229.2</ele>
        <time>2018-02-28T12:40:48Z</time>
      </trkpt>
      <trkpt lat="47.68592" lon="6.04499">
        <ele>228.87</ele>
        <time>2018-02-28T12:40:49Z</time>
      </trkpt>
      <trkpt lat="47.68587" lon="6.04495">
        <ele>228.55</ele>
        <time>2018-02-28T12:40:50Z</time>
      </trkpt>
      <trkpt lat="47.68581" lon="6.04491">
        <ele>228.25</ele>
        <time>2018-02-28T12:40:51Z</time>
      </trkpt>
      <trkpt lat="47.68576" lon="6.04487">
        <ele>227.86</ele>
        <time>2018-02-28T12:40:52Z</time>
      </trkpt>
      <trkpt lat="47.6857" lon="6.04482">
        <ele>227.47</ele>
        <time>2018-02-28T12:40:52Z</time>
      </trkpt>
      <trkpt lat="47.68565" lon="6.04478">
        <ele>227.07</ele>
        <time>2018-02-28T12:40:53Z</time>
      </trkpt>
      <trkpt lat="47.68558" lon="6.04473">
        <ele>226.68</ele>
        <time>2018-02-28T12:40:54Z</time>
      </trkpt>
      <trkpt lat="47.68551" lon="6.04468">
        <ele>226.3</ele>
        <time>2018-02-28T12:40:55Z</time>
      </trkpt>
      <trkpt lat="47.68544" lon="6.04463">
        <ele>225.95</ele>
        <time>2018-02-28T12:40:56Z</time>
      </trkpt>
      <trkpt lat="47.68538" lon="6.04456">
        <ele>225.64</ele>
        <time>2018-02-28T12:40:57Z</time>
      </trkpt>
      <trkpt lat="47.6853" lon="6.04451">
        <ele>225.33</ele>
        <time>2018-02-28T12:40:58Z</time>
      </trkpt>
      <trkpt lat="47.68523" lon="6.04447">
        <ele>225.04</ele>
        <time>2018-02-28T12:40:59Z</time>
      </trkpt>
      <trkpt lat="47.68515" lon="6.04442">
        <ele>224.75</ele>
        <time>2018-02-28T12:41:00Z</time>
      </trkpt>
      <trkpt lat="47.68507" lon="6.04438">
        <ele>224.46</ele>
        <time>2018-02-28T12:41:01Z</time>
      </trkpt>
      <trkpt lat="47.68499" lon="6.04434">
        <ele>224.22</ele>
        <time>2018-02-28T12:41:02Z</time>
      </trkpt>
      <trkpt lat="47.6849" lon="6.04433">
        <ele>224.01</ele>
        <time>2018-02-28T12:41:03Z</time>
      </trkpt>
      <trkpt lat="47.68482" lon="6.04432">
        <ele>223.76</ele>
        <time>2018-02-28T12:41:04Z</time>
      </trkpt>
      <trkpt lat="47.68474" lon="6.04432">
        <ele>223.48</ele>
        <time>2018-02-28T12:41:05Z</time>
      </trkpt>
      <trkpt lat="47.68465" lon="6.04433">
        <ele>223.2</ele>
        <time>2018-02-28T12:41:06Z</time>
      </trkpt>
      <trkpt lat="47.68456" lon="6.04433">
        <ele>222.91</ele>
        <time>2018-02-28T12:41:07Z</time>
      </trkpt>
      <trkpt lat="47.68448" lon="6.04432">
        <ele>222.62</ele>
        <time>2018-02-28T12:41:08Z</time>
      </trkpt>
      <trkpt lat="47.68439" lon="6.04432">
        <ele>222.31</ele>
        <time>2018-02-28T12:41:09Z</time>
      </trkpt>
      <trkpt lat="47.68431" lon="6.04432">
        <ele>222.01</ele>
        <time>2018-02-28T12:41:10Z</time>
      </trkpt>
      <trkpt lat="47.68424" lon="6.04432">
        <ele>221.73</ele>
        <time>2018-02-28T12:41:11Z</time>
      </trkpt>
      <trkpt lat="47.68417" lon="6.04432">
        <ele>221.48</ele>
        <time>2018-02-28T12:41:12Z</time>
      </trkpt>
      <trkpt lat="47.68411" lon="6.04432">
        <ele>221.25</ele>
        <time>2018-02-28T12:41:13Z</time>
      </trkpt>
      <trkpt lat="47.68406" lon="6.0443">
        <ele>221.02</ele>
        <time>2018-02-28T12:41:14Z</time>
      </trkpt>
      <trkpt lat="47.684" lon="6.0442">
        <ele>220.58</ele>
        <time>2018-02-28T12:41:16Z</time>
      </trkpt>
      <trkpt lat="47.684" lon="6.04414">
        <ele>220.36</ele>
        <time>2018-02-28T12:41:17Z</time>
      </trkpt>
      <trkpt lat="47.684" lon="6.04407">
        <ele>220.18</ele>
        <time>2018-02-28T12:41:18Z</time>
      </trkpt>
      <trkpt lat="47.684" lon="6.04399">
        <ele>220.01</ele>
        <time>2018-02-28T12:41:19Z</time>
      </trkpt>
      <trkpt lat="47.684" lon="6.0439">
        <ele>219.84</ele>
        <time>2018-02-28T12:41:20Z</time>
      </trkpt>
      <trkpt lat="47.68401" lon="6.04381">
        <ele>219.67</ele>
        <time>2018-02-28T12:41:21Z</time>
      </trkpt>
      <trkpt lat="47.684" lon="6.04372">
        <ele>219.54</ele>
        <time>2018-02-28T12:41:22Z</time>
      </trkpt>
      <trkpt lat="47.684" lon="6.04363">
        <ele>219.43</ele>
        <time>2018-02-28T12:41:23Z</time>
      </trkpt>
      <trkpt lat="47.684" lon="6.04354">
        <ele>219.29</ele>
        <time>2018-02-28T12:41:24Z</time>
      </trkpt>
      <trkpt lat="47.684" lon="6.04345">
        <ele>219.12</ele>
        <time>2018-02-28T12:41:25Z</time>
      </trkpt>
      <trkpt lat="47.68399" lon="6.04337">
        <ele>218.92</ele>
        <time>2018-02-28T12:41:26Z</time>
      </trkpt>
      <trkpt lat="47.68399" lon="6.04329">
        <ele>218.66</ele>
        <time>2018-02-28T12:41:27Z</time>
      </trkpt>
      <trkpt lat="47.68399" lon="6.0432">
        <ele>218.36</ele>
        <time>2018-02-28T12:41:28Z</time>
      </trkpt>
      <trkpt lat="47.684" lon="6.04311">
        <ele>218.06</ele>
        <time>2018-02-28T12:41:29Z</time>
      </trkpt>
      <trkpt lat="47.68399" lon="6.04302">
        <ele>217.72</ele>
        <time>2018-02-28T12:41:30Z</time>
      </trkpt>
      <trkpt lat="47.68399" lon="6.04292">
        <ele>217.37</ele>
        <time>2018-02-28T12:41:31Z</time>
      </trkpt>
      <trkpt lat="47.68399" lon="6.04283">
        <ele>217.01</ele>
        <time>2018-02-28T12:41:32Z</time>
      </trkpt>
      <trkpt lat="47.68398" lon="6.04275">
        <ele>216.65</ele>
        <time>2018-02-28T12:41:33Z</time>
      </trkpt>
      <trkpt lat="47.68398" lon="6.04268">
        <ele>216.34</ele>
        <time>2018-02-28T12:41:34Z</time>
      </trkpt>
      <trkpt lat="47.68397" lon="6.0426">
        <ele>216.17</ele>
        <time>2018-02-28T12:41:36Z</time>
      </trkpt>
      <trkpt lat="47.68395" lon="6.04253">
        <ele>216.1</ele>
        <time>2018-02-28T12:41:38Z</time>
      </trkpt>
      <trkpt lat="47.68391" lon="6.04248">
        <ele>216.03</ele>
        <time>2018-02-28T12:41:40Z</time>
      </trkpt>
      <trkpt lat="47.68384" lon="6.04246">
        <ele>215.95</ele>
        <time>2018-02-28T12:41:42Z</time>
      </trkpt>
      <trkpt lat="47.68378" lon="6.04242">
        <ele>215.85</ele>
        <time>2018-02-28T12:41:44Z</time>
      </trkpt>
      <trkpt lat="47.68373" lon="6.04234">
        <ele>215.73</ele>
        <time>2018-02-28T12:41:46Z</time>
      </trkpt>
      <trkpt lat="47.68368" lon="6.04223">
        <ele>214.98</ele>
        <time>2018-02-28T12:41:48Z</time>
      </trkpt>
      <trkpt lat="47.68363" lon="6.04212">
        <ele>214.45</ele>
        <time>2018-02-28T12:41:50Z</time>
      </trkpt>
      <trkpt lat="47.6836" lon="6.04201">
        <ele>214.13</ele>
        <time>2018-02-28T12:41:52Z</time>
      </trkpt>
      <trkpt lat="47.68359" lon="6.04188">
        <ele>213.99</ele>
        <time>2018-02-28T12:41:54Z</time>
      </trkpt>
      <trkpt lat="47.68359" lon="6.04181">
        <ele>213.92</ele>
        <time>2018-02-28T12:41:55Z</time>
      </trkpt>
      <trkpt lat="47.68359" lon="6.04174">
        <ele>213.84</ele>
        <time>2018-02-28T12:41:56Z</time>
      </trkpt>
      <trkpt lat="47.68359" lon="6.04167">
        <ele>213.73</ele>
        <time>2018-02-28T12:41:57Z</time>
      </trkpt>
      <trkpt lat="47.68362" lon="6.04157">
        <ele>213.56</ele>
        <time>2018-02-28T12:41:59Z</time>
      </trkpt>
      <trkpt lat="47.68368" lon="6.04155">
        <ele>213.49</ele>
        <time>2018-02-28T12:42:01Z</time>
      </trkpt>
      <trkpt lat="47.68376" lon="6.04155">
        <ele>213.41</ele>
        <time>2018-02-28T12:42:03Z</time>
      </trkpt>
      <trkpt lat="47.68384" lon="6.04156">
        <ele>212.71</ele>
        <time>2018-02-28T12:42:05Z</time>
      </trkpt>
      <trkpt lat="47.68393" lon="6.04157">
        <ele>212.05</ele>
        <time>2018-02-28T12:42:07Z</time>
      </trkpt>
      <trkpt lat="47.68401" lon="6.04158">
        <ele>211.53</ele>
        <time>2018-02-28T12:42:09Z</time>
      </trkpt>
      <trkpt lat="47.6841" lon="6.04159">
        <ele>211.04</ele>
        <time>2018-02-28T12:42:11Z</time>
      </trkpt>
      <trkpt lat="47.68419" lon="6.04161">
        <ele>210.59</ele>
        <time>2018-02-28T12:42:13Z</time>
      </trkpt>
      <trkpt lat="47.68424" lon="6.04161">
        <ele>210.38</ele>
        <time>2018-02-28T12:42:14Z</time>
      </trkpt>
      <trkpt lat="47.68428" lon="6.04162">
        <ele>210.18</ele>
        <time>2018-02-28T12:42:15Z</time>
      </trkpt>
      <trkpt lat="47.68437" lon="6.04163">
        <ele>209.91</ele>
        <time>2018-02-28T12:42:17Z</time>
      </trkpt>
      <trkpt lat="47.68444" lon="6.04163">
        <ele>209.84</ele>
        <time>2018-02-28T12:42:19Z</time>
      </trkpt>
      <trkpt lat="47.68452" lon="6.04164">
        <ele>209.79</ele>
        <time>2018-02-28T12:42:21Z</time>
      </trkpt>
      <trkpt lat="47.6846" lon="6.04165">
        <ele>209.35</ele>
        <time>2018-02-28T12:42:23Z</time>
      </trkpt>
      <trkpt lat="47.68469" lon="6.04165">
        <ele>208.94</ele>
        <time>2018-02-28T12:42:25Z</time>
      </trkpt>
      <trkpt lat="47.68477" lon="6.04166">
        <ele>208.68</ele>
        <time>2018-02-28T12:42:27Z</time>
      </trkpt>
      <trkpt lat="47.68484" lon="6.04167">
        <ele>208.48</ele>
        <time>2018-02-28T12:42:29Z</time>
      </trkpt>
      <trkpt lat="47.68491" lon="6.04168">
        <ele>208.22</ele>
        <time>2018-02-28T12:42:31Z</time>
      </trkpt>
      <trkpt lat="47.68497" lon="6.0417">
        <ele>208.16</ele>
        <time>2018-02-28T12:42:33Z</time>
      </trkpt>
      <trkpt lat="47.68505" lon="6.04171">
        <ele>207.95</ele>
        <time>2018-02-28T12:42:35Z</time>
      </trkpt>
      <trkpt lat="47.68514" lon="6.04172">
        <ele>207.9</ele>
        <time>2018-02-28T12:42:37Z</time>
      </trkpt>
      <trkpt lat="47.68522" lon="6.04174">
        <ele>207.77</ele>
        <time>2018-02-28T12:42:39Z</time>
      </trkpt>
      <trkpt lat="47.68531" lon="6.04176">
        <ele>207.51</ele>
        <time>2018-02-28T12:42:41Z</time>
      </trkpt>
      <trkpt lat="47.68539" lon="6.04178">
        <ele>207.41</ele>
        <time>2018-02-28T12:42:43Z</time>
      </trkpt>
      <trkpt lat="47.68547" lon="6.04181">
        <ele>207.32</ele>
        <time>2018-02-28T12:42:45Z</time>
      </trkpt>
      <trkpt lat="47.68555" lon="6.04183">
        <ele>207.27</ele>
        <time>2018-02-28T12:42:47Z</time>
      </trkpt>
      <trkpt lat="47.68564" lon="6.04185">
        <ele>207.19</ele>
        <time>2018-02-28T12:42:49Z</time>
      </trkpt>
      <trkpt lat="47.68573" lon="6.04186">
        <ele>207.12</ele>
        <time>2018-02-28T12:42:51Z</time>
      </trkpt>
      <trkpt lat="47.68581" lon="6.04188">
        <ele>207.05</ele>
        <time>2018-02-28T12:42:53Z</time>
      </trkpt>
      <trkpt lat="47.68589" lon="6.0419">
        <ele>206.99</ele>
        <time>2018-02-28T12:42:55Z</time>
      </trkpt>
      <trkpt lat="47.68596" lon="6.04192">
        <ele>206.94</ele>
        <time>2018-02-28T12:42:57Z</time>
      </trkpt>
      <trkpt lat="47.68604" lon="6.04193">
        <ele>206.88</ele>
        <time>2018-02-28T12:42:59Z</time>
      </trkpt>
      <trkpt lat="47.68612" lon="6.04196">
        <ele>206.84</ele>
        <time>2018-02-28T12:43:01Z</time>
      </trkpt>
      <trkpt lat="47.6862" lon="6.04198">
        <ele>206.8</ele>
        <time>2018-02-28T12:43:03Z</time>
      </trkpt>
      <trkpt lat="47.68628" lon="6.042">
        <ele>206.75</ele>
        <time>2018-02-28T12:43:05Z</time>
      </trkpt>
      <trkpt lat="47.68635" lon="6.04202">
        <ele>206.72</ele>
        <time>2018-02-28T12:43:07Z</time>
      </trkpt>
      <trkpt lat="47.68642" lon="6.04204">
        <ele>206.71</ele>
        <time>2018-02-28T12:43:09Z</time>
      </trkpt>
      <trkpt lat="47.68648" lon="6.04206">
        <ele>206.7</ele>
        <time>2018-02-28T12:43:11Z</time>
      </trkpt>
      <trkpt lat="47.68655" lon="6.04208">
        <ele>206.69</ele>
        <time>2018-02-28T12:43:13Z</time>
      </trkpt>
      <trkpt lat="47.68662" lon="6.0421">
        <ele>206.67</ele>
        <time>2018-02-28T12:43:15Z</time>
      </trkpt>
      <trkpt lat="47.68669" lon="6.04212">
        <ele>206.65</ele>
        <time>2018-02-28T12:43:17Z</time>
      </trkpt>
      <trkpt lat="47.68675" lon="6.04214">
        <ele>206.62</ele>
        <time>2018-02-28T12:43:19Z</time>
      </trkpt>
      <trkpt lat="47.68682" lon="6.04215">
        <ele>206.6</ele>
        <time>2018-02-28T12:43:21Z</time>
      </trkpt>
      <trkpt lat="47.68689" lon="6.04217">
        <ele>206.57</ele>
        <time>2018-02-28T12:43:23Z</time>
      </trkpt>
      <trkpt lat="47.68695" lon="6.04219">
        <ele>206.55</ele>
        <time>2018-02-28T12:43:25Z</time>
      </trkpt>
      <trkpt lat="47.68701" lon="6.04221">
        <ele>206.52</ele>
        <time>2018-02-28T12:43:27Z</time>
      </trkpt>
      <trkpt lat="47.68707" lon="6.04224">
        <ele>206.5</ele>
        <time>2018-02-28T12:43:29Z</time>
      </trkpt>
      <trkpt lat="47.68714" lon="6.04226">
        <ele>206.47</ele>
        <time>2018-02-28T12:43:31Z</time>
      </trkpt>
      <trkpt lat="47.68721" lon="6.04227">
        <ele>206.45</ele>
        <time>2018-02-28T12:43:33Z</time>
      </trkpt>
      <trkpt lat="47.68728" lon="6.04228">
        <ele>206.43</ele>
        <time>2018-02-28T12:43:35Z</time>
      </trkpt>
      <trkpt lat="47.68737" lon="6.04229">
        <ele>206.42</ele>
        <time>2018-02-28T12:43:37Z</time>
      </trkpt>
      <trkpt lat="47.68745" lon="6.0423">
        <ele>206.4</ele>
        <time>2018-02-28T12:43:39Z</time>
      </trkpt>
      <trkpt lat="47.68752" lon="6.04231">
        <ele>206.4</ele>
        <time>2018-02-28T12:43:41Z</time>
      </trkpt>
      <trkpt lat="47.68759" lon="6.04231">
        <ele>206.39</ele>
        <time>2018-02-28T12:43:43Z</time>
      </trkpt>
      <trkpt lat="47.68766" lon="6.0423">
        <ele>206.38</ele>
        <time>2018-02-28T12:43:45Z</time>
      </trkpt>
      <trkpt lat="47.68772" lon="6.04231">
        <ele>206.38</ele>
        <time>2018-02-28T12:43:47Z</time>
      </trkpt>
      <trkpt lat="47.68779" lon="6.04232">
        <ele>206.37</ele>
        <time>2018-02-28T12:43:49Z</time>
      </trkpt>
      <trkpt lat="47.68785" lon="6.04233">
        <ele>206.36</ele>
        <time>2018-02-28T12:43:51Z</time>
      </trkpt>
      <trkpt lat="47.68791" lon="6.04233">
        <ele>206.35</ele>
        <time>2018-02-28T12:43:53Z</time>
      </trkpt>
      <trkpt lat="47.68797" lon="6.04235">
        <ele>206.34</ele>
        <time>2018-02-28T12:43:55Z</time>
      </trkpt>
      <trkpt lat="47.68804" lon="6.04235">
        <ele>206.33</ele>
        <time>2018-02-28T12:43:57Z</time>
      </trkpt>
      <trkpt lat="47.68811" lon="6.04236">
        <ele>206.32</ele>
        <time>2018-02-28T12:43:59Z</time>
      </trkpt>
      <trkpt lat="47.68818" lon="6.04236">
        <ele>206.31</ele>
        <time>2018-02-28T12:44:01Z</time>
      </trkpt>
      <trkpt lat="47.68824" lon="6.04237">
        <ele>206.3</ele>
        <time>2018-02-28T12:44:03Z</time>
      </trkpt>
      <trkpt lat="47.6883" lon="6.04237">
        <ele>206.29</ele>
        <time>2018-02-28T12:44:05Z</time>
      </trkpt>
      <trkpt lat="47.68838" lon="6.04237">
        <ele>206.28</ele>
        <time>2018-02-28T12:44:07Z</time>
      </trkpt>
      <trkpt lat="47.68844" lon="6.04238">
        <ele>206.26</ele>
        <time>2018-02-28T12:44:09Z</time>
      </trkpt>
      <trkpt lat="47.68852" lon="6.04236">
        <ele>206.25</ele>
        <time>2018-02-28T12:44:11Z</time>
      </trkpt>
      <trkpt lat="47.68858" lon="6.04235">
        <ele>206.24</ele>
        <time>2018-02-28T12:44:13Z</time>
      </trkpt>
      <trkpt lat="47.68864" lon="6.04236">
        <ele>206.23</ele>
        <time>2018-02-28T12:44:15Z</time>
      </trkpt>
      <trkpt lat="47.6887" lon="6.04238">
        <ele>206.22</ele>
        <time>2018-02-28T12:44:17Z</time>
      </trkpt>
      <trkpt lat="47.68877" lon="6.0424">
        <ele>206.21</ele>
        <time>2018-02-28T12:44:19Z</time>
      </trkpt>
      <trkpt lat="47.68883" lon="6.04243">
        <ele>206.2</ele>
        <time>2018-02-28T12:44:21Z</time>
      </trkpt>
      <trkpt lat="47.68889" lon="6.04247">
        <ele>206.19</ele>
        <time>2018-02-28T12:44:23Z</time>
      </trkpt>
      <trkpt lat="47.68895" lon="6.04249">
        <ele>206.18</ele>
        <time>2018-02-28T12:44:25Z</time>
      </trkpt>
      <trkpt lat="47.689" lon="6.04251">
        <ele>206.17</ele>
        <time>2018-02-28T12:44:27Z</time>
      </trkpt>
      <trkpt lat="47.68906" lon="6.04251">
        <ele>206.17</ele>
        <time>2018-02-28T12:44:29Z</time>
      </trkpt>
      <trkpt lat="47.68913" lon="6.04251">
        <ele>206.19</ele>
        <time>2018-02-28T12:44:48Z</time>
      </trkpt>
      <trkpt lat="47.68918" lon="6.04247">
        <ele>206.21</ele>
        <time>2018-02-28T12:44:50Z</time>
      </trkpt>
      <trkpt lat="47.68923" lon="6.04239">
        <ele>206.24</ele>
        <time>2018-02-28T12:44:52Z</time>
      </trkpt>
      <trkpt lat="47.68928" lon="6.0423">
        <ele>206.26</ele>
        <time>2018-02-28T12:44:54Z</time>
      </trkpt>
      <trkpt lat="47.68934" lon="6.0422">
        <ele>206.39</ele>
        <time>2018-02-28T12:44:56Z</time>
      </trkpt>
      <trkpt lat="47.68938" lon="6.04209">
        <ele>206.54</ele>
        <time>2018-02-28T12:44:58Z</time>
      </trkpt>
      <trkpt lat="47.68941" lon="6.04204">
        <ele>206.6</ele>
        <time>2018-02-28T12:44:59Z</time>
      </trkpt>
      <trkpt lat="47.68943" lon="6.04198">
        <ele>206.66</ele>
        <time>2018-02-28T12:45:00Z</time>
      </trkpt>
      <trkpt lat="47.68946" lon="6.04192">
        <ele>206.7</ele>
        <time>2018-02-28T12:45:01Z</time>
      </trkpt>
      <trkpt lat="47.68949" lon="6.04186">
        <ele>206.74</ele>
        <time>2018-02-28T12:45:02Z</time>
      </trkpt>
      <trkpt lat="47.68951" lon="6.0418">
        <ele>206.77</ele>
        <time>2018-02-28T12:45:03Z</time>
      </trkpt>
      <trkpt lat="47.68955" lon="6.04168">
        <ele>206.82</ele>
        <time>2018-02-28T12:45:05Z</time>
      </trkpt>
      <trkpt lat="47.6896" lon="6.04156">
        <ele>206.85</ele>
        <time>2018-02-28T12:45:07Z</time>
      </trkpt>
      <trkpt lat="47.68963" lon="6.04146">
        <ele>206.88</ele>
        <time>2018-02-28T12:45:09Z</time>
      </trkpt>
      <trkpt lat="47.68967" lon="6.04135">
        <ele>206.9</ele>
        <time>2018-02-28T12:45:11Z</time>
      </trkpt>
      <trkpt lat="47.68971" lon="6.04126">
        <ele>206.91</ele>
        <time>2018-02-28T12:45:13Z</time>
      </trkpt>
      <trkpt lat="47.68976" lon="6.04116">
        <ele>206.92</ele>
        <time>2018-02-28T12:45:15Z</time>
      </trkpt>
      <trkpt lat="47.6898" lon="6.04105">
        <ele>206.93</ele>
        <time>2018-02-28T12:45:17Z</time>
      </trkpt>
      <trkpt lat="47.68983" lon="6.04099">
        <ele>206.93</ele>
        <time>2018-02-28T12:45:18Z</time>
      </trkpt>
      <trkpt lat="47.68986" lon="6.04094">
        <ele>206.94</ele>
        <time>2018-02-28T12:45:19Z</time>
      </trkpt>
      <trkpt lat="47.68988" lon="6.04088">
        <ele>206.94</ele>
        <time>2018-02-28T12:45:20Z</time>
      </trkpt>
      <trkpt lat="47.68992" lon="6.04077">
        <ele>206.95</ele>
        <time>2018-02-28T12:45:22Z</time>
      </trkpt>
      <trkpt lat="47.68996" lon="6.04067">
        <ele>206.96</ele>
        <time>2018-02-28T12:45:24Z</time>
      </trkpt>
      <trkpt lat="47.69001" lon="6.04056">
        <ele>206.97</ele>
        <time>2018-02-28T12:45:26Z</time>
      </trkpt>
      <trkpt lat="47.69005" lon="6.04046">
        <ele>206.98</ele>
        <time>2018-02-28T12:45:28Z</time>
      </trkpt>
      <trkpt lat="47.69009" lon="6.04036">
        <ele>206.98</ele>
        <time>2018-02-28T12:45:30Z</time>
      </trkpt>
      <trkpt lat="47.69013" lon="6.04026">
        <ele>206.99</ele>
        <time>2018-02-28T12:45:32Z</time>
      </trkpt>
      <trkpt lat="47.69016" lon="6.04015">
        <ele>206.99</ele>
        <time>2018-02-28T12:45:34Z</time>
      </trkpt>
      <trkpt lat="47.69019" lon="6.04005">
        <ele>207.01</ele>
        <time>2018-02-28T12:45:36Z</time>
      </trkpt>
      <trkpt lat="47.69023" lon="6.03995">
        <ele>207.02</ele>
        <time>2018-02-28T12:45:38Z</time>
      </trkpt>
      <trkpt lat="47.69028" lon="6.03985">
        <ele>207.03</ele>
        <time>2018-02-28T12:45:40Z</time>
      </trkpt>
      <trkpt lat="47.69032" lon="6.03975">
        <ele>207.04</ele>
        <time>2018-02-28T12:45:42Z</time>
      </trkpt>
      <trkpt lat="47.69036" lon="6.03965">
        <ele>207.05</ele>
        <time>2018-02-28T12:45:44Z</time>
      </trkpt>
      <trkpt lat="47.6904" lon="6.03955">
        <ele>207.07</ele>
        <time>2018-02-28T12:45:46Z</time>
      </trkpt>
      <trkpt lat="47.69044" lon="6.03945">
        <ele>207.08</ele>
        <time>2018-02-28T12:45:48Z</time>
      </trkpt>
      <trkpt lat="47.69049" lon="6.03934">
        <ele>207.12</ele>
        <time>2018-02-28T12:45:50Z</time>
      </trkpt>
      <trkpt lat="47.69053" lon="6.03924">
        <ele>207.19</ele>
        <time>2018-02-28T12:45:52Z</time>
      </trkpt>
      <trkpt lat="47.69058" lon="6.03913">
        <ele>207.28</ele>
        <time>2018-02-28T12:45:54Z</time>
      </trkpt>
      <trkpt lat="47.69063" lon="6.03902">
        <ele>207.38</ele>
        <time>2018-02-28T12:45:56Z</time>
      </trkpt>
      <trkpt lat="47.69068" lon="6.03891">
        <ele>207.48</ele>
        <time>2018-02-28T12:45:58Z</time>
      </trkpt>
      <trkpt lat="47.6907" lon="6.03885">
        <ele>207.53</ele>
        <time>2018-02-28T12:45:59Z</time>
      </trkpt>
      <trkpt lat="47.69072" lon="6.03879">
        <ele>207.57</ele>
        <time>2018-02-28T12:46:00Z</time>
      </trkpt>
      <trkpt lat="47.69075" lon="6.03873">
        <ele>207.62</ele>
        <time>2018-02-28T12:46:01Z</time>
      </trkpt>
      <trkpt lat="47.69077" lon="6.03867">
        <ele>207.67</ele>
        <time>2018-02-28T12:46:02Z</time>
      </trkpt>
      <trkpt lat="47.6908" lon="6.03861">
        <ele>207.72</ele>
        <time>2018-02-28T12:46:03Z</time>
      </trkpt>
      <trkpt lat="47.69084" lon="6.0385">
        <ele>207.8</ele>
        <time>2018-02-28T12:46:05Z</time>
      </trkpt>
      <trkpt lat="47.69088" lon="6.03841">
        <ele>207.82</ele>
        <time>2018-02-28T12:46:07Z</time>
      </trkpt>
      <trkpt lat="47.69091" lon="6.03834">
        <ele>207.84</ele>
        <time>2018-02-28T12:46:09Z</time>
      </trkpt>
      <trkpt lat="47.69095" lon="6.03824">
        <ele>207.9</ele>
        <time>2018-02-28T12:46:12Z</time>
      </trkpt>
      <trkpt lat="47.69099" lon="6.03813">
        <ele>208</ele>
        <time>2018-02-28T12:46:14Z</time>
      </trkpt>
      <trkpt lat="47.69102" lon="6.03807">
        <ele>208.04</ele>
        <time>2018-02-28T12:46:15Z</time>
      </trkpt>
      <trkpt lat="47.69105" lon="6.03802">
        <ele>208.06</ele>
        <time>2018-02-28T12:46:16Z</time>
      </trkpt>
      <trkpt lat="47.6911" lon="6.03799">
        <ele>208.08</ele>
        <time>2018-02-28T12:46:17Z</time>
      </trkpt>
      <trkpt lat="47.69115" lon="6.03798">
        <ele>208.1</ele>
        <time>2018-02-28T12:46:18Z</time>
      </trkpt>
      <trkpt lat="47.6912" lon="6.03801">
        <ele>208.12</ele>
        <time>2018-02-28T12:46:19Z</time>
      </trkpt>
      <trkpt lat="47.69126" lon="6.03801">
        <ele>208.14</ele>
        <time>2018-02-28T12:46:20Z</time>
      </trkpt>
      <trkpt lat="47.69133" lon="6.03804">
        <ele>208.16</ele>
        <time>2018-02-28T12:46:21Z</time>
      </trkpt>
      <trkpt lat="47.69139" lon="6.03803">
        <ele>208.18</ele>
        <time>2018-02-28T12:46:22Z</time>
      </trkpt>
      <trkpt lat="47.69145" lon="6.03802">
        <ele>208.19</ele>
        <time>2018-02-28T12:46:23Z</time>
      </trkpt>
      <trkpt lat="47.69152" lon="6.038">
        <ele>208.21</ele>
        <time>2018-02-28T12:46:24Z</time>
      </trkpt>
      <trkpt lat="47.69158" lon="6.03798">
        <ele>208.23</ele>
        <time>2018-02-28T12:46:25Z</time>
      </trkpt>
      <trkpt lat="47.69164" lon="6.03795">
        <ele>208.24</ele>
        <time>2018-02-28T12:46:26Z</time>
      </trkpt>
      <trkpt lat="47.69169" lon="6.03793">
        <ele>208.26</ele>
        <time>2018-02-28T12:46:27Z</time>
      </trkpt>
      <trkpt lat="47.69175" lon="6.03792">
        <ele>208.29</ele>
        <time>2018-02-28T12:46:28Z</time>
      </trkpt>
      <trkpt lat="47.69181" lon="6.03791">
        <ele>208.33</ele>
        <time>2018-02-28T12:46:29Z</time>
      </trkpt>
      <trkpt lat="47.69186" lon="6.03791">
        <ele>208.27</ele>
        <time>2018-02-28T12:46:30Z</time>
      </trkpt>
      <trkpt lat="47.69191" lon="6.03791">
        <ele>208.21</ele>
        <time>2018-02-28T12:46:31Z</time>
      </trkpt>
      <trkpt lat="47.69196" lon="6.0379">
        <ele>208.17</ele>
        <time>2018-02-28T12:46:32Z</time>
      </trkpt>
      <trkpt lat="47.69201" lon="6.03789">
        <ele>208.15</ele>
        <time>2018-02-28T12:46:33Z</time>
      </trkpt>
      <trkpt lat="47.69206" lon="6.03788">
        <ele>208.15</ele>
        <time>2018-02-28T12:46:34Z</time>
      </trkpt>
      <trkpt lat="47.69211" lon="6.03787">
        <ele>208.14</ele>
        <time>2018-02-28T12:46:35Z</time>
      </trkpt>
      <trkpt lat="47.69217" lon="6.03787">
        <ele>208.15</ele>
        <time>2018-02-28T12:46:36Z</time>
      </trkpt>
      <trkpt lat="47.69222" lon="6.03788">
        <ele>208.16</ele>
        <time>2018-02-28T12:46:37Z</time>
      </trkpt>
      <trkpt lat="47.69227" lon="6.03788">
        <ele>208.18</ele>
        <time>2018-02-28T12:46:38Z</time>
      </trkpt>
      <trkpt lat="47.69233" lon="6.03788">
        <ele>208.22</ele>
        <time>2018-02-28T12:46:39Z</time>
      </trkpt>
      <trkpt lat="47.69238" lon="6.03789">
        <ele>208.27</ele>
        <time>2018-02-28T12:46:40Z</time>
      </trkpt>
      <trkpt lat="47.69243" lon="6.0379">
        <ele>208.31</ele>
        <time>2018-02-28T12:46:41Z</time>
      </trkpt>
      <trkpt lat="47.69248" lon="6.03791">
        <ele>208.36</ele>
        <time>2018-02-28T12:46:42Z</time>
      </trkpt>
      <trkpt lat="47.69253" lon="6.03792">
        <ele>208.43</ele>
        <time>2018-02-28T12:46:43Z</time>
      </trkpt>
      <trkpt lat="47.69258" lon="6.03793">
        <ele>208.48</ele>
        <time>2018-02-28T12:46:44Z</time>
      </trkpt>
      <trkpt lat="47.69263" lon="6.03794">
        <ele>208.55</ele>
        <time>2018-02-28T12:46:45Z</time>
      </trkpt>
      <trkpt lat="47.69268" lon="6.03795">
        <ele>208.61</ele>
        <time>2018-02-28T12:46:46Z</time>
      </trkpt>
      <trkpt lat="47.69272" lon="6.03796">
        <ele>208.68</ele>
        <time>2018-02-28T12:46:47Z</time>
      </trkpt>
      <trkpt lat="47.69277" lon="6.03797">
        <ele>208.76</ele>
        <time>2018-02-28T12:46:48Z</time>
      </trkpt>
      <trkpt lat="47.69281" lon="6.03797">
        <ele>208.86</ele>
        <time>2018-02-28T12:46:49Z</time>
      </trkpt>
      <trkpt lat="47.69286" lon="6.03798">
        <ele>208.96</ele>
        <time>2018-02-28T12:46:50Z</time>
      </trkpt>
      <trkpt lat="47.69291" lon="6.03799">
        <ele>209.04</ele>
        <time>2018-02-28T12:46:51Z</time>
      </trkpt>
      <trkpt lat="47.69295" lon="6.03799">
        <ele>209.12</ele>
        <time>2018-02-28T12:46:52Z</time>
      </trkpt>
      <trkpt lat="47.693" lon="6.038">
        <ele>209.19</ele>
        <time>2018-02-28T12:46:53Z</time>
      </trkpt>
      <trkpt lat="47.69305" lon="6.03801">
        <ele>209.23</ele>
        <time>2018-02-28T12:46:54Z</time>
      </trkpt>
      <trkpt lat="47.6931" lon="6.03802">
        <ele>209.29</ele>
        <time>2018-02-28T12:46:55Z</time>
      </trkpt>
      <trkpt lat="47.69315" lon="6.03803">
        <ele>209.34</ele>
        <time>2018-02-28T12:46:56Z</time>
      </trkpt>
      <trkpt lat="47.69319" lon="6.03803">
        <ele>209.37</ele>
        <time>2018-02-28T12:46:57Z</time>
      </trkpt>
      <trkpt lat="47.69324" lon="6.03804">
        <ele>209.37</ele>
        <time>2018-02-28T12:46:58Z</time>
      </trkpt>
      <trkpt lat="47.69329" lon="6.03804">
        <ele>209.36</ele>
        <time>2018-02-28T12:46:59Z</time>
      </trkpt>
      <trkpt lat="47.69338" lon="6.03807">
        <ele>209.31</ele>
        <time>2018-02-28T12:47:01Z</time>
      </trkpt>
      <trkpt lat="47.69343" lon="6.03808">
        <ele>209.28</ele>
        <time>2018-02-28T12:47:02Z</time>
      </trkpt>
      <trkpt lat="47.69348" lon="6.03808">
        <ele>209.25</ele>
        <time>2018-02-28T12:47:03Z</time>
      </trkpt>
      <trkpt lat="47.69353" lon="6.03808">
        <ele>209.24</ele>
        <time>2018-02-28T12:47:04Z</time>
      </trkpt>
      <trkpt lat="47.69358" lon="6.03809">
        <ele>209.24</ele>
        <time>2018-02-28T12:47:05Z</time>
      </trkpt>
      <trkpt lat="47.69363" lon="6.03809">
        <ele>209.24</ele>
        <time>2018-02-28T12:47:06Z</time>
      </trkpt>
      <trkpt lat="47.69368" lon="6.03809">
        <ele>209.21</ele>
        <time>2018-02-28T12:47:07Z</time>
      </trkpt>
      <trkpt lat="47.69373" lon="6.03809">
        <ele>209.18</ele>
        <time>2018-02-28T12:47:08Z</time>
      </trkpt>
      <trkpt lat="47.69378" lon="6.0381">
        <ele>209.15</ele>
        <time>2018-02-28T12:47:09Z</time>
      </trkpt>
      <trkpt lat="47.69383" lon="6.0381">
        <ele>209.11</ele>
        <time>2018-02-28T12:47:10Z</time>
      </trkpt>
      <trkpt lat="47.69387" lon="6.0381">
        <ele>209.07</ele>
        <time>2018-02-28T12:47:11Z</time>
      </trkpt>
      <trkpt lat="47.69397" lon="6.03811">
        <ele>208.98</ele>
        <time>2018-02-28T12:47:13Z</time>
      </trkpt>
      <trkpt lat="47.69402" lon="6.03811">
        <ele>208.92</ele>
        <time>2018-02-28T12:47:14Z</time>
      </trkpt>
      <trkpt lat="47.69408" lon="6.03811">
        <ele>208.86</ele>
        <time>2018-02-28T12:47:15Z</time>
      </trkpt>
      <trkpt lat="47.69413" lon="6.03811">
        <ele>208.8</ele>
        <time>2018-02-28T12:47:16Z</time>
      </trkpt>
      <trkpt lat="47.69418" lon="6.03811">
        <ele>208.73</ele>
        <time>2018-02-28T12:47:17Z</time>
      </trkpt>
      <trkpt lat="47.69423" lon="6.03812">
        <ele>208.66</ele>
        <time>2018-02-28T12:47:18Z</time>
      </trkpt>
      <trkpt lat="47.69429" lon="6.03812">
        <ele>208.6</ele>
        <time>2018-02-28T12:47:19Z</time>
      </trkpt>
      <trkpt lat="47.69434" lon="6.03812">
        <ele>208.54</ele>
        <time>2018-02-28T12:47:20Z</time>
      </trkpt>
      <trkpt lat="47.69439" lon="6.03812">
        <ele>208.48</ele>
        <time>2018-02-28T12:47:21Z</time>
      </trkpt>
      <trkpt lat="47.69444" lon="6.03812">
        <ele>208.41</ele>
        <time>2018-02-28T12:47:22Z</time>
      </trkpt>
      <trkpt lat="47.69453" lon="6.03812">
        <ele>208.26</ele>
        <time>2018-02-28T12:47:24Z</time>
      </trkpt>
      <trkpt lat="47.69462" lon="6.03813">
        <ele>208.19</ele>
        <time>2018-02-28T12:47:26Z</time>
      </trkpt>
      <trkpt lat="47.69467" lon="6.03814">
        <ele>208.15</ele>
        <time>2018-02-28T12:47:27Z</time>
      </trkpt>
      <trkpt lat="47.69471" lon="6.03815">
        <ele>208.12</ele>
        <time>2018-02-28T12:47:28Z</time>
      </trkpt>
      <trkpt lat="47.6948" lon="6.03816">
        <ele>208.06</ele>
        <time>2018-02-28T12:47:30Z</time>
      </trkpt>
      <trkpt lat="47.69485" lon="6.03817">
        <ele>208.02</ele>
        <time>2018-02-28T12:47:31Z</time>
      </trkpt>
      <trkpt lat="47.69489" lon="6.03818">
        <ele>207.94</ele>
        <time>2018-02-28T12:47:32Z</time>
      </trkpt>
      <trkpt lat="47.69494" lon="6.03818">
        <ele>207.87</ele>
        <time>2018-02-28T12:47:33Z</time>
      </trkpt>
      <trkpt lat="47.69499" lon="6.03819">
        <ele>207.82</ele>
        <time>2018-02-28T12:47:34Z</time>
      </trkpt>
      <trkpt lat="47.69503" lon="6.03819">
        <ele>207.77</ele>
        <time>2018-02-28T12:47:35Z</time>
      </trkpt>
      <trkpt lat="47.69508" lon="6.0382">
        <ele>207.71</ele>
        <time>2018-02-28T12:47:36Z</time>
      </trkpt>
      <trkpt lat="47.69517" lon="6.03821">
        <ele>207.64</ele>
        <time>2018-02-28T12:47:38Z</time>
      </trkpt>
      <trkpt lat="47.69522" lon="6.03821">
        <ele>207.61</ele>
        <time>2018-02-28T12:47:39Z</time>
      </trkpt>
      <trkpt lat="47.69526" lon="6.03822">
        <ele>207.58</ele>
        <time>2018-02-28T12:47:40Z</time>
      </trkpt>
      <trkpt lat="47.69531" lon="6.03823">
        <ele>207.54</ele>
        <time>2018-02-28T12:47:41Z</time>
      </trkpt>
      <trkpt lat="47.69535" lon="6.03823">
        <ele>207.51</ele>
        <time>2018-02-28T12:47:42Z</time>
      </trkpt>
      <trkpt lat="47.6954" lon="6.03824">
        <ele>207.48</ele>
        <time>2018-02-28T12:47:43Z</time>
      </trkpt>
      <trkpt lat="47.69545" lon="6.03825">
        <ele>207.44</ele>
        <time>2018-02-28T12:47:44Z</time>
      </trkpt>
      <trkpt lat="47.69551" lon="6.03825">
        <ele>207.41</ele>
        <time>2018-02-28T12:47:45Z</time>
      </trkpt>
      <trkpt lat="47.69556" lon="6.03826">
        <ele>207.39</ele>
        <time>2018-02-28T12:47:46Z</time>
      </trkpt>
      <trkpt lat="47.69561" lon="6.03826">
        <ele>207.35</ele>
        <time>2018-02-28T12:47:47Z</time>
      </trkpt>
      <trkpt lat="47.69566" lon="6.03827">
        <ele>207.31</ele>
        <time>2018-02-28T12:47:48Z</time>
      </trkpt>
      <trkpt lat="47.69571" lon="6.03828">
        <ele>207.28</ele>
        <time>2018-02-28T12:47:49Z</time>
      </trkpt>
      <trkpt lat="47.69576" lon="6.03828">
        <ele>207.23</ele>
        <time>2018-02-28T12:47:50Z</time>
      </trkpt>
      <trkpt lat="47.6958" lon="6.03829">
        <ele>207.2</ele>
        <time>2018-02-28T12:47:51Z</time>
      </trkpt>
      <trkpt lat="47.69585" lon="6.0383">
        <ele>207.2</ele>
        <time>2018-02-28T12:47:52Z</time>
      </trkpt>
      <trkpt lat="47.6959" lon="6.0383">
        <ele>207.19</ele>
        <time>2018-02-28T12:47:53Z</time>
      </trkpt>
      <trkpt lat="47.69595" lon="6.0383">
        <ele>207.17</ele>
        <time>2018-02-28T12:47:54Z</time>
      </trkpt>
      <trkpt lat="47.69599" lon="6.03831">
        <ele>207.17</ele>
        <time>2018-02-28T12:47:55Z</time>
      </trkpt>
      <trkpt lat="47.69604" lon="6.03831">
        <ele>207.19</ele>
        <time>2018-02-28T12:47:56Z</time>
      </trkpt>
      <trkpt lat="47.69613" lon="6.03831">
        <ele>207.22</ele>
        <time>2018-02-28T12:47:58Z</time>
      </trkpt>
      <trkpt lat="47.69621" lon="6.03832">
        <ele>207.13</ele>
        <time>2018-02-28T12:48:00Z</time>
      </trkpt>
      <trkpt lat="47.6963" lon="6.03831">
        <ele>206.91</ele>
        <time>2018-02-28T12:48:02Z</time>
      </trkpt>
      <trkpt lat="47.69635" lon="6.03831">
        <ele>206.83</ele>
        <time>2018-02-28T12:48:03Z</time>
      </trkpt>
      <trkpt lat="47.6964" lon="6.03831">
        <ele>206.76</ele>
        <time>2018-02-28T12:48:04Z</time>
      </trkpt>
      <trkpt lat="47.69644" lon="6.0383">
        <ele>206.71</ele>
        <time>2018-02-28T12:48:05Z</time>
      </trkpt>
      <trkpt lat="47.69649" lon="6.0383">
        <ele>206.68</ele>
        <time>2018-02-28T12:48:06Z</time>
      </trkpt>
      <trkpt lat="47.69653" lon="6.0383">
        <ele>206.67</ele>
        <time>2018-02-28T12:48:07Z</time>
      </trkpt>
      <trkpt lat="47.69658" lon="6.03829">
        <ele>206.68</ele>
        <time>2018-02-28T12:48:08Z</time>
      </trkpt>
      <trkpt lat="47.69667" lon="6.03828">
        <ele>206.8</ele>
        <time>2018-02-28T12:48:10Z</time>
      </trkpt>
      <trkpt lat="47.69675" lon="6.03826">
        <ele>207</ele>
        <time>2018-02-28T12:48:12Z</time>
      </trkpt>
      <trkpt lat="47.69684" lon="6.03825">
        <ele>207.17</ele>
        <time>2018-02-28T12:48:14Z</time>
      </trkpt>
      <trkpt lat="47.69692" lon="6.03824">
        <ele>207.34</ele>
        <time>2018-02-28T12:48:16Z</time>
      </trkpt>
      <trkpt lat="47.69701" lon="6.03822">
        <ele>207.53</ele>
        <time>2018-02-28T12:48:18Z</time>
      </trkpt>
      <trkpt lat="47.69706" lon="6.03821">
        <ele>207.63</ele>
        <time>2018-02-28T12:48:19Z</time>
      </trkpt>
      <trkpt lat="47.6971" lon="6.0382">
        <ele>207.77</ele>
        <time>2018-02-28T12:48:20Z</time>
      </trkpt>
      <trkpt lat="47.69715" lon="6.03819">
        <ele>207.91</ele>
        <time>2018-02-28T12:48:21Z</time>
      </trkpt>
      <trkpt lat="47.6972" lon="6.03817">
        <ele>208.05</ele>
        <time>2018-02-28T12:48:22Z</time>
      </trkpt>
      <trkpt lat="47.69725" lon="6.03816">
        <ele>208.19</ele>
        <time>2018-02-28T12:48:23Z</time>
      </trkpt>
      <trkpt lat="47.69729" lon="6.03815">
        <ele>208.32</ele>
        <time>2018-02-28T12:48:24Z</time>
      </trkpt>
      <trkpt lat="47.69738" lon="6.03813">
        <ele>208.56</ele>
        <time>2018-02-28T12:48:26Z</time>
      </trkpt>
      <trkpt lat="47.69747" lon="6.03811">
        <ele>208.79</ele>
        <time>2018-02-28T12:48:28Z</time>
      </trkpt>
      <trkpt lat="47.69755" lon="6.03809">
        <ele>208.98</ele>
        <time>2018-02-28T12:48:30Z</time>
      </trkpt>
      <trkpt lat="47.69763" lon="6.03806">
        <ele>209.13</ele>
        <time>2018-02-28T12:48:32Z</time>
      </trkpt>
      <trkpt lat="47.69771" lon="6.03803">
        <ele>209.27</ele>
        <time>2018-02-28T12:48:34Z</time>
      </trkpt>
      <trkpt lat="47.6978" lon="6.038">
        <ele>209.42</ele>
        <time>2018-02-28T12:48:36Z</time>
      </trkpt>
      <trkpt lat="47.69788" lon="6.03797">
        <ele>209.58</ele>
        <time>2018-02-28T12:48:38Z</time>
      </trkpt>
      <trkpt lat="47.69795" lon="6.03794">
        <ele>209.73</ele>
        <time>2018-02-28T12:48:40Z</time>
      </trkpt>
      <trkpt lat="47.69803" lon="6.03791">
        <ele>209.85</ele>
        <time>2018-02-28T12:48:42Z</time>
      </trkpt>
      <trkpt lat="47.69811" lon="6.03787">
        <ele>209.95</ele>
        <time>2018-02-28T12:48:44Z</time>
      </trkpt>
      <trkpt lat="47.69818" lon="6.03784">
        <ele>210.02</ele>
        <time>2018-02-28T12:48:46Z</time>
      </trkpt>
      <trkpt lat="47.69825" lon="6.03781">
        <ele>210.04</ele>
        <time>2018-02-28T12:48:48Z</time>
      </trkpt>
      <trkpt lat="47.69832" lon="6.03779">
        <ele>210.05</ele>
        <time>2018-02-28T12:48:50Z</time>
      </trkpt>
      <trkpt lat="47.6984" lon="6.03776">
        <ele>210.06</ele>
        <time>2018-02-28T12:48:52Z</time>
      </trkpt>
      <trkpt lat="47.69847" lon="6.03773">
        <ele>210.07</ele>
        <time>2018-02-28T12:48:54Z</time>
      </trkpt>
      <trkpt lat="47.69853" lon="6.03771">
        <ele>210.08</ele>
        <time>2018-02-28T12:48:56Z</time>
      </trkpt>
      <trkpt lat="47.6986" lon="6.03767">
        <ele>210.09</ele>
        <time>2018-02-28T12:48:58Z</time>
      </trkpt>
      <trkpt lat="47.69867" lon="6.03765">
        <ele>210.13</ele>
        <time>2018-02-28T12:49:00Z</time>
      </trkpt>
      <trkpt lat="47.69875" lon="6.03761">
        <ele>210.18</ele>
        <time>2018-02-28T12:49:02Z</time>
      </trkpt>
      <trkpt lat="47.69883" lon="6.03758">
        <ele>210.2</ele>
        <time>2018-02-28T12:49:04Z</time>
      </trkpt>
      <trkpt lat="47.69892" lon="6.03755">
        <ele>210.19</ele>
        <time>2018-02-28T12:49:06Z</time>
      </trkpt>
      <trkpt lat="47.69897" lon="6.03753">
        <ele>210.19</ele>
        <time>2018-02-28T12:49:07Z</time>
      </trkpt>
      <trkpt lat="47.69901" lon="6.03751">
        <ele>210.17</ele>
        <time>2018-02-28T12:49:08Z</time>
      </trkpt>
      <trkpt lat="47.69906" lon="6.0375">
        <ele>210.16</ele>
        <time>2018-02-28T12:49:09Z</time>
      </trkpt>
      <trkpt lat="47.69911" lon="6.03748">
        <ele>210.14</ele>
        <time>2018-02-28T12:49:10Z</time>
      </trkpt>
      <trkpt lat="47.69915" lon="6.03746">
        <ele>210.12</ele>
        <time>2018-02-28T12:49:11Z</time>
      </trkpt>
      <trkpt lat="47.6992" lon="6.03745">
        <ele>210.1</ele>
        <time>2018-02-28T12:49:12Z</time>
      </trkpt>
      <trkpt lat="47.69924" lon="6.03743">
        <ele>210.07</ele>
        <time>2018-02-28T12:49:13Z</time>
      </trkpt>
      <trkpt lat="47.69929" lon="6.03741">
        <ele>210.05</ele>
        <time>2018-02-28T12:49:14Z</time>
      </trkpt>
      <trkpt lat="47.69937" lon="6.03736">
        <ele>210.02</ele>
        <time>2018-02-28T12:49:16Z</time>
      </trkpt>
      <trkpt lat="47.69945" lon="6.03733">
        <ele>209.98</ele>
        <time>2018-02-28T12:49:18Z</time>
      </trkpt>
      <trkpt lat="47.69953" lon="6.03729">
        <ele>209.97</ele>
        <time>2018-02-28T12:49:20Z</time>
      </trkpt>
      <trkpt lat="47.6996" lon="6.03725">
        <ele>209.96</ele>
        <time>2018-02-28T12:49:22Z</time>
      </trkpt>
      <trkpt lat="47.69967" lon="6.0372">
        <ele>209.95</ele>
        <time>2018-02-28T12:49:24Z</time>
      </trkpt>
      <trkpt lat="47.69974" lon="6.03714">
        <ele>209.92</ele>
        <time>2018-02-28T12:49:26Z</time>
      </trkpt>
      <trkpt lat="47.69981" lon="6.03709">
        <ele>209.88</ele>
        <time>2018-02-28T12:49:28Z</time>
      </trkpt>
      <trkpt lat="47.69988" lon="6.03703">
        <ele>209.86</ele>
        <time>2018-02-28T12:49:30Z</time>
      </trkpt>
      <trkpt lat="47.69996" lon="6.03699">
        <ele>209.85</ele>
        <time>2018-02-28T12:49:32Z</time>
      </trkpt>
      <trkpt lat="47.70004" lon="6.03694">
        <ele>209.85</ele>
        <time>2018-02-28T12:49:34Z</time>
      </trkpt>
      <trkpt lat="47.7001" lon="6.03683">
        <ele>209.86</ele>
        <time>2018-02-28T12:49:36Z</time>
      </trkpt>
      <trkpt lat="47.70013" lon="6.03673">
        <ele>209.87</ele>
        <time>2018-02-28T12:49:38Z</time>
      </trkpt>
      <trkpt lat="47.70018" lon="6.03665">
        <ele>209.88</ele>
        <time>2018-02-28T12:49:40Z</time>
      </trkpt>
      <trkpt lat="47.70023" lon="6.03659">
        <ele>209.9</ele>
        <time>2018-02-28T12:49:42Z</time>
      </trkpt>
      <trkpt lat="47.70028" lon="6.03652">
        <ele>209.91</ele>
        <time>2018-02-28T12:49:44Z</time>
      </trkpt>
      <trkpt lat="47.70032" lon="6.03645">
        <ele>209.94</ele>
        <time>2018-02-28T12:49:46Z</time>
      </trkpt>
      <trkpt lat="47.70036" lon="6.03639">
        <ele>209.97</ele>
        <time>2018-02-28T12:49:48Z</time>
      </trkpt>
      <trkpt lat="47.7004" lon="6.03633">
        <ele>210</ele>
        <time>2018-02-28T12:49:50Z</time>
      </trkpt>
      <trkpt lat="47.70044" lon="6.03625">
        <ele>210.03</ele>
        <time>2018-02-28T12:49:52Z</time>
      </trkpt>
      <trkpt lat="47.70049" lon="6.03616">
        <ele>210.06</ele>
        <time>2018-02-28T12:49:54Z</time>
      </trkpt>
      <trkpt lat="47.70053" lon="6.03609">
        <ele>210.09</ele>
        <time>2018-02-28T12:49:56Z</time>
      </trkpt>
      <trkpt lat="47.70057" lon="6.036">
        <ele>210.12</ele>
        <time>2018-02-28T12:49:58Z</time>
      </trkpt>
      <trkpt lat="47.70061" lon="6.03592">
        <ele>210.15</ele>
        <time>2018-02-28T12:50:00Z</time>
      </trkpt>
      <trkpt lat="47.70064" lon="6.03584">
        <ele>210.18</ele>
        <time>2018-02-28T12:50:02Z</time>
      </trkpt>
      <trkpt lat="47.70067" lon="6.03575">
        <ele>210.21</ele>
        <time>2018-02-28T12:50:04Z</time>
      </trkpt>
      <trkpt lat="47.7007" lon="6.03567">
        <ele>210.24</ele>
        <time>2018-02-28T12:50:06Z</time>
      </trkpt>
      <trkpt lat="47.70072" lon="6.0356">
        <ele>210.26</ele>
        <time>2018-02-28T12:50:08Z</time>
      </trkpt>
      <trkpt lat="47.70077" lon="6.03554">
        <ele>210.3</ele>
        <time>2018-02-28T12:50:11Z</time>
      </trkpt>
      <trkpt lat="47.70078" lon="6.03547">
        <ele>210.34</ele>
        <time>2018-02-28T12:50:14Z</time>
      </trkpt>
      <trkpt lat="47.70078" lon="6.03539">
        <ele>210.36</ele>
        <time>2018-02-28T12:50:16Z</time>
      </trkpt>
      <trkpt lat="47.70079" lon="6.0353">
        <ele>210.38</ele>
        <time>2018-02-28T12:50:18Z</time>
      </trkpt>
      <trkpt lat="47.70082" lon="6.0352">
        <ele>210.47</ele>
        <time>2018-02-28T12:50:20Z</time>
      </trkpt>
      <trkpt lat="47.70084" lon="6.03508">
        <ele>210.51</ele>
        <time>2018-02-28T12:50:22Z</time>
      </trkpt>
      <trkpt lat="47.70086" lon="6.03498">
        <ele>210.57</ele>
        <time>2018-02-28T12:50:24Z</time>
      </trkpt>
      <trkpt lat="47.70088" lon="6.03487">
        <ele>210.62</ele>
        <time>2018-02-28T12:50:26Z</time>
      </trkpt>
      <trkpt lat="47.70089" lon="6.03476">
        <ele>210.64</ele>
        <time>2018-02-28T12:50:28Z</time>
      </trkpt>
      <trkpt lat="47.70089" lon="6.03466">
        <ele>210.65</ele>
        <time>2018-02-28T12:50:30Z</time>
      </trkpt>
      <trkpt lat="47.7009" lon="6.03456">
        <ele>210.65</ele>
        <time>2018-02-28T12:50:32Z</time>
      </trkpt>
      <trkpt lat="47.7009" lon="6.03447">
        <ele>210.66</ele>
        <time>2018-02-28T12:50:34Z</time>
      </trkpt>
      <trkpt lat="47.70091" lon="6.03436">
        <ele>210.66</ele>
        <time>2018-02-28T12:50:36Z</time>
      </trkpt>
      <trkpt lat="47.7009" lon="6.03426">
        <ele>210.66</ele>
        <time>2018-02-28T12:50:38Z</time>
      </trkpt>
      <trkpt lat="47.7009" lon="6.03417">
        <ele>210.66</ele>
        <time>2018-02-28T12:50:40Z</time>
      </trkpt>
      <trkpt lat="47.7009" lon="6.03406">
        <ele>210.66</ele>
        <time>2018-02-28T12:50:42Z</time>
      </trkpt>
      <trkpt lat="47.70089" lon="6.03397">
        <ele>210.67</ele>
        <time>2018-02-28T12:50:44Z</time>
      </trkpt>
      <trkpt lat="47.70089" lon="6.03388">
        <ele>210.67</ele>
        <time>2018-02-28T12:50:46Z</time>
      </trkpt>
      <trkpt lat="47.70088" lon="6.03378">
        <ele>210.67</ele>
        <time>2018-02-28T12:50:48Z</time>
      </trkpt>
      <trkpt lat="47.70088" lon="6.03369">
        <ele>210.68</ele>
        <time>2018-02-28T12:50:50Z</time>
      </trkpt>
      <trkpt lat="47.70088" lon="6.0336">
        <ele>210.68</ele>
        <time>2018-02-28T12:50:52Z</time>
      </trkpt>
      <trkpt lat="47.70088" lon="6.03352">
        <ele>210.69</ele>
        <time>2018-02-28T12:50:54Z</time>
      </trkpt>
      <trkpt lat="47.70088" lon="6.03345">
        <ele>210.69</ele>
        <time>2018-02-28T12:50:56Z</time>
      </trkpt>
      <trkpt lat="47.70089" lon="6.03334">
        <ele>210.7</ele>
        <time>2018-02-28T12:50:59Z</time>
      </trkpt>
      <trkpt lat="47.70089" lon="6.03325">
        <ele>210.71</ele>
        <time>2018-02-28T12:51:01Z</time>
      </trkpt>
      <trkpt lat="47.70089" lon="6.03316">
        <ele>210.73</ele>
        <time>2018-02-28T12:51:03Z</time>
      </trkpt>
      <trkpt lat="47.70087" lon="6.03306">
        <ele>210.75</ele>
        <time>2018-02-28T12:51:05Z</time>
      </trkpt>
      <trkpt lat="47.70086" lon="6.03298">
        <ele>210.77</ele>
        <time>2018-02-28T12:51:07Z</time>
      </trkpt>
      <trkpt lat="47.70086" lon="6.0329">
        <ele>210.8</ele>
        <time>2018-02-28T12:51:09Z</time>
      </trkpt>
      <trkpt lat="47.70085" lon="6.03281">
        <ele>210.84</ele>
        <time>2018-02-28T12:51:11Z</time>
      </trkpt>
      <trkpt lat="47.70086" lon="6.03272">
        <ele>210.89</ele>
        <time>2018-02-28T12:51:14Z</time>
      </trkpt>
      <trkpt lat="47.70084" lon="6.0326">
        <ele>210.94</ele>
        <time>2018-02-28T12:51:17Z</time>
      </trkpt>
      <trkpt lat="47.70084" lon="6.03251">
        <ele>210.98</ele>
        <time>2018-02-28T12:51:19Z</time>
      </trkpt>
      <trkpt lat="47.70084" lon="6.03244">
        <ele>211.02</ele>
        <time>2018-02-28T12:51:21Z</time>
      </trkpt>
      <trkpt lat="47.70084" lon="6.03237">
        <ele>211.06</ele>
        <time>2018-02-28T12:51:23Z</time>
      </trkpt>
      <trkpt lat="47.70085" lon="6.03229">
        <ele>211.1</ele>
        <time>2018-02-28T12:51:25Z</time>
      </trkpt>
      <trkpt lat="47.70086" lon="6.03221">
        <ele>211.14</ele>
        <time>2018-02-28T12:51:27Z</time>
      </trkpt>
      <trkpt lat="47.70086" lon="6.03213">
        <ele>211.18</ele>
        <time>2018-02-28T12:51:29Z</time>
      </trkpt>
      <trkpt lat="47.70086" lon="6.03205">
        <ele>211.2</ele>
        <time>2018-02-28T12:51:30Z</time>
      </trkpt>
      <trkpt lat="47.70086" lon="6.03198">
        <ele>211.23</ele>
        <time>2018-02-28T12:51:32Z</time>
      </trkpt>
      <trkpt lat="47.70085" lon="6.03191">
        <ele>211.25</ele>
        <time>2018-02-28T12:51:33Z</time>
      </trkpt>
      <trkpt lat="47.70085" lon="6.0318">
        <ele>211.29</ele>
        <time>2018-02-28T12:51:35Z</time>
      </trkpt>
      <trkpt lat="47.70086" lon="6.03172">
        <ele>211.34</ele>
        <time>2018-02-28T12:51:37Z</time>
      </trkpt>
      <trkpt lat="47.70086" lon="6.03164">
        <ele>211.39</ele>
        <time>2018-02-28T12:51:39Z</time>
      </trkpt>
      <trkpt lat="47.70088" lon="6.03156">
        <ele>211.43</ele>
        <time>2018-02-28T12:51:41Z</time>
      </trkpt>
      <trkpt lat="47.70089" lon="6.03148">
        <ele>211.48</ele>
        <time>2018-02-28T12:51:43Z</time>
      </trkpt>
      <trkpt lat="47.7009" lon="6.0314">
        <ele>211.52</ele>
        <time>2018-02-28T12:51:45Z</time>
      </trkpt>
      <trkpt lat="47.70091" lon="6.03131">
        <ele>211.56</ele>
        <time>2018-02-28T12:51:47Z</time>
      </trkpt>
      <trkpt lat="47.70093" lon="6.03123">
        <ele>211.6</ele>
        <time>2018-02-28T12:51:49Z</time>
      </trkpt>
      <trkpt lat="47.70096" lon="6.03114">
        <ele>211.63</ele>
        <time>2018-02-28T12:51:51Z</time>
      </trkpt>
      <trkpt lat="47.70098" lon="6.03104">
        <ele>211.68</ele>
        <time>2018-02-28T12:51:53Z</time>
      </trkpt>
      <trkpt lat="47.70098" lon="6.03094">
        <ele>211.72</ele>
        <time>2018-02-28T12:51:55Z</time>
      </trkpt>
      <trkpt lat="47.70099" lon="6.03085">
        <ele>211.77</ele>
        <time>2018-02-28T12:51:57Z</time>
      </trkpt>
      <trkpt lat="47.70101" lon="6.03074">
        <ele>211.94</ele>
        <time>2018-02-28T12:51:59Z</time>
      </trkpt>
      <trkpt lat="47.70103" lon="6.03063">
        <ele>212.26</ele>
        <time>2018-02-28T12:52:01Z</time>
      </trkpt>
      <trkpt lat="47.70105" lon="6.03051">
        <ele>212.47</ele>
        <time>2018-02-28T12:52:03Z</time>
      </trkpt>
      <trkpt lat="47.70107" lon="6.03039">
        <ele>212.61</ele>
        <time>2018-02-28T12:52:05Z</time>
      </trkpt>
      <trkpt lat="47.7011" lon="6.03021">
        <ele>212.7</ele>
        <time>2018-02-28T12:52:08Z</time>
      </trkpt>
      <trkpt lat="47.70111" lon="6.03009">
        <ele>212.74</ele>
        <time>2018-02-28T12:52:10Z</time>
      </trkpt>
      <trkpt lat="47.70114" lon="6.02996">
        <ele>212.75</ele>
        <time>2018-02-28T12:52:12Z</time>
      </trkpt>
      <trkpt lat="47.70114" lon="6.02989">
        <ele>212.77</ele>
        <time>2018-02-28T12:52:13Z</time>
      </trkpt>
      <trkpt lat="47.70116" lon="6.02976">
        <ele>212.79</ele>
        <time>2018-02-28T12:52:15Z</time>
      </trkpt>
      <trkpt lat="47.70118" lon="6.02969">
        <ele>212.82</ele>
        <time>2018-02-28T12:52:16Z</time>
      </trkpt>
      <trkpt lat="47.7012" lon="6.02963">
        <ele>212.84</ele>
        <time>2018-02-28T12:52:17Z</time>
      </trkpt>
      <trkpt lat="47.70123" lon="6.02951">
        <ele>212.9</ele>
        <time>2018-02-28T12:52:19Z</time>
      </trkpt>
      <trkpt lat="47.70127" lon="6.0294">
        <ele>212.96</ele>
        <time>2018-02-28T12:52:21Z</time>
      </trkpt>
      <trkpt lat="47.70132" lon="6.02928">
        <ele>213.01</ele>
        <time>2018-02-28T12:52:23Z</time>
      </trkpt>
      <trkpt lat="47.70134" lon="6.02921">
        <ele>213.04</ele>
        <time>2018-02-28T12:52:24Z</time>
      </trkpt>
      <trkpt lat="47.70138" lon="6.02916">
        <ele>213.06</ele>
        <time>2018-02-28T12:52:25Z</time>
      </trkpt>
      <trkpt lat="47.70141" lon="6.02911">
        <ele>213.08</ele>
        <time>2018-02-28T12:52:26Z</time>
      </trkpt>
      <trkpt lat="47.70144" lon="6.02906">
        <ele>213.09</ele>
        <time>2018-02-28T12:52:27Z</time>
      </trkpt>
      <trkpt lat="47.70147" lon="6.02901">
        <ele>213.11</ele>
        <time>2018-02-28T12:52:28Z</time>
      </trkpt>
      <trkpt lat="47.70153" lon="6.02892">
        <ele>213.14</ele>
        <time>2018-02-28T12:52:30Z</time>
      </trkpt>
      <trkpt lat="47.70158" lon="6.02882">
        <ele>213.17</ele>
        <time>2018-02-28T12:52:32Z</time>
      </trkpt>
      <trkpt lat="47.70164" lon="6.02872">
        <ele>213.2</ele>
        <time>2018-02-28T12:52:34Z</time>
      </trkpt>
      <trkpt lat="47.70169" lon="6.02862">
        <ele>213.22</ele>
        <time>2018-02-28T12:52:36Z</time>
      </trkpt>
      <trkpt lat="47.70174" lon="6.0285">
        <ele>213.25</ele>
        <time>2018-02-28T12:52:38Z</time>
      </trkpt>
      <trkpt lat="47.70177" lon="6.02845">
        <ele>213.26</ele>
        <time>2018-02-28T12:52:39Z</time>
      </trkpt>
      <trkpt lat="47.70179" lon="6.02839">
        <ele>213.27</ele>
        <time>2018-02-28T12:52:40Z</time>
      </trkpt>
      <trkpt lat="47.70181" lon="6.02833">
        <ele>213.29</ele>
        <time>2018-02-28T12:52:41Z</time>
      </trkpt>
      <trkpt lat="47.70185" lon="6.02822">
        <ele>213.29</ele>
        <time>2018-02-28T12:52:43Z</time>
      </trkpt>
      <trkpt lat="47.70188" lon="6.02813">
        <ele>213.31</ele>
        <time>2018-02-28T12:52:45Z</time>
      </trkpt>
      <trkpt lat="47.70191" lon="6.02803">
        <ele>213.34</ele>
        <time>2018-02-28T12:52:47Z</time>
      </trkpt>
      <trkpt lat="47.70195" lon="6.02794">
        <ele>213.35</ele>
        <time>2018-02-28T12:52:49Z</time>
      </trkpt>
      <trkpt lat="47.70199" lon="6.02784">
        <ele>213.36</ele>
        <time>2018-02-28T12:52:51Z</time>
      </trkpt>
      <trkpt lat="47.70203" lon="6.02775">
        <ele>213.37</ele>
        <time>2018-02-28T12:52:53Z</time>
      </trkpt>
      <trkpt lat="47.70207" lon="6.02767">
        <ele>213.39</ele>
        <time>2018-02-28T12:52:55Z</time>
      </trkpt>
      <trkpt lat="47.7021" lon="6.02759">
        <ele>213.41</ele>
        <time>2018-02-28T12:52:57Z</time>
      </trkpt>
      <trkpt lat="47.70213" lon="6.02752">
        <ele>213.43</ele>
        <time>2018-02-28T12:52:59Z</time>
      </trkpt>
      <trkpt lat="47.70216" lon="6.02745">
        <ele>213.46</ele>
        <time>2018-02-28T12:53:01Z</time>
      </trkpt>
      <trkpt lat="47.70219" lon="6.02738">
        <ele>213.48</ele>
        <time>2018-02-28T12:53:03Z</time>
      </trkpt>
      <trkpt lat="47.70222" lon="6.02732">
        <ele>213.51</ele>
        <time>2018-02-28T12:53:05Z</time>
      </trkpt>
      <trkpt lat="47.70224" lon="6.02725">
        <ele>213.54</ele>
        <time>2018-02-28T12:53:07Z</time>
      </trkpt>
      <trkpt lat="47.70227" lon="6.02719">
        <ele>213.57</ele>
        <time>2018-02-28T12:53:09Z</time>
      </trkpt>
      <trkpt lat="47.70231" lon="6.02712">
        <ele>213.6</ele>
        <time>2018-02-28T12:53:11Z</time>
      </trkpt>
      <trkpt lat="47.70234" lon="6.02705">
        <ele>213.62</ele>
        <time>2018-02-28T12:53:13Z</time>
      </trkpt>
      <trkpt lat="47.70237" lon="6.02697">
        <ele>213.65</ele>
        <time>2018-02-28T12:53:15Z</time>
      </trkpt>
      <trkpt lat="47.70239" lon="6.0269">
        <ele>213.67</ele>
        <time>2018-02-28T12:53:17Z</time>
      </trkpt>
      <trkpt lat="47.70244" lon="6.02682">
        <ele>213.7</ele>
        <time>2018-02-28T12:53:19Z</time>
      </trkpt>
      <trkpt lat="47.70248" lon="6.02675">
        <ele>213.72</ele>
        <time>2018-02-28T12:53:21Z</time>
      </trkpt>
      <trkpt lat="47.70252" lon="6.02667">
        <ele>213.75</ele>
        <time>2018-02-28T12:53:23Z</time>
      </trkpt>
      <trkpt lat="47.70256" lon="6.0266">
        <ele>213.77</ele>
        <time>2018-02-28T12:53:25Z</time>
      </trkpt>
      <trkpt lat="47.70261" lon="6.02653">
        <ele>213.8</ele>
        <time>2018-02-28T12:53:27Z</time>
      </trkpt>
      <trkpt lat="47.70266" lon="6.02646">
        <ele>213.82</ele>
        <time>2018-02-28T12:53:29Z</time>
      </trkpt>
      <trkpt lat="47.70271" lon="6.02639">
        <ele>213.86</ele>
        <time>2018-02-28T12:53:31Z</time>
      </trkpt>
      <trkpt lat="47.70275" lon="6.02632">
        <ele>213.89</ele>
        <time>2018-02-28T12:53:33Z</time>
      </trkpt>
      <trkpt lat="47.70281" lon="6.02627">
        <ele>213.93</ele>
        <time>2018-02-28T12:53:35Z</time>
      </trkpt>
      <trkpt lat="47.70287" lon="6.02621">
        <ele>213.97</ele>
        <time>2018-02-28T12:53:37Z</time>
      </trkpt>
      <trkpt lat="47.70293" lon="6.02615">
        <ele>214.01</ele>
        <time>2018-02-28T12:53:39Z</time>
      </trkpt>
      <trkpt lat="47.70298" lon="6.02609">
        <ele>214.05</ele>
        <time>2018-02-28T12:53:41Z</time>
      </trkpt>
      <trkpt lat="47.70304" lon="6.02602">
        <ele>214.1</ele>
        <time>2018-02-28T12:53:43Z</time>
      </trkpt>
      <trkpt lat="47.70308" lon="6.02596">
        <ele>214.15</ele>
        <time>2018-02-28T12:53:45Z</time>
      </trkpt>
      <trkpt lat="47.70312" lon="6.0259">
        <ele>214.2</ele>
        <time>2018-02-28T12:53:47Z</time>
      </trkpt>
      <trkpt lat="47.70315" lon="6.02584">
        <ele>214.24</ele>
        <time>2018-02-28T12:53:49Z</time>
      </trkpt>
      <trkpt lat="47.70319" lon="6.0258">
        <ele>214.29</ele>
        <time>2018-02-28T12:53:51Z</time>
      </trkpt>
      <trkpt lat="47.70322" lon="6.02575">
        <ele>214.34</ele>
        <time>2018-02-28T12:53:53Z</time>
      </trkpt>
      <trkpt lat="47.70327" lon="6.0257">
        <ele>214.38</ele>
        <time>2018-02-28T12:53:55Z</time>
      </trkpt>
      <trkpt lat="47.70332" lon="6.02564">
        <ele>214.42</ele>
        <time>2018-02-28T12:53:57Z</time>
      </trkpt>
      <trkpt lat="47.70338" lon="6.02557">
        <ele>214.47</ele>
        <time>2018-02-28T12:53:59Z</time>
      </trkpt>
      <trkpt lat="47.70344" lon="6.02551">
        <ele>214.51</ele>
        <time>2018-02-28T12:54:01Z</time>
      </trkpt>
      <trkpt lat="47.70348" lon="6.02547">
        <ele>214.53</ele>
        <time>2018-02-28T12:54:02Z</time>
      </trkpt>
      <trkpt lat="47.70354" lon="6.02542">
        <ele>214.58</ele>
        <time>2018-02-28T12:54:04Z</time>
      </trkpt>
      <trkpt lat="47.70359" lon="6.02536">
        <ele>214.63</ele>
        <time>2018-02-28T12:54:06Z</time>
      </trkpt>
      <trkpt lat="47.70365" lon="6.02531">
        <ele>214.67</ele>
        <time>2018-02-28T12:54:08Z</time>
      </trkpt>
      <trkpt lat="47.70369" lon="6.02527">
        <ele>214.72</ele>
        <time>2018-02-28T12:54:10Z</time>
      </trkpt>
      <trkpt lat="47.70374" lon="6.02523">
        <ele>214.77</ele>
        <time>2018-02-28T12:54:12Z</time>
      </trkpt>
      <trkpt lat="47.70381" lon="6.02519">
        <ele>214.81</ele>
        <time>2018-02-28T12:54:14Z</time>
      </trkpt>
      <trkpt lat="47.70386" lon="6.02514">
        <ele>214.86</ele>
        <time>2018-02-28T12:54:16Z</time>
      </trkpt>
      <trkpt lat="47.70391" lon="6.02508">
        <ele>214.91</ele>
        <time>2018-02-28T12:54:18Z</time>
      </trkpt>
      <trkpt lat="47.70395" lon="6.02503">
        <ele>214.96</ele>
        <time>2018-02-28T12:54:20Z</time>
      </trkpt>
      <trkpt lat="47.70399" lon="6.02497">
        <ele>215.01</ele>
        <time>2018-02-28T12:54:22Z</time>
      </trkpt>
      <trkpt lat="47.70402" lon="6.0249">
        <ele>215.06</ele>
        <time>2018-02-28T12:54:24Z</time>
      </trkpt>
      <trkpt lat="47.70405" lon="6.02483">
        <ele>215.32</ele>
        <time>2018-02-28T12:54:53Z</time>
      </trkpt>
      <trkpt lat="47.7041" lon="6.02477">
        <ele>215.4</ele>
        <time>2018-02-28T12:54:56Z</time>
      </trkpt>
      <trkpt lat="47.70416" lon="6.0247">
        <ele>215.45</ele>
        <time>2018-02-28T12:54:58Z</time>
      </trkpt>
      <trkpt lat="47.70421" lon="6.02465">
        <ele>215.5</ele>
        <time>2018-02-28T12:55:00Z</time>
      </trkpt>
      <trkpt lat="47.70428" lon="6.0246">
        <ele>215.55</ele>
        <time>2018-02-28T12:55:02Z</time>
      </trkpt>
      <trkpt lat="47.70434" lon="6.02454">
        <ele>215.77</ele>
        <time>2018-02-28T12:55:04Z</time>
      </trkpt>
      <trkpt lat="47.70438" lon="6.02451">
        <ele>215.97</ele>
        <time>2018-02-28T12:55:05Z</time>
      </trkpt>
      <trkpt lat="47.70442" lon="6.02447">
        <ele>216.15</ele>
        <time>2018-02-28T12:55:06Z</time>
      </trkpt>
      <trkpt lat="47.70446" lon="6.02444">
        <ele>216.3</ele>
        <time>2018-02-28T12:55:07Z</time>
      </trkpt>
      <trkpt lat="47.7045" lon="6.02441">
        <ele>216.43</ele>
        <time>2018-02-28T12:55:08Z</time>
      </trkpt>
      <trkpt lat="47.70455" lon="6.02438">
        <ele>216.54</ele>
        <time>2018-02-28T12:55:09Z</time>
      </trkpt>
      <trkpt lat="47.70462" lon="6.02431">
        <ele>216.7</ele>
        <time>2018-02-28T12:55:11Z</time>
      </trkpt>
      <trkpt lat="47.70468" lon="6.02424">
        <ele>216.74</ele>
        <time>2018-02-28T12:55:13Z</time>
      </trkpt>
      <trkpt lat="47.70472" lon="6.02417">
        <ele>216.76</ele>
        <time>2018-02-28T12:55:15Z</time>
      </trkpt>
      <trkpt lat="47.70476" lon="6.02413">
        <ele>216.76</ele>
        <time>2018-02-28T12:55:16Z</time>
      </trkpt>
      <trkpt lat="47.7048" lon="6.02407">
        <ele>216.78</ele>
        <time>2018-02-28T12:55:18Z</time>
      </trkpt>
      <trkpt lat="47.70485" lon="6.024">
        <ele>216.8</ele>
        <time>2018-02-28T12:55:20Z</time>
      </trkpt>
      <trkpt lat="47.7049" lon="6.02392">
        <ele>216.81</ele>
        <time>2018-02-28T12:55:22Z</time>
      </trkpt>
      <trkpt lat="47.70494" lon="6.02384">
        <ele>216.84</ele>
        <time>2018-02-28T12:55:24Z</time>
      </trkpt>
      <trkpt lat="47.70499" lon="6.02377">
        <ele>216.86</ele>
        <time>2018-02-28T12:55:26Z</time>
      </trkpt>
      <trkpt lat="47.70505" lon="6.02368">
        <ele>216.89</ele>
        <time>2018-02-28T12:55:28Z</time>
      </trkpt>
      <trkpt lat="47.70509" lon="6.02359">
        <ele>216.92</ele>
        <time>2018-02-28T12:55:30Z</time>
      </trkpt>
      <trkpt lat="47.70514" lon="6.0235">
        <ele>216.96</ele>
        <time>2018-02-28T12:55:32Z</time>
      </trkpt>
      <trkpt lat="47.70518" lon="6.02343">
        <ele>216.99</ele>
        <time>2018-02-28T12:55:34Z</time>
      </trkpt>
      <trkpt lat="47.70522" lon="6.02333">
        <ele>217.03</ele>
        <time>2018-02-28T12:55:36Z</time>
      </trkpt>
      <trkpt lat="47.70525" lon="6.02326">
        <ele>217.07</ele>
        <time>2018-02-28T12:55:38Z</time>
      </trkpt>
      <trkpt lat="47.70529" lon="6.02317">
        <ele>217.12</ele>
        <time>2018-02-28T12:55:40Z</time>
      </trkpt>
      <trkpt lat="47.70532" lon="6.02311">
        <ele>217.18</ele>
        <time>2018-02-28T12:55:42Z</time>
      </trkpt>
      <trkpt lat="47.70535" lon="6.02304">
        <ele>217.25</ele>
        <time>2018-02-28T12:55:44Z</time>
      </trkpt>
      <trkpt lat="47.70535" lon="6.02295">
        <ele>217.37</ele>
        <time>2018-02-28T12:55:47Z</time>
      </trkpt>
      <trkpt lat="47.70537" lon="6.02288">
        <ele>217.46</ele>
        <time>2018-02-28T12:55:49Z</time>
      </trkpt>
      <trkpt lat="47.70543" lon="6.0228">
        <ele>217.55</ele>
        <time>2018-02-28T12:55:51Z</time>
      </trkpt>
      <trkpt lat="47.70549" lon="6.02272">
        <ele>217.65</ele>
        <time>2018-02-28T12:55:53Z</time>
      </trkpt>
      <trkpt lat="47.70554" lon="6.02266">
        <ele>217.75</ele>
        <time>2018-02-28T12:55:55Z</time>
      </trkpt>
      <trkpt lat="47.70559" lon="6.02262">
        <ele>217.85</ele>
        <time>2018-02-28T12:55:57Z</time>
      </trkpt>
      <trkpt lat="47.70564" lon="6.02258">
        <ele>217.95</ele>
        <time>2018-02-28T12:55:59Z</time>
      </trkpt>
      <trkpt lat="47.70569" lon="6.02254">
        <ele>218.05</ele>
        <time>2018-02-28T12:56:01Z</time>
      </trkpt>
      <trkpt lat="47.70574" lon="6.0225">
        <ele>218.14</ele>
        <time>2018-02-28T12:56:03Z</time>
      </trkpt>
      <trkpt lat="47.70582" lon="6.02246">
        <ele>218.24</ele>
        <time>2018-02-28T12:56:05Z</time>
      </trkpt>
      <trkpt lat="47.70592" lon="6.02243">
        <ele>218.33</ele>
        <time>2018-02-28T12:56:07Z</time>
      </trkpt>
      <trkpt lat="47.70596" lon="6.0224">
        <ele>218.42</ele>
        <time>2018-02-28T12:56:09Z</time>
      </trkpt>
      <trkpt lat="47.70603" lon="6.02239">
        <ele>218.51</ele>
        <time>2018-02-28T12:56:11Z</time>
      </trkpt>
      <trkpt lat="47.70608" lon="6.02235">
        <ele>218.59</ele>
        <time>2018-02-28T12:56:13Z</time>
      </trkpt>
      <trkpt lat="47.70612" lon="6.02232">
        <ele>218.62</ele>
        <time>2018-02-28T12:56:14Z</time>
      </trkpt>
      <trkpt lat="47.70618" lon="6.02228">
        <ele>218.7</ele>
        <time>2018-02-28T12:56:16Z</time>
      </trkpt>
      <trkpt lat="47.70621" lon="6.02223">
        <ele>218.77</ele>
        <time>2018-02-28T12:56:18Z</time>
      </trkpt>
      <trkpt lat="47.70624" lon="6.02217">
        <ele>218.84</ele>
        <time>2018-02-28T12:56:20Z</time>
      </trkpt>
      <trkpt lat="47.70628" lon="6.02211">
        <ele>218.94</ele>
        <time>2018-02-28T12:56:23Z</time>
      </trkpt>
      <trkpt lat="47.70632" lon="6.02205">
        <ele>219</ele>
        <time>2018-02-28T12:56:25Z</time>
      </trkpt>
      <trkpt lat="47.70635" lon="6.02197">
        <ele>219.06</ele>
        <time>2018-02-28T12:56:27Z</time>
      </trkpt>
      <trkpt lat="47.7064" lon="6.0219">
        <ele>219.12</ele>
        <time>2018-02-28T12:56:29Z</time>
      </trkpt>
      <trkpt lat="47.70644" lon="6.02182">
        <ele>219.17</ele>
        <time>2018-02-28T12:56:31Z</time>
      </trkpt>
      <trkpt lat="47.70651" lon="6.02176">
        <ele>219.23</ele>
        <time>2018-02-28T12:56:33Z</time>
      </trkpt>
      <trkpt lat="47.70658" lon="6.02167">
        <ele>219.28</ele>
        <time>2018-02-28T12:56:35Z</time>
      </trkpt>
      <trkpt lat="47.70661" lon="6.02162">
        <ele>219.3</ele>
        <time>2018-02-28T12:56:36Z</time>
      </trkpt>
      <trkpt lat="47.70664" lon="6.02157">
        <ele>219.48</ele>
        <time>2018-02-28T12:56:37Z</time>
      </trkpt>
      <trkpt lat="47.70667" lon="6.02151">
        <ele>219.54</ele>
        <time>2018-02-28T12:56:38Z</time>
      </trkpt>
      <trkpt lat="47.7067" lon="6.02144">
        <ele>219.58</ele>
        <time>2018-02-28T12:56:39Z</time>
      </trkpt>
      <trkpt lat="47.70672" lon="6.02137">
        <ele>219.71</ele>
        <time>2018-02-28T12:56:40Z</time>
      </trkpt>
      <trkpt lat="47.70676" lon="6.0213">
        <ele>219.85</ele>
        <time>2018-02-28T12:56:41Z</time>
      </trkpt>
      <trkpt lat="47.70679" lon="6.02123">
        <ele>219.98</ele>
        <time>2018-02-28T12:56:42Z</time>
      </trkpt>
      <trkpt lat="47.70683" lon="6.02115">
        <ele>220.08</ele>
        <time>2018-02-28T12:56:43Z</time>
      </trkpt>
      <trkpt lat="47.70686" lon="6.02108">
        <ele>220.16</ele>
        <time>2018-02-28T12:56:44Z</time>
      </trkpt>
      <trkpt lat="47.70686" lon="6.02098">
        <ele>220.22</ele>
        <time>2018-02-28T12:56:45Z</time>
      </trkpt>
      <trkpt lat="47.70687" lon="6.02088">
        <ele>220.27</ele>
        <time>2018-02-28T12:56:46Z</time>
      </trkpt>
      <trkpt lat="47.70688" lon="6.02076">
        <ele>220.32</ele>
        <time>2018-02-28T12:56:47Z</time>
      </trkpt>
      <trkpt lat="47.70689" lon="6.02069">
        <ele>220.35</ele>
        <time>2018-02-28T12:56:48Z</time>
      </trkpt>
      <trkpt lat="47.70689" lon="6.02062">
        <ele>220.38</ele>
        <time>2018-02-28T12:56:49Z</time>
      </trkpt>
      <trkpt lat="47.7069" lon="6.0205">
        <ele>220.42</ele>
        <time>2018-02-28T12:56:51Z</time>
      </trkpt>
      <trkpt lat="47.7069" lon="6.02042">
        <ele>220.43</ele>
        <time>2018-02-28T12:56:52Z</time>
      </trkpt>
      <trkpt lat="47.7069" lon="6.02035">
        <ele>220.45</ele>
        <time>2018-02-28T12:56:53Z</time>
      </trkpt>
      <trkpt lat="47.70691" lon="6.02026">
        <ele>220.47</ele>
        <time>2018-02-28T12:56:54Z</time>
      </trkpt>
      <trkpt lat="47.7069" lon="6.02018">
        <ele>220.49</ele>
        <time>2018-02-28T12:56:55Z</time>
      </trkpt>
      <trkpt lat="47.7069" lon="6.02009">
        <ele>220.51</ele>
        <time>2018-02-28T12:56:56Z</time>
      </trkpt>
      <trkpt lat="47.7069" lon="6.01995">
        <ele>220.54</ele>
        <time>2018-02-28T12:56:58Z</time>
      </trkpt>
      <trkpt lat="47.7069" lon="6.01988">
        <ele>220.56</ele>
        <time>2018-02-28T12:56:59Z</time>
      </trkpt>
      <trkpt lat="47.70691" lon="6.01981">
        <ele>220.58</ele>
        <time>2018-02-28T12:57:00Z</time>
      </trkpt>
      <trkpt lat="47.70691" lon="6.01972">
        <ele>220.6</ele>
        <time>2018-02-28T12:57:01Z</time>
      </trkpt>
      <trkpt lat="47.70693" lon="6.01959">
        <ele>220.63</ele>
        <time>2018-02-28T12:57:03Z</time>
      </trkpt>
      <trkpt lat="47.70692" lon="6.01952">
        <ele>220.65</ele>
        <time>2018-02-28T12:57:04Z</time>
      </trkpt>
      <trkpt lat="47.70693" lon="6.01939">
        <ele>220.66</ele>
        <time>2018-02-28T12:57:06Z</time>
      </trkpt>
      <trkpt lat="47.70694" lon="6.01929">
        <ele>220.66</ele>
        <time>2018-02-28T12:57:08Z</time>
      </trkpt>
      <trkpt lat="47.70693" lon="6.0192">
        <ele>220.67</ele>
        <time>2018-02-28T12:57:10Z</time>
      </trkpt>
      <trkpt lat="47.70693" lon="6.01909">
        <ele>220.68</ele>
        <time>2018-02-28T12:57:12Z</time>
      </trkpt>
      <trkpt lat="47.70694" lon="6.01901">
        <ele>220.69</ele>
        <time>2018-02-28T12:57:14Z</time>
      </trkpt>
      <trkpt lat="47.70694" lon="6.01893">
        <ele>220.7</ele>
        <time>2018-02-28T12:57:16Z</time>
      </trkpt>
      <trkpt lat="47.70694" lon="6.01885">
        <ele>220.72</ele>
        <time>2018-02-28T12:57:18Z</time>
      </trkpt>
      <trkpt lat="47.70693" lon="6.01875">
        <ele>220.73</ele>
        <time>2018-02-28T12:57:20Z</time>
      </trkpt>
      <trkpt lat="47.70694" lon="6.01866">
        <ele>220.74</ele>
        <time>2018-02-28T12:57:22Z</time>
      </trkpt>
      <trkpt lat="47.70695" lon="6.01857">
        <ele>220.76</ele>
        <time>2018-02-28T12:57:24Z</time>
      </trkpt>
      <trkpt lat="47.70696" lon="6.01848">
        <ele>220.78</ele>
        <time>2018-02-28T12:57:26Z</time>
      </trkpt>
      <trkpt lat="47.70696" lon="6.01839">
        <ele>220.79</ele>
        <time>2018-02-28T12:57:28Z</time>
      </trkpt>
      <trkpt lat="47.70698" lon="6.0183">
        <ele>220.81</ele>
        <time>2018-02-28T12:57:30Z</time>
      </trkpt>
      <trkpt lat="47.707" lon="6.01822">
        <ele>220.83</ele>
        <time>2018-02-28T12:57:32Z</time>
      </trkpt>
      <trkpt lat="47.70702" lon="6.01814">
        <ele>220.86</ele>
        <time>2018-02-28T12:57:34Z</time>
      </trkpt>
      <trkpt lat="47.70703" lon="6.01805">
        <ele>220.88</ele>
        <time>2018-02-28T12:57:36Z</time>
      </trkpt>
      <trkpt lat="47.70705" lon="6.01797">
        <ele>220.9</ele>
        <time>2018-02-28T12:57:38Z</time>
      </trkpt>
      <trkpt lat="47.70707" lon="6.01787">
        <ele>220.92</ele>
        <time>2018-02-28T12:57:40Z</time>
      </trkpt>
      <trkpt lat="47.70709" lon="6.01777">
        <ele>221.03</ele>
        <time>2018-02-28T12:57:42Z</time>
      </trkpt>
      <trkpt lat="47.7071" lon="6.01765">
        <ele>221.18</ele>
        <time>2018-02-28T12:57:44Z</time>
      </trkpt>
      <trkpt lat="47.70711" lon="6.01755">
        <ele>221.22</ele>
        <time>2018-02-28T12:57:46Z</time>
      </trkpt>
      <trkpt lat="47.70711" lon="6.01745">
        <ele>221.25</ele>
        <time>2018-02-28T12:57:48Z</time>
      </trkpt>
      <trkpt lat="47.70711" lon="6.01736">
        <ele>221.29</ele>
        <time>2018-02-28T12:57:50Z</time>
      </trkpt>
      <trkpt lat="47.70712" lon="6.01728">
        <ele>221.33</ele>
        <time>2018-02-28T12:57:52Z</time>
      </trkpt>
      <trkpt lat="47.70713" lon="6.01721">
        <ele>221.38</ele>
        <time>2018-02-28T12:57:54Z</time>
      </trkpt>
      <trkpt lat="47.70713" lon="6.01711">
        <ele>221.46</ele>
        <time>2018-02-28T12:57:57Z</time>
      </trkpt>
      <trkpt lat="47.70716" lon="6.01702">
        <ele>221.54</ele>
        <time>2018-02-28T12:58:00Z</time>
      </trkpt>
      <trkpt lat="47.70717" lon="6.01694">
        <ele>221.63</ele>
        <time>2018-02-28T12:58:03Z</time>
      </trkpt>
      <trkpt lat="47.70718" lon="6.01686">
        <ele>221.71</ele>
        <time>2018-02-28T12:58:06Z</time>
      </trkpt>
      <trkpt lat="47.70719" lon="6.01679">
        <ele>221.81</ele>
        <time>2018-02-28T12:58:09Z</time>
      </trkpt>
      <trkpt lat="47.70721" lon="6.0167">
        <ele>221.9</ele>
        <time>2018-02-28T12:58:12Z</time>
      </trkpt>
      <trkpt lat="47.70724" lon="6.01661">
        <ele>221.99</ele>
        <time>2018-02-28T12:58:15Z</time>
      </trkpt>
      <trkpt lat="47.70728" lon="6.01653">
        <ele>222.06</ele>
        <time>2018-02-28T12:58:17Z</time>
      </trkpt>
      <trkpt lat="47.7073" lon="6.01647">
        <ele>222.13</ele>
        <time>2018-02-28T12:58:19Z</time>
      </trkpt>
      <trkpt lat="47.70731" lon="6.01637">
        <ele>222.23</ele>
        <time>2018-02-28T12:58:22Z</time>
      </trkpt>
      <trkpt lat="47.70732" lon="6.0163">
        <ele>222.3</ele>
        <time>2018-02-28T12:58:24Z</time>
      </trkpt>
      <trkpt lat="47.70734" lon="6.0162">
        <ele>222.58</ele>
        <time>2018-02-28T12:58:26Z</time>
      </trkpt>
      <trkpt lat="47.70734" lon="6.01606">
        <ele>223.07</ele>
        <time>2018-02-28T12:58:28Z</time>
      </trkpt>
      <trkpt lat="47.70735" lon="6.01599">
        <ele>223.27</ele>
        <time>2018-02-28T12:58:29Z</time>
      </trkpt>
      <trkpt lat="47.70735" lon="6.01592">
        <ele>223.42</ele>
        <time>2018-02-28T12:58:30Z</time>
      </trkpt>
      <trkpt lat="47.70736" lon="6.01584">
        <ele>223.55</ele>
        <time>2018-02-28T12:58:31Z</time>
      </trkpt>
      <trkpt lat="47.70737" lon="6.01577">
        <ele>223.65</ele>
        <time>2018-02-28T12:58:32Z</time>
      </trkpt>
      <trkpt lat="47.70738" lon="6.01564">
        <ele>223.8</ele>
        <time>2018-02-28T12:58:34Z</time>
      </trkpt>
      <trkpt lat="47.70739" lon="6.01552">
        <ele>223.86</ele>
        <time>2018-02-28T12:58:36Z</time>
      </trkpt>
      <trkpt lat="47.7074" lon="6.01542">
        <ele>223.88</ele>
        <time>2018-02-28T12:58:38Z</time>
      </trkpt>
      <trkpt lat="47.70744" lon="6.01537">
        <ele>223.89</ele>
        <time>2018-02-28T12:58:40Z</time>
      </trkpt>
      <trkpt lat="47.70751" lon="6.01532">
        <ele>223.9</ele>
        <time>2018-02-28T12:58:42Z</time>
      </trkpt>
      <trkpt lat="47.70755" lon="6.01526">
        <ele>223.9</ele>
        <time>2018-02-28T12:58:43Z</time>
      </trkpt>
      <trkpt lat="47.70758" lon="6.01522">
        <ele>223.9</ele>
        <time>2018-02-28T12:58:44Z</time>
      </trkpt>
      <trkpt lat="47.70763" lon="6.01518">
        <ele>223.91</ele>
        <time>2018-02-28T12:58:45Z</time>
      </trkpt>
      <trkpt lat="47.70766" lon="6.01508">
        <ele>223.92</ele>
        <time>2018-02-28T12:58:47Z</time>
      </trkpt>
      <trkpt lat="47.7077" lon="6.015">
        <ele>223.93</ele>
        <time>2018-02-28T12:58:49Z</time>
      </trkpt>
      <trkpt lat="47.70774" lon="6.01492">
        <ele>223.94</ele>
        <time>2018-02-28T12:58:51Z</time>
      </trkpt>
      <trkpt lat="47.70777" lon="6.01486">
        <ele>223.95</ele>
        <time>2018-02-28T12:58:53Z</time>
      </trkpt>
      <trkpt lat="47.70782" lon="6.01479">
        <ele>223.97</ele>
        <time>2018-02-28T12:58:56Z</time>
      </trkpt>
      <trkpt lat="47.70785" lon="6.01472">
        <ele>223.98</ele>
        <time>2018-02-28T12:58:58Z</time>
      </trkpt>
      <trkpt lat="47.70789" lon="6.01467">
        <ele>224</ele>
        <time>2018-02-28T12:59:00Z</time>
      </trkpt>
      <trkpt lat="47.70797" lon="6.01458">
        <ele>224.02</ele>
        <time>2018-02-28T12:59:02Z</time>
      </trkpt>
      <trkpt lat="47.708" lon="6.01452">
        <ele>224.02</ele>
        <time>2018-02-28T12:59:03Z</time>
      </trkpt>
      <trkpt lat="47.70804" lon="6.01443">
        <ele>224.04</ele>
        <time>2018-02-28T12:59:05Z</time>
      </trkpt>
      <trkpt lat="47.70808" lon="6.01434">
        <ele>224.06</ele>
        <time>2018-02-28T12:59:07Z</time>
      </trkpt>
      <trkpt lat="47.70812" lon="6.01423">
        <ele>224.09</ele>
        <time>2018-02-28T12:59:09Z</time>
      </trkpt>
      <trkpt lat="47.70815" lon="6.01414">
        <ele>224.11</ele>
        <time>2018-02-28T12:59:11Z</time>
      </trkpt>
      <trkpt lat="47.70818" lon="6.01404">
        <ele>224.14</ele>
        <time>2018-02-28T12:59:13Z</time>
      </trkpt>
      <trkpt lat="47.7082" lon="6.01393">
        <ele>224.17</ele>
        <time>2018-02-28T12:59:15Z</time>
      </trkpt>
      <trkpt lat="47.70823" lon="6.01384">
        <ele>224.2</ele>
        <time>2018-02-28T12:59:17Z</time>
      </trkpt>
      <trkpt lat="47.70828" lon="6.01376">
        <ele>224.23</ele>
        <time>2018-02-28T12:59:19Z</time>
      </trkpt>
      <trkpt lat="47.70831" lon="6.01367">
        <ele>224.27</ele>
        <time>2018-02-28T12:59:21Z</time>
      </trkpt>
      <trkpt lat="47.70835" lon="6.01358">
        <ele>224.3</ele>
        <time>2018-02-28T12:59:23Z</time>
      </trkpt>
      <trkpt lat="47.70837" lon="6.0135">
        <ele>224.34</ele>
        <time>2018-02-28T12:59:25Z</time>
      </trkpt>
      <trkpt lat="47.70838" lon="6.01343">
        <ele>224.38</ele>
        <time>2018-02-28T12:59:27Z</time>
      </trkpt>
      <trkpt lat="47.7084" lon="6.01336">
        <ele>224.42</ele>
        <time>2018-02-28T12:59:29Z</time>
      </trkpt>
      <trkpt lat="47.70842" lon="6.01329">
        <ele>224.47</ele>
        <time>2018-02-28T12:59:31Z</time>
      </trkpt>
      <trkpt lat="47.70843" lon="6.01321">
        <ele>224.51</ele>
        <time>2018-02-28T12:59:33Z</time>
      </trkpt>
      <trkpt lat="47.70844" lon="6.01313">
        <ele>224.56</ele>
        <time>2018-02-28T12:59:35Z</time>
      </trkpt>
      <trkpt lat="47.70845" lon="6.01305">
        <ele>224.61</ele>
        <time>2018-02-28T12:59:37Z</time>
      </trkpt>
      <trkpt lat="47.70845" lon="6.01296">
        <ele>224.66</ele>
        <time>2018-02-28T12:59:39Z</time>
      </trkpt>
      <trkpt lat="47.70845" lon="6.01288">
        <ele>224.75</ele>
        <time>2018-02-28T12:59:42Z</time>
      </trkpt>
      <trkpt lat="47.70845" lon="6.01279">
        <ele>224.81</ele>
        <time>2018-02-28T12:59:44Z</time>
      </trkpt>
      <trkpt lat="47.70844" lon="6.0127">
        <ele>224.88</ele>
        <time>2018-02-28T12:59:46Z</time>
      </trkpt>
      <trkpt lat="47.70842" lon="6.01262">
        <ele>224.96</ele>
        <time>2018-02-28T12:59:48Z</time>
      </trkpt>
      <trkpt lat="47.70842" lon="6.01254">
        <ele>225.03</ele>
        <time>2018-02-28T12:59:50Z</time>
      </trkpt>
      <trkpt lat="47.70841" lon="6.01247">
        <ele>225.11</ele>
        <time>2018-02-28T12:59:52Z</time>
      </trkpt>
      <trkpt lat="47.7084" lon="6.01239">
        <ele>225.2</ele>
        <time>2018-02-28T12:59:54Z</time>
      </trkpt>
      <trkpt lat="47.7084" lon="6.01231">
        <ele>225.28</ele>
        <time>2018-02-28T12:59:56Z</time>
      </trkpt>
      <trkpt lat="47.7084" lon="6.01222">
        <ele>225.41</ele>
        <time>2018-02-28T12:59:59Z</time>
      </trkpt>
      <trkpt lat="47.7084" lon="6.01211">
        <ele>225.55</ele>
        <time>2018-02-28T13:00:02Z</time>
      </trkpt>
      <trkpt lat="47.70839" lon="6.01204">
        <ele>225.65</ele>
        <time>2018-02-28T13:00:04Z</time>
      </trkpt>
      <trkpt lat="47.70839" lon="6.01197">
        <ele>225.74</ele>
        <time>2018-02-28T13:00:06Z</time>
      </trkpt>
      <trkpt lat="47.70839" lon="6.0119">
        <ele>225.84</ele>
        <time>2018-02-28T13:00:08Z</time>
      </trkpt>
      <trkpt lat="47.70838" lon="6.01182">
        <ele>225.94</ele>
        <time>2018-02-28T13:00:10Z</time>
      </trkpt>
      <trkpt lat="47.70837" lon="6.01174">
        <ele>226.05</ele>
        <time>2018-02-28T13:00:12Z</time>
      </trkpt>
      <trkpt lat="47.70837" lon="6.01167">
        <ele>226.15</ele>
        <time>2018-02-28T13:00:14Z</time>
      </trkpt>
      <trkpt lat="47.70837" lon="6.0116">
        <ele>226.25</ele>
        <time>2018-02-28T13:00:16Z</time>
      </trkpt>
      <trkpt lat="47.70837" lon="6.01153">
        <ele>226.35</ele>
        <time>2018-02-28T13:00:18Z</time>
      </trkpt>
      <trkpt lat="47.70836" lon="6.01145">
        <ele>226.45</ele>
        <time>2018-02-28T13:00:20Z</time>
      </trkpt>
      <trkpt lat="47.70835" lon="6.01138">
        <ele>226.56</ele>
        <time>2018-02-28T13:00:22Z</time>
      </trkpt>
      <trkpt lat="47.70833" lon="6.0113">
        <ele>226.66</ele>
        <time>2018-02-28T13:00:24Z</time>
      </trkpt>
      <trkpt lat="47.70833" lon="6.01121">
        <ele>226.77</ele>
        <time>2018-02-28T13:00:26Z</time>
      </trkpt>
      <trkpt lat="47.70832" lon="6.0111">
        <ele>226.88</ele>
        <time>2018-02-28T13:00:28Z</time>
      </trkpt>
      <trkpt lat="47.7083" lon="6.011">
        <ele>226.99</ele>
        <time>2018-02-28T13:00:30Z</time>
      </trkpt>
      <trkpt lat="47.70829" lon="6.01089">
        <ele>227.11</ele>
        <time>2018-02-28T13:00:32Z</time>
      </trkpt>
      <trkpt lat="47.70827" lon="6.01078">
        <ele>227.59</ele>
        <time>2018-02-28T13:00:34Z</time>
      </trkpt>
      <trkpt lat="47.70825" lon="6.01066">
        <ele>227.83</ele>
        <time>2018-02-28T13:00:36Z</time>
      </trkpt>
      <trkpt lat="47.70823" lon="6.01055">
        <ele>227.93</ele>
        <time>2018-02-28T13:00:38Z</time>
      </trkpt>
      <trkpt lat="47.70822" lon="6.01045">
        <ele>228.02</ele>
        <time>2018-02-28T13:00:40Z</time>
      </trkpt>
      <trkpt lat="47.70821" lon="6.01034">
        <ele>228.12</ele>
        <time>2018-02-28T13:00:42Z</time>
      </trkpt>
      <trkpt lat="47.7082" lon="6.01021">
        <ele>228.21</ele>
        <time>2018-02-28T13:00:44Z</time>
      </trkpt>
      <trkpt lat="47.70819" lon="6.01013">
        <ele>228.3</ele>
        <time>2018-02-28T13:00:46Z</time>
      </trkpt>
      <trkpt lat="47.70818" lon="6.01006">
        <ele>228.35</ele>
        <time>2018-02-28T13:00:47Z</time>
      </trkpt>
      <trkpt lat="47.70816" lon="6.00995">
        <ele>228.45</ele>
        <time>2018-02-28T13:00:49Z</time>
      </trkpt>
      <trkpt lat="47.70815" lon="6.00987">
        <ele>228.54</ele>
        <time>2018-02-28T13:00:51Z</time>
      </trkpt>
      <trkpt lat="47.70815" lon="6.00978">
        <ele>228.64</ele>
        <time>2018-02-28T13:00:53Z</time>
      </trkpt>
      <trkpt lat="47.70814" lon="6.00969">
        <ele>228.74</ele>
        <time>2018-02-28T13:00:55Z</time>
      </trkpt>
      <trkpt lat="47.70813" lon="6.00959">
        <ele>228.83</ele>
        <time>2018-02-28T13:00:57Z</time>
      </trkpt>
      <trkpt lat="47.70812" lon="6.00951">
        <ele>228.92</ele>
        <time>2018-02-28T13:00:59Z</time>
      </trkpt>
      <trkpt lat="47.7081" lon="6.00942">
        <ele>229.02</ele>
        <time>2018-02-28T13:01:01Z</time>
      </trkpt>
      <trkpt lat="47.70809" lon="6.00935">
        <ele>229.11</ele>
        <time>2018-02-28T13:01:03Z</time>
      </trkpt>
      <trkpt lat="47.70807" lon="6.00927">
        <ele>229.25</ele>
        <time>2018-02-28T13:01:06Z</time>
      </trkpt>
      <trkpt lat="47.70804" lon="6.00923">
        <ele>229.39</ele>
        <time>2018-02-28T13:01:09Z</time>
      </trkpt>
      <trkpt lat="47.708" lon="6.00919">
        <ele>229.66</ele>
        <time>2018-02-28T13:01:27Z</time>
      </trkpt>
      <trkpt lat="47.70795" lon="6.0092">
        <ele>230.11</ele>
        <time>2018-02-28T13:02:12Z</time>
      </trkpt>
      <trkpt lat="47.70791" lon="6.00925">
        <ele>230.26</ele>
        <time>2018-02-28T13:02:15Z</time>
      </trkpt>
      <trkpt lat="47.70789" lon="6.00932">
        <ele>230.4</ele>
        <time>2018-02-28T13:02:18Z</time>
      </trkpt>
      <trkpt lat="47.70788" lon="6.00943">
        <ele>230.49</ele>
        <time>2018-02-28T13:02:20Z</time>
      </trkpt>
      <trkpt lat="47.70786" lon="6.00956">
        <ele>230.58</ele>
        <time>2018-02-28T13:02:22Z</time>
      </trkpt>
      <trkpt lat="47.70784" lon="6.00968">
        <ele>230.66</ele>
        <time>2018-02-28T13:02:24Z</time>
      </trkpt>
      <trkpt lat="47.70781" lon="6.00977">
        <ele>230.74</ele>
        <time>2018-02-28T13:02:26Z</time>
      </trkpt>
      <trkpt lat="47.70776" lon="6.00984">
        <ele>230.86</ele>
        <time>2018-02-28T13:02:29Z</time>
      </trkpt>
      <trkpt lat="47.70772" lon="6.00986">
        <ele>230.94</ele>
        <time>2018-02-28T13:02:31Z</time>
      </trkpt>
      <trkpt lat="47.70767" lon="6.00986">
        <ele>231.01</ele>
        <time>2018-02-28T13:02:33Z</time>
      </trkpt>
      <trkpt lat="47.70761" lon="6.00984">
        <ele>231.12</ele>
        <time>2018-02-28T13:02:36Z</time>
      </trkpt>
      <trkpt lat="47.70755" lon="6.00979">
        <ele>231.23</ele>
        <time>2018-02-28T13:02:39Z</time>
      </trkpt>
      <trkpt lat="47.70748" lon="6.00974">
        <ele>231.3</ele>
        <time>2018-02-28T13:02:41Z</time>
      </trkpt>
      <trkpt lat="47.70742" lon="6.00971">
        <ele>231.37</ele>
        <time>2018-02-28T13:02:43Z</time>
      </trkpt>
      <trkpt lat="47.70736" lon="6.00967">
        <ele>231.45</ele>
        <time>2018-02-28T13:02:45Z</time>
      </trkpt>
      <trkpt lat="47.70731" lon="6.00965">
        <ele>231.53</ele>
        <time>2018-02-28T13:02:47Z</time>
      </trkpt>
      <trkpt lat="47.70726" lon="6.00961">
        <ele>231.6</ele>
        <time>2018-02-28T13:02:49Z</time>
      </trkpt>
      <trkpt lat="47.70721" lon="6.00958">
        <ele>231.68</ele>
        <time>2018-02-28T13:02:51Z</time>
      </trkpt>
      <trkpt lat="47.70717" lon="6.00955">
        <ele>231.77</ele>
        <time>2018-02-28T13:02:53Z</time>
      </trkpt>
      <trkpt lat="47.70712" lon="6.00953">
        <ele>231.85</ele>
        <time>2018-02-28T13:02:55Z</time>
      </trkpt>
      <trkpt lat="47.70706" lon="6.0095">
        <ele>231.98</ele>
        <time>2018-02-28T13:02:58Z</time>
      </trkpt>
      <trkpt lat="47.70702" lon="6.00947">
        <ele>232.06</ele>
        <time>2018-02-28T13:03:00Z</time>
      </trkpt>
      <trkpt lat="47.70695" lon="6.00943">
        <ele>232.15</ele>
        <time>2018-02-28T13:03:02Z</time>
      </trkpt>
      <trkpt lat="47.7069" lon="6.0094">
        <ele>232.24</ele>
        <time>2018-02-28T13:03:04Z</time>
      </trkpt>
      <trkpt lat="47.70685" lon="6.00938">
        <ele>232.33</ele>
        <time>2018-02-28T13:03:06Z</time>
      </trkpt>
      <trkpt lat="47.70681" lon="6.00935">
        <ele>232.47</ele>
        <time>2018-02-28T13:03:09Z</time>
      </trkpt>
      <trkpt lat="47.70676" lon="6.00932">
        <ele>232.56</ele>
        <time>2018-02-28T13:03:11Z</time>
      </trkpt>
      <trkpt lat="47.70671" lon="6.0093">
        <ele>232.66</ele>
        <time>2018-02-28T13:03:13Z</time>
      </trkpt>
      <trkpt lat="47.70666" lon="6.00927">
        <ele>232.75</ele>
        <time>2018-02-28T13:03:15Z</time>
      </trkpt>
      <trkpt lat="47.70661" lon="6.00925">
        <ele>232.85</ele>
        <time>2018-02-28T13:03:17Z</time>
      </trkpt>
      <trkpt lat="47.70657" lon="6.00922">
        <ele>232.94</ele>
        <time>2018-02-28T13:03:19Z</time>
      </trkpt>
      <trkpt lat="47.70651" lon="6.00918">
        <ele>233.03</ele>
        <time>2018-02-28T13:03:21Z</time>
      </trkpt>
      <trkpt lat="47.70646" lon="6.00915">
        <ele>233.12</ele>
        <time>2018-02-28T13:03:23Z</time>
      </trkpt>
      <trkpt lat="47.70641" lon="6.00911">
        <ele>233.2</ele>
        <time>2018-02-28T13:03:25Z</time>
      </trkpt>
      <trkpt lat="47.70636" lon="6.00906">
        <ele>233.29</ele>
        <time>2018-02-28T13:03:28Z</time>
      </trkpt>
      <trkpt lat="47.70631" lon="6.00902">
        <ele>233.37</ele>
        <time>2018-02-28T13:03:30Z</time>
      </trkpt>
      <trkpt lat="47.70625" lon="6.00899">
        <ele>233.46</ele>
        <time>2018-02-28T13:03:32Z</time>
      </trkpt>
      <trkpt lat="47.7062" lon="6.00896">
        <ele>233.55</ele>
        <time>2018-02-28T13:03:34Z</time>
      </trkpt>
      <trkpt lat="47.70614" lon="6.00892">
        <ele>233.68</ele>
        <time>2018-02-28T13:03:37Z</time>
      </trkpt>
      <trkpt lat="47.7061" lon="6.00889">
        <ele>233.78</ele>
        <time>2018-02-28T13:03:39Z</time>
      </trkpt>
      <trkpt lat="47.70605" lon="6.00885">
        <ele>233.87</ele>
        <time>2018-02-28T13:03:41Z</time>
      </trkpt>
      <trkpt lat="47.70601" lon="6.00883">
        <ele>233.97</ele>
        <time>2018-02-28T13:03:43Z</time>
      </trkpt>
      <trkpt lat="47.70594" lon="6.00879">
        <ele>234.11</ele>
        <time>2018-02-28T13:03:46Z</time>
      </trkpt>
      <trkpt lat="47.7059" lon="6.00876">
        <ele>234.2</ele>
        <time>2018-02-28T13:03:48Z</time>
      </trkpt>
      <trkpt lat="47.70585" lon="6.00874">
        <ele>234.29</ele>
        <time>2018-02-28T13:03:50Z</time>
      </trkpt>
      <trkpt lat="47.70579" lon="6.00871">
        <ele>234.39</ele>
        <time>2018-02-28T13:03:52Z</time>
      </trkpt>
      <trkpt lat="47.70574" lon="6.00868">
        <ele>234.48</ele>
        <time>2018-02-28T13:03:54Z</time>
      </trkpt>
      <trkpt lat="47.70568" lon="6.00864">
        <ele>234.62</ele>
        <time>2018-02-28T13:03:57Z</time>
      </trkpt>
      <trkpt lat="47.70562" lon="6.0086">
        <ele>234.71</ele>
        <time>2018-02-28T13:03:59Z</time>
      </trkpt>
      <trkpt lat="47.70558" lon="6.00858">
        <ele>234.8</ele>
        <time>2018-02-28T13:04:01Z</time>
      </trkpt>
      <trkpt lat="47.70552" lon="6.00853">
        <ele>234.89</ele>
        <time>2018-02-28T13:04:03Z</time>
      </trkpt>
      <trkpt lat="47.70545" lon="6.00847">
        <ele>234.98</ele>
        <time>2018-02-28T13:04:05Z</time>
      </trkpt>
      <trkpt lat="47.70539" lon="6.00843">
        <ele>235.07</ele>
        <time>2018-02-28T13:04:07Z</time>
      </trkpt>
      <trkpt lat="47.70533" lon="6.00839">
        <ele>235.16</ele>
        <time>2018-02-28T13:04:09Z</time>
      </trkpt>
      <trkpt lat="47.70528" lon="6.00836">
        <ele>235.26</ele>
        <time>2018-02-28T13:04:11Z</time>
      </trkpt>
      <trkpt lat="47.70524" lon="6.00832">
        <ele>235.35</ele>
        <time>2018-02-28T13:04:13Z</time>
      </trkpt>
      <trkpt lat="47.70518" lon="6.00828">
        <ele>235.49</ele>
        <time>2018-02-28T13:04:16Z</time>
      </trkpt>
      <trkpt lat="47.70513" lon="6.00826">
        <ele>235.59</ele>
        <time>2018-02-28T13:04:18Z</time>
      </trkpt>
      <trkpt lat="47.70508" lon="6.00821">
        <ele>235.78</ele>
        <time>2018-02-28T13:04:22Z</time>
      </trkpt>
      <trkpt lat="47.70501" lon="6.00816">
        <ele>235.89</ele>
        <time>2018-02-28T13:04:24Z</time>
      </trkpt>
      <trkpt lat="47.70496" lon="6.00812">
        <ele>235.99</ele>
        <time>2018-02-28T13:04:26Z</time>
      </trkpt>
      <trkpt lat="47.7049" lon="6.00808">
        <ele>236.09</ele>
        <time>2018-02-28T13:04:28Z</time>
      </trkpt>
      <trkpt lat="47.70483" lon="6.00803">
        <ele>236.18</ele>
        <time>2018-02-28T13:04:30Z</time>
      </trkpt>
      <trkpt lat="47.70478" lon="6.00798">
        <ele>236.23</ele>
        <time>2018-02-28T13:04:31Z</time>
      </trkpt>
      <trkpt lat="47.70472" lon="6.00792">
        <ele>236.28</ele>
        <time>2018-02-28T13:04:32Z</time>
      </trkpt>
      <trkpt lat="47.70467" lon="6.00786">
        <ele>236.61</ele>
        <time>2018-02-28T13:04:33Z</time>
      </trkpt>
      <trkpt lat="47.70461" lon="6.00781">
        <ele>236.98</ele>
        <time>2018-02-28T13:04:34Z</time>
      </trkpt>
      <trkpt lat="47.70455" lon="6.00776">
        <ele>237.31</ele>
        <time>2018-02-28T13:04:35Z</time>
      </trkpt>
      <trkpt lat="47.7045" lon="6.00772">
        <ele>237.58</ele>
        <time>2018-02-28T13:04:36Z</time>
      </trkpt>
      <trkpt lat="47.70445" lon="6.00768">
        <ele>237.81</ele>
        <time>2018-02-28T13:04:37Z</time>
      </trkpt>
      <trkpt lat="47.70439" lon="6.00765">
        <ele>238</ele>
        <time>2018-02-28T13:04:38Z</time>
      </trkpt>
      <trkpt lat="47.70434" lon="6.00761">
        <ele>238.07</ele>
        <time>2018-02-28T13:04:39Z</time>
      </trkpt>
      <trkpt lat="47.7043" lon="6.00758">
        <ele>238.19</ele>
        <time>2018-02-28T13:04:40Z</time>
      </trkpt>
      <trkpt lat="47.70425" lon="6.00753">
        <ele>238.3</ele>
        <time>2018-02-28T13:04:41Z</time>
      </trkpt>
      <trkpt lat="47.7042" lon="6.0075">
        <ele>238.35</ele>
        <time>2018-02-28T13:04:42Z</time>
      </trkpt>
      <trkpt lat="47.70416" lon="6.00747">
        <ele>238.36</ele>
        <time>2018-02-28T13:04:43Z</time>
      </trkpt>
      <trkpt lat="47.70411" lon="6.00745">
        <ele>238.44</ele>
        <time>2018-02-28T13:04:44Z</time>
      </trkpt>
      <trkpt lat="47.70404" lon="6.00739">
        <ele>238.51</ele>
        <time>2018-02-28T13:04:45Z</time>
      </trkpt>
      <trkpt lat="47.70398" lon="6.00734">
        <ele>238.54</ele>
        <time>2018-02-28T13:04:46Z</time>
      </trkpt>
      <trkpt lat="47.70393" lon="6.0073">
        <ele>238.55</ele>
        <time>2018-02-28T13:04:47Z</time>
      </trkpt>
      <trkpt lat="47.70388" lon="6.00726">
        <ele>238.62</ele>
        <time>2018-02-28T13:04:48Z</time>
      </trkpt>
      <trkpt lat="47.7038" lon="6.0072">
        <ele>238.66</ele>
        <time>2018-02-28T13:04:50Z</time>
      </trkpt>
      <trkpt lat="47.70373" lon="6.00715">
        <ele>238.68</ele>
        <time>2018-02-28T13:04:52Z</time>
      </trkpt>
      <trkpt lat="47.70367" lon="6.00711">
        <ele>238.7</ele>
        <time>2018-02-28T13:04:54Z</time>
      </trkpt>
      <trkpt lat="47.7036" lon="6.00706">
        <ele>238.73</ele>
        <time>2018-02-28T13:04:56Z</time>
      </trkpt>
      <trkpt lat="47.70353" lon="6.00702">
        <ele>238.76</ele>
        <time>2018-02-28T13:04:58Z</time>
      </trkpt>
      <trkpt lat="47.70347" lon="6.00697">
        <ele>238.79</ele>
        <time>2018-02-28T13:05:00Z</time>
      </trkpt>
      <trkpt lat="47.70341" lon="6.00694">
        <ele>238.83</ele>
        <time>2018-02-28T13:05:02Z</time>
      </trkpt>
      <trkpt lat="47.70336" lon="6.00689">
        <ele>238.87</ele>
        <time>2018-02-28T13:05:04Z</time>
      </trkpt>
      <trkpt lat="47.70331" lon="6.00685">
        <ele>238.92</ele>
        <time>2018-02-28T13:05:06Z</time>
      </trkpt>
      <trkpt lat="47.70326" lon="6.00681">
        <ele>238.97</ele>
        <time>2018-02-28T13:05:08Z</time>
      </trkpt>
      <trkpt lat="47.7032" lon="6.00677">
        <ele>239.02</ele>
        <time>2018-02-28T13:05:10Z</time>
      </trkpt>
      <trkpt lat="47.70314" lon="6.00672">
        <ele>239.07</ele>
        <time>2018-02-28T13:05:12Z</time>
      </trkpt>
      <trkpt lat="47.70308" lon="6.00668">
        <ele>239.12</ele>
        <time>2018-02-28T13:05:14Z</time>
      </trkpt>
      <trkpt lat="47.70302" lon="6.00665">
        <ele>239.18</ele>
        <time>2018-02-28T13:05:16Z</time>
      </trkpt>
      <trkpt lat="47.70298" lon="6.0066">
        <ele>239.23</ele>
        <time>2018-02-28T13:05:18Z</time>
      </trkpt>
      <trkpt lat="47.70298" lon="6.0065">
        <ele>239.32</ele>
        <time>2018-02-28T13:05:21Z</time>
      </trkpt>
      <trkpt lat="47.70301" lon="6.00643">
        <ele>239.41</ele>
        <time>2018-02-28T13:05:24Z</time>
      </trkpt>
      <trkpt lat="47.70304" lon="6.00637">
        <ele>239.56</ele>
        <time>2018-02-28T13:05:28Z</time>
      </trkpt>
      <trkpt lat="47.70307" lon="6.00629">
        <ele>239.67</ele>
        <time>2018-02-28T13:05:31Z</time>
      </trkpt>
      <trkpt lat="47.7031" lon="6.00622">
        <ele>239.75</ele>
        <time>2018-02-28T13:05:33Z</time>
      </trkpt>
      <trkpt lat="47.70313" lon="6.00616">
        <ele>239.83</ele>
        <time>2018-02-28T13:05:35Z</time>
      </trkpt>
      <trkpt lat="47.70315" lon="6.00609">
        <ele>239.9</ele>
        <time>2018-02-28T13:05:37Z</time>
      </trkpt>
      <trkpt lat="47.70318" lon="6.00601">
        <ele>239.98</ele>
        <time>2018-02-28T13:05:39Z</time>
      </trkpt>
      <trkpt lat="47.70321" lon="6.00595">
        <ele>240.05</ele>
        <time>2018-02-28T13:05:41Z</time>
      </trkpt>
      <trkpt lat="47.70323" lon="6.00586">
        <ele>240.12</ele>
        <time>2018-02-28T13:05:43Z</time>
      </trkpt>
      <trkpt lat="47.70326" lon="6.00578">
        <ele>240.19</ele>
        <time>2018-02-28T13:05:45Z</time>
      </trkpt>
      <trkpt lat="47.70329" lon="6.00571">
        <ele>240.3</ele>
        <time>2018-02-28T13:05:48Z</time>
      </trkpt>
      <trkpt lat="47.70332" lon="6.00565">
        <ele>240.37</ele>
        <time>2018-02-28T13:05:50Z</time>
      </trkpt>
      <trkpt lat="47.70335" lon="6.00558">
        <ele>240.44</ele>
        <time>2018-02-28T13:05:52Z</time>
      </trkpt>
      <trkpt lat="47.70338" lon="6.00552">
        <ele>240.55</ele>
        <time>2018-02-28T13:05:55Z</time>
      </trkpt>
      <trkpt lat="47.70341" lon="6.00545">
        <ele>240.66</ele>
        <time>2018-02-28T13:05:58Z</time>
      </trkpt>
      <trkpt lat="47.70344" lon="6.00538">
        <ele>240.76</ele>
        <time>2018-02-28T13:06:01Z</time>
      </trkpt>
      <trkpt lat="47.70348" lon="6.00532">
        <ele>240.89</ele>
        <time>2018-02-28T13:06:05Z</time>
      </trkpt>
      <trkpt lat="47.70351" lon="6.00525">
        <ele>240.99</ele>
        <time>2018-02-28T13:06:08Z</time>
      </trkpt>
      <trkpt lat="47.70355" lon="6.00519">
        <ele>241.08</ele>
        <time>2018-02-28T13:06:11Z</time>
      </trkpt>
      <trkpt lat="47.70359" lon="6.00512">
        <ele>241.16</ele>
        <time>2018-02-28T13:06:14Z</time>
      </trkpt>
      <trkpt lat="47.70363" lon="6.00506">
        <ele>241.25</ele>
        <time>2018-02-28T13:06:17Z</time>
      </trkpt>
      <trkpt lat="47.70367" lon="6.00501">
        <ele>241.33</ele>
        <time>2018-02-28T13:06:20Z</time>
      </trkpt>
      <trkpt lat="47.70371" lon="6.00495">
        <ele>241.41</ele>
        <time>2018-02-28T13:06:23Z</time>
      </trkpt>
      <trkpt lat="47.70375" lon="6.00489">
        <ele>241.48</ele>
        <time>2018-02-28T13:06:26Z</time>
      </trkpt>
      <trkpt lat="47.70378" lon="6.00484">
        <ele>241.53</ele>
        <time>2018-02-28T13:06:28Z</time>
      </trkpt>
      <trkpt lat="47.70381" lon="6.00478">
        <ele>241.59</ele>
        <time>2018-02-28T13:06:31Z</time>
      </trkpt>
      <trkpt lat="47.70384" lon="6.00472">
        <ele>241.65</ele>
        <time>2018-02-28T13:06:34Z</time>
      </trkpt>
      <trkpt lat="47.70388" lon="6.00465">
        <ele>241.71</ele>
        <time>2018-02-28T13:06:37Z</time>
      </trkpt>
      <trkpt lat="47.70392" lon="6.00458">
        <ele>241.76</ele>
        <time>2018-02-28T13:06:40Z</time>
      </trkpt>
      <trkpt lat="47.70394" lon="6.00451">
        <ele>241.8</ele>
        <time>2018-02-28T13:06:42Z</time>
      </trkpt>
      <trkpt lat="47.70396" lon="6.00444">
        <ele>241.83</ele>
        <time>2018-02-28T13:06:44Z</time>
      </trkpt>
      <trkpt lat="47.70398" lon="6.00436">
        <ele>241.86</ele>
        <time>2018-02-28T13:06:46Z</time>
      </trkpt>
      <trkpt lat="47.704" lon="6.00429">
        <ele>241.89</ele>
        <time>2018-02-28T13:06:48Z</time>
      </trkpt>
      <trkpt lat="47.70402" lon="6.0042">
        <ele>241.94</ele>
        <time>2018-02-28T13:06:51Z</time>
      </trkpt>
      <trkpt lat="47.70404" lon="6.00412">
        <ele>241.98</ele>
        <time>2018-02-28T13:06:54Z</time>
      </trkpt>
      <trkpt lat="47.70407" lon="6.00404">
        <ele>242.02</ele>
        <time>2018-02-28T13:06:57Z</time>
      </trkpt>
      <trkpt lat="47.7041" lon="6.00396">
        <ele>242.05</ele>
        <time>2018-02-28T13:06:59Z</time>
      </trkpt>
      <trkpt lat="47.70413" lon="6.00389">
        <ele>242.08</ele>
        <time>2018-02-28T13:07:01Z</time>
      </trkpt>
      <trkpt lat="47.70416" lon="6.00382">
        <ele>242.1</ele>
        <time>2018-02-28T13:07:03Z</time>
      </trkpt>
      <trkpt lat="47.70418" lon="6.00375">
        <ele>242.13</ele>
        <time>2018-02-28T13:07:05Z</time>
      </trkpt>
      <trkpt lat="47.7042" lon="6.00369">
        <ele>242.16</ele>
        <time>2018-02-28T13:07:07Z</time>
      </trkpt>
      <trkpt lat="47.70421" lon="6.00362">
        <ele>242.21</ele>
        <time>2018-02-28T13:07:10Z</time>
      </trkpt>
      <trkpt lat="47.70424" lon="6.00355">
        <ele>242.28</ele>
        <time>2018-02-28T13:07:14Z</time>
      </trkpt>
      <trkpt lat="47.70427" lon="6.00349">
        <ele>242.31</ele>
        <time>2018-02-28T13:07:16Z</time>
      </trkpt>
      <trkpt lat="47.70429" lon="6.00341">
        <ele>242.34</ele>
        <time>2018-02-28T13:07:18Z</time>
      </trkpt>
      <trkpt lat="47.70431" lon="6.00334">
        <ele>242.37</ele>
        <time>2018-02-28T13:07:20Z</time>
      </trkpt>
      <trkpt lat="47.70432" lon="6.00327">
        <ele>242.44</ele>
        <time>2018-02-28T13:07:24Z</time>
      </trkpt>
      <trkpt lat="47.70427" lon="6.00329">
        <ele>242.69</ele>
        <time>2018-02-28T13:07:44Z</time>
      </trkpt>
      <trkpt lat="47.70427" lon="6.00322">
        <ele>242.79</ele>
        <time>2018-02-28T13:07:54Z</time>
      </trkpt>
      <trkpt lat="47.70428" lon="6.00315">
        <ele>242.91</ele>
        <time>2018-02-28T13:08:22Z</time>
      </trkpt>
      <trkpt lat="47.7043" lon="6.00308">
        <ele>243.03</ele>
        <time>2018-02-28T13:08:24Z</time>
      </trkpt>
      <trkpt lat="47.70433" lon="6.00298">
        <ele>243.24</ele>
        <time>2018-02-28T13:08:27Z</time>
      </trkpt>
      <trkpt lat="47.70435" lon="6.00291">
        <ele>243.44</ele>
        <time>2018-02-28T13:08:30Z</time>
      </trkpt>
      <trkpt lat="47.70437" lon="6.00284">
        <ele>243.57</ele>
        <time>2018-02-28T13:08:32Z</time>
      </trkpt>
      <trkpt lat="47.7044" lon="6.00278">
        <ele>243.71</ele>
        <time>2018-02-28T13:08:34Z</time>
      </trkpt>
      <trkpt lat="47.70444" lon="6.0027">
        <ele>243.85</ele>
        <time>2018-02-28T13:08:36Z</time>
      </trkpt>
      <trkpt lat="47.70447" lon="6.00263">
        <ele>244.07</ele>
        <time>2018-02-28T13:08:39Z</time>
      </trkpt>
      <trkpt lat="47.70449" lon="6.00257">
        <ele>244.29</ele>
        <time>2018-02-28T13:08:42Z</time>
      </trkpt>
      <trkpt lat="47.70451" lon="6.0025">
        <ele>244.51</ele>
        <time>2018-02-28T13:08:45Z</time>
      </trkpt>
      <trkpt lat="47.70453" lon="6.00244">
        <ele>244.66</ele>
        <time>2018-02-28T13:08:47Z</time>
      </trkpt>
      <trkpt lat="47.70456" lon="6.00237">
        <ele>244.81</ele>
        <time>2018-02-28T13:08:49Z</time>
      </trkpt>
      <trkpt lat="47.70459" lon="6.0023">
        <ele>244.97</ele>
        <time>2018-02-28T13:08:51Z</time>
      </trkpt>
      <trkpt lat="47.7046" lon="6.00221">
        <ele>245.22</ele>
        <time>2018-02-28T13:08:54Z</time>
      </trkpt>
      <trkpt lat="47.70459" lon="6.00213">
        <ele>245.48</ele>
        <time>2018-02-28T13:08:57Z</time>
      </trkpt>
      <trkpt lat="47.70457" lon="6.00205">
        <ele>245.66</ele>
        <time>2018-02-28T13:08:59Z</time>
      </trkpt>
      <trkpt lat="47.70454" lon="6.002">
        <ele>245.88</ele>
        <time>2018-02-28T13:09:02Z</time>
      </trkpt>
      <trkpt lat="47.70451" lon="6.00194">
        <ele>246.57</ele>
        <time>2018-02-28T13:09:15Z</time>
      </trkpt>
      <trkpt lat="47.70446" lon="6.00188">
        <ele>246.9</ele>
        <time>2018-02-28T13:09:18Z</time>
      </trkpt>
      <trkpt lat="47.70442" lon="6.00184">
        <ele>247.11</ele>
        <time>2018-02-28T13:09:20Z</time>
      </trkpt>
      <trkpt lat="47.70438" lon="6.00179">
        <ele>247.31</ele>
        <time>2018-02-28T13:09:22Z</time>
      </trkpt>
      <trkpt lat="47.70433" lon="6.00174">
        <ele>247.52</ele>
        <time>2018-02-28T13:09:24Z</time>
      </trkpt>
      <trkpt lat="47.7043" lon="6.00169">
        <ele>247.72</ele>
        <time>2018-02-28T13:09:26Z</time>
      </trkpt>
      <trkpt lat="47.70425" lon="6.00162">
        <ele>247.93</ele>
        <time>2018-02-28T13:09:28Z</time>
      </trkpt>
      <trkpt lat="47.7042" lon="6.00156">
        <ele>248.15</ele>
        <time>2018-02-28T13:09:30Z</time>
      </trkpt>
      <trkpt lat="47.70417" lon="6.00152">
        <ele>248.37</ele>
        <time>2018-02-28T13:09:32Z</time>
      </trkpt>
      <trkpt lat="47.70413" lon="6.00146">
        <ele>248.72</ele>
        <time>2018-02-28T13:09:35Z</time>
      </trkpt>
      <trkpt lat="47.70408" lon="6.0014">
        <ele>249.06</ele>
        <time>2018-02-28T13:09:38Z</time>
      </trkpt>
      <trkpt lat="47.70403" lon="6.00134">
        <ele>249.41</ele>
        <time>2018-02-28T13:09:41Z</time>
      </trkpt>
      <trkpt lat="47.70399" lon="6.00129">
        <ele>249.75</ele>
        <time>2018-02-28T13:09:44Z</time>
      </trkpt>
      <trkpt lat="47.70396" lon="6.00123">
        <ele>250.08</ele>
        <time>2018-02-28T13:09:47Z</time>
      </trkpt>
      <trkpt lat="47.70392" lon="6.00115">
        <ele>250.31</ele>
        <time>2018-02-28T13:09:49Z</time>
      </trkpt>
      <trkpt lat="47.70387" lon="6.00107">
        <ele>250.53</ele>
        <time>2018-02-28T13:09:51Z</time>
      </trkpt>
      <trkpt lat="47.70383" lon="6.00101">
        <ele>250.75</ele>
        <time>2018-02-28T13:09:53Z</time>
      </trkpt>
      <trkpt lat="47.70378" lon="6.00095">
        <ele>250.97</ele>
        <time>2018-02-28T13:09:55Z</time>
      </trkpt>
      <trkpt lat="47.70375" lon="6.0009">
        <ele>251.19</ele>
        <time>2018-02-28T13:09:57Z</time>
      </trkpt>
      <trkpt lat="47.70371" lon="6.00083">
        <ele>251.4</ele>
        <time>2018-02-28T13:09:59Z</time>
      </trkpt>
      <trkpt lat="47.70367" lon="6.00077">
        <ele>251.61</ele>
        <time>2018-02-28T13:10:01Z</time>
      </trkpt>
      <trkpt lat="47.70365" lon="6.00071">
        <ele>251.93</ele>
        <time>2018-02-28T13:10:04Z</time>
      </trkpt>
      <trkpt lat="47.70362" lon="6.00065">
        <ele>252.14</ele>
        <time>2018-02-28T13:10:06Z</time>
      </trkpt>
      <trkpt lat="47.70358" lon="6.00057">
        <ele>252.36</ele>
        <time>2018-02-28T13:10:08Z</time>
      </trkpt>
      <trkpt lat="47.70354" lon="6.00052">
        <ele>252.57</ele>
        <time>2018-02-28T13:10:10Z</time>
      </trkpt>
      <trkpt lat="47.7035" lon="6.00047">
        <ele>252.89</ele>
        <time>2018-02-28T13:10:13Z</time>
      </trkpt>
      <trkpt lat="47.70346" lon="6.0004">
        <ele>253</ele>
        <time>2018-02-28T13:10:14Z</time>
      </trkpt>
      <trkpt lat="47.7034" lon="6.00034">
        <ele>253.21</ele>
        <time>2018-02-28T13:10:16Z</time>
      </trkpt>
      <trkpt lat="47.70336" lon="6.00027">
        <ele>253.42</ele>
        <time>2018-02-28T13:10:18Z</time>
      </trkpt>
      <trkpt lat="47.7033" lon="6.00018">
        <ele>253.64</ele>
        <time>2018-02-28T13:10:20Z</time>
      </trkpt>
      <trkpt lat="47.70326" lon="6.0001">
        <ele>253.87</ele>
        <time>2018-02-28T13:10:22Z</time>
      </trkpt>
      <trkpt lat="47.70321" lon="6.00003">
        <ele>254.1</ele>
        <time>2018-02-28T13:10:24Z</time>
      </trkpt>
      <trkpt lat="47.70317" lon="5.99998">
        <ele>254.34</ele>
        <time>2018-02-28T13:10:26Z</time>
      </trkpt>
      <trkpt lat="47.70314" lon="5.99993">
        <ele>254.57</ele>
        <time>2018-02-28T13:10:28Z</time>
      </trkpt>
      <trkpt lat="47.7031" lon="5.99988">
        <ele>254.82</ele>
        <time>2018-02-28T13:10:30Z</time>
      </trkpt>
      <trkpt lat="47.70306" lon="5.99981">
        <ele>255.06</ele>
        <time>2018-02-28T13:10:32Z</time>
      </trkpt>
      <trkpt lat="47.70303" lon="5.99975">
        <ele>255.3</ele>
        <time>2018-02-28T13:10:34Z</time>
      </trkpt>
      <trkpt lat="47.70299" lon="5.99968">
        <ele>255.55</ele>
        <time>2018-02-28T13:10:36Z</time>
      </trkpt>
      <trkpt lat="47.70296" lon="5.9996">
        <ele>255.8</ele>
        <time>2018-02-28T13:10:38Z</time>
      </trkpt>
      <trkpt lat="47.70294" lon="5.99954">
        <ele>256.04</ele>
        <time>2018-02-28T13:10:40Z</time>
      </trkpt>
      <trkpt lat="47.70291" lon="5.99948">
        <ele>256.28</ele>
        <time>2018-02-28T13:10:42Z</time>
      </trkpt>
      <trkpt lat="47.70287" lon="5.99939">
        <ele>256.63</ele>
        <time>2018-02-28T13:10:45Z</time>
      </trkpt>
      <trkpt lat="47.70284" lon="5.99934">
        <ele>256.86</ele>
        <time>2018-02-28T13:10:47Z</time>
      </trkpt>
      <trkpt lat="47.70281" lon="5.99927">
        <ele>257.08</ele>
        <time>2018-02-28T13:10:49Z</time>
      </trkpt>
      <trkpt lat="47.70279" lon="5.99921">
        <ele>257.3</ele>
        <time>2018-02-28T13:10:51Z</time>
      </trkpt>
      <trkpt lat="47.70276" lon="5.99916">
        <ele>257.51</ele>
        <time>2018-02-28T13:10:53Z</time>
      </trkpt>
      <trkpt lat="47.70273" lon="5.99904">
        <ele>257.71</ele>
        <time>2018-02-28T13:10:55Z</time>
      </trkpt>
      <trkpt lat="47.7027" lon="5.99896">
        <ele>257.82</ele>
        <time>2018-02-28T13:10:56Z</time>
      </trkpt>
      <trkpt lat="47.70266" lon="5.99892">
        <ele>258.22</ele>
        <time>2018-02-28T13:11:00Z</time>
      </trkpt>
      <trkpt lat="47.70264" lon="5.99884">
        <ele>258.51</ele>
        <time>2018-02-28T13:11:03Z</time>
      </trkpt>
      <trkpt lat="47.70262" lon="5.99878">
        <ele>258.69</ele>
        <time>2018-02-28T13:11:05Z</time>
      </trkpt>
      <trkpt lat="47.70259" lon="5.9987">
        <ele>258.87</ele>
        <time>2018-02-28T13:11:07Z</time>
      </trkpt>
      <trkpt lat="47.70258" lon="5.99864">
        <ele>259.05</ele>
        <time>2018-02-28T13:11:09Z</time>
      </trkpt>
      <trkpt lat="47.70254" lon="5.99855">
        <ele>259.31</ele>
        <time>2018-02-28T13:11:12Z</time>
      </trkpt>
      <trkpt lat="47.70252" lon="5.99846">
        <ele>259.56</ele>
        <time>2018-02-28T13:11:15Z</time>
      </trkpt>
      <trkpt lat="47.70253" lon="5.99838">
        <ele>259.72</ele>
        <time>2018-02-28T13:11:17Z</time>
      </trkpt>
      <trkpt lat="47.70254" lon="5.99831">
        <ele>259.87</ele>
        <time>2018-02-28T13:11:19Z</time>
      </trkpt>
      <trkpt lat="47.70256" lon="5.99823">
        <ele>260.1</ele>
        <time>2018-02-28T13:11:22Z</time>
      </trkpt>
      <trkpt lat="47.70258" lon="5.99815">
        <ele>260.33</ele>
        <time>2018-02-28T13:11:25Z</time>
      </trkpt>
      <trkpt lat="47.70259" lon="5.99808">
        <ele>260.48</ele>
        <time>2018-02-28T13:11:27Z</time>
      </trkpt>
      <trkpt lat="47.70262" lon="5.99801">
        <ele>260.69</ele>
        <time>2018-02-28T13:11:30Z</time>
      </trkpt>
      <trkpt lat="47.70265" lon="5.99794">
        <ele>260.83</ele>
        <time>2018-02-28T13:11:32Z</time>
      </trkpt>
      <trkpt lat="47.70268" lon="5.99787">
        <ele>260.96</ele>
        <time>2018-02-28T13:11:34Z</time>
      </trkpt>
      <trkpt lat="47.70272" lon="5.99781">
        <ele>261.09</ele>
        <time>2018-02-28T13:11:36Z</time>
      </trkpt>
      <trkpt lat="47.70275" lon="5.99774">
        <ele>261.28</ele>
        <time>2018-02-28T13:11:39Z</time>
      </trkpt>
      <trkpt lat="47.70277" lon="5.99767">
        <ele>261.47</ele>
        <time>2018-02-28T13:11:42Z</time>
      </trkpt>
      <trkpt lat="47.70277" lon="5.99761">
        <ele>261.65</ele>
        <time>2018-02-28T13:11:45Z</time>
      </trkpt>
      <trkpt lat="47.70281" lon="5.99756">
        <ele>261.9</ele>
        <time>2018-02-28T13:11:49Z</time>
      </trkpt>
      <trkpt lat="47.70285" lon="5.99751">
        <ele>262.19</ele>
        <time>2018-02-28T13:11:54Z</time>
      </trkpt>
      <trkpt lat="47.70288" lon="5.99745">
        <ele>262.42</ele>
        <time>2018-02-28T13:11:58Z</time>
      </trkpt>
      <trkpt lat="47.70291" lon="5.9974">
        <ele>262.59</ele>
        <time>2018-02-28T13:12:01Z</time>
      </trkpt>
      <trkpt lat="47.70293" lon="5.99732">
        <ele>262.76</ele>
        <time>2018-02-28T13:12:04Z</time>
      </trkpt>
      <trkpt lat="47.70293" lon="5.99725">
        <ele>262.89</ele>
        <time>2018-02-28T13:12:06Z</time>
      </trkpt>
      <trkpt lat="47.70294" lon="5.99717">
        <ele>263.22</ele>
        <time>2018-02-28T13:12:11Z</time>
      </trkpt>
      <trkpt lat="47.70296" lon="5.9971">
        <ele>263.56</ele>
        <time>2018-02-28T13:12:16Z</time>
      </trkpt>
      <trkpt lat="47.70299" lon="5.99704">
        <ele>263.84</ele>
        <time>2018-02-28T13:12:20Z</time>
      </trkpt>
      <trkpt lat="47.70302" lon="5.99698">
        <ele>264.18</ele>
        <time>2018-02-28T13:12:25Z</time>
      </trkpt>
      <trkpt lat="47.70307" lon="5.99694">
        <ele>264.44</ele>
        <time>2018-02-28T13:12:29Z</time>
      </trkpt>
      <trkpt lat="47.7031" lon="5.99688">
        <ele>264.68</ele>
        <time>2018-02-28T13:12:33Z</time>
      </trkpt>
      <trkpt lat="47.70313" lon="5.99681">
        <ele>264.86</ele>
        <time>2018-02-28T13:12:36Z</time>
      </trkpt>
      <trkpt lat="47.70316" lon="5.99674">
        <ele>265.09</ele>
        <time>2018-02-28T13:12:40Z</time>
      </trkpt>
      <trkpt lat="47.70319" lon="5.99666">
        <ele>265.31</ele>
        <time>2018-02-28T13:12:44Z</time>
      </trkpt>
      <trkpt lat="47.70322" lon="5.99659">
        <ele>265.54</ele>
        <time>2018-02-28T13:12:48Z</time>
      </trkpt>
      <trkpt lat="47.70323" lon="5.9965">
        <ele>265.71</ele>
        <time>2018-02-28T13:12:51Z</time>
      </trkpt>
      <trkpt lat="47.70323" lon="5.99641">
        <ele>265.89</ele>
        <time>2018-02-28T13:12:54Z</time>
      </trkpt>
      <trkpt lat="47.70323" lon="5.99635">
        <ele>266.14</ele>
        <time>2018-02-28T13:12:58Z</time>
      </trkpt>
      <trkpt lat="47.70327" lon="5.99628">
        <ele>266.37</ele>
        <time>2018-02-28T13:13:02Z</time>
      </trkpt>
      <trkpt lat="47.70326" lon="5.9962">
        <ele>266.6</ele>
        <time>2018-02-28T13:13:06Z</time>
      </trkpt>
      <trkpt lat="47.70329" lon="5.99612">
        <ele>266.82</ele>
        <time>2018-02-28T13:13:10Z</time>
      </trkpt>
      <trkpt lat="47.7033" lon="5.99603">
        <ele>267.04</ele>
        <time>2018-02-28T13:13:14Z</time>
      </trkpt>
      <trkpt lat="47.70332" lon="5.99596">
        <ele>267.21</ele>
        <time>2018-02-28T13:13:17Z</time>
      </trkpt>
      <trkpt lat="47.70334" lon="5.9959">
        <ele>267.48</ele>
        <time>2018-02-28T13:13:31Z</time>
      </trkpt>
      <trkpt lat="47.70334" lon="5.99583">
        <ele>268.17</ele>
        <time>2018-02-28T13:14:00Z</time>
      </trkpt>
      <trkpt lat="47.70335" lon="5.99574">
        <ele>268.64</ele>
        <time>2018-02-28T13:14:05Z</time>
      </trkpt>
      <trkpt lat="47.70337" lon="5.99567">
        <ele>268.82</ele>
        <time>2018-02-28T13:14:07Z</time>
      </trkpt>
      <trkpt lat="47.70337" lon="5.99558">
        <ele>269.08</ele>
        <time>2018-02-28T13:14:10Z</time>
      </trkpt>
      <trkpt lat="47.70337" lon="5.99549">
        <ele>269.32</ele>
        <time>2018-02-28T13:14:13Z</time>
      </trkpt>
      <trkpt lat="47.70338" lon="5.99541">
        <ele>269.56</ele>
        <time>2018-02-28T13:14:16Z</time>
      </trkpt>
      <trkpt lat="47.70337" lon="5.99531">
        <ele>269.79</ele>
        <time>2018-02-28T13:14:19Z</time>
      </trkpt>
      <trkpt lat="47.70336" lon="5.99522">
        <ele>270.01</ele>
        <time>2018-02-28T13:14:22Z</time>
      </trkpt>
      <trkpt lat="47.70337" lon="5.99513">
        <ele>270.28</ele>
        <time>2018-02-28T13:14:26Z</time>
      </trkpt>
      <trkpt lat="47.70338" lon="5.99506">
        <ele>270.54</ele>
        <time>2018-02-28T13:14:30Z</time>
      </trkpt>
      <trkpt lat="47.70343" lon="5.99503">
        <ele>270.71</ele>
        <time>2018-02-28T13:14:33Z</time>
      </trkpt>
      <trkpt lat="47.70349" lon="5.99503">
        <ele>270.83</ele>
        <time>2018-02-28T13:14:35Z</time>
      </trkpt>
      <trkpt lat="47.70353" lon="5.99497">
        <ele>271.04</ele>
        <time>2018-02-28T13:14:39Z</time>
      </trkpt>
      <trkpt lat="47.70358" lon="5.99493">
        <ele>271.26</ele>
        <time>2018-02-28T13:14:43Z</time>
      </trkpt>
      <trkpt lat="47.70362" lon="5.99493">
        <ele>271.57</ele>
        <time>2018-02-28T13:14:49Z</time>
      </trkpt>
      <trkpt lat="47.70367" lon="5.99493">
        <ele>271.88</ele>
        <time>2018-02-28T13:14:55Z</time>
      </trkpt>
      <trkpt lat="47.70372" lon="5.99492">
        <ele>272.08</ele>
        <time>2018-02-28T13:14:59Z</time>
      </trkpt>
      <trkpt lat="47.70377" lon="5.99494">
        <ele>272.23</ele>
        <time>2018-02-28T13:15:02Z</time>
      </trkpt>
      <trkpt lat="47.70382" lon="5.99493">
        <ele>272.41</ele>
        <time>2018-02-28T13:15:06Z</time>
      </trkpt>
      <trkpt lat="47.70388" lon="5.99491">
        <ele>272.54</ele>
        <time>2018-02-28T13:15:09Z</time>
      </trkpt>
      <trkpt lat="47.70394" lon="5.99491">
        <ele>272.63</ele>
        <time>2018-02-28T13:15:11Z</time>
      </trkpt>
      <trkpt lat="47.70399" lon="5.9949">
        <ele>272.75</ele>
        <time>2018-02-28T13:15:14Z</time>
      </trkpt>
      <trkpt lat="47.70403" lon="5.99488">
        <ele>272.88</ele>
        <time>2018-02-28T13:15:17Z</time>
      </trkpt>
      <trkpt lat="47.70409" lon="5.99486">
        <ele>272.96</ele>
        <time>2018-02-28T13:15:19Z</time>
      </trkpt>
      <trkpt lat="47.70414" lon="5.99484">
        <ele>273.06</ele>
        <time>2018-02-28T13:15:21Z</time>
      </trkpt>
      <trkpt lat="47.70418" lon="5.99481">
        <ele>273.21</ele>
        <time>2018-02-28T13:15:24Z</time>
      </trkpt>
      <trkpt lat="47.70422" lon="5.99475">
        <ele>273.36</ele>
        <time>2018-02-28T13:15:27Z</time>
      </trkpt>
      <trkpt lat="47.70427" lon="5.9947">
        <ele>273.62</ele>
        <time>2018-02-28T13:15:32Z</time>
      </trkpt>
      <trkpt lat="47.70431" lon="5.99466">
        <ele>273.83</ele>
        <time>2018-02-28T13:15:36Z</time>
      </trkpt>
      <trkpt lat="47.70435" lon="5.99463">
        <ele>274.05</ele>
        <time>2018-02-28T13:15:40Z</time>
      </trkpt>
      <trkpt lat="47.7044" lon="5.99461">
        <ele>274.34</ele>
        <time>2018-02-28T13:15:45Z</time>
      </trkpt>
      <trkpt lat="47.70447" lon="5.9946">
        <ele>274.63</ele>
        <time>2018-02-28T13:15:50Z</time>
      </trkpt>
      <trkpt lat="47.70451" lon="5.99458">
        <ele>274.69</ele>
        <time>2018-02-28T13:15:51Z</time>
      </trkpt>
      <trkpt lat="47.70455" lon="5.9945">
        <ele>274.86</ele>
        <time>2018-02-28T13:15:54Z</time>
      </trkpt>
      <trkpt lat="47.70459" lon="5.99444">
        <ele>275.04</ele>
        <time>2018-02-28T13:15:57Z</time>
      </trkpt>
      <trkpt lat="47.70463" lon="5.9944">
        <ele>275.21</ele>
        <time>2018-02-28T13:16:00Z</time>
      </trkpt>
      <trkpt lat="47.70467" lon="5.99434">
        <ele>275.45</ele>
        <time>2018-02-28T13:16:04Z</time>
      </trkpt>
      <trkpt lat="47.70471" lon="5.99428">
        <ele>275.69</ele>
        <time>2018-02-28T13:16:08Z</time>
      </trkpt>
      <trkpt lat="47.70475" lon="5.99423">
        <ele>276.01</ele>
        <time>2018-02-28T13:16:13Z</time>
      </trkpt>
      <trkpt lat="47.70479" lon="5.99419">
        <ele>276.34</ele>
        <time>2018-02-28T13:16:18Z</time>
      </trkpt>
      <trkpt lat="47.70483" lon="5.99414">
        <ele>276.68</ele>
        <time>2018-02-28T13:16:23Z</time>
      </trkpt>
      <trkpt lat="47.70487" lon="5.99409">
        <ele>276.99</ele>
        <time>2018-02-28T13:16:27Z</time>
      </trkpt>
      <trkpt lat="47.70489" lon="5.99403">
        <ele>277.62</ele>
        <time>2018-02-28T13:16:34Z</time>
      </trkpt>
      <trkpt lat="47.70492" lon="5.99396">
        <ele>278.12</ele>
        <time>2018-02-28T13:16:39Z</time>
      </trkpt>
      <trkpt lat="47.70495" lon="5.99391">
        <ele>278.42</ele>
        <time>2018-02-28T13:16:42Z</time>
      </trkpt>
      <trkpt lat="47.705" lon="5.99385">
        <ele>278.71</ele>
        <time>2018-02-28T13:16:45Z</time>
      </trkpt>
      <trkpt lat="47.70504" lon="5.9938">
        <ele>279.01</ele>
        <time>2018-02-28T13:16:48Z</time>
      </trkpt>
      <trkpt lat="47.70508" lon="5.99373">
        <ele>279.29</ele>
        <time>2018-02-28T13:16:51Z</time>
      </trkpt>
      <trkpt lat="47.7051" lon="5.99367">
        <ele>279.48</ele>
        <time>2018-02-28T13:16:53Z</time>
      </trkpt>
      <trkpt lat="47.70512" lon="5.9936">
        <ele>279.76</ele>
        <time>2018-02-28T13:16:56Z</time>
      </trkpt>
      <trkpt lat="47.70515" lon="5.99354">
        <ele>280.04</ele>
        <time>2018-02-28T13:16:59Z</time>
      </trkpt>
      <trkpt lat="47.70518" lon="5.99348">
        <ele>280.31</ele>
        <time>2018-02-28T13:17:02Z</time>
      </trkpt>
      <trkpt lat="47.70521" lon="5.99342">
        <ele>280.68</ele>
        <time>2018-02-28T13:17:06Z</time>
      </trkpt>
      <trkpt lat="47.70525" lon="5.99338">
        <ele>281.04</ele>
        <time>2018-02-28T13:17:10Z</time>
      </trkpt>
      <trkpt lat="47.7053" lon="5.99337">
        <ele>281.39</ele>
        <time>2018-02-28T13:17:14Z</time>
      </trkpt>
      <trkpt lat="47.70536" lon="5.99335">
        <ele>281.74</ele>
        <time>2018-02-28T13:17:18Z</time>
      </trkpt>
      <trkpt lat="47.70541" lon="5.99335">
        <ele>281.99</ele>
        <time>2018-02-28T13:17:21Z</time>
      </trkpt>
      <trkpt lat="47.70545" lon="5.99334">
        <ele>282.15</ele>
        <time>2018-02-28T13:17:23Z</time>
      </trkpt>
      <trkpt lat="47.70551" lon="5.99334">
        <ele>282.39</ele>
        <time>2018-02-28T13:17:26Z</time>
      </trkpt>
      <trkpt lat="47.70556" lon="5.99334">
        <ele>282.63</ele>
        <time>2018-02-28T13:17:29Z</time>
      </trkpt>
      <trkpt lat="47.70562" lon="5.99333">
        <ele>282.86</ele>
        <time>2018-02-28T13:17:32Z</time>
      </trkpt>
      <trkpt lat="47.70568" lon="5.99331">
        <ele>283.02</ele>
        <time>2018-02-28T13:17:34Z</time>
      </trkpt>
      <trkpt lat="47.70574" lon="5.99332">
        <ele>283.27</ele>
        <time>2018-02-28T13:17:37Z</time>
      </trkpt>
      <trkpt lat="47.7058" lon="5.99332">
        <ele>283.5</ele>
        <time>2018-02-28T13:17:40Z</time>
      </trkpt>
      <trkpt lat="47.70584" lon="5.99332">
        <ele>283.88</ele>
        <time>2018-02-28T13:17:45Z</time>
      </trkpt>
      <trkpt lat="47.70589" lon="5.99333">
        <ele>284.09</ele>
        <time>2018-02-28T13:17:48Z</time>
      </trkpt>
      <trkpt lat="47.70595" lon="5.99331">
        <ele>284.29</ele>
        <time>2018-02-28T13:17:51Z</time>
      </trkpt>
      <trkpt lat="47.706" lon="5.99332">
        <ele>284.42</ele>
        <time>2018-02-28T13:17:53Z</time>
      </trkpt>
      <trkpt lat="47.70606" lon="5.99333">
        <ele>284.61</ele>
        <time>2018-02-28T13:17:56Z</time>
      </trkpt>
      <trkpt lat="47.70613" lon="5.99332">
        <ele>284.79</ele>
        <time>2018-02-28T13:17:59Z</time>
      </trkpt>
      <trkpt lat="47.70618" lon="5.99333">
        <ele>284.9</ele>
        <time>2018-02-28T13:18:01Z</time>
      </trkpt>
      <trkpt lat="47.70624" lon="5.99332">
        <ele>285.08</ele>
        <time>2018-02-28T13:18:04Z</time>
      </trkpt>
      <trkpt lat="47.70629" lon="5.99331">
        <ele>285.25</ele>
        <time>2018-02-28T13:18:07Z</time>
      </trkpt>
      <trkpt lat="47.70634" lon="5.99329">
        <ele>285.49</ele>
        <time>2018-02-28T13:18:11Z</time>
      </trkpt>
      <trkpt lat="47.7064" lon="5.99328">
        <ele>285.8</ele>
        <time>2018-02-28T13:18:16Z</time>
      </trkpt>
      <trkpt lat="47.70645" lon="5.99327">
        <ele>285.93</ele>
        <time>2018-02-28T13:18:18Z</time>
      </trkpt>
      <trkpt lat="47.70653" lon="5.99325">
        <ele>286.05</ele>
        <time>2018-02-28T13:18:20Z</time>
      </trkpt>
      <trkpt lat="47.70658" lon="5.99325">
        <ele>286.17</ele>
        <time>2018-02-28T13:18:22Z</time>
      </trkpt>
      <trkpt lat="47.70664" lon="5.99323">
        <ele>286.37</ele>
        <time>2018-02-28T13:18:25Z</time>
      </trkpt>
      <trkpt lat="47.70669" lon="5.99322">
        <ele>286.65</ele>
        <time>2018-02-28T13:18:29Z</time>
      </trkpt>
      <trkpt lat="47.70675" lon="5.99319">
        <ele>286.87</ele>
        <time>2018-02-28T13:18:32Z</time>
      </trkpt>
      <trkpt lat="47.7068" lon="5.9932">
        <ele>287.01</ele>
        <time>2018-02-28T13:18:34Z</time>
      </trkpt>
      <trkpt lat="47.70684" lon="5.9932">
        <ele>287.16</ele>
        <time>2018-02-28T13:18:36Z</time>
      </trkpt>
      <trkpt lat="47.70689" lon="5.99318">
        <ele>287.3</ele>
        <time>2018-02-28T13:18:38Z</time>
      </trkpt>
      <trkpt lat="47.70695" lon="5.99315">
        <ele>287.52</ele>
        <time>2018-02-28T13:18:41Z</time>
      </trkpt>
      <trkpt lat="47.70699" lon="5.99313">
        <ele>287.87</ele>
        <time>2018-02-28T13:18:47Z</time>
      </trkpt>
      <trkpt lat="47.70705" lon="5.99309">
        <ele>288.08</ele>
        <time>2018-02-28T13:18:50Z</time>
      </trkpt>
      <trkpt lat="47.70709" lon="5.99304">
        <ele>288.37</ele>
        <time>2018-02-28T13:18:54Z</time>
      </trkpt>
      <trkpt lat="47.70714" lon="5.99299">
        <ele>288.6</ele>
        <time>2018-02-28T13:18:57Z</time>
      </trkpt>
      <trkpt lat="47.70718" lon="5.99293">
        <ele>288.89</ele>
        <time>2018-02-28T13:19:00Z</time>
      </trkpt>
      <trkpt lat="47.7072" lon="5.99287">
        <ele>289.3</ele>
        <time>2018-02-28T13:19:04Z</time>
      </trkpt>
      <trkpt lat="47.70724" lon="5.9928">
        <ele>289.84</ele>
        <time>2018-02-28T13:19:09Z</time>
      </trkpt>
      <trkpt lat="47.70726" lon="5.99273">
        <ele>290.16</ele>
        <time>2018-02-28T13:19:12Z</time>
      </trkpt>
      <trkpt lat="47.70728" lon="5.99265">
        <ele>290.69</ele>
        <time>2018-02-28T13:19:17Z</time>
      </trkpt>
      <trkpt lat="47.7073" lon="5.99256">
        <ele>291.1</ele>
        <time>2018-02-28T13:19:21Z</time>
      </trkpt>
      <trkpt lat="47.70732" lon="5.9925">
        <ele>291.49</ele>
        <time>2018-02-28T13:19:25Z</time>
      </trkpt>
      <trkpt lat="47.7073" lon="5.99241">
        <ele>291.87</ele>
        <time>2018-02-28T13:19:29Z</time>
      </trkpt>
      <trkpt lat="47.70728" lon="5.99231">
        <ele>292.16</ele>
        <time>2018-02-28T13:19:32Z</time>
      </trkpt>
      <trkpt lat="47.70727" lon="5.99222">
        <ele>292.35</ele>
        <time>2018-02-28T13:19:34Z</time>
      </trkpt>
      <trkpt lat="47.70728" lon="5.99213">
        <ele>292.65</ele>
        <time>2018-02-28T13:19:37Z</time>
      </trkpt>
      <trkpt lat="47.70727" lon="5.99205">
        <ele>293.05</ele>
        <time>2018-02-28T13:19:41Z</time>
      </trkpt>
      <trkpt lat="47.70726" lon="5.99198">
        <ele>293.36</ele>
        <time>2018-02-28T13:19:44Z</time>
      </trkpt>
      <trkpt lat="47.70726" lon="5.99191">
        <ele>293.88</ele>
        <time>2018-02-28T13:19:49Z</time>
      </trkpt>
      <trkpt lat="47.70728" lon="5.99182">
        <ele>294.5</ele>
        <time>2018-02-28T13:19:55Z</time>
      </trkpt>
      <trkpt lat="47.70728" lon="5.99175">
        <ele>294.92</ele>
        <time>2018-02-28T13:19:59Z</time>
      </trkpt>
      <trkpt lat="47.70728" lon="5.99168">
        <ele>295.23</ele>
        <time>2018-02-28T13:20:02Z</time>
      </trkpt>
      <trkpt lat="47.70728" lon="5.99161">
        <ele>295.54</ele>
        <time>2018-02-28T13:20:05Z</time>
      </trkpt>
      <trkpt lat="47.70726" lon="5.99154">
        <ele>295.96</ele>
        <time>2018-02-28T13:20:09Z</time>
      </trkpt>
      <trkpt lat="47.70728" lon="5.99145">
        <ele>296.49</ele>
        <time>2018-02-28T13:20:14Z</time>
      </trkpt>
      <trkpt lat="47.70731" lon="5.99136">
        <ele>296.9</ele>
        <time>2018-02-28T13:20:18Z</time>
      </trkpt>
      <trkpt lat="47.70732" lon="5.9913">
        <ele>297.2</ele>
        <time>2018-02-28T13:20:21Z</time>
      </trkpt>
      <trkpt lat="47.70732" lon="5.99123">
        <ele>297.58</ele>
        <time>2018-02-28T13:20:25Z</time>
      </trkpt>
      <trkpt lat="47.70732" lon="5.99116">
        <ele>297.95</ele>
        <time>2018-02-28T13:20:29Z</time>
      </trkpt>
      <trkpt lat="47.70733" lon="5.99108">
        <ele>298.22</ele>
        <time>2018-02-28T13:20:32Z</time>
      </trkpt>
      <trkpt lat="47.7073" lon="5.991">
        <ele>298.58</ele>
        <time>2018-02-28T13:20:36Z</time>
      </trkpt>
      <trkpt lat="47.70729" lon="5.99091">
        <ele>298.76</ele>
        <time>2018-02-28T13:20:38Z</time>
      </trkpt>
      <trkpt lat="47.70728" lon="5.99084">
        <ele>298.93</ele>
        <time>2018-02-28T13:20:40Z</time>
      </trkpt>
      <trkpt lat="47.70726" lon="5.99078">
        <ele>299.29</ele>
        <time>2018-02-28T13:20:44Z</time>
      </trkpt>
      <trkpt lat="47.70725" lon="5.99064">
        <ele>299.66</ele>
        <time>2018-02-28T13:20:48Z</time>
      </trkpt>
      <trkpt lat="47.70725" lon="5.99056">
        <ele>299.85</ele>
        <time>2018-02-28T13:20:50Z</time>
      </trkpt>
      <trkpt lat="47.70725" lon="5.99048">
        <ele>300.15</ele>
        <time>2018-02-28T13:20:53Z</time>
      </trkpt>
      <trkpt lat="47.70725" lon="5.9904">
        <ele>300.65</ele>
        <time>2018-02-28T13:20:58Z</time>
      </trkpt>
      <trkpt lat="47.70728" lon="5.99033">
        <ele>301.06</ele>
        <time>2018-02-28T13:21:02Z</time>
      </trkpt>
      <trkpt lat="47.70729" lon="5.99026">
        <ele>301.47</ele>
        <time>2018-02-28T13:21:06Z</time>
      </trkpt>
      <trkpt lat="47.70729" lon="5.99019">
        <ele>301.97</ele>
        <time>2018-02-28T13:21:11Z</time>
      </trkpt>
      <trkpt lat="47.70728" lon="5.99012">
        <ele>302.46</ele>
        <time>2018-02-28T13:21:16Z</time>
      </trkpt>
      <trkpt lat="47.70729" lon="5.99005">
        <ele>302.75</ele>
        <time>2018-02-28T13:21:19Z</time>
      </trkpt>
      <trkpt lat="47.70731" lon="5.98997">
        <ele>303.04</ele>
        <time>2018-02-28T13:21:22Z</time>
      </trkpt>
      <trkpt lat="47.7073" lon="5.9899">
        <ele>303.34</ele>
        <time>2018-02-28T13:21:32Z</time>
      </trkpt>
      <trkpt lat="47.70731" lon="5.98983">
        <ele>303.64</ele>
        <time>2018-02-28T13:22:00Z</time>
      </trkpt>
      <trkpt lat="47.70729" lon="5.98977">
        <ele>304</ele>
        <time>2018-02-28T13:22:27Z</time>
      </trkpt>
      <trkpt lat="47.70727" lon="5.98971">
        <ele>304.5</ele>
        <time>2018-02-28T13:22:54Z</time>
      </trkpt>
      <trkpt lat="47.70727" lon="5.98964">
        <ele>305.73</ele>
        <time>2018-02-28T13:23:56Z</time>
      </trkpt>
      <trkpt lat="47.70731" lon="5.98961">
        <ele>307.03</ele>
        <time>2018-02-28T13:24:04Z</time>
      </trkpt>
      <trkpt lat="47.70738" lon="5.98963">
        <ele>307.47</ele>
        <time>2018-02-28T13:24:07Z</time>
      </trkpt>
      <trkpt lat="47.70742" lon="5.98966">
        <ele>307.75</ele>
        <time>2018-02-28T13:24:09Z</time>
      </trkpt>
      <trkpt lat="47.70748" lon="5.9897">
        <ele>308.02</ele>
        <time>2018-02-28T13:24:11Z</time>
      </trkpt>
      <trkpt lat="47.70753" lon="5.98973">
        <ele>308.27</ele>
        <time>2018-02-28T13:24:13Z</time>
      </trkpt>
      <trkpt lat="47.70758" lon="5.98975">
        <ele>308.64</ele>
        <time>2018-02-28T13:24:16Z</time>
      </trkpt>
      <trkpt lat="47.70763" lon="5.98978">
        <ele>308.86</ele>
        <time>2018-02-28T13:24:18Z</time>
      </trkpt>
      <trkpt lat="47.70767" lon="5.98983">
        <ele>309.08</ele>
        <time>2018-02-28T13:24:20Z</time>
      </trkpt>
      <trkpt lat="47.70771" lon="5.98987">
        <ele>309.3</ele>
        <time>2018-02-28T13:24:22Z</time>
      </trkpt>
      <trkpt lat="47.70776" lon="5.98988">
        <ele>309.5</ele>
        <time>2018-02-28T13:24:24Z</time>
      </trkpt>
      <trkpt lat="47.70782" lon="5.9899">
        <ele>309.81</ele>
        <time>2018-02-28T13:24:27Z</time>
      </trkpt>
      <trkpt lat="47.70786" lon="5.98997">
        <ele>310.1</ele>
        <time>2018-02-28T13:24:30Z</time>
      </trkpt>
      <trkpt lat="47.70789" lon="5.99002">
        <ele>310.28</ele>
        <time>2018-02-28T13:24:32Z</time>
      </trkpt>
      <trkpt lat="47.70794" lon="5.99009">
        <ele>310.55</ele>
        <time>2018-02-28T13:24:35Z</time>
      </trkpt>
      <trkpt lat="47.70801" lon="5.99009">
        <ele>310.8</ele>
        <time>2018-02-28T13:24:38Z</time>
      </trkpt>
      <trkpt lat="47.70806" lon="5.99012">
        <ele>311.05</ele>
        <time>2018-02-28T13:24:41Z</time>
      </trkpt>
      <trkpt lat="47.70812" lon="5.9901">
        <ele>311.28</ele>
        <time>2018-02-28T13:24:44Z</time>
      </trkpt>
      <trkpt lat="47.70817" lon="5.99008">
        <ele>311.51</ele>
        <time>2018-02-28T13:24:47Z</time>
      </trkpt>
      <trkpt lat="47.70822" lon="5.99005">
        <ele>311.65</ele>
        <time>2018-02-28T13:24:49Z</time>
      </trkpt>
      <trkpt lat="47.70827" lon="5.99004">
        <ele>311.8</ele>
        <time>2018-02-28T13:24:51Z</time>
      </trkpt>
      <trkpt lat="47.70831" lon="5.99007">
        <ele>311.94</ele>
        <time>2018-02-28T13:24:53Z</time>
      </trkpt>
      <trkpt lat="47.70835" lon="5.99011">
        <ele>312.07</ele>
        <time>2018-02-28T13:24:55Z</time>
      </trkpt>
      <trkpt lat="47.70839" lon="5.99017">
        <ele>312.26</ele>
        <time>2018-02-28T13:24:58Z</time>
      </trkpt>
      <trkpt lat="47.70843" lon="5.99023">
        <ele>312.45</ele>
        <time>2018-02-28T13:25:01Z</time>
      </trkpt>
      <trkpt lat="47.70847" lon="5.99028">
        <ele>312.62</ele>
        <time>2018-02-28T13:25:04Z</time>
      </trkpt>
      <trkpt lat="47.70851" lon="5.99033">
        <ele>312.89</ele>
        <time>2018-02-28T13:25:09Z</time>
      </trkpt>
      <trkpt lat="47.70856" lon="5.99039">
        <ele>313.05</ele>
        <time>2018-02-28T13:25:12Z</time>
      </trkpt>
      <trkpt lat="47.7086" lon="5.99042">
        <ele>313.1</ele>
        <time>2018-02-28T13:25:13Z</time>
      </trkpt>
      <trkpt lat="47.70865" lon="5.99043">
        <ele>313.14</ele>
        <time>2018-02-28T13:25:14Z</time>
      </trkpt>
      <trkpt lat="47.70873" lon="5.99052">
        <ele>313.24</ele>
        <time>2018-02-28T13:25:16Z</time>
      </trkpt>
      <trkpt lat="47.7088" lon="5.99056">
        <ele>313.34</ele>
        <time>2018-02-28T13:25:18Z</time>
      </trkpt>
      <trkpt lat="47.70885" lon="5.9906">
        <ele>313.43</ele>
        <time>2018-02-28T13:25:20Z</time>
      </trkpt>
      <trkpt lat="47.70891" lon="5.99062">
        <ele>313.57</ele>
        <time>2018-02-28T13:25:23Z</time>
      </trkpt>
      <trkpt lat="47.70902" lon="5.99067">
        <ele>313.66</ele>
        <time>2018-02-28T13:25:25Z</time>
      </trkpt>
      <trkpt lat="47.70906" lon="5.99071">
        <ele>313.71</ele>
        <time>2018-02-28T13:25:26Z</time>
      </trkpt>
      <trkpt lat="47.70912" lon="5.99075">
        <ele>313.8</ele>
        <time>2018-02-28T13:25:28Z</time>
      </trkpt>
      <trkpt lat="47.70918" lon="5.99075">
        <ele>313.89</ele>
        <time>2018-02-28T13:25:30Z</time>
      </trkpt>
      <trkpt lat="47.70923" lon="5.99075">
        <ele>313.98</ele>
        <time>2018-02-28T13:25:32Z</time>
      </trkpt>
      <trkpt lat="47.70928" lon="5.99076">
        <ele>314.11</ele>
        <time>2018-02-28T13:25:35Z</time>
      </trkpt>
      <trkpt lat="47.70933" lon="5.99075">
        <ele>314.52</ele>
        <time>2018-02-28T13:25:55Z</time>
      </trkpt>
      <trkpt lat="47.70938" lon="5.99079">
        <ele>314.76</ele>
        <time>2018-02-28T13:26:02Z</time>
      </trkpt>
      <trkpt lat="47.70942" lon="5.99078">
        <ele>314.87</ele>
        <time>2018-02-28T13:26:05Z</time>
      </trkpt>
      <trkpt lat="47.70947" lon="5.99079">
        <ele>314.91</ele>
        <time>2018-02-28T13:26:07Z</time>
      </trkpt>
      <trkpt lat="47.70953" lon="5.99083">
        <ele>314.98</ele>
        <time>2018-02-28T13:26:09Z</time>
      </trkpt>
      <trkpt lat="47.70959" lon="5.99085">
        <ele>315.04</ele>
        <time>2018-02-28T13:26:11Z</time>
      </trkpt>
      <trkpt lat="47.70963" lon="5.99088">
        <ele>315.1</ele>
        <time>2018-02-28T13:26:13Z</time>
      </trkpt>
      <trkpt lat="47.70969" lon="5.9909">
        <ele>315.16</ele>
        <time>2018-02-28T13:26:15Z</time>
      </trkpt>
      <trkpt lat="47.70975" lon="5.9909">
        <ele>315.22</ele>
        <time>2018-02-28T13:26:17Z</time>
      </trkpt>
      <trkpt lat="47.7098" lon="5.99092">
        <ele>315.28</ele>
        <time>2018-02-28T13:26:19Z</time>
      </trkpt>
      <trkpt lat="47.70984" lon="5.99095">
        <ele>315.37</ele>
        <time>2018-02-28T13:26:22Z</time>
      </trkpt>
      <trkpt lat="47.70991" lon="5.99098">
        <ele>315.48</ele>
        <time>2018-02-28T13:26:26Z</time>
      </trkpt>
      <trkpt lat="47.70996" lon="5.991">
        <ele>315.59</ele>
        <time>2018-02-28T13:26:30Z</time>
      </trkpt>
      <trkpt lat="47.71004" lon="5.99106">
        <ele>315.65</ele>
        <time>2018-02-28T13:26:32Z</time>
      </trkpt>
      <trkpt lat="47.71009" lon="5.99113">
        <ele>315.71</ele>
        <time>2018-02-28T13:26:34Z</time>
      </trkpt>
      <trkpt lat="47.71015" lon="5.99115">
        <ele>315.81</ele>
        <time>2018-02-28T13:26:37Z</time>
      </trkpt>
      <trkpt lat="47.7102" lon="5.99112">
        <ele>315.92</ele>
        <time>2018-02-28T13:26:40Z</time>
      </trkpt>
      <trkpt lat="47.71024" lon="5.99115">
        <ele>316.02</ele>
        <time>2018-02-28T13:26:43Z</time>
      </trkpt>
      <trkpt lat="47.7103" lon="5.99117">
        <ele>316.11</ele>
        <time>2018-02-28T13:26:46Z</time>
      </trkpt>
      <trkpt lat="47.71036" lon="5.99119">
        <ele>316.17</ele>
        <time>2018-02-28T13:26:48Z</time>
      </trkpt>
      <trkpt lat="47.71041" lon="5.99121">
        <ele>316.2</ele>
        <time>2018-02-28T13:26:49Z</time>
      </trkpt>
      <trkpt lat="47.71045" lon="5.99122">
        <ele>316.26</ele>
        <time>2018-02-28T13:26:51Z</time>
      </trkpt>
      <trkpt lat="47.71051" lon="5.99123">
        <ele>316.32</ele>
        <time>2018-02-28T13:26:54Z</time>
      </trkpt>
      <trkpt lat="47.71055" lon="5.99128">
        <ele>316.45</ele>
        <time>2018-02-28T13:26:59Z</time>
      </trkpt>
      <trkpt lat="47.71063" lon="5.99136">
        <ele>316.47</ele>
        <time>2018-02-28T13:27:00Z</time>
      </trkpt>
      <trkpt lat="47.71073" lon="5.99137">
        <ele>316.54</ele>
        <time>2018-02-28T13:27:03Z</time>
      </trkpt>
      <trkpt lat="47.71086" lon="5.99139">
        <ele>316.57</ele>
        <time>2018-02-28T13:27:04Z</time>
      </trkpt>
      <trkpt lat="47.71094" lon="5.9914">
        <ele>316.59</ele>
        <time>2018-02-28T13:27:05Z</time>
      </trkpt>
      <trkpt lat="47.71101" lon="5.9914">
        <ele>316.61</ele>
        <time>2018-02-28T13:27:06Z</time>
      </trkpt>
      <trkpt lat="47.71105" lon="5.9914">
        <ele>316.64</ele>
        <time>2018-02-28T13:27:06Z</time>
      </trkpt>
      <trkpt lat="47.71112" lon="5.9914">
        <ele>316.68</ele>
        <time>2018-02-28T13:27:08Z</time>
      </trkpt>
      <trkpt lat="47.71117" lon="5.9914">
        <ele>316.73</ele>
        <time>2018-02-28T13:27:10Z</time>
      </trkpt>
      <trkpt lat="47.71122" lon="5.9914">
        <ele>316.82</ele>
        <time>2018-02-28T13:27:13Z</time>
      </trkpt>
      <trkpt lat="47.71125" lon="5.99133">
        <ele>316.9</ele>
        <time>2018-02-28T13:27:16Z</time>
      </trkpt>
      <trkpt lat="47.71129" lon="5.99128">
        <ele>316.99</ele>
        <time>2018-02-28T13:27:19Z</time>
      </trkpt>
      <trkpt lat="47.71132" lon="5.9912">
        <ele>317.08</ele>
        <time>2018-02-28T13:27:22Z</time>
      </trkpt>
      <trkpt lat="47.71136" lon="5.99114">
        <ele>317.14</ele>
        <time>2018-02-28T13:27:24Z</time>
      </trkpt>
      <trkpt lat="47.71139" lon="5.99108">
        <ele>317.27</ele>
        <time>2018-02-28T13:27:28Z</time>
      </trkpt>
      <trkpt lat="47.71142" lon="5.99103">
        <ele>317.37</ele>
        <time>2018-02-28T13:27:31Z</time>
      </trkpt>
      <trkpt lat="47.71146" lon="5.99097">
        <ele>317.52</ele>
        <time>2018-02-28T13:27:36Z</time>
      </trkpt>
      <trkpt lat="47.71149" lon="5.9909">
        <ele>317.64</ele>
        <time>2018-02-28T13:27:40Z</time>
      </trkpt>
      <trkpt lat="47.71152" lon="5.99085">
        <ele>317.79</ele>
        <time>2018-02-28T13:27:45Z</time>
      </trkpt>
      <trkpt lat="47.71157" lon="5.99079">
        <ele>317.9</ele>
        <time>2018-02-28T13:27:49Z</time>
      </trkpt>
      <trkpt lat="47.7116" lon="5.99074">
        <ele>317.98</ele>
        <time>2018-02-28T13:27:52Z</time>
      </trkpt>
      <trkpt lat="47.71164" lon="5.99069">
        <ele>318.05</ele>
        <time>2018-02-28T13:27:55Z</time>
      </trkpt>
      <trkpt lat="47.71166" lon="5.99061">
        <ele>318.09</ele>
        <time>2018-02-28T13:27:57Z</time>
      </trkpt>
      <trkpt lat="47.71169" lon="5.99054">
        <ele>318.16</ele>
        <time>2018-02-28T13:28:01Z</time>
      </trkpt>
      <trkpt lat="47.71174" lon="5.9905">
        <ele>318.19</ele>
        <time>2018-02-28T13:28:03Z</time>
      </trkpt>
      <trkpt lat="47.71179" lon="5.99043">
        <ele>318.2</ele>
        <time>2018-02-28T13:28:05Z</time>
      </trkpt>
      <trkpt lat="47.71183" lon="5.99038">
        <ele>318.26</ele>
        <time>2018-02-28T13:28:08Z</time>
      </trkpt>
      <trkpt lat="47.71186" lon="5.99046">
        <ele>318.47</ele>
        <time>2018-02-28T13:28:32Z</time>
      </trkpt>
      <trkpt lat="47.71188" lon="5.99053">
        <ele>318.55</ele>
        <time>2018-02-28T13:28:36Z</time>
      </trkpt>
      <trkpt lat="47.71192" lon="5.99059">
        <ele>318.61</ele>
        <time>2018-02-28T13:28:40Z</time>
      </trkpt>
      <trkpt lat="47.71195" lon="5.99064">
        <ele>318.64</ele>
        <time>2018-02-28T13:28:42Z</time>
      </trkpt>
      <trkpt lat="47.71199" lon="5.99071">
        <ele>318.68</ele>
        <time>2018-02-28T13:28:44Z</time>
      </trkpt>
      <trkpt lat="47.71202" lon="5.99077">
        <ele>318.72</ele>
        <time>2018-02-28T13:28:46Z</time>
      </trkpt>
      <trkpt lat="47.71204" lon="5.99086">
        <ele>318.79</ele>
        <time>2018-02-28T13:28:49Z</time>
      </trkpt>
      <trkpt lat="47.71207" lon="5.99096">
        <ele>318.83</ele>
        <time>2018-02-28T13:28:51Z</time>
      </trkpt>
      <trkpt lat="47.71209" lon="5.99104">
        <ele>318.86</ele>
        <time>2018-02-28T13:28:53Z</time>
      </trkpt>
      <trkpt lat="47.71212" lon="5.99113">
        <ele>318.89</ele>
        <time>2018-02-28T13:28:55Z</time>
      </trkpt>
      <trkpt lat="47.71219" lon="5.9912">
        <ele>318.91</ele>
        <time>2018-02-28T13:28:57Z</time>
      </trkpt>
      <trkpt lat="47.71225" lon="5.99123">
        <ele>318.92</ele>
        <time>2018-02-28T13:28:59Z</time>
      </trkpt>
      <trkpt lat="47.71232" lon="5.99124">
        <ele>318.94</ele>
        <time>2018-02-28T13:29:02Z</time>
      </trkpt>
      <trkpt lat="47.71237" lon="5.99127">
        <ele>318.94</ele>
        <time>2018-02-28T13:29:03Z</time>
      </trkpt>
      <trkpt lat="47.71243" lon="5.99131">
        <ele>318.95</ele>
        <time>2018-02-28T13:29:05Z</time>
      </trkpt>
      <trkpt lat="47.71247" lon="5.99134">
        <ele>318.97</ele>
        <time>2018-02-28T13:29:07Z</time>
      </trkpt>
      <trkpt lat="47.71255" lon="5.99144">
        <ele>318.99</ele>
        <time>2018-02-28T13:29:10Z</time>
      </trkpt>
      <trkpt lat="47.71264" lon="5.99151">
        <ele>319</ele>
        <time>2018-02-28T13:29:12Z</time>
      </trkpt>
      <trkpt lat="47.7127" lon="5.99155">
        <ele>319.01</ele>
        <time>2018-02-28T13:29:14Z</time>
      </trkpt>
      <trkpt lat="47.71275" lon="5.99159">
        <ele>319.01</ele>
        <time>2018-02-28T13:29:16Z</time>
      </trkpt>
      <trkpt lat="47.7128" lon="5.99164">
        <ele>319</ele>
        <time>2018-02-28T13:29:19Z</time>
      </trkpt>
      <trkpt lat="47.71287" lon="5.99171">
        <ele>319</ele>
        <time>2018-02-28T13:29:21Z</time>
      </trkpt>
      <trkpt lat="47.71292" lon="5.99176">
        <ele>318.99</ele>
        <time>2018-02-28T13:29:23Z</time>
      </trkpt>
      <trkpt lat="47.71298" lon="5.99182">
        <ele>318.98</ele>
        <time>2018-02-28T13:29:25Z</time>
      </trkpt>
      <trkpt lat="47.71303" lon="5.99186">
        <ele>318.96</ele>
        <time>2018-02-28T13:29:27Z</time>
      </trkpt>
      <trkpt lat="47.7131" lon="5.99192">
        <ele>318.95</ele>
        <time>2018-02-28T13:29:29Z</time>
      </trkpt>
      <trkpt lat="47.71315" lon="5.99196">
        <ele>318.93</ele>
        <time>2018-02-28T13:29:31Z</time>
      </trkpt>
      <trkpt lat="47.7132" lon="5.99202">
        <ele>318.9</ele>
        <time>2018-02-28T13:29:33Z</time>
      </trkpt>
      <trkpt lat="47.71326" lon="5.99208">
        <ele>318.87</ele>
        <time>2018-02-28T13:29:35Z</time>
      </trkpt>
      <trkpt lat="47.71331" lon="5.99214">
        <ele>318.84</ele>
        <time>2018-02-28T13:29:37Z</time>
      </trkpt>
      <trkpt lat="47.71335" lon="5.9922">
        <ele>318.8</ele>
        <time>2018-02-28T13:29:39Z</time>
      </trkpt>
      <trkpt lat="47.7134" lon="5.99228">
        <ele>318.76</ele>
        <time>2018-02-28T13:29:41Z</time>
      </trkpt>
      <trkpt lat="47.71343" lon="5.99234">
        <ele>318.71</ele>
        <time>2018-02-28T13:29:43Z</time>
      </trkpt>
      <trkpt lat="47.71349" lon="5.99244">
        <ele>318.35</ele>
        <time>2018-02-28T13:29:45Z</time>
      </trkpt>
      <trkpt lat="47.71352" lon="5.9925">
        <ele>318.18</ele>
        <time>2018-02-28T13:29:46Z</time>
      </trkpt>
      <trkpt lat="47.71357" lon="5.99256">
        <ele>318.01</ele>
        <time>2018-02-28T13:29:47Z</time>
      </trkpt>
      <trkpt lat="47.7136" lon="5.99261">
        <ele>317.87</ele>
        <time>2018-02-28T13:29:48Z</time>
      </trkpt>
      <trkpt lat="47.71364" lon="5.99267">
        <ele>317.72</ele>
        <time>2018-02-28T13:29:49Z</time>
      </trkpt>
      <trkpt lat="47.71371" lon="5.99277">
        <ele>317.47</ele>
        <time>2018-02-28T13:29:51Z</time>
      </trkpt>
      <trkpt lat="47.71377" lon="5.99288">
        <ele>317.25</ele>
        <time>2018-02-28T13:29:53Z</time>
      </trkpt>
      <trkpt lat="47.71384" lon="5.99299">
        <ele>317.05</ele>
        <time>2018-02-28T13:29:55Z</time>
      </trkpt>
      <trkpt lat="47.71391" lon="5.9931">
        <ele>316.87</ele>
        <time>2018-02-28T13:29:57Z</time>
      </trkpt>
      <trkpt lat="47.71393" lon="5.99316">
        <ele>316.79</ele>
        <time>2018-02-28T13:29:58Z</time>
      </trkpt>
      <trkpt lat="47.71395" lon="5.99322">
        <ele>316.7</ele>
        <time>2018-02-28T13:29:59Z</time>
      </trkpt>
      <trkpt lat="47.71399" lon="5.99333">
        <ele>316.53</ele>
        <time>2018-02-28T13:30:01Z</time>
      </trkpt>
      <trkpt lat="47.71403" lon="5.99342">
        <ele>316.45</ele>
        <time>2018-02-28T13:30:03Z</time>
      </trkpt>
      <trkpt lat="47.71411" lon="5.99352">
        <ele>316.39</ele>
        <time>2018-02-28T13:30:05Z</time>
      </trkpt>
      <trkpt lat="47.71415" lon="5.99357">
        <ele>316.38</ele>
        <time>2018-02-28T13:30:06Z</time>
      </trkpt>
      <trkpt lat="47.71417" lon="5.99363">
        <ele>316.38</ele>
        <time>2018-02-28T13:30:07Z</time>
      </trkpt>
      <trkpt lat="47.71421" lon="5.99372">
        <ele>316.37</ele>
        <time>2018-02-28T13:30:09Z</time>
      </trkpt>
      <trkpt lat="47.71423" lon="5.99382">
        <ele>316.36</ele>
        <time>2018-02-28T13:30:11Z</time>
      </trkpt>
      <trkpt lat="47.71425" lon="5.99389">
        <ele>316.35</ele>
        <time>2018-02-28T13:30:12Z</time>
      </trkpt>
      <trkpt lat="47.71425" lon="5.99396">
        <ele>316.34</ele>
        <time>2018-02-28T13:30:13Z</time>
      </trkpt>
      <trkpt lat="47.71426" lon="5.99404">
        <ele>316.34</ele>
        <time>2018-02-28T13:30:14Z</time>
      </trkpt>
      <trkpt lat="47.71427" lon="5.99416">
        <ele>316.32</ele>
        <time>2018-02-28T13:30:16Z</time>
      </trkpt>
      <trkpt lat="47.71429" lon="5.99427">
        <ele>316.24</ele>
        <time>2018-02-28T13:30:18Z</time>
      </trkpt>
      <trkpt lat="47.71433" lon="5.99436">
        <ele>316.2</ele>
        <time>2018-02-28T13:30:20Z</time>
      </trkpt>
      <trkpt lat="47.71436" lon="5.99444">
        <ele>316.18</ele>
        <time>2018-02-28T13:30:22Z</time>
      </trkpt>
      <trkpt lat="47.71441" lon="5.99449">
        <ele>316.16</ele>
        <time>2018-02-28T13:30:24Z</time>
      </trkpt>
      <trkpt lat="47.71446" lon="5.99454">
        <ele>316.15</ele>
        <time>2018-02-28T13:30:26Z</time>
      </trkpt>
      <trkpt lat="47.71449" lon="5.9946">
        <ele>316.13</ele>
        <time>2018-02-28T13:30:28Z</time>
      </trkpt>
      <trkpt lat="47.71462" lon="5.99468">
        <ele>316.11</ele>
        <time>2018-02-28T13:30:31Z</time>
      </trkpt>
      <trkpt lat="47.71468" lon="5.99474">
        <ele>316.08</ele>
        <time>2018-02-28T13:30:34Z</time>
      </trkpt>
      <trkpt lat="47.71473" lon="5.99477">
        <ele>316.07</ele>
        <time>2018-02-28T13:30:35Z</time>
      </trkpt>
      <trkpt lat="47.71479" lon="5.99481">
        <ele>316.04</ele>
        <time>2018-02-28T13:30:37Z</time>
      </trkpt>
      <trkpt lat="47.71487" lon="5.99488">
        <ele>316.02</ele>
        <time>2018-02-28T13:30:39Z</time>
      </trkpt>
      <trkpt lat="47.71491" lon="5.99491">
        <ele>315.99</ele>
        <time>2018-02-28T13:30:41Z</time>
      </trkpt>
      <trkpt lat="47.71496" lon="5.99496">
        <ele>315.96</ele>
        <time>2018-02-28T13:30:43Z</time>
      </trkpt>
      <trkpt lat="47.71501" lon="5.99501">
        <ele>315.95</ele>
        <time>2018-02-28T13:30:44Z</time>
      </trkpt>
      <trkpt lat="47.71505" lon="5.99504">
        <ele>315.93</ele>
        <time>2018-02-28T13:30:45Z</time>
      </trkpt>
      <trkpt lat="47.71513" lon="5.99508">
        <ele>315.92</ele>
        <time>2018-02-28T13:30:46Z</time>
      </trkpt>
      <trkpt lat="47.71519" lon="5.99511">
        <ele>315.9</ele>
        <time>2018-02-28T13:30:48Z</time>
      </trkpt>
      <trkpt lat="47.71525" lon="5.99516">
        <ele>315.88</ele>
        <time>2018-02-28T13:30:50Z</time>
      </trkpt>
      <trkpt lat="47.71531" lon="5.9952">
        <ele>315.86</ele>
        <time>2018-02-28T13:30:52Z</time>
      </trkpt>
      <trkpt lat="47.71538" lon="5.99525">
        <ele>315.84</ele>
        <time>2018-02-28T13:30:54Z</time>
      </trkpt>
      <trkpt lat="47.71544" lon="5.99528">
        <ele>315.81</ele>
        <time>2018-02-28T13:30:56Z</time>
      </trkpt>
      <trkpt lat="47.71549" lon="5.99532">
        <ele>315.78</ele>
        <time>2018-02-28T13:30:58Z</time>
      </trkpt>
      <trkpt lat="47.71553" lon="5.99536">
        <ele>315.75</ele>
        <time>2018-02-28T13:31:00Z</time>
      </trkpt>
      <trkpt lat="47.71558" lon="5.99542">
        <ele>315.72</ele>
        <time>2018-02-28T13:31:02Z</time>
      </trkpt>
      <trkpt lat="47.71561" lon="5.99547">
        <ele>315.69</ele>
        <time>2018-02-28T13:31:04Z</time>
      </trkpt>
      <trkpt lat="47.71565" lon="5.99555">
        <ele>315.66</ele>
        <time>2018-02-28T13:31:06Z</time>
      </trkpt>
      <trkpt lat="47.7157" lon="5.99563">
        <ele>315.63</ele>
        <time>2018-02-28T13:31:08Z</time>
      </trkpt>
      <trkpt lat="47.71576" lon="5.99569">
        <ele>315.61</ele>
        <time>2018-02-28T13:31:10Z</time>
      </trkpt>
      <trkpt lat="47.71579" lon="5.99574">
        <ele>315.58</ele>
        <time>2018-02-28T13:31:12Z</time>
      </trkpt>
      <trkpt lat="47.71584" lon="5.99582">
        <ele>315.54</ele>
        <time>2018-02-28T13:31:15Z</time>
      </trkpt>
      <trkpt lat="47.71591" lon="5.99585">
        <ele>315.52</ele>
        <time>2018-02-28T13:31:17Z</time>
      </trkpt>
      <trkpt lat="47.716" lon="5.99587">
        <ele>315.49</ele>
        <time>2018-02-28T13:31:19Z</time>
      </trkpt>
      <trkpt lat="47.71608" lon="5.99591">
        <ele>315.44</ele>
        <time>2018-02-28T13:31:22Z</time>
      </trkpt>
      <trkpt lat="47.71614" lon="5.99592">
        <ele>315.43</ele>
        <time>2018-02-28T13:31:23Z</time>
      </trkpt>
      <trkpt lat="47.71621" lon="5.99597">
        <ele>315.41</ele>
        <time>2018-02-28T13:31:25Z</time>
      </trkpt>
      <trkpt lat="47.71626" lon="5.996">
        <ele>315.38</ele>
        <time>2018-02-28T13:31:27Z</time>
      </trkpt>
      <trkpt lat="47.71631" lon="5.996">
        <ele>315.37</ele>
        <time>2018-02-28T13:31:28Z</time>
      </trkpt>
      <trkpt lat="47.71638" lon="5.996">
        <ele>315.35</ele>
        <time>2018-02-28T13:31:30Z</time>
      </trkpt>
      <trkpt lat="47.71644" lon="5.996">
        <ele>315.32</ele>
        <time>2018-02-28T13:31:33Z</time>
      </trkpt>
      <trkpt lat="47.71649" lon="5.996">
        <ele>315.29</ele>
        <time>2018-02-28T13:31:36Z</time>
      </trkpt>
      <trkpt lat="47.71654" lon="5.99601">
        <ele>315.26</ele>
        <time>2018-02-28T13:31:39Z</time>
      </trkpt>
      <trkpt lat="47.71659" lon="5.99602">
        <ele>315.21</ele>
        <time>2018-02-28T13:31:43Z</time>
      </trkpt>
      <trkpt lat="47.71666" lon="5.99604">
        <ele>315.17</ele>
        <time>2018-02-28T13:31:47Z</time>
      </trkpt>
      <trkpt lat="47.71671" lon="5.99606">
        <ele>315.13</ele>
        <time>2018-02-28T13:31:50Z</time>
      </trkpt>
      <trkpt lat="47.71677" lon="5.99609">
        <ele>315.07</ele>
        <time>2018-02-28T13:31:54Z</time>
      </trkpt>
      <trkpt lat="47.71684" lon="5.99609">
        <ele>315.04</ele>
        <time>2018-02-28T13:31:57Z</time>
      </trkpt>
      <trkpt lat="47.71691" lon="5.99609">
        <ele>315</ele>
        <time>2018-02-28T13:32:01Z</time>
      </trkpt>
      <trkpt lat="47.71697" lon="5.9961">
        <ele>314.97</ele>
        <time>2018-02-28T13:32:05Z</time>
      </trkpt>
      <trkpt lat="47.71702" lon="5.99609">
        <ele>314.95</ele>
        <time>2018-02-28T13:32:07Z</time>
      </trkpt>
      <trkpt lat="47.71709" lon="5.99612">
        <ele>314.92</ele>
        <time>2018-02-28T13:32:10Z</time>
      </trkpt>
      <trkpt lat="47.71714" lon="5.99613">
        <ele>314.9</ele>
        <time>2018-02-28T13:32:12Z</time>
      </trkpt>
      <trkpt lat="47.71719" lon="5.99614">
        <ele>314.88</ele>
        <time>2018-02-28T13:32:15Z</time>
      </trkpt>
      <trkpt lat="47.71726" lon="5.99615">
        <ele>314.85</ele>
        <time>2018-02-28T13:32:18Z</time>
      </trkpt>
      <trkpt lat="47.7173" lon="5.99616">
        <ele>314.83</ele>
        <time>2018-02-28T13:32:20Z</time>
      </trkpt>
      <trkpt lat="47.71737" lon="5.99618">
        <ele>314.81</ele>
        <time>2018-02-28T13:32:23Z</time>
      </trkpt>
      <trkpt lat="47.71742" lon="5.99617">
        <ele>314.79</ele>
        <time>2018-02-28T13:32:25Z</time>
      </trkpt>
      <trkpt lat="47.71748" lon="5.99618">
        <ele>314.76</ele>
        <time>2018-02-28T13:32:28Z</time>
      </trkpt>
      <trkpt lat="47.71754" lon="5.99619">
        <ele>314.74</ele>
        <time>2018-02-28T13:32:31Z</time>
      </trkpt>
      <trkpt lat="47.71758" lon="5.99621">
        <ele>314.72</ele>
        <time>2018-02-28T13:32:34Z</time>
      </trkpt>
      <trkpt lat="47.71764" lon="5.99622">
        <ele>314.69</ele>
        <time>2018-02-28T13:32:37Z</time>
      </trkpt>
      <trkpt lat="47.71769" lon="5.99623">
        <ele>314.68</ele>
        <time>2018-02-28T13:32:39Z</time>
      </trkpt>
      <trkpt lat="47.71774" lon="5.99623">
        <ele>314.65</ele>
        <time>2018-02-28T13:32:41Z</time>
      </trkpt>
      <trkpt lat="47.71779" lon="5.99623">
        <ele>314.61</ele>
        <time>2018-02-28T13:32:44Z</time>
      </trkpt>
      <trkpt lat="47.71784" lon="5.99622">
        <ele>314.55</ele>
        <time>2018-02-28T13:32:47Z</time>
      </trkpt>
      <trkpt lat="47.7179" lon="5.99622">
        <ele>314.47</ele>
        <time>2018-02-28T13:32:51Z</time>
      </trkpt>
      <trkpt lat="47.71796" lon="5.99624">
        <ele>314.39</ele>
        <time>2018-02-28T13:32:54Z</time>
      </trkpt>
      <trkpt lat="47.71801" lon="5.99625">
        <ele>314.33</ele>
        <time>2018-02-28T13:32:56Z</time>
      </trkpt>
      <trkpt lat="47.71806" lon="5.99626">
        <ele>314.25</ele>
        <time>2018-02-28T13:32:59Z</time>
      </trkpt>
      <trkpt lat="47.71811" lon="5.99627">
        <ele>314.2</ele>
        <time>2018-02-28T13:33:01Z</time>
      </trkpt>
      <trkpt lat="47.71816" lon="5.9963">
        <ele>314.15</ele>
        <time>2018-02-28T13:33:03Z</time>
      </trkpt>
      <trkpt lat="47.71822" lon="5.99631">
        <ele>314.08</ele>
        <time>2018-02-28T13:33:06Z</time>
      </trkpt>
      <trkpt lat="47.71826" lon="5.99633">
        <ele>314.01</ele>
        <time>2018-02-28T13:33:09Z</time>
      </trkpt>
      <trkpt lat="47.71835" lon="5.99635">
        <ele>313.95</ele>
        <time>2018-02-28T13:33:12Z</time>
      </trkpt>
      <trkpt lat="47.7184" lon="5.99635">
        <ele>313.89</ele>
        <time>2018-02-28T13:33:15Z</time>
      </trkpt>
      <trkpt lat="47.71845" lon="5.99637">
        <ele>313.84</ele>
        <time>2018-02-28T13:33:18Z</time>
      </trkpt>
      <trkpt lat="47.7185" lon="5.99637">
        <ele>313.8</ele>
        <time>2018-02-28T13:33:22Z</time>
      </trkpt>
      <trkpt lat="47.71854" lon="5.99638">
        <ele>313.77</ele>
        <time>2018-02-28T13:33:26Z</time>
      </trkpt>
      <trkpt lat="47.7186" lon="5.99639">
        <ele>313.75</ele>
        <time>2018-02-28T13:33:28Z</time>
      </trkpt>
      <trkpt lat="47.71866" lon="5.99641">
        <ele>313.74</ele>
        <time>2018-02-28T13:33:30Z</time>
      </trkpt>
      <trkpt lat="47.71871" lon="5.99642">
        <ele>313.73</ele>
        <time>2018-02-28T13:33:32Z</time>
      </trkpt>
      <trkpt lat="47.71876" lon="5.99644">
        <ele>313.72</ele>
        <time>2018-02-28T13:33:36Z</time>
      </trkpt>
      <trkpt lat="47.71881" lon="5.99644">
        <ele>313.71</ele>
        <time>2018-02-28T13:33:39Z</time>
      </trkpt>
      <trkpt lat="47.71887" lon="5.99644">
        <ele>313.71</ele>
        <time>2018-02-28T13:33:42Z</time>
      </trkpt>
      <trkpt lat="47.71892" lon="5.99644">
        <ele>313.7</ele>
        <time>2018-02-28T13:33:45Z</time>
      </trkpt>
      <trkpt lat="47.71896" lon="5.99647">
        <ele>313.7</ele>
        <time>2018-02-28T13:33:46Z</time>
      </trkpt>
      <trkpt lat="47.71902" lon="5.99648">
        <ele>313.7</ele>
        <time>2018-02-28T13:33:49Z</time>
      </trkpt>
      <trkpt lat="47.71907" lon="5.99649">
        <ele>313.71</ele>
        <time>2018-02-28T13:33:52Z</time>
      </trkpt>
      <trkpt lat="47.71912" lon="5.99648">
        <ele>313.71</ele>
        <time>2018-02-28T13:33:55Z</time>
      </trkpt>
      <trkpt lat="47.71917" lon="5.99649">
        <ele>313.71</ele>
        <time>2018-02-28T13:33:59Z</time>
      </trkpt>
      <trkpt lat="47.71924" lon="5.99649">
        <ele>313.72</ele>
        <time>2018-02-28T13:34:03Z</time>
      </trkpt>
      <trkpt lat="47.7193" lon="5.9965">
        <ele>313.73</ele>
        <time>2018-02-28T13:34:06Z</time>
      </trkpt>
      <trkpt lat="47.71935" lon="5.9965">
        <ele>313.74</ele>
        <time>2018-02-28T13:34:08Z</time>
      </trkpt>
      <trkpt lat="47.71942" lon="5.99654">
        <ele>313.75</ele>
        <time>2018-02-28T13:34:09Z</time>
      </trkpt>
      <trkpt lat="47.71948" lon="5.99657">
        <ele>313.76</ele>
        <time>2018-02-28T13:34:11Z</time>
      </trkpt>
      <trkpt lat="47.71953" lon="5.99658">
        <ele>313.78</ele>
        <time>2018-02-28T13:34:14Z</time>
      </trkpt>
      <trkpt lat="47.71958" lon="5.9966">
        <ele>313.8</ele>
        <time>2018-02-28T13:34:16Z</time>
      </trkpt>
      <trkpt lat="47.71962" lon="5.9966">
        <ele>313.81</ele>
        <time>2018-02-28T13:34:18Z</time>
      </trkpt>
      <trkpt lat="47.71969" lon="5.99661">
        <ele>313.82</ele>
        <time>2018-02-28T13:34:20Z</time>
      </trkpt>
      <trkpt lat="47.71973" lon="5.99661">
        <ele>313.84</ele>
        <time>2018-02-28T13:34:22Z</time>
      </trkpt>
      <trkpt lat="47.71979" lon="5.99662">
        <ele>313.86</ele>
        <time>2018-02-28T13:34:25Z</time>
      </trkpt>
      <trkpt lat="47.71985" lon="5.99663">
        <ele>313.9</ele>
        <time>2018-02-28T13:34:28Z</time>
      </trkpt>
      <trkpt lat="47.71992" lon="5.99664">
        <ele>313.94</ele>
        <time>2018-02-28T13:34:31Z</time>
      </trkpt>
      <trkpt lat="47.71997" lon="5.99663">
        <ele>314.01</ele>
        <time>2018-02-28T13:34:35Z</time>
      </trkpt>
      <trkpt lat="47.72001" lon="5.99666">
        <ele>314.08</ele>
        <time>2018-02-28T13:34:39Z</time>
      </trkpt>
      <trkpt lat="47.72007" lon="5.99669">
        <ele>314.14</ele>
        <time>2018-02-28T13:34:42Z</time>
      </trkpt>
      <trkpt lat="47.72013" lon="5.99669">
        <ele>314.19</ele>
        <time>2018-02-28T13:34:44Z</time>
      </trkpt>
      <trkpt lat="47.7202" lon="5.99669">
        <ele>314.26</ele>
        <time>2018-02-28T13:34:47Z</time>
      </trkpt>
      <trkpt lat="47.72025" lon="5.99667">
        <ele>314.35</ele>
        <time>2018-02-28T13:34:50Z</time>
      </trkpt>
      <trkpt lat="47.72031" lon="5.99668">
        <ele>314.47</ele>
        <time>2018-02-28T13:34:54Z</time>
      </trkpt>
      <trkpt lat="47.72037" lon="5.99671">
        <ele>314.57</ele>
        <time>2018-02-28T13:34:57Z</time>
      </trkpt>
      <trkpt lat="47.72041" lon="5.99674">
        <ele>314.69</ele>
        <time>2018-02-28T13:35:00Z</time>
      </trkpt>
      <trkpt lat="47.72047" lon="5.99675">
        <ele>314.81</ele>
        <time>2018-02-28T13:35:03Z</time>
      </trkpt>
      <trkpt lat="47.72052" lon="5.99675">
        <ele>314.89</ele>
        <time>2018-02-28T13:35:05Z</time>
      </trkpt>
      <trkpt lat="47.72057" lon="5.99674">
        <ele>314.97</ele>
        <time>2018-02-28T13:35:07Z</time>
      </trkpt>
      <trkpt lat="47.72063" lon="5.99674">
        <ele>315.05</ele>
        <time>2018-02-28T13:35:09Z</time>
      </trkpt>
      <trkpt lat="47.72069" lon="5.99675">
        <ele>315.15</ele>
        <time>2018-02-28T13:35:12Z</time>
      </trkpt>
      <trkpt lat="47.72075" lon="5.99675">
        <ele>315.27</ele>
        <time>2018-02-28T13:35:16Z</time>
      </trkpt>
      <trkpt lat="47.72079" lon="5.99676">
        <ele>315.31</ele>
        <time>2018-02-28T13:35:18Z</time>
      </trkpt>
      <trkpt lat="47.72086" lon="5.99677">
        <ele>315.35</ele>
        <time>2018-02-28T13:35:20Z</time>
      </trkpt>
      <trkpt lat="47.72092" lon="5.9968">
        <ele>315.39</ele>
        <time>2018-02-28T13:35:22Z</time>
      </trkpt>
      <trkpt lat="47.72098" lon="5.99682">
        <ele>315.42</ele>
        <time>2018-02-28T13:35:24Z</time>
      </trkpt>
      <trkpt lat="47.72103" lon="5.99683">
        <ele>315.46</ele>
        <time>2018-02-28T13:35:27Z</time>
      </trkpt>
      <trkpt lat="47.72109" lon="5.99684">
        <ele>315.53</ele>
        <time>2018-02-28T13:35:33Z</time>
      </trkpt>
      <trkpt lat="47.72114" lon="5.99686">
        <ele>315.56</ele>
        <time>2018-02-28T13:35:35Z</time>
      </trkpt>
      <trkpt lat="47.7212" lon="5.99687">
        <ele>315.61</ele>
        <time>2018-02-28T13:35:38Z</time>
      </trkpt>
      <trkpt lat="47.72124" lon="5.99689">
        <ele>315.64</ele>
        <time>2018-02-28T13:35:40Z</time>
      </trkpt>
      <trkpt lat="47.7213" lon="5.9969">
        <ele>315.69</ele>
        <time>2018-02-28T13:35:44Z</time>
      </trkpt>
      <trkpt lat="47.72136" lon="5.99689">
        <ele>315.74</ele>
        <time>2018-02-28T13:35:48Z</time>
      </trkpt>
      <trkpt lat="47.72142" lon="5.99691">
        <ele>315.76</ele>
        <time>2018-02-28T13:35:50Z</time>
      </trkpt>
      <trkpt lat="47.72148" lon="5.99693">
        <ele>315.77</ele>
        <time>2018-02-28T13:35:52Z</time>
      </trkpt>
      <trkpt lat="47.72153" lon="5.99696">
        <ele>315.79</ele>
        <time>2018-02-28T13:35:54Z</time>
      </trkpt>
      <trkpt lat="47.7216" lon="5.99696">
        <ele>315.81</ele>
        <time>2018-02-28T13:35:56Z</time>
      </trkpt>
      <trkpt lat="47.72166" lon="5.99697">
        <ele>315.82</ele>
        <time>2018-02-28T13:35:58Z</time>
      </trkpt>
      <trkpt lat="47.72171" lon="5.99699">
        <ele>315.83</ele>
        <time>2018-02-28T13:35:59Z</time>
      </trkpt>
      <trkpt lat="47.72177" lon="5.997">
        <ele>315.84</ele>
        <time>2018-02-28T13:36:01Z</time>
      </trkpt>
      <trkpt lat="47.72182" lon="5.99701">
        <ele>315.85</ele>
        <time>2018-02-28T13:36:03Z</time>
      </trkpt>
      <trkpt lat="47.72187" lon="5.997">
        <ele>315.87</ele>
        <time>2018-02-28T13:36:05Z</time>
      </trkpt>
      <trkpt lat="47.72193" lon="5.997">
        <ele>315.88</ele>
        <time>2018-02-28T13:36:07Z</time>
      </trkpt>
      <trkpt lat="47.72198" lon="5.99702">
        <ele>315.9</ele>
        <time>2018-02-28T13:36:09Z</time>
      </trkpt>
      <trkpt lat="47.72203" lon="5.99703">
        <ele>315.91</ele>
        <time>2018-02-28T13:36:11Z</time>
      </trkpt>
      <trkpt lat="47.72208" lon="5.99704">
        <ele>315.94</ele>
        <time>2018-02-28T13:36:14Z</time>
      </trkpt>
      <trkpt lat="47.72215" lon="5.99705">
        <ele>315.97</ele>
        <time>2018-02-28T13:36:17Z</time>
      </trkpt>
      <trkpt lat="47.72222" lon="5.99704">
        <ele>315.99</ele>
        <time>2018-02-28T13:36:19Z</time>
      </trkpt>
      <trkpt lat="47.72232" lon="5.99699">
        <ele>316.01</ele>
        <time>2018-02-28T13:36:21Z</time>
      </trkpt>
      <trkpt lat="47.72237" lon="5.99696">
        <ele>316.02</ele>
        <time>2018-02-28T13:36:22Z</time>
      </trkpt>
      <trkpt lat="47.72244" lon="5.99694">
        <ele>316.03</ele>
        <time>2018-02-28T13:36:24Z</time>
      </trkpt>
      <trkpt lat="47.72257" lon="5.99695">
        <ele>316.04</ele>
        <time>2018-02-28T13:36:26Z</time>
      </trkpt>
      <trkpt lat="47.72264" lon="5.99692">
        <ele>316.05</ele>
        <time>2018-02-28T13:36:27Z</time>
      </trkpt>
      <trkpt lat="47.72273" lon="5.9969">
        <ele>316.05</ele>
        <time>2018-02-28T13:36:28Z</time>
      </trkpt>
      <trkpt lat="47.72279" lon="5.99687">
        <ele>316.06</ele>
        <time>2018-02-28T13:36:29Z</time>
      </trkpt>
      <trkpt lat="47.72285" lon="5.99683">
        <ele>316.07</ele>
        <time>2018-02-28T13:36:31Z</time>
      </trkpt>
      <trkpt lat="47.72297" lon="5.9968">
        <ele>316.08</ele>
        <time>2018-02-28T13:36:33Z</time>
      </trkpt>
      <trkpt lat="47.72302" lon="5.9968">
        <ele>316.08</ele>
        <time>2018-02-28T13:36:34Z</time>
      </trkpt>
      <trkpt lat="47.7231" lon="5.99676">
        <ele>316.09</ele>
        <time>2018-02-28T13:36:36Z</time>
      </trkpt>
      <trkpt lat="47.72316" lon="5.99675">
        <ele>316.09</ele>
        <time>2018-02-28T13:36:37Z</time>
      </trkpt>
      <trkpt lat="47.72322" lon="5.99672">
        <ele>316.09</ele>
        <time>2018-02-28T13:36:39Z</time>
      </trkpt>
      <trkpt lat="47.72329" lon="5.99668">
        <ele>316.1</ele>
        <time>2018-02-28T13:36:41Z</time>
      </trkpt>
      <trkpt lat="47.72335" lon="5.99665">
        <ele>316.1</ele>
        <time>2018-02-28T13:36:43Z</time>
      </trkpt>
      <trkpt lat="47.72341" lon="5.99664">
        <ele>316.1</ele>
        <time>2018-02-28T13:36:45Z</time>
      </trkpt>
      <trkpt lat="47.72348" lon="5.99663">
        <ele>316.09</ele>
        <time>2018-02-28T13:36:47Z</time>
      </trkpt>
      <trkpt lat="47.72354" lon="5.99659">
        <ele>316.09</ele>
        <time>2018-02-28T13:36:50Z</time>
      </trkpt>
      <trkpt lat="47.72359" lon="5.99656">
        <ele>316.09</ele>
        <time>2018-02-28T13:36:52Z</time>
      </trkpt>
      <trkpt lat="47.72364" lon="5.99655">
        <ele>316.1</ele>
        <time>2018-02-28T13:36:55Z</time>
      </trkpt>
      <trkpt lat="47.72371" lon="5.99651">
        <ele>316.1</ele>
        <time>2018-02-28T13:36:58Z</time>
      </trkpt>
      <trkpt lat="47.72375" lon="5.99649">
        <ele>316.11</ele>
        <time>2018-02-28T13:37:00Z</time>
      </trkpt>
      <trkpt lat="47.72379" lon="5.99644">
        <ele>316.11</ele>
        <time>2018-02-28T13:37:05Z</time>
      </trkpt>
      <trkpt lat="47.72379" lon="5.99638">
        <ele>316.1</ele>
        <time>2018-02-28T13:37:32Z</time>
      </trkpt>
      <trkpt lat="47.72381" lon="5.99632">
        <ele>316.05</ele>
        <time>2018-02-28T13:37:49Z</time>
      </trkpt>
      <trkpt lat="47.72387" lon="5.99627">
        <ele>315.99</ele>
        <time>2018-02-28T13:37:52Z</time>
      </trkpt>
      <trkpt lat="47.72392" lon="5.99623">
        <ele>315.95</ele>
        <time>2018-02-28T13:37:54Z</time>
      </trkpt>
      <trkpt lat="47.72398" lon="5.9962">
        <ele>315.9</ele>
        <time>2018-02-28T13:37:57Z</time>
      </trkpt>
      <trkpt lat="47.72403" lon="5.99618">
        <ele>315.86</ele>
        <time>2018-02-28T13:37:59Z</time>
      </trkpt>
      <trkpt lat="47.72408" lon="5.99617">
        <ele>315.8</ele>
        <time>2018-02-28T13:38:02Z</time>
      </trkpt>
      <trkpt lat="47.72413" lon="5.99615">
        <ele>315.75</ele>
        <time>2018-02-28T13:38:05Z</time>
      </trkpt>
      <trkpt lat="47.72419" lon="5.99614">
        <ele>315.69</ele>
        <time>2018-02-28T13:38:08Z</time>
      </trkpt>
      <trkpt lat="47.72424" lon="5.99614">
        <ele>315.64</ele>
        <time>2018-02-28T13:38:11Z</time>
      </trkpt>
      <trkpt lat="47.72429" lon="5.99614">
        <ele>315.58</ele>
        <time>2018-02-28T13:38:14Z</time>
      </trkpt>
      <trkpt lat="47.72435" lon="5.99616">
        <ele>315.49</ele>
        <time>2018-02-28T13:38:19Z</time>
      </trkpt>
      <trkpt lat="47.72441" lon="5.99616">
        <ele>315.44</ele>
        <time>2018-02-28T13:38:22Z</time>
      </trkpt>
      <trkpt lat="47.72447" lon="5.99617">
        <ele>315.38</ele>
        <time>2018-02-28T13:38:25Z</time>
      </trkpt>
      <trkpt lat="47.72453" lon="5.99619">
        <ele>315.33</ele>
        <time>2018-02-28T13:38:28Z</time>
      </trkpt>
      <trkpt lat="47.72458" lon="5.99622">
        <ele>315.28</ele>
        <time>2018-02-28T13:38:31Z</time>
      </trkpt>
      <trkpt lat="47.72463" lon="5.99626">
        <ele>315.2</ele>
        <time>2018-02-28T13:38:35Z</time>
      </trkpt>
      <trkpt lat="47.72466" lon="5.99631">
        <ele>315.14</ele>
        <time>2018-02-28T13:38:38Z</time>
      </trkpt>
      <trkpt lat="47.72471" lon="5.99635">
        <ele>315.06</ele>
        <time>2018-02-28T13:38:41Z</time>
      </trkpt>
      <trkpt lat="47.72477" lon="5.99637">
        <ele>314.98</ele>
        <time>2018-02-28T13:38:44Z</time>
      </trkpt>
      <trkpt lat="47.72482" lon="5.9964">
        <ele>314.9</ele>
        <time>2018-02-28T13:38:47Z</time>
      </trkpt>
      <trkpt lat="47.72488" lon="5.99641">
        <ele>314.84</ele>
        <time>2018-02-28T13:38:49Z</time>
      </trkpt>
      <trkpt lat="47.72493" lon="5.99644">
        <ele>314.75</ele>
        <time>2018-02-28T13:38:52Z</time>
      </trkpt>
      <trkpt lat="47.72497" lon="5.99648">
        <ele>314.66</ele>
        <time>2018-02-28T13:38:55Z</time>
      </trkpt>
      <trkpt lat="47.72501" lon="5.99653">
        <ele>314.57</ele>
        <time>2018-02-28T13:38:58Z</time>
      </trkpt>
      <trkpt lat="47.72508" lon="5.99657">
        <ele>314.49</ele>
        <time>2018-02-28T13:39:01Z</time>
      </trkpt>
      <trkpt lat="47.72516" lon="5.99659">
        <ele>314.39</ele>
        <time>2018-02-28T13:39:04Z</time>
      </trkpt>
      <trkpt lat="47.72525" lon="5.99664">
        <ele>314.3</ele>
        <time>2018-02-28T13:39:07Z</time>
      </trkpt>
      <trkpt lat="47.7253" lon="5.99668">
        <ele>314.26</ele>
        <time>2018-02-28T13:39:08Z</time>
      </trkpt>
      <trkpt lat="47.72538" lon="5.99672">
        <ele>314.2</ele>
        <time>2018-02-28T13:39:10Z</time>
      </trkpt>
      <trkpt lat="47.72546" lon="5.99678">
        <ele>314.13</ele>
        <time>2018-02-28T13:39:12Z</time>
      </trkpt>
      <trkpt lat="47.72551" lon="5.9968">
        <ele>314.07</ele>
        <time>2018-02-28T13:39:14Z</time>
      </trkpt>
      <trkpt lat="47.72555" lon="5.99683">
        <ele>314.01</ele>
        <time>2018-02-28T13:39:16Z</time>
      </trkpt>
      <trkpt lat="47.7256" lon="5.99688">
        <ele>313.92</ele>
        <time>2018-02-28T13:39:19Z</time>
      </trkpt>
      <trkpt lat="47.72564" lon="5.99692">
        <ele>313.86</ele>
        <time>2018-02-28T13:39:21Z</time>
      </trkpt>
      <trkpt lat="47.72567" lon="5.99698">
        <ele>313.77</ele>
        <time>2018-02-28T13:39:24Z</time>
      </trkpt>
      <trkpt lat="47.72575" lon="5.99704">
        <ele>313.69</ele>
        <time>2018-02-28T13:39:27Z</time>
      </trkpt>
      <trkpt lat="47.72583" lon="5.99708">
        <ele>313.64</ele>
        <time>2018-02-28T13:39:29Z</time>
      </trkpt>
      <trkpt lat="47.72587" lon="5.99712">
        <ele>313.59</ele>
        <time>2018-02-28T13:39:31Z</time>
      </trkpt>
      <trkpt lat="47.72591" lon="5.99716">
        <ele>313.55</ele>
        <time>2018-02-28T13:39:33Z</time>
      </trkpt>
      <trkpt lat="47.72597" lon="5.9972">
        <ele>313.47</ele>
        <time>2018-02-28T13:39:37Z</time>
      </trkpt>
      <trkpt lat="47.72603" lon="5.99722">
        <ele>313.44</ele>
        <time>2018-02-28T13:39:39Z</time>
      </trkpt>
      <trkpt lat="47.7261" lon="5.99726">
        <ele>313.4</ele>
        <time>2018-02-28T13:39:41Z</time>
      </trkpt>
      <trkpt lat="47.72618" lon="5.9973">
        <ele>313.37</ele>
        <time>2018-02-28T13:39:43Z</time>
      </trkpt>
      <trkpt lat="47.72623" lon="5.99735">
        <ele>313.33</ele>
        <time>2018-02-28T13:39:45Z</time>
      </trkpt>
      <trkpt lat="47.72627" lon="5.99741">
        <ele>313.29</ele>
        <time>2018-02-28T13:39:47Z</time>
      </trkpt>
      <trkpt lat="47.72631" lon="5.99749">
        <ele>313.25</ele>
        <time>2018-02-28T13:39:50Z</time>
      </trkpt>
      <trkpt lat="47.72636" lon="5.99755">
        <ele>313.21</ele>
        <time>2018-02-28T13:39:53Z</time>
      </trkpt>
      <trkpt lat="47.72641" lon="5.9976">
        <ele>313.18</ele>
        <time>2018-02-28T13:39:55Z</time>
      </trkpt>
      <trkpt lat="47.72647" lon="5.99767">
        <ele>313.15</ele>
        <time>2018-02-28T13:39:57Z</time>
      </trkpt>
      <trkpt lat="47.72654" lon="5.9977">
        <ele>313.13</ele>
        <time>2018-02-28T13:39:59Z</time>
      </trkpt>
      <trkpt lat="47.72658" lon="5.99773">
        <ele>313.11</ele>
        <time>2018-02-28T13:40:00Z</time>
      </trkpt>
      <trkpt lat="47.72664" lon="5.99777">
        <ele>313.09</ele>
        <time>2018-02-28T13:40:02Z</time>
      </trkpt>
      <trkpt lat="47.7267" lon="5.9978">
        <ele>313.07</ele>
        <time>2018-02-28T13:40:04Z</time>
      </trkpt>
      <trkpt lat="47.72677" lon="5.99784">
        <ele>313.04</ele>
        <time>2018-02-28T13:40:06Z</time>
      </trkpt>
      <trkpt lat="47.72681" lon="5.99786">
        <ele>313.03</ele>
        <time>2018-02-28T13:40:07Z</time>
      </trkpt>
      <trkpt lat="47.72688" lon="5.9979">
        <ele>313.01</ele>
        <time>2018-02-28T13:40:09Z</time>
      </trkpt>
      <trkpt lat="47.72692" lon="5.99792">
        <ele>313</ele>
        <time>2018-02-28T13:40:10Z</time>
      </trkpt>
      <trkpt lat="47.72699" lon="5.99797">
        <ele>312.99</ele>
        <time>2018-02-28T13:40:11Z</time>
      </trkpt>
      <trkpt lat="47.72706" lon="5.99798">
        <ele>312.97</ele>
        <time>2018-02-28T13:40:13Z</time>
      </trkpt>
      <trkpt lat="47.72712" lon="5.99802">
        <ele>312.93</ele>
        <time>2018-02-28T13:40:17Z</time>
      </trkpt>
      <trkpt lat="47.72718" lon="5.9981">
        <ele>312.91</ele>
        <time>2018-02-28T13:40:19Z</time>
      </trkpt>
      <trkpt lat="47.72722" lon="5.99814">
        <ele>312.9</ele>
        <time>2018-02-28T13:40:21Z</time>
      </trkpt>
      <trkpt lat="47.72726" lon="5.99819">
        <ele>312.87</ele>
        <time>2018-02-28T13:40:24Z</time>
      </trkpt>
      <trkpt lat="47.72734" lon="5.99821">
        <ele>312.84</ele>
        <time>2018-02-28T13:40:27Z</time>
      </trkpt>
      <trkpt lat="47.7274" lon="5.99823">
        <ele>312.83</ele>
        <time>2018-02-28T13:40:29Z</time>
      </trkpt>
      <trkpt lat="47.72748" lon="5.99824">
        <ele>312.81</ele>
        <time>2018-02-28T13:40:31Z</time>
      </trkpt>
      <trkpt lat="47.72753" lon="5.99825">
        <ele>312.8</ele>
        <time>2018-02-28T13:40:33Z</time>
      </trkpt>
      <trkpt lat="47.7276" lon="5.99823">
        <ele>312.78</ele>
        <time>2018-02-28T13:40:35Z</time>
      </trkpt>
      <trkpt lat="47.72764" lon="5.99818">
        <ele>312.77</ele>
        <time>2018-02-28T13:40:36Z</time>
      </trkpt>
      <trkpt lat="47.72775" lon="5.99815">
        <ele>312.76</ele>
        <time>2018-02-28T13:40:37Z</time>
      </trkpt>
      <trkpt lat="47.72785" lon="5.99812">
        <ele>312.76</ele>
        <time>2018-02-28T13:40:38Z</time>
      </trkpt>
      <trkpt lat="47.7279" lon="5.9981">
        <ele>312.75</ele>
        <time>2018-02-28T13:40:39Z</time>
      </trkpt>
      <trkpt lat="47.72795" lon="5.99808">
        <ele>312.74</ele>
        <time>2018-02-28T13:40:40Z</time>
      </trkpt>
      <trkpt lat="47.72803" lon="5.99808">
        <ele>312.73</ele>
        <time>2018-02-28T13:40:42Z</time>
      </trkpt>
      <trkpt lat="47.72808" lon="5.9981">
        <ele>312.72</ele>
        <time>2018-02-28T13:40:43Z</time>
      </trkpt>
      <trkpt lat="47.72814" lon="5.99811">
        <ele>312.71</ele>
        <time>2018-02-28T13:40:45Z</time>
      </trkpt>
      <trkpt lat="47.72823" lon="5.99811">
        <ele>312.7</ele>
        <time>2018-02-28T13:40:47Z</time>
      </trkpt>
      <trkpt lat="47.72829" lon="5.99812">
        <ele>312.7</ele>
        <time>2018-02-28T13:40:48Z</time>
      </trkpt>
      <trkpt lat="47.72836" lon="5.99812">
        <ele>312.69</ele>
        <time>2018-02-28T13:40:50Z</time>
      </trkpt>
      <trkpt lat="47.72841" lon="5.99813">
        <ele>312.68</ele>
        <time>2018-02-28T13:40:51Z</time>
      </trkpt>
      <trkpt lat="47.72846" lon="5.99811">
        <ele>312.68</ele>
        <time>2018-02-28T13:40:53Z</time>
      </trkpt>
      <trkpt lat="47.72852" lon="5.9981">
        <ele>312.67</ele>
        <time>2018-02-28T13:40:55Z</time>
      </trkpt>
      <trkpt lat="47.72856" lon="5.99809">
        <ele>312.67</ele>
        <time>2018-02-28T13:40:57Z</time>
      </trkpt>
      <trkpt lat="47.72863" lon="5.99808">
        <ele>312.66</ele>
        <time>2018-02-28T13:41:00Z</time>
      </trkpt>
      <trkpt lat="47.7287" lon="5.99809">
        <ele>312.66</ele>
        <time>2018-02-28T13:41:03Z</time>
      </trkpt>
      <trkpt lat="47.72875" lon="5.99809">
        <ele>312.66</ele>
        <time>2018-02-28T13:41:05Z</time>
      </trkpt>
      <trkpt lat="47.72884" lon="5.99809">
        <ele>312.66</ele>
        <time>2018-02-28T13:41:07Z</time>
      </trkpt>
      <trkpt lat="47.72888" lon="5.99808">
        <ele>312.66</ele>
        <time>2018-02-28T13:41:08Z</time>
      </trkpt>
      <trkpt lat="47.72896" lon="5.99808">
        <ele>312.67</ele>
        <time>2018-02-28T13:41:10Z</time>
      </trkpt>
      <trkpt lat="47.72901" lon="5.99808">
        <ele>312.67</ele>
        <time>2018-02-28T13:41:12Z</time>
      </trkpt>
      <trkpt lat="47.72907" lon="5.99807">
        <ele>312.67</ele>
        <time>2018-02-28T13:41:14Z</time>
      </trkpt>
      <trkpt lat="47.72912" lon="5.99807">
        <ele>312.67</ele>
        <time>2018-02-28T13:41:16Z</time>
      </trkpt>
      <trkpt lat="47.72917" lon="5.99807">
        <ele>312.67</ele>
        <time>2018-02-28T13:41:17Z</time>
      </trkpt>
      <trkpt lat="47.72922" lon="5.99809">
        <ele>312.67</ele>
        <time>2018-02-28T13:41:19Z</time>
      </trkpt>
      <trkpt lat="47.72928" lon="5.99811">
        <ele>312.67</ele>
        <time>2018-02-28T13:41:21Z</time>
      </trkpt>
      <trkpt lat="47.72933" lon="5.99813">
        <ele>312.67</ele>
        <time>2018-02-28T13:41:23Z</time>
      </trkpt>
      <trkpt lat="47.72938" lon="5.99813">
        <ele>312.67</ele>
        <time>2018-02-28T13:41:25Z</time>
      </trkpt>
      <trkpt lat="47.72943" lon="5.99812">
        <ele>312.68</ele>
        <time>2018-02-28T13:41:27Z</time>
      </trkpt>
      <trkpt lat="47.72949" lon="5.99813">
        <ele>312.68</ele>
        <time>2018-02-28T13:41:30Z</time>
      </trkpt>
      <trkpt lat="47.72954" lon="5.99815">
        <ele>312.68</ele>
        <time>2018-02-28T13:41:32Z</time>
      </trkpt>
      <trkpt lat="47.72959" lon="5.99815">
        <ele>312.69</ele>
        <time>2018-02-28T13:41:34Z</time>
      </trkpt>
      <trkpt lat="47.72964" lon="5.99815">
        <ele>312.69</ele>
        <time>2018-02-28T13:41:36Z</time>
      </trkpt>
      <trkpt lat="47.72968" lon="5.99816">
        <ele>312.69</ele>
        <time>2018-02-28T13:41:40Z</time>
      </trkpt>
      <trkpt lat="47.72975" lon="5.99818">
        <ele>312.68</ele>
        <time>2018-02-28T13:42:18Z</time>
      </trkpt>
      <trkpt lat="47.72982" lon="5.99821">
        <ele>312.68</ele>
        <time>2018-02-28T13:42:22Z</time>
      </trkpt>
      <trkpt lat="47.72988" lon="5.99823">
        <ele>312.67</ele>
        <time>2018-02-28T13:42:24Z</time>
      </trkpt>
      <trkpt lat="47.72994" lon="5.99825">
        <ele>312.67</ele>
        <time>2018-02-28T13:42:26Z</time>
      </trkpt>
      <trkpt lat="47.73003" lon="5.99828">
        <ele>312.66</ele>
        <time>2018-02-28T13:42:28Z</time>
      </trkpt>
      <trkpt lat="47.73006" lon="5.99832">
        <ele>312.65</ele>
        <time>2018-02-28T13:42:30Z</time>
      </trkpt>
      <trkpt lat="47.7301" lon="5.99837">
        <ele>312.63</ele>
        <time>2018-02-28T13:42:36Z</time>
      </trkpt>
      <trkpt lat="47.73014" lon="5.99844">
        <ele>312.61</ele>
        <time>2018-02-28T13:42:40Z</time>
      </trkpt>
      <trkpt lat="47.73018" lon="5.99851">
        <ele>312.6</ele>
        <time>2018-02-28T13:42:42Z</time>
      </trkpt>
      <trkpt lat="47.73021" lon="5.99855">
        <ele>312.59</ele>
        <time>2018-02-28T13:42:44Z</time>
      </trkpt>
      <trkpt lat="47.73025" lon="5.99861">
        <ele>312.57</ele>
        <time>2018-02-28T13:42:47Z</time>
      </trkpt>
      <trkpt lat="47.73025" lon="5.99869">
        <ele>312.56</ele>
        <time>2018-02-28T13:42:49Z</time>
      </trkpt>
      <trkpt lat="47.73027" lon="5.99875">
        <ele>312.54</ele>
        <time>2018-02-28T13:42:52Z</time>
      </trkpt>
      <trkpt lat="47.73031" lon="5.99881">
        <ele>312.53</ele>
        <time>2018-02-28T13:42:54Z</time>
      </trkpt>
      <trkpt lat="47.73038" lon="5.99885">
        <ele>312.52</ele>
        <time>2018-02-28T13:42:56Z</time>
      </trkpt>
      <trkpt lat="47.73043" lon="5.99891">
        <ele>312.51</ele>
        <time>2018-02-28T13:42:58Z</time>
      </trkpt>
      <trkpt lat="47.73046" lon="5.99895">
        <ele>312.49</ele>
        <time>2018-02-28T13:43:00Z</time>
      </trkpt>
      <trkpt lat="47.7305" lon="5.999">
        <ele>312.48</ele>
        <time>2018-02-28T13:43:02Z</time>
      </trkpt>
      <trkpt lat="47.73057" lon="5.99904">
        <ele>312.47</ele>
        <time>2018-02-28T13:43:04Z</time>
      </trkpt>
      <trkpt lat="47.73065" lon="5.99907">
        <ele>312.46</ele>
        <time>2018-02-28T13:43:07Z</time>
      </trkpt>
      <trkpt lat="47.73074" lon="5.99914">
        <ele>312.44</ele>
        <time>2018-02-28T13:43:11Z</time>
      </trkpt>
      <trkpt lat="47.73081" lon="5.99918">
        <ele>312.43</ele>
        <time>2018-02-28T13:43:13Z</time>
      </trkpt>
      <trkpt lat="47.73085" lon="5.99921">
        <ele>312.43</ele>
        <time>2018-02-28T13:43:14Z</time>
      </trkpt>
      <trkpt lat="47.7309" lon="5.99924">
        <ele>312.42</ele>
        <time>2018-02-28T13:43:15Z</time>
      </trkpt>
      <trkpt lat="47.73095" lon="5.99928">
        <ele>312.42</ele>
        <time>2018-02-28T13:43:16Z</time>
      </trkpt>
      <trkpt lat="47.73103" lon="5.99932">
        <ele>312.41</ele>
        <time>2018-02-28T13:43:18Z</time>
      </trkpt>
      <trkpt lat="47.73111" lon="5.99936">
        <ele>312.4</ele>
        <time>2018-02-28T13:43:20Z</time>
      </trkpt>
      <trkpt lat="47.73118" lon="5.99941">
        <ele>312.39</ele>
        <time>2018-02-28T13:43:22Z</time>
      </trkpt>
      <trkpt lat="47.73124" lon="5.99946">
        <ele>312.38</ele>
        <time>2018-02-28T13:43:23Z</time>
      </trkpt>
      <trkpt lat="47.7313" lon="5.99952">
        <ele>312.37</ele>
        <time>2018-02-28T13:43:25Z</time>
      </trkpt>
      <trkpt lat="47.73137" lon="5.99961">
        <ele>312.37</ele>
        <time>2018-02-28T13:43:26Z</time>
      </trkpt>
      <trkpt lat="47.73141" lon="5.99965">
        <ele>312.37</ele>
        <time>2018-02-28T13:43:27Z</time>
      </trkpt>
      <trkpt lat="47.73147" lon="5.99969">
        <ele>312.36</ele>
        <time>2018-02-28T13:43:29Z</time>
      </trkpt>
      <trkpt lat="47.73153" lon="5.99972">
        <ele>312.35</ele>
        <time>2018-02-28T13:43:31Z</time>
      </trkpt>
      <trkpt lat="47.73158" lon="5.99972">
        <ele>312.35</ele>
        <time>2018-02-28T13:43:41Z</time>
      </trkpt>
      <trkpt lat="47.73162" lon="5.99973">
        <ele>310.64</ele>
        <time>2018-02-28T13:50:06Z</time>
      </trkpt>
      <trkpt lat="47.73168" lon="5.99973">
        <ele>309.19</ele>
        <time>2018-02-28T13:52:25Z</time>
      </trkpt>
      <trkpt lat="47.73173" lon="5.99976">
        <ele>309.07</ele>
        <time>2018-02-28T13:52:27Z</time>
      </trkpt>
      <trkpt lat="47.73177" lon="5.9998">
        <ele>308.95</ele>
        <time>2018-02-28T13:52:29Z</time>
      </trkpt>
      <trkpt lat="47.73183" lon="5.99983">
        <ele>308.67</ele>
        <time>2018-02-28T13:52:34Z</time>
      </trkpt>
      <trkpt lat="47.73191" lon="5.99986">
        <ele>308.57</ele>
        <time>2018-02-28T13:52:36Z</time>
      </trkpt>
      <trkpt lat="47.73199" lon="5.99988">
        <ele>308.51</ele>
        <time>2018-02-28T13:52:37Z</time>
      </trkpt>
      <trkpt lat="47.73204" lon="5.99988">
        <ele>308.46</ele>
        <time>2018-02-28T13:52:38Z</time>
      </trkpt>
      <trkpt lat="47.73216" lon="5.99989">
        <ele>308.37</ele>
        <time>2018-02-28T13:52:40Z</time>
      </trkpt>
      <trkpt lat="47.73224" lon="5.99991">
        <ele>308.02</ele>
        <time>2018-02-28T13:52:41Z</time>
      </trkpt>
      <trkpt lat="47.7323" lon="5.99992">
        <ele>307.89</ele>
        <time>2018-02-28T13:52:42Z</time>
      </trkpt>
      <trkpt lat="47.73235" lon="5.99992">
        <ele>307.59</ele>
        <time>2018-02-28T13:52:43Z</time>
      </trkpt>
      <trkpt lat="47.73245" lon="5.99991">
        <ele>307.01</ele>
        <time>2018-02-28T13:52:45Z</time>
      </trkpt>
      <trkpt lat="47.7325" lon="5.99992">
        <ele>306.79</ele>
        <time>2018-02-28T13:52:46Z</time>
      </trkpt>
      <trkpt lat="47.73256" lon="5.99993">
        <ele>306.6</ele>
        <time>2018-02-28T13:52:47Z</time>
      </trkpt>
      <trkpt lat="47.73263" lon="5.99993">
        <ele>306.44</ele>
        <time>2018-02-28T13:52:48Z</time>
      </trkpt>
      <trkpt lat="47.73269" lon="5.99995">
        <ele>306.31</ele>
        <time>2018-02-28T13:52:49Z</time>
      </trkpt>
      <trkpt lat="47.73274" lon="5.99996">
        <ele>306.2</ele>
        <time>2018-02-28T13:52:50Z</time>
      </trkpt>
      <trkpt lat="47.7328" lon="5.99997">
        <ele>306.11</ele>
        <time>2018-02-28T13:52:51Z</time>
      </trkpt>
      <trkpt lat="47.73284" lon="5.99998">
        <ele>306.03</ele>
        <time>2018-02-28T13:52:52Z</time>
      </trkpt>
      <trkpt lat="47.73293" lon="6">
        <ele>305.94</ele>
        <time>2018-02-28T13:52:54Z</time>
      </trkpt>
      <trkpt lat="47.733" lon="6.00002">
        <ele>305.92</ele>
        <time>2018-02-28T13:52:56Z</time>
      </trkpt>
      <trkpt lat="47.73305" lon="6.00004">
        <ele>305.91</ele>
        <time>2018-02-28T13:52:58Z</time>
      </trkpt>
      <trkpt lat="47.7331" lon="6.00005">
        <ele>305.89</ele>
        <time>2018-02-28T13:53:00Z</time>
      </trkpt>
      <trkpt lat="47.73317" lon="6.00006">
        <ele>305.87</ele>
        <time>2018-02-28T13:53:03Z</time>
      </trkpt>
      <trkpt lat="47.73323" lon="6.00007">
        <ele>305.86</ele>
        <time>2018-02-28T13:53:05Z</time>
      </trkpt>
      <trkpt lat="47.7333" lon="6.00008">
        <ele>305.84</ele>
        <time>2018-02-28T13:53:07Z</time>
      </trkpt>
      <trkpt lat="47.73337" lon="6.00011">
        <ele>305.82</ele>
        <time>2018-02-28T13:53:09Z</time>
      </trkpt>
      <trkpt lat="47.73343" lon="6.00014">
        <ele>305.8</ele>
        <time>2018-02-28T13:53:11Z</time>
      </trkpt>
      <trkpt lat="47.73351" lon="6.00018">
        <ele>305.71</ele>
        <time>2018-02-28T13:53:13Z</time>
      </trkpt>
      <trkpt lat="47.73355" lon="6.00019">
        <ele>305.61</ele>
        <time>2018-02-28T13:53:14Z</time>
      </trkpt>
      <trkpt lat="47.73364" lon="6.00021">
        <ele>305.45</ele>
        <time>2018-02-28T13:53:16Z</time>
      </trkpt>
      <trkpt lat="47.73372" lon="6.00023">
        <ele>305.33</ele>
        <time>2018-02-28T13:53:18Z</time>
      </trkpt>
      <trkpt lat="47.73382" lon="6.00023">
        <ele>305.24</ele>
        <time>2018-02-28T13:53:20Z</time>
      </trkpt>
      <trkpt lat="47.73387" lon="6.00022">
        <ele>305.2</ele>
        <time>2018-02-28T13:53:21Z</time>
      </trkpt>
      <trkpt lat="47.73392" lon="6.00022">
        <ele>305.16</ele>
        <time>2018-02-28T13:53:22Z</time>
      </trkpt>
      <trkpt lat="47.73399" lon="6.00021">
        <ele>305.13</ele>
        <time>2018-02-28T13:53:23Z</time>
      </trkpt>
      <trkpt lat="47.73405" lon="6.0002">
        <ele>305.1</ele>
        <time>2018-02-28T13:53:24Z</time>
      </trkpt>
      <trkpt lat="47.73411" lon="6.0002">
        <ele>305.05</ele>
        <time>2018-02-28T13:53:25Z</time>
      </trkpt>
      <trkpt lat="47.73417" lon="6.00021">
        <ele>304.96</ele>
        <time>2018-02-28T13:53:26Z</time>
      </trkpt>
      <trkpt lat="47.73422" lon="6.00021">
        <ele>304.87</ele>
        <time>2018-02-28T13:53:27Z</time>
      </trkpt>
      <trkpt lat="47.73427" lon="6.00023">
        <ele>304.76</ele>
        <time>2018-02-28T13:53:28Z</time>
      </trkpt>
      <trkpt lat="47.73432" lon="6.00024">
        <ele>304.67</ele>
        <time>2018-02-28T13:53:29Z</time>
      </trkpt>
      <trkpt lat="47.73437" lon="6.00025">
        <ele>304.57</ele>
        <time>2018-02-28T13:53:30Z</time>
      </trkpt>
      <trkpt lat="47.73442" lon="6.00027">
        <ele>304.46</ele>
        <time>2018-02-28T13:53:31Z</time>
      </trkpt>
      <trkpt lat="47.73446" lon="6.00028">
        <ele>304.36</ele>
        <time>2018-02-28T13:53:32Z</time>
      </trkpt>
      <trkpt lat="47.73451" lon="6.00029">
        <ele>304.21</ele>
        <time>2018-02-28T13:53:33Z</time>
      </trkpt>
      <trkpt lat="47.73461" lon="6.00031">
        <ele>303.85</ele>
        <time>2018-02-28T13:53:35Z</time>
      </trkpt>
      <trkpt lat="47.73466" lon="6.00032">
        <ele>303.7</ele>
        <time>2018-02-28T13:53:36Z</time>
      </trkpt>
      <trkpt lat="47.73471" lon="6.00032">
        <ele>303.59</ele>
        <time>2018-02-28T13:53:37Z</time>
      </trkpt>
      <trkpt lat="47.73476" lon="6.00033">
        <ele>303.52</ele>
        <time>2018-02-28T13:53:38Z</time>
      </trkpt>
      <trkpt lat="47.73481" lon="6.00033">
        <ele>303.47</ele>
        <time>2018-02-28T13:53:39Z</time>
      </trkpt>
      <trkpt lat="47.73485" lon="6.00033">
        <ele>303.43</ele>
        <time>2018-02-28T13:53:40Z</time>
      </trkpt>
      <trkpt lat="47.73493" lon="6.00035">
        <ele>303.19</ele>
        <time>2018-02-28T13:53:42Z</time>
      </trkpt>
      <trkpt lat="47.73501" lon="6.00038">
        <ele>302.95</ele>
        <time>2018-02-28T13:53:44Z</time>
      </trkpt>
      <trkpt lat="47.73508" lon="6.0004">
        <ele>302.87</ele>
        <time>2018-02-28T13:53:46Z</time>
      </trkpt>
      <trkpt lat="47.73514" lon="6.00043">
        <ele>302.8</ele>
        <time>2018-02-28T13:53:48Z</time>
      </trkpt>
      <trkpt lat="47.73519" lon="6.00048">
        <ele>302.71</ele>
        <time>2018-02-28T13:53:50Z</time>
      </trkpt>
      <trkpt lat="47.73522" lon="6.00056">
        <ele>302.6</ele>
        <time>2018-02-28T13:53:52Z</time>
      </trkpt>
      <trkpt lat="47.73525" lon="6.00066">
        <ele>302.48</ele>
        <time>2018-02-28T13:53:54Z</time>
      </trkpt>
      <trkpt lat="47.73527" lon="6.00077">
        <ele>302.34</ele>
        <time>2018-02-28T13:53:56Z</time>
      </trkpt>
      <trkpt lat="47.73529" lon="6.00088">
        <ele>302.2</ele>
        <time>2018-02-28T13:53:58Z</time>
      </trkpt>
      <trkpt lat="47.7353" lon="6.00099">
        <ele>302.04</ele>
        <time>2018-02-28T13:54:00Z</time>
      </trkpt>
      <trkpt lat="47.73532" lon="6.00105">
        <ele>301.43</ele>
        <time>2018-02-28T13:54:01Z</time>
      </trkpt>
      <trkpt lat="47.73536" lon="6.00117">
        <ele>300.15</ele>
        <time>2018-02-28T13:54:03Z</time>
      </trkpt>
      <trkpt lat="47.73541" lon="6.00128">
        <ele>299.11</ele>
        <time>2018-02-28T13:54:05Z</time>
      </trkpt>
      <trkpt lat="47.73548" lon="6.00135">
        <ele>298.35</ele>
        <time>2018-02-28T13:54:07Z</time>
      </trkpt>
      <trkpt lat="47.73552" lon="6.00139">
        <ele>298.05</ele>
        <time>2018-02-28T13:54:08Z</time>
      </trkpt>
      <trkpt lat="47.73556" lon="6.00143">
        <ele>297.81</ele>
        <time>2018-02-28T13:54:09Z</time>
      </trkpt>
      <trkpt lat="47.73561" lon="6.00146">
        <ele>297.59</ele>
        <time>2018-02-28T13:54:10Z</time>
      </trkpt>
      <trkpt lat="47.73565" lon="6.00149">
        <ele>297.39</ele>
        <time>2018-02-28T13:54:11Z</time>
      </trkpt>
      <trkpt lat="47.7357" lon="6.00151">
        <ele>297.22</ele>
        <time>2018-02-28T13:54:12Z</time>
      </trkpt>
      <trkpt lat="47.73575" lon="6.00153">
        <ele>297.07</ele>
        <time>2018-02-28T13:54:13Z</time>
      </trkpt>
      <trkpt lat="47.73579" lon="6.00155">
        <ele>296.92</ele>
        <time>2018-02-28T13:54:14Z</time>
      </trkpt>
      <trkpt lat="47.73584" lon="6.00157">
        <ele>296.76</ele>
        <time>2018-02-28T13:54:15Z</time>
      </trkpt>
      <trkpt lat="47.73589" lon="6.00161">
        <ele>296.62</ele>
        <time>2018-02-28T13:54:16Z</time>
      </trkpt>
      <trkpt lat="47.73593" lon="6.00165">
        <ele>296.48</ele>
        <time>2018-02-28T13:54:17Z</time>
      </trkpt>
      <trkpt lat="47.73597" lon="6.00169">
        <ele>296.37</ele>
        <time>2018-02-28T13:54:18Z</time>
      </trkpt>
      <trkpt lat="47.73601" lon="6.00173">
        <ele>296.26</ele>
        <time>2018-02-28T13:54:19Z</time>
      </trkpt>
      <trkpt lat="47.73605" lon="6.00177">
        <ele>296.17</ele>
        <time>2018-02-28T13:54:20Z</time>
      </trkpt>
      <trkpt lat="47.73612" lon="6.00184">
        <ele>296.05</ele>
        <time>2018-02-28T13:54:22Z</time>
      </trkpt>
      <trkpt lat="47.73618" lon="6.00191">
        <ele>295.93</ele>
        <time>2018-02-28T13:54:24Z</time>
      </trkpt>
      <trkpt lat="47.73623" lon="6.00199">
        <ele>295.88</ele>
        <time>2018-02-28T13:54:26Z</time>
      </trkpt>
      <trkpt lat="47.73629" lon="6.00205">
        <ele>295.8</ele>
        <time>2018-02-28T13:54:28Z</time>
      </trkpt>
      <trkpt lat="47.73634" lon="6.00212">
        <ele>295.67</ele>
        <time>2018-02-28T13:54:30Z</time>
      </trkpt>
      <trkpt lat="47.7364" lon="6.00216">
        <ele>295.5</ele>
        <time>2018-02-28T13:54:32Z</time>
      </trkpt>
      <trkpt lat="47.73642" lon="6.00224">
        <ele>295.06</ele>
        <time>2018-02-28T13:54:37Z</time>
      </trkpt>
      <trkpt lat="47.73638" lon="6.00232">
        <ele>294.88</ele>
        <time>2018-02-28T13:54:39Z</time>
      </trkpt>
      <trkpt lat="47.73633" lon="6.00241">
        <ele>293.41</ele>
        <time>2018-02-28T13:54:41Z</time>
      </trkpt>
      <trkpt lat="47.73629" lon="6.00245">
        <ele>292.72</ele>
        <time>2018-02-28T13:54:42Z</time>
      </trkpt>
      <trkpt lat="47.73626" lon="6.00251">
        <ele>292.12</ele>
        <time>2018-02-28T13:54:43Z</time>
      </trkpt>
      <trkpt lat="47.73622" lon="6.00258">
        <ele>291.61</ele>
        <time>2018-02-28T13:54:44Z</time>
      </trkpt>
      <trkpt lat="47.73619" lon="6.00264">
        <ele>291.17</ele>
        <time>2018-02-28T13:54:45Z</time>
      </trkpt>
      <trkpt lat="47.73615" lon="6.0027">
        <ele>290.81</ele>
        <time>2018-02-28T13:54:46Z</time>
      </trkpt>
      <trkpt lat="47.73611" lon="6.00277">
        <ele>290.49</ele>
        <time>2018-02-28T13:54:47Z</time>
      </trkpt>
      <trkpt lat="47.73607" lon="6.00283">
        <ele>290.23</ele>
        <time>2018-02-28T13:54:48Z</time>
      </trkpt>
      <trkpt lat="47.73603" lon="6.00287">
        <ele>290.01</ele>
        <time>2018-02-28T13:54:49Z</time>
      </trkpt>
      <trkpt lat="47.73598" lon="6.00291">
        <ele>289.81</ele>
        <time>2018-02-28T13:54:50Z</time>
      </trkpt>
      <trkpt lat="47.73594" lon="6.00293">
        <ele>289.65</ele>
        <time>2018-02-28T13:54:51Z</time>
      </trkpt>
      <trkpt lat="47.73589" lon="6.00295">
        <ele>289.5</ele>
        <time>2018-02-28T13:54:52Z</time>
      </trkpt>
      <trkpt lat="47.73581" lon="6.00297">
        <ele>289.27</ele>
        <time>2018-02-28T13:54:54Z</time>
      </trkpt>
      <trkpt lat="47.73573" lon="6.00297">
        <ele>289.08</ele>
        <time>2018-02-28T13:54:56Z</time>
      </trkpt>
      <trkpt lat="47.73565" lon="6.00298">
        <ele>288.96</ele>
        <time>2018-02-28T13:54:58Z</time>
      </trkpt>
      <trkpt lat="47.73558" lon="6.00298">
        <ele>288.83</ele>
        <time>2018-02-28T13:55:00Z</time>
      </trkpt>
      <trkpt lat="47.7355" lon="6.00297">
        <ele>288.73</ele>
        <time>2018-02-28T13:55:02Z</time>
      </trkpt>
      <trkpt lat="47.73543" lon="6.00298">
        <ele>288.59</ele>
        <time>2018-02-28T13:55:04Z</time>
      </trkpt>
      <trkpt lat="47.73535" lon="6.00299">
        <ele>288.49</ele>
        <time>2018-02-28T13:55:06Z</time>
      </trkpt>
      <trkpt lat="47.73528" lon="6.00304">
        <ele>288.44</ele>
        <time>2018-02-28T13:55:08Z</time>
      </trkpt>
      <trkpt lat="47.73524" lon="6.0031">
        <ele>288.42</ele>
        <time>2018-02-28T13:55:10Z</time>
      </trkpt>
      <trkpt lat="47.7352" lon="6.00318">
        <ele>288.39</ele>
        <time>2018-02-28T13:55:12Z</time>
      </trkpt>
      <trkpt lat="47.73516" lon="6.00328">
        <ele>288.14</ele>
        <time>2018-02-28T13:55:14Z</time>
      </trkpt>
      <trkpt lat="47.73511" lon="6.00339">
        <ele>287.89</ele>
        <time>2018-02-28T13:55:16Z</time>
      </trkpt>
      <trkpt lat="47.7351" lon="6.00346">
        <ele>287.78</ele>
        <time>2018-02-28T13:55:17Z</time>
      </trkpt>
      <trkpt lat="47.73508" lon="6.00353">
        <ele>287.69</ele>
        <time>2018-02-28T13:55:18Z</time>
      </trkpt>
      <trkpt lat="47.73507" lon="6.0036">
        <ele>287.61</ele>
        <time>2018-02-28T13:55:19Z</time>
      </trkpt>
      <trkpt lat="47.73506" lon="6.00367">
        <ele>287.53</ele>
        <time>2018-02-28T13:55:20Z</time>
      </trkpt>
      <trkpt lat="47.73506" lon="6.00374">
        <ele>287.46</ele>
        <time>2018-02-28T13:55:21Z</time>
      </trkpt>
      <trkpt lat="47.73505" lon="6.00382">
        <ele>287.39</ele>
        <time>2018-02-28T13:55:22Z</time>
      </trkpt>
      <trkpt lat="47.73504" lon="6.00388">
        <ele>287.32</ele>
        <time>2018-02-28T13:55:23Z</time>
      </trkpt>
      <trkpt lat="47.73503" lon="6.00395">
        <ele>287.26</ele>
        <time>2018-02-28T13:55:24Z</time>
      </trkpt>
      <trkpt lat="47.73502" lon="6.00402">
        <ele>287.19</ele>
        <time>2018-02-28T13:55:25Z</time>
      </trkpt>
      <trkpt lat="47.73501" lon="6.00415">
        <ele>287.06</ele>
        <time>2018-02-28T13:55:27Z</time>
      </trkpt>
      <trkpt lat="47.735" lon="6.00422">
        <ele>287.01</ele>
        <time>2018-02-28T13:55:28Z</time>
      </trkpt>
      <trkpt lat="47.73499" lon="6.00435">
        <ele>286.91</ele>
        <time>2018-02-28T13:55:30Z</time>
      </trkpt>
      <trkpt lat="47.73498" lon="6.00442">
        <ele>286.87</ele>
        <time>2018-02-28T13:55:31Z</time>
      </trkpt>
      <trkpt lat="47.73497" lon="6.00449">
        <ele>286.83</ele>
        <time>2018-02-28T13:55:32Z</time>
      </trkpt>
      <trkpt lat="47.73496" lon="6.00456">
        <ele>286.78</ele>
        <time>2018-02-28T13:55:33Z</time>
      </trkpt>
      <trkpt lat="47.73495" lon="6.00463">
        <ele>286.74</ele>
        <time>2018-02-28T13:55:34Z</time>
      </trkpt>
      <trkpt lat="47.73494" lon="6.0047">
        <ele>286.69</ele>
        <time>2018-02-28T13:55:35Z</time>
      </trkpt>
      <trkpt lat="47.73493" lon="6.00477">
        <ele>286.64</ele>
        <time>2018-02-28T13:55:36Z</time>
      </trkpt>
      <trkpt lat="47.73492" lon="6.00485">
        <ele>286.59</ele>
        <time>2018-02-28T13:55:37Z</time>
      </trkpt>
      <trkpt lat="47.7349" lon="6.00493">
        <ele>286.53</ele>
        <time>2018-02-28T13:55:38Z</time>
      </trkpt>
      <trkpt lat="47.73488" lon="6.00502">
        <ele>286.47</ele>
        <time>2018-02-28T13:55:39Z</time>
      </trkpt>
      <trkpt lat="47.73487" lon="6.0051">
        <ele>286.41</ele>
        <time>2018-02-28T13:55:40Z</time>
      </trkpt>
      <trkpt lat="47.73485" lon="6.00518">
        <ele>286.35</ele>
        <time>2018-02-28T13:55:41Z</time>
      </trkpt>
      <trkpt lat="47.73483" lon="6.00526">
        <ele>286.28</ele>
        <time>2018-02-28T13:55:42Z</time>
      </trkpt>
      <trkpt lat="47.73481" lon="6.00534">
        <ele>286.22</ele>
        <time>2018-02-28T13:55:43Z</time>
      </trkpt>
      <trkpt lat="47.7348" lon="6.00542">
        <ele>286.17</ele>
        <time>2018-02-28T13:55:44Z</time>
      </trkpt>
      <trkpt lat="47.73479" lon="6.0055">
        <ele>286.12</ele>
        <time>2018-02-28T13:55:45Z</time>
      </trkpt>
      <trkpt lat="47.73478" lon="6.00558">
        <ele>286.06</ele>
        <time>2018-02-28T13:55:46Z</time>
      </trkpt>
      <trkpt lat="47.73478" lon="6.00566">
        <ele>285.99</ele>
        <time>2018-02-28T13:55:47Z</time>
      </trkpt>
      <trkpt lat="47.73478" lon="6.00573">
        <ele>285.89</ele>
        <time>2018-02-28T13:55:48Z</time>
      </trkpt>
      <trkpt lat="47.73478" lon="6.0058">
        <ele>285.79</ele>
        <time>2018-02-28T13:55:49Z</time>
      </trkpt>
      <trkpt lat="47.73477" lon="6.00588">
        <ele>285.69</ele>
        <time>2018-02-28T13:55:50Z</time>
      </trkpt>
      <trkpt lat="47.73477" lon="6.00602">
        <ele>285.51</ele>
        <time>2018-02-28T13:55:52Z</time>
      </trkpt>
      <trkpt lat="47.73477" lon="6.0061">
        <ele>285.41</ele>
        <time>2018-02-28T13:55:53Z</time>
      </trkpt>
      <trkpt lat="47.73477" lon="6.00617">
        <ele>285.3</ele>
        <time>2018-02-28T13:55:54Z</time>
      </trkpt>
      <trkpt lat="47.73475" lon="6.0063">
        <ele>285.07</ele>
        <time>2018-02-28T13:55:56Z</time>
      </trkpt>
      <trkpt lat="47.73472" lon="6.00643">
        <ele>284.85</ele>
        <time>2018-02-28T13:55:58Z</time>
      </trkpt>
      <trkpt lat="47.73471" lon="6.0065">
        <ele>284.72</ele>
        <time>2018-02-28T13:55:59Z</time>
      </trkpt>
      <trkpt lat="47.7347" lon="6.00656">
        <ele>284.61</ele>
        <time>2018-02-28T13:56:00Z</time>
      </trkpt>
      <trkpt lat="47.73469" lon="6.00663">
        <ele>284.46</ele>
        <time>2018-02-28T13:56:01Z</time>
      </trkpt>
      <trkpt lat="47.73468" lon="6.0067">
        <ele>284.27</ele>
        <time>2018-02-28T13:56:02Z</time>
      </trkpt>
      <trkpt lat="47.73467" lon="6.00678">
        <ele>284.01</ele>
        <time>2018-02-28T13:56:03Z</time>
      </trkpt>
      <trkpt lat="47.73466" lon="6.00685">
        <ele>283.71</ele>
        <time>2018-02-28T13:56:04Z</time>
      </trkpt>
      <trkpt lat="47.73465" lon="6.00698">
        <ele>283.12</ele>
        <time>2018-02-28T13:56:06Z</time>
      </trkpt>
      <trkpt lat="47.73463" lon="6.0071">
        <ele>282.68</ele>
        <time>2018-02-28T13:56:08Z</time>
      </trkpt>
      <trkpt lat="47.73462" lon="6.00723">
        <ele>282.34</ele>
        <time>2018-02-28T13:56:10Z</time>
      </trkpt>
      <trkpt lat="47.7346" lon="6.00735">
        <ele>282.26</ele>
        <time>2018-02-28T13:56:12Z</time>
      </trkpt>
      <trkpt lat="47.7346" lon="6.00745">
        <ele>282.11</ele>
        <time>2018-02-28T13:56:14Z</time>
      </trkpt>
      <trkpt lat="47.73458" lon="6.00755">
        <ele>282.03</ele>
        <time>2018-02-28T13:56:16Z</time>
      </trkpt>
      <trkpt lat="47.73457" lon="6.00764">
        <ele>281.98</ele>
        <time>2018-02-28T13:56:18Z</time>
      </trkpt>
      <trkpt lat="47.73456" lon="6.00775">
        <ele>281.75</ele>
        <time>2018-02-28T13:56:20Z</time>
      </trkpt>
      <trkpt lat="47.73455" lon="6.00781">
        <ele>281.5</ele>
        <time>2018-02-28T13:56:21Z</time>
      </trkpt>
      <trkpt lat="47.73452" lon="6.00795">
        <ele>281.04</ele>
        <time>2018-02-28T13:56:23Z</time>
      </trkpt>
      <trkpt lat="47.7345" lon="6.00806">
        <ele>280.63</ele>
        <time>2018-02-28T13:56:25Z</time>
      </trkpt>
      <trkpt lat="47.73447" lon="6.00818">
        <ele>280.32</ele>
        <time>2018-02-28T13:56:27Z</time>
      </trkpt>
      <trkpt lat="47.73444" lon="6.00831">
        <ele>280.06</ele>
        <time>2018-02-28T13:56:29Z</time>
      </trkpt>
      <trkpt lat="47.73441" lon="6.00842">
        <ele>279.99</ele>
        <time>2018-02-28T13:56:31Z</time>
      </trkpt>
      <trkpt lat="47.73438" lon="6.00852">
        <ele>279.96</ele>
        <time>2018-02-28T13:56:33Z</time>
      </trkpt>
      <trkpt lat="47.73436" lon="6.00863">
        <ele>279.93</ele>
        <time>2018-02-28T13:56:35Z</time>
      </trkpt>
      <trkpt lat="47.73433" lon="6.00873">
        <ele>279.75</ele>
        <time>2018-02-28T13:56:37Z</time>
      </trkpt>
      <trkpt lat="47.73431" lon="6.00883">
        <ele>279.7</ele>
        <time>2018-02-28T13:56:39Z</time>
      </trkpt>
      <trkpt lat="47.73428" lon="6.00893">
        <ele>279.55</ele>
        <time>2018-02-28T13:56:41Z</time>
      </trkpt>
      <trkpt lat="47.73422" lon="6.00902">
        <ele>279.24</ele>
        <time>2018-02-28T13:56:43Z</time>
      </trkpt>
      <trkpt lat="47.73416" lon="6.00912">
        <ele>278.96</ele>
        <time>2018-02-28T13:56:45Z</time>
      </trkpt>
      <trkpt lat="47.73412" lon="6.00924">
        <ele>278.72</ele>
        <time>2018-02-28T13:56:47Z</time>
      </trkpt>
      <trkpt lat="47.7341" lon="6.0093">
        <ele>278.6</ele>
        <time>2018-02-28T13:56:48Z</time>
      </trkpt>
      <trkpt lat="47.73406" lon="6.00942">
        <ele>278.39</ele>
        <time>2018-02-28T13:56:50Z</time>
      </trkpt>
      <trkpt lat="47.73403" lon="6.00953">
        <ele>278.19</ele>
        <time>2018-02-28T13:56:52Z</time>
      </trkpt>
      <trkpt lat="47.73399" lon="6.00964">
        <ele>278.09</ele>
        <time>2018-02-28T13:56:54Z</time>
      </trkpt>
      <trkpt lat="47.73395" lon="6.00974">
        <ele>277.95</ele>
        <time>2018-02-28T13:56:56Z</time>
      </trkpt>
      <trkpt lat="47.73392" lon="6.00984">
        <ele>277.91</ele>
        <time>2018-02-28T13:56:58Z</time>
      </trkpt>
      <trkpt lat="47.73389" lon="6.00993">
        <ele>277.87</ele>
        <time>2018-02-28T13:57:00Z</time>
      </trkpt>
      <trkpt lat="47.73387" lon="6.01002">
        <ele>277.83</ele>
        <time>2018-02-28T13:57:02Z</time>
      </trkpt>
      <trkpt lat="47.73383" lon="6.01013">
        <ele>277.62</ele>
        <time>2018-02-28T13:57:04Z</time>
      </trkpt>
      <trkpt lat="47.7338" lon="6.01024">
        <ele>277.22</ele>
        <time>2018-02-28T13:57:06Z</time>
      </trkpt>
      <trkpt lat="47.73376" lon="6.01034">
        <ele>276.9</ele>
        <time>2018-02-28T13:57:08Z</time>
      </trkpt>
      <trkpt lat="47.73373" lon="6.01045">
        <ele>276.67</ele>
        <time>2018-02-28T13:57:10Z</time>
      </trkpt>
      <trkpt lat="47.73369" lon="6.01055">
        <ele>276.49</ele>
        <time>2018-02-28T13:57:12Z</time>
      </trkpt>
      <trkpt lat="47.73365" lon="6.01065">
        <ele>276.33</ele>
        <time>2018-02-28T13:57:14Z</time>
      </trkpt>
      <trkpt lat="47.7336" lon="6.01074">
        <ele>276.2</ele>
        <time>2018-02-28T13:57:16Z</time>
      </trkpt>
      <trkpt lat="47.73357" lon="6.01083">
        <ele>276.17</ele>
        <time>2018-02-28T13:57:18Z</time>
      </trkpt>
      <trkpt lat="47.73353" lon="6.01092">
        <ele>276.14</ele>
        <time>2018-02-28T13:57:20Z</time>
      </trkpt>
      <trkpt lat="47.73349" lon="6.01102">
        <ele>275.9</ele>
        <time>2018-02-28T13:57:22Z</time>
      </trkpt>
      <trkpt lat="47.73345" lon="6.01111">
        <ele>275.67</ele>
        <time>2018-02-28T13:57:24Z</time>
      </trkpt>
      <trkpt lat="47.73341" lon="6.01121">
        <ele>275.6</ele>
        <time>2018-02-28T13:57:26Z</time>
      </trkpt>
      <trkpt lat="47.73339" lon="6.01129">
        <ele>275.58</ele>
        <time>2018-02-28T13:57:28Z</time>
      </trkpt>
      <trkpt lat="47.73336" lon="6.01137">
        <ele>275.55</ele>
        <time>2018-02-28T13:57:30Z</time>
      </trkpt>
      <trkpt lat="47.73333" lon="6.01144">
        <ele>275.53</ele>
        <time>2018-02-28T13:57:32Z</time>
      </trkpt>
      <trkpt lat="47.73331" lon="6.01152">
        <ele>275.5</ele>
        <time>2018-02-28T13:57:34Z</time>
      </trkpt>
      <trkpt lat="47.7333" lon="6.01161">
        <ele>275.47</ele>
        <time>2018-02-28T13:57:36Z</time>
      </trkpt>
      <trkpt lat="47.73328" lon="6.01169">
        <ele>275.43</ele>
        <time>2018-02-28T13:57:38Z</time>
      </trkpt>
      <trkpt lat="47.73327" lon="6.01179">
        <ele>275.39</ele>
        <time>2018-02-28T13:57:40Z</time>
      </trkpt>
      <trkpt lat="47.73327" lon="6.01187">
        <ele>275.36</ele>
        <time>2018-02-28T13:57:42Z</time>
      </trkpt>
      <trkpt lat="47.73327" lon="6.01196">
        <ele>275.31</ele>
        <time>2018-02-28T13:57:44Z</time>
      </trkpt>
      <trkpt lat="47.73329" lon="6.01204">
        <ele>275.27</ele>
        <time>2018-02-28T13:57:46Z</time>
      </trkpt>
      <trkpt lat="47.7333" lon="6.01213">
        <ele>275.22</ele>
        <time>2018-02-28T13:57:48Z</time>
      </trkpt>
      <trkpt lat="47.73332" lon="6.01223">
        <ele>275.17</ele>
        <time>2018-02-28T13:57:50Z</time>
      </trkpt>
      <trkpt lat="47.73334" lon="6.01232">
        <ele>275.12</ele>
        <time>2018-02-28T13:57:52Z</time>
      </trkpt>
      <trkpt lat="47.73335" lon="6.01241">
        <ele>275.06</ele>
        <time>2018-02-28T13:57:54Z</time>
      </trkpt>
      <trkpt lat="47.73337" lon="6.0125">
        <ele>274.99</ele>
        <time>2018-02-28T13:57:56Z</time>
      </trkpt>
      <trkpt lat="47.73338" lon="6.01259">
        <ele>274.9</ele>
        <time>2018-02-28T13:57:58Z</time>
      </trkpt>
      <trkpt lat="47.7334" lon="6.01268">
        <ele>274.81</ele>
        <time>2018-02-28T13:58:00Z</time>
      </trkpt>
      <trkpt lat="47.73341" lon="6.01276">
        <ele>274.72</ele>
        <time>2018-02-28T13:58:02Z</time>
      </trkpt>
      <trkpt lat="47.73342" lon="6.01285">
        <ele>274.62</ele>
        <time>2018-02-28T13:58:04Z</time>
      </trkpt>
      <trkpt lat="47.73343" lon="6.01293">
        <ele>274.52</ele>
        <time>2018-02-28T13:58:06Z</time>
      </trkpt>
      <trkpt lat="47.73344" lon="6.01299">
        <ele>274.41</ele>
        <time>2018-02-28T13:58:08Z</time>
      </trkpt>
      <trkpt lat="47.73344" lon="6.01307">
        <ele>274.3</ele>
        <time>2018-02-28T13:58:10Z</time>
      </trkpt>
      <trkpt lat="47.73345" lon="6.01315">
        <ele>274.18</ele>
        <time>2018-02-28T13:58:12Z</time>
      </trkpt>
      <trkpt lat="47.73345" lon="6.01324">
        <ele>274.06</ele>
        <time>2018-02-28T13:58:14Z</time>
      </trkpt>
      <trkpt lat="47.73345" lon="6.01332">
        <ele>273.93</ele>
        <time>2018-02-28T13:58:16Z</time>
      </trkpt>
      <trkpt lat="47.73344" lon="6.01341">
        <ele>273.79</ele>
        <time>2018-02-28T13:58:18Z</time>
      </trkpt>
      <trkpt lat="47.73344" lon="6.0135">
        <ele>273.65</ele>
        <time>2018-02-28T13:58:20Z</time>
      </trkpt>
      <trkpt lat="47.73342" lon="6.01359">
        <ele>273.51</ele>
        <time>2018-02-28T13:58:22Z</time>
      </trkpt>
      <trkpt lat="47.7334" lon="6.01368">
        <ele>273.37</ele>
        <time>2018-02-28T13:58:24Z</time>
      </trkpt>
      <trkpt lat="47.73339" lon="6.01378">
        <ele>273.24</ele>
        <time>2018-02-28T13:58:26Z</time>
      </trkpt>
      <trkpt lat="47.73338" lon="6.01386">
        <ele>273.1</ele>
        <time>2018-02-28T13:58:28Z</time>
      </trkpt>
      <trkpt lat="47.73336" lon="6.01395">
        <ele>272.96</ele>
        <time>2018-02-28T13:58:30Z</time>
      </trkpt>
      <trkpt lat="47.73336" lon="6.01403">
        <ele>272.82</ele>
        <time>2018-02-28T13:58:32Z</time>
      </trkpt>
      <trkpt lat="47.73336" lon="6.0141">
        <ele>272.68</ele>
        <time>2018-02-28T13:58:34Z</time>
      </trkpt>
      <trkpt lat="47.73334" lon="6.01417">
        <ele>272.54</ele>
        <time>2018-02-28T13:58:36Z</time>
      </trkpt>
      <trkpt lat="47.73334" lon="6.01424">
        <ele>272.4</ele>
        <time>2018-02-28T13:58:38Z</time>
      </trkpt>
      <trkpt lat="47.73333" lon="6.01434">
        <ele>272.26</ele>
        <time>2018-02-28T13:58:40Z</time>
      </trkpt>
      <trkpt lat="47.73333" lon="6.01444">
        <ele>272.11</ele>
        <time>2018-02-28T13:58:42Z</time>
      </trkpt>
      <trkpt lat="47.73334" lon="6.01453">
        <ele>271.97</ele>
        <time>2018-02-28T13:58:44Z</time>
      </trkpt>
      <trkpt lat="47.73334" lon="6.01462">
        <ele>271.83</ele>
        <time>2018-02-28T13:58:46Z</time>
      </trkpt>
      <trkpt lat="47.73335" lon="6.0147">
        <ele>271.68</ele>
        <time>2018-02-28T13:58:48Z</time>
      </trkpt>
      <trkpt lat="47.73335" lon="6.01478">
        <ele>271.53</ele>
        <time>2018-02-28T13:58:50Z</time>
      </trkpt>
      <trkpt lat="47.73336" lon="6.01488">
        <ele>271.38</ele>
        <time>2018-02-28T13:58:52Z</time>
      </trkpt>
      <trkpt lat="47.73337" lon="6.01499">
        <ele>270.71</ele>
        <time>2018-02-28T13:58:54Z</time>
      </trkpt>
      <trkpt lat="47.73338" lon="6.0151">
        <ele>269.48</ele>
        <time>2018-02-28T13:58:56Z</time>
      </trkpt>
      <trkpt lat="47.73339" lon="6.01523">
        <ele>268.52</ele>
        <time>2018-02-28T13:58:58Z</time>
      </trkpt>
      <trkpt lat="47.7334" lon="6.0153">
        <ele>268.16</ele>
        <time>2018-02-28T13:58:59Z</time>
      </trkpt>
      <trkpt lat="47.7334" lon="6.01537">
        <ele>267.85</ele>
        <time>2018-02-28T13:59:00Z</time>
      </trkpt>
      <trkpt lat="47.7334" lon="6.01543">
        <ele>267.58</ele>
        <time>2018-02-28T13:59:01Z</time>
      </trkpt>
      <trkpt lat="47.73341" lon="6.01551">
        <ele>267.35</ele>
        <time>2018-02-28T13:59:02Z</time>
      </trkpt>
      <trkpt lat="47.7334" lon="6.01558">
        <ele>267.16</ele>
        <time>2018-02-28T13:59:03Z</time>
      </trkpt>
      <trkpt lat="47.7334" lon="6.01565">
        <ele>266.99</ele>
        <time>2018-02-28T13:59:04Z</time>
      </trkpt>
      <trkpt lat="47.73339" lon="6.01572">
        <ele>266.84</ele>
        <time>2018-02-28T13:59:05Z</time>
      </trkpt>
      <trkpt lat="47.73339" lon="6.01579">
        <ele>266.71</ele>
        <time>2018-02-28T13:59:06Z</time>
      </trkpt>
      <trkpt lat="47.73339" lon="6.01586">
        <ele>266.59</ele>
        <time>2018-02-28T13:59:07Z</time>
      </trkpt>
      <trkpt lat="47.73338" lon="6.01593">
        <ele>266.49</ele>
        <time>2018-02-28T13:59:08Z</time>
      </trkpt>
      <trkpt lat="47.73337" lon="6.016">
        <ele>266.39</ele>
        <time>2018-02-28T13:59:09Z</time>
      </trkpt>
      <trkpt lat="47.73337" lon="6.01607">
        <ele>266.31</ele>
        <time>2018-02-28T13:59:10Z</time>
      </trkpt>
      <trkpt lat="47.73335" lon="6.0162">
        <ele>266.15</ele>
        <time>2018-02-28T13:59:12Z</time>
      </trkpt>
      <trkpt lat="47.73333" lon="6.01633">
        <ele>266.03</ele>
        <time>2018-02-28T13:59:14Z</time>
      </trkpt>
      <trkpt lat="47.73331" lon="6.01647">
        <ele>265.93</ele>
        <time>2018-02-28T13:59:16Z</time>
      </trkpt>
      <trkpt lat="47.73329" lon="6.0166">
        <ele>265.84</ele>
        <time>2018-02-28T13:59:18Z</time>
      </trkpt>
      <trkpt lat="47.73326" lon="6.01672">
        <ele>265.77</ele>
        <time>2018-02-28T13:59:20Z</time>
      </trkpt>
      <trkpt lat="47.73323" lon="6.01684">
        <ele>265.68</ele>
        <time>2018-02-28T13:59:22Z</time>
      </trkpt>
      <trkpt lat="47.7332" lon="6.01695">
        <ele>265.57</ele>
        <time>2018-02-28T13:59:24Z</time>
      </trkpt>
      <trkpt lat="47.73318" lon="6.01706">
        <ele>265.42</ele>
        <time>2018-02-28T13:59:26Z</time>
      </trkpt>
      <trkpt lat="47.73316" lon="6.01718">
        <ele>265.24</ele>
        <time>2018-02-28T13:59:28Z</time>
      </trkpt>
      <trkpt lat="47.73315" lon="6.01731">
        <ele>265.09</ele>
        <time>2018-02-28T13:59:30Z</time>
      </trkpt>
      <trkpt lat="47.73312" lon="6.01743">
        <ele>264.96</ele>
        <time>2018-02-28T13:59:32Z</time>
      </trkpt>
      <trkpt lat="47.7331" lon="6.01755">
        <ele>264.81</ele>
        <time>2018-02-28T13:59:34Z</time>
      </trkpt>
      <trkpt lat="47.73308" lon="6.01767">
        <ele>264.66</ele>
        <time>2018-02-28T13:59:36Z</time>
      </trkpt>
      <trkpt lat="47.73306" lon="6.01778">
        <ele>264.52</ele>
        <time>2018-02-28T13:59:38Z</time>
      </trkpt>
      <trkpt lat="47.73304" lon="6.01789">
        <ele>264.48</ele>
        <time>2018-02-28T13:59:40Z</time>
      </trkpt>
      <trkpt lat="47.73302" lon="6.01801">
        <ele>264.46</ele>
        <time>2018-02-28T13:59:42Z</time>
      </trkpt>
      <trkpt lat="47.73301" lon="6.0181">
        <ele>264.44</ele>
        <time>2018-02-28T13:59:44Z</time>
      </trkpt>
      <trkpt lat="47.73299" lon="6.01819">
        <ele>264.42</ele>
        <time>2018-02-28T13:59:46Z</time>
      </trkpt>
      <trkpt lat="47.73297" lon="6.0183">
        <ele>264.39</ele>
        <time>2018-02-28T13:59:48Z</time>
      </trkpt>
      <trkpt lat="47.73296" lon="6.01839">
        <ele>264.36</ele>
        <time>2018-02-28T13:59:50Z</time>
      </trkpt>
      <trkpt lat="47.73294" lon="6.01848">
        <ele>264.32</ele>
        <time>2018-02-28T13:59:52Z</time>
      </trkpt>
      <trkpt lat="47.73292" lon="6.01857">
        <ele>264.28</ele>
        <time>2018-02-28T13:59:54Z</time>
      </trkpt>
      <trkpt lat="47.73291" lon="6.01866">
        <ele>264.23</ele>
        <time>2018-02-28T13:59:56Z</time>
      </trkpt>
      <trkpt lat="47.73289" lon="6.01875">
        <ele>264.18</ele>
        <time>2018-02-28T13:59:58Z</time>
      </trkpt>
      <trkpt lat="47.73286" lon="6.01884">
        <ele>264.12</ele>
        <time>2018-02-28T14:00:00Z</time>
      </trkpt>
      <trkpt lat="47.73284" lon="6.01893">
        <ele>264.06</ele>
        <time>2018-02-28T14:00:02Z</time>
      </trkpt>
      <trkpt lat="47.73281" lon="6.01903">
        <ele>264</ele>
        <time>2018-02-28T14:00:04Z</time>
      </trkpt>
      <trkpt lat="47.73277" lon="6.01911">
        <ele>263.94</ele>
        <time>2018-02-28T14:00:06Z</time>
      </trkpt>
      <trkpt lat="47.73274" lon="6.01921">
        <ele>263.88</ele>
        <time>2018-02-28T14:00:08Z</time>
      </trkpt>
      <trkpt lat="47.73271" lon="6.0193">
        <ele>263.81</ele>
        <time>2018-02-28T14:00:10Z</time>
      </trkpt>
      <trkpt lat="47.73267" lon="6.01939">
        <ele>263.75</ele>
        <time>2018-02-28T14:00:12Z</time>
      </trkpt>
      <trkpt lat="47.73264" lon="6.01947">
        <ele>263.68</ele>
        <time>2018-02-28T14:00:14Z</time>
      </trkpt>
      <trkpt lat="47.7326" lon="6.01956">
        <ele>263.62</ele>
        <time>2018-02-28T14:00:16Z</time>
      </trkpt>
      <trkpt lat="47.73257" lon="6.01964">
        <ele>263.55</ele>
        <time>2018-02-28T14:00:18Z</time>
      </trkpt>
      <trkpt lat="47.73253" lon="6.01972">
        <ele>263.48</ele>
        <time>2018-02-28T14:00:20Z</time>
      </trkpt>
      <trkpt lat="47.73249" lon="6.01981">
        <ele>263.41</ele>
        <time>2018-02-28T14:00:22Z</time>
      </trkpt>
      <trkpt lat="47.73246" lon="6.01989">
        <ele>263.34</ele>
        <time>2018-02-28T14:00:24Z</time>
      </trkpt>
      <trkpt lat="47.73243" lon="6.01998">
        <ele>263.27</ele>
        <time>2018-02-28T14:00:26Z</time>
      </trkpt>
      <trkpt lat="47.73239" lon="6.02006">
        <ele>263.2</ele>
        <time>2018-02-28T14:00:28Z</time>
      </trkpt>
      <trkpt lat="47.73236" lon="6.02015">
        <ele>263.13</ele>
        <time>2018-02-28T14:00:30Z</time>
      </trkpt>
      <trkpt lat="47.73233" lon="6.02024">
        <ele>263.05</ele>
        <time>2018-02-28T14:00:32Z</time>
      </trkpt>
      <trkpt lat="47.7323" lon="6.02032">
        <ele>262.98</ele>
        <time>2018-02-28T14:00:34Z</time>
      </trkpt>
      <trkpt lat="47.73227" lon="6.02041">
        <ele>262.92</ele>
        <time>2018-02-28T14:00:36Z</time>
      </trkpt>
      <trkpt lat="47.73223" lon="6.0205">
        <ele>262.85</ele>
        <time>2018-02-28T14:00:38Z</time>
      </trkpt>
      <trkpt lat="47.7322" lon="6.02059">
        <ele>262.78</ele>
        <time>2018-02-28T14:00:40Z</time>
      </trkpt>
      <trkpt lat="47.73217" lon="6.02069">
        <ele>262.71</ele>
        <time>2018-02-28T14:00:42Z</time>
      </trkpt>
      <trkpt lat="47.73212" lon="6.02078">
        <ele>262.63</ele>
        <time>2018-02-28T14:00:44Z</time>
      </trkpt>
      <trkpt lat="47.73208" lon="6.02086">
        <ele>262.56</ele>
        <time>2018-02-28T14:00:46Z</time>
      </trkpt>
      <trkpt lat="47.73205" lon="6.02093">
        <ele>262.49</ele>
        <time>2018-02-28T14:00:48Z</time>
      </trkpt>
      <trkpt lat="47.73201" lon="6.02102">
        <ele>262.42</ele>
        <time>2018-02-28T14:00:50Z</time>
      </trkpt>
      <trkpt lat="47.73198" lon="6.02109">
        <ele>262.34</ele>
        <time>2018-02-28T14:00:52Z</time>
      </trkpt>
      <trkpt lat="47.73193" lon="6.02117">
        <ele>262.27</ele>
        <time>2018-02-28T14:00:54Z</time>
      </trkpt>
      <trkpt lat="47.73188" lon="6.02126">
        <ele>261.72</ele>
        <time>2018-02-28T14:00:56Z</time>
      </trkpt>
      <trkpt lat="47.73183" lon="6.02135">
        <ele>261.37</ele>
        <time>2018-02-28T14:00:58Z</time>
      </trkpt>
      <trkpt lat="47.73178" lon="6.02144">
        <ele>261.13</ele>
        <time>2018-02-28T14:01:00Z</time>
      </trkpt>
      <trkpt lat="47.73174" lon="6.02152">
        <ele>261.07</ele>
        <time>2018-02-28T14:01:02Z</time>
      </trkpt>
      <trkpt lat="47.73168" lon="6.0216">
        <ele>261.03</ele>
        <time>2018-02-28T14:01:04Z</time>
      </trkpt>
      <trkpt lat="47.73162" lon="6.02167">
        <ele>260.7</ele>
        <time>2018-02-28T14:01:06Z</time>
      </trkpt>
      <trkpt lat="47.73156" lon="6.02175">
        <ele>260.39</ele>
        <time>2018-02-28T14:01:08Z</time>
      </trkpt>
      <trkpt lat="47.73151" lon="6.02183">
        <ele>260.16</ele>
        <time>2018-02-28T14:01:10Z</time>
      </trkpt>
      <trkpt lat="47.73145" lon="6.02191">
        <ele>260.03</ele>
        <time>2018-02-28T14:01:12Z</time>
      </trkpt>
      <trkpt lat="47.7314" lon="6.02199">
        <ele>259.85</ele>
        <time>2018-02-28T14:01:14Z</time>
      </trkpt>
      <trkpt lat="47.73135" lon="6.02207">
        <ele>259.69</ele>
        <time>2018-02-28T14:01:16Z</time>
      </trkpt>
      <trkpt lat="47.73129" lon="6.02215">
        <ele>259.65</ele>
        <time>2018-02-28T14:01:18Z</time>
      </trkpt>
      <trkpt lat="47.73125" lon="6.02222">
        <ele>259.63</ele>
        <time>2018-02-28T14:01:20Z</time>
      </trkpt>
      <trkpt lat="47.7312" lon="6.0223">
        <ele>259.62</ele>
        <time>2018-02-28T14:01:22Z</time>
      </trkpt>
      <trkpt lat="47.73115" lon="6.02238">
        <ele>259.6</ele>
        <time>2018-02-28T14:01:24Z</time>
      </trkpt>
      <trkpt lat="47.7311" lon="6.02246">
        <ele>259.58</ele>
        <time>2018-02-28T14:01:26Z</time>
      </trkpt>
      <trkpt lat="47.73105" lon="6.02254">
        <ele>259.55</ele>
        <time>2018-02-28T14:01:28Z</time>
      </trkpt>
      <trkpt lat="47.73101" lon="6.02262">
        <ele>259.53</ele>
        <time>2018-02-28T14:01:30Z</time>
      </trkpt>
      <trkpt lat="47.73096" lon="6.0227">
        <ele>259.51</ele>
        <time>2018-02-28T14:01:32Z</time>
      </trkpt>
      <trkpt lat="47.73091" lon="6.02278">
        <ele>259.48</ele>
        <time>2018-02-28T14:01:34Z</time>
      </trkpt>
      <trkpt lat="47.73086" lon="6.02285">
        <ele>259.45</ele>
        <time>2018-02-28T14:01:36Z</time>
      </trkpt>
      <trkpt lat="47.73082" lon="6.02293">
        <ele>259.42</ele>
        <time>2018-02-28T14:01:38Z</time>
      </trkpt>
      <trkpt lat="47.73077" lon="6.02301">
        <ele>259.39</ele>
        <time>2018-02-28T14:01:40Z</time>
      </trkpt>
      <trkpt lat="47.73072" lon="6.02309">
        <ele>259.37</ele>
        <time>2018-02-28T14:01:42Z</time>
      </trkpt>
      <trkpt lat="47.73068" lon="6.02316">
        <ele>259.34</ele>
        <time>2018-02-28T14:01:44Z</time>
      </trkpt>
      <trkpt lat="47.73063" lon="6.02324">
        <ele>259.31</ele>
        <time>2018-02-28T14:01:46Z</time>
      </trkpt>
      <trkpt lat="47.73058" lon="6.02331">
        <ele>259.28</ele>
        <time>2018-02-28T14:01:48Z</time>
      </trkpt>
      <trkpt lat="47.73054" lon="6.0234">
        <ele>259.04</ele>
        <time>2018-02-28T14:01:50Z</time>
      </trkpt>
      <trkpt lat="47.73048" lon="6.02349">
        <ele>258.84</ele>
        <time>2018-02-28T14:01:52Z</time>
      </trkpt>
      <trkpt lat="47.73043" lon="6.02358">
        <ele>258.7</ele>
        <time>2018-02-28T14:01:54Z</time>
      </trkpt>
      <trkpt lat="47.73037" lon="6.02367">
        <ele>258.63</ele>
        <time>2018-02-28T14:01:56Z</time>
      </trkpt>
      <trkpt lat="47.73032" lon="6.02376">
        <ele>258.61</ele>
        <time>2018-02-28T14:01:58Z</time>
      </trkpt>
      <trkpt lat="47.73027" lon="6.02384">
        <ele>258.56</ele>
        <time>2018-02-28T14:02:00Z</time>
      </trkpt>
      <trkpt lat="47.73022" lon="6.02393">
        <ele>258.45</ele>
        <time>2018-02-28T14:02:02Z</time>
      </trkpt>
      <trkpt lat="47.73016" lon="6.02402">
        <ele>258.35</ele>
        <time>2018-02-28T14:02:04Z</time>
      </trkpt>
      <trkpt lat="47.7301" lon="6.02412">
        <ele>258.26</ele>
        <time>2018-02-28T14:02:06Z</time>
      </trkpt>
      <trkpt lat="47.73007" lon="6.02417">
        <ele>258.22</ele>
        <time>2018-02-28T14:02:07Z</time>
      </trkpt>
      <trkpt lat="47.73001" lon="6.02428">
        <ele>258.13</ele>
        <time>2018-02-28T14:02:09Z</time>
      </trkpt>
      <trkpt lat="47.72996" lon="6.02437">
        <ele>258.07</ele>
        <time>2018-02-28T14:02:11Z</time>
      </trkpt>
      <trkpt lat="47.72991" lon="6.02447">
        <ele>258.02</ele>
        <time>2018-02-28T14:02:13Z</time>
      </trkpt>
      <trkpt lat="47.72986" lon="6.02455">
        <ele>257.97</ele>
        <time>2018-02-28T14:02:15Z</time>
      </trkpt>
      <trkpt lat="47.7298" lon="6.02463">
        <ele>257.89</ele>
        <time>2018-02-28T14:02:17Z</time>
      </trkpt>
      <trkpt lat="47.72975" lon="6.02472">
        <ele>257.81</ele>
        <time>2018-02-28T14:02:19Z</time>
      </trkpt>
      <trkpt lat="47.7297" lon="6.02482">
        <ele>257.72</ele>
        <time>2018-02-28T14:02:21Z</time>
      </trkpt>
      <trkpt lat="47.72964" lon="6.02492">
        <ele>257.64</ele>
        <time>2018-02-28T14:02:23Z</time>
      </trkpt>
      <trkpt lat="47.72959" lon="6.02503">
        <ele>257.58</ele>
        <time>2018-02-28T14:02:25Z</time>
      </trkpt>
      <trkpt lat="47.72956" lon="6.02508">
        <ele>257.54</ele>
        <time>2018-02-28T14:02:26Z</time>
      </trkpt>
      <trkpt lat="47.72952" lon="6.02514">
        <ele>257.5</ele>
        <time>2018-02-28T14:02:27Z</time>
      </trkpt>
      <trkpt lat="47.72947" lon="6.02524">
        <ele>257.43</ele>
        <time>2018-02-28T14:02:29Z</time>
      </trkpt>
      <trkpt lat="47.72941" lon="6.02533">
        <ele>257.35</ele>
        <time>2018-02-28T14:02:31Z</time>
      </trkpt>
      <trkpt lat="47.72936" lon="6.02543">
        <ele>257.27</ele>
        <time>2018-02-28T14:02:33Z</time>
      </trkpt>
      <trkpt lat="47.72932" lon="6.02552">
        <ele>257.25</ele>
        <time>2018-02-28T14:02:35Z</time>
      </trkpt>
      <trkpt lat="47.72928" lon="6.0256">
        <ele>257.24</ele>
        <time>2018-02-28T14:02:37Z</time>
      </trkpt>
      <trkpt lat="47.72923" lon="6.02569">
        <ele>257.22</ele>
        <time>2018-02-28T14:02:39Z</time>
      </trkpt>
      <trkpt lat="47.7292" lon="6.02576">
        <ele>257.21</ele>
        <time>2018-02-28T14:02:41Z</time>
      </trkpt>
      <trkpt lat="47.72916" lon="6.02583">
        <ele>257.19</ele>
        <time>2018-02-28T14:02:43Z</time>
      </trkpt>
      <trkpt lat="47.72913" lon="6.02591">
        <ele>257.17</ele>
        <time>2018-02-28T14:02:45Z</time>
      </trkpt>
      <trkpt lat="47.72909" lon="6.02599">
        <ele>257.15</ele>
        <time>2018-02-28T14:02:47Z</time>
      </trkpt>
      <trkpt lat="47.72905" lon="6.02607">
        <ele>257.13</ele>
        <time>2018-02-28T14:02:49Z</time>
      </trkpt>
      <trkpt lat="47.729" lon="6.02617">
        <ele>256.92</ele>
        <time>2018-02-28T14:02:51Z</time>
      </trkpt>
      <trkpt lat="47.72896" lon="6.02628">
        <ele>256.72</ele>
        <time>2018-02-28T14:02:53Z</time>
      </trkpt>
      <trkpt lat="47.72892" lon="6.02638">
        <ele>256.55</ele>
        <time>2018-02-28T14:02:55Z</time>
      </trkpt>
      <trkpt lat="47.72887" lon="6.02647">
        <ele>256.46</ele>
        <time>2018-02-28T14:02:57Z</time>
      </trkpt>
      <trkpt lat="47.72883" lon="6.02655">
        <ele>256.43</ele>
        <time>2018-02-28T14:02:59Z</time>
      </trkpt>
      <trkpt lat="47.72879" lon="6.02664">
        <ele>256.41</ele>
        <time>2018-02-28T14:03:01Z</time>
      </trkpt>
      <trkpt lat="47.72876" lon="6.02672">
        <ele>256.4</ele>
        <time>2018-02-28T14:03:03Z</time>
      </trkpt>
      <trkpt lat="47.72872" lon="6.0268">
        <ele>256.37</ele>
        <time>2018-02-28T14:03:05Z</time>
      </trkpt>
      <trkpt lat="47.72869" lon="6.02686">
        <ele>256.35</ele>
        <time>2018-02-28T14:03:07Z</time>
      </trkpt>
      <trkpt lat="47.72866" lon="6.02693">
        <ele>256.33</ele>
        <time>2018-02-28T14:03:09Z</time>
      </trkpt>
      <trkpt lat="47.72863" lon="6.027">
        <ele>256.29</ele>
        <time>2018-02-28T14:03:12Z</time>
      </trkpt>
      <trkpt lat="47.7286" lon="6.02707">
        <ele>256.25</ele>
        <time>2018-02-28T14:03:15Z</time>
      </trkpt>
      <trkpt lat="47.72857" lon="6.02714">
        <ele>256.19</ele>
        <time>2018-02-28T14:03:19Z</time>
      </trkpt>
      <trkpt lat="47.72854" lon="6.0272">
        <ele>256.15</ele>
        <time>2018-02-28T14:03:22Z</time>
      </trkpt>
      <trkpt lat="47.72852" lon="6.02727">
        <ele>256.09</ele>
        <time>2018-02-28T14:03:26Z</time>
      </trkpt>
      <trkpt lat="47.7285" lon="6.02734">
        <ele>256.01</ele>
        <time>2018-02-28T14:03:31Z</time>
      </trkpt>
      <trkpt lat="47.72849" lon="6.02742">
        <ele>255.95</ele>
        <time>2018-02-28T14:03:35Z</time>
      </trkpt>
      <trkpt lat="47.72849" lon="6.02752">
        <ele>255.91</ele>
        <time>2018-02-28T14:03:38Z</time>
      </trkpt>
      <trkpt lat="47.72848" lon="6.02759">
        <ele>255.88</ele>
        <time>2018-02-28T14:03:40Z</time>
      </trkpt>
      <trkpt lat="47.72848" lon="6.02766">
        <ele>255.84</ele>
        <time>2018-02-28T14:03:42Z</time>
      </trkpt>
      <trkpt lat="47.72848" lon="6.02776">
        <ele>255.81</ele>
        <time>2018-02-28T14:03:44Z</time>
      </trkpt>
      <trkpt lat="47.7285" lon="6.02787">
        <ele>255.77</ele>
        <time>2018-02-28T14:03:46Z</time>
      </trkpt>
      <trkpt lat="47.72853" lon="6.02795">
        <ele>255.76</ele>
        <time>2018-02-28T14:03:47Z</time>
      </trkpt>
      <trkpt lat="47.72855" lon="6.02807">
        <ele>255.72</ele>
        <time>2018-02-28T14:03:49Z</time>
      </trkpt>
      <trkpt lat="47.72858" lon="6.02816">
        <ele>255.71</ele>
        <time>2018-02-28T14:03:50Z</time>
      </trkpt>
      <trkpt lat="47.72861" lon="6.02823">
        <ele>255.69</ele>
        <time>2018-02-28T14:03:51Z</time>
      </trkpt>
      <trkpt lat="47.72863" lon="6.02831">
        <ele>255.67</ele>
        <time>2018-02-28T14:03:52Z</time>
      </trkpt>
      <trkpt lat="47.72864" lon="6.0284">
        <ele>255.55</ele>
        <time>2018-02-28T14:03:53Z</time>
      </trkpt>
      <trkpt lat="47.72867" lon="6.02853">
        <ele>255.41</ele>
        <time>2018-02-28T14:03:54Z</time>
      </trkpt>
      <trkpt lat="47.7287" lon="6.02866">
        <ele>255.28</ele>
        <time>2018-02-28T14:03:55Z</time>
      </trkpt>
      <trkpt lat="47.72875" lon="6.02878">
        <ele>255.17</ele>
        <time>2018-02-28T14:03:56Z</time>
      </trkpt>
      <trkpt lat="47.72879" lon="6.0289">
        <ele>255.08</ele>
        <time>2018-02-28T14:03:57Z</time>
      </trkpt>
      <trkpt lat="47.72884" lon="6.02903">
        <ele>254.99</ele>
        <time>2018-02-28T14:03:58Z</time>
      </trkpt>
      <trkpt lat="47.72887" lon="6.02915">
        <ele>254.91</ele>
        <time>2018-02-28T14:03:59Z</time>
      </trkpt>
      <trkpt lat="47.7289" lon="6.02929">
        <ele>254.83</ele>
        <time>2018-02-28T14:04:00Z</time>
      </trkpt>
      <trkpt lat="47.72893" lon="6.02941">
        <ele>254.75</ele>
        <time>2018-02-28T14:04:01Z</time>
      </trkpt>
      <trkpt lat="47.72895" lon="6.02953">
        <ele>254.65</ele>
        <time>2018-02-28T14:04:02Z</time>
      </trkpt>
      <trkpt lat="47.72896" lon="6.02965">
        <ele>254.54</ele>
        <time>2018-02-28T14:04:03Z</time>
      </trkpt>
      <trkpt lat="47.72897" lon="6.02977">
        <ele>254.43</ele>
        <time>2018-02-28T14:04:04Z</time>
      </trkpt>
      <trkpt lat="47.72898" lon="6.02989">
        <ele>254.3</ele>
        <time>2018-02-28T14:04:05Z</time>
      </trkpt>
      <trkpt lat="47.72899" lon="6.03001">
        <ele>254.15</ele>
        <time>2018-02-28T14:04:06Z</time>
      </trkpt>
      <trkpt lat="47.72899" lon="6.03013">
        <ele>254</ele>
        <time>2018-02-28T14:04:07Z</time>
      </trkpt>
      <trkpt lat="47.72897" lon="6.03025">
        <ele>253.86</ele>
        <time>2018-02-28T14:04:08Z</time>
      </trkpt>
      <trkpt lat="47.72896" lon="6.03036">
        <ele>253.73</ele>
        <time>2018-02-28T14:04:09Z</time>
      </trkpt>
      <trkpt lat="47.72895" lon="6.03047">
        <ele>253.66</ele>
        <time>2018-02-28T14:04:10Z</time>
      </trkpt>
      <trkpt lat="47.72894" lon="6.03057">
        <ele>253.58</ele>
        <time>2018-02-28T14:04:11Z</time>
      </trkpt>
      <trkpt lat="47.72892" lon="6.03066">
        <ele>253.55</ele>
        <time>2018-02-28T14:04:12Z</time>
      </trkpt>
      <trkpt lat="47.7289" lon="6.03075">
        <ele>253.51</ele>
        <time>2018-02-28T14:04:13Z</time>
      </trkpt>
      <trkpt lat="47.72888" lon="6.03083">
        <ele>253.43</ele>
        <time>2018-02-28T14:04:14Z</time>
      </trkpt>
      <trkpt lat="47.72887" lon="6.03092">
        <ele>253.33</ele>
        <time>2018-02-28T14:04:15Z</time>
      </trkpt>
      <trkpt lat="47.72885" lon="6.03099">
        <ele>253.22</ele>
        <time>2018-02-28T14:04:16Z</time>
      </trkpt>
      <trkpt lat="47.72883" lon="6.03107">
        <ele>253.11</ele>
        <time>2018-02-28T14:04:17Z</time>
      </trkpt>
      <trkpt lat="47.7288" lon="6.03118">
        <ele>252.81</ele>
        <time>2018-02-28T14:04:19Z</time>
      </trkpt>
      <trkpt lat="47.72877" lon="6.03129">
        <ele>252.35</ele>
        <time>2018-02-28T14:04:21Z</time>
      </trkpt>
      <trkpt lat="47.72873" lon="6.03139">
        <ele>251.96</ele>
        <time>2018-02-28T14:04:23Z</time>
      </trkpt>
      <trkpt lat="47.72871" lon="6.03146">
        <ele>251.71</ele>
        <time>2018-02-28T14:04:24Z</time>
      </trkpt>
      <trkpt lat="47.72868" lon="6.03156">
        <ele>251.12</ele>
        <time>2018-02-28T14:04:26Z</time>
      </trkpt>
      <trkpt lat="47.72865" lon="6.03168">
        <ele>250.57</ele>
        <time>2018-02-28T14:04:28Z</time>
      </trkpt>
      <trkpt lat="47.72862" lon="6.0318">
        <ele>250.02</ele>
        <time>2018-02-28T14:04:30Z</time>
      </trkpt>
      <trkpt lat="47.72861" lon="6.03187">
        <ele>249.71</ele>
        <time>2018-02-28T14:04:31Z</time>
      </trkpt>
      <trkpt lat="47.72857" lon="6.03199">
        <ele>249.12</ele>
        <time>2018-02-28T14:04:33Z</time>
      </trkpt>
      <trkpt lat="47.72856" lon="6.03206">
        <ele>248.85</ele>
        <time>2018-02-28T14:04:34Z</time>
      </trkpt>
      <trkpt lat="47.72854" lon="6.03212">
        <ele>248.48</ele>
        <time>2018-02-28T14:04:35Z</time>
      </trkpt>
      <trkpt lat="47.72852" lon="6.03219">
        <ele>248.03</ele>
        <time>2018-02-28T14:04:36Z</time>
      </trkpt>
      <trkpt lat="47.7285" lon="6.03226">
        <ele>247.57</ele>
        <time>2018-02-28T14:04:37Z</time>
      </trkpt>
      <trkpt lat="47.72848" lon="6.03232">
        <ele>247.11</ele>
        <time>2018-02-28T14:04:38Z</time>
      </trkpt>
      <trkpt lat="47.72847" lon="6.03239">
        <ele>246.68</ele>
        <time>2018-02-28T14:04:39Z</time>
      </trkpt>
      <trkpt lat="47.72845" lon="6.03245">
        <ele>246.3</ele>
        <time>2018-02-28T14:04:40Z</time>
      </trkpt>
      <trkpt lat="47.72843" lon="6.03252">
        <ele>245.89</ele>
        <time>2018-02-28T14:04:41Z</time>
      </trkpt>
      <trkpt lat="47.72842" lon="6.0326">
        <ele>245.44</ele>
        <time>2018-02-28T14:04:42Z</time>
      </trkpt>
      <trkpt lat="47.7284" lon="6.03266">
        <ele>245.02</ele>
        <time>2018-02-28T14:04:43Z</time>
      </trkpt>
      <trkpt lat="47.72839" lon="6.03273">
        <ele>244.64</ele>
        <time>2018-02-28T14:04:44Z</time>
      </trkpt>
      <trkpt lat="47.72837" lon="6.0328">
        <ele>244.23</ele>
        <time>2018-02-28T14:04:45Z</time>
      </trkpt>
      <trkpt lat="47.72833" lon="6.03293">
        <ele>243.32</ele>
        <time>2018-02-28T14:04:47Z</time>
      </trkpt>
      <trkpt lat="47.72832" lon="6.03299">
        <ele>242.86</ele>
        <time>2018-02-28T14:04:48Z</time>
      </trkpt>
      <trkpt lat="47.7283" lon="6.03305">
        <ele>242.45</ele>
        <time>2018-02-28T14:04:49Z</time>
      </trkpt>
      <trkpt lat="47.72827" lon="6.03318">
        <ele>241.73</ele>
        <time>2018-02-28T14:04:51Z</time>
      </trkpt>
      <trkpt lat="47.72826" lon="6.03329">
        <ele>241.21</ele>
        <time>2018-02-28T14:04:53Z</time>
      </trkpt>
      <trkpt lat="47.72824" lon="6.03341">
        <ele>240.64</ele>
        <time>2018-02-28T14:04:55Z</time>
      </trkpt>
      <trkpt lat="47.72823" lon="6.03353">
        <ele>239.73</ele>
        <time>2018-02-28T14:04:57Z</time>
      </trkpt>
      <trkpt lat="47.72822" lon="6.03365">
        <ele>238.89</ele>
        <time>2018-02-28T14:04:59Z</time>
      </trkpt>
      <trkpt lat="47.72823" lon="6.03377">
        <ele>238.17</ele>
        <time>2018-02-28T14:05:01Z</time>
      </trkpt>
      <trkpt lat="47.72823" lon="6.03388">
        <ele>237.72</ele>
        <time>2018-02-28T14:05:03Z</time>
      </trkpt>
      <trkpt lat="47.72824" lon="6.03399">
        <ele>237.59</ele>
        <time>2018-02-28T14:05:05Z</time>
      </trkpt>
      <trkpt lat="47.72826" lon="6.0341">
        <ele>237.47</ele>
        <time>2018-02-28T14:05:07Z</time>
      </trkpt>
      <trkpt lat="47.72828" lon="6.0342">
        <ele>236.83</ele>
        <time>2018-02-28T14:05:09Z</time>
      </trkpt>
      <trkpt lat="47.7283" lon="6.03432">
        <ele>236.04</ele>
        <time>2018-02-28T14:05:11Z</time>
      </trkpt>
      <trkpt lat="47.72831" lon="6.03444">
        <ele>234.77</ele>
        <time>2018-02-28T14:05:13Z</time>
      </trkpt>
      <trkpt lat="47.72833" lon="6.03457">
        <ele>233.67</ele>
        <time>2018-02-28T14:05:15Z</time>
      </trkpt>
      <trkpt lat="47.72834" lon="6.03469">
        <ele>232.75</ele>
        <time>2018-02-28T14:05:17Z</time>
      </trkpt>
      <trkpt lat="47.72836" lon="6.03481">
        <ele>231.99</ele>
        <time>2018-02-28T14:05:19Z</time>
      </trkpt>
      <trkpt lat="47.72836" lon="6.03493">
        <ele>231.78</ele>
        <time>2018-02-28T14:05:21Z</time>
      </trkpt>
      <trkpt lat="47.72837" lon="6.03504">
        <ele>231.34</ele>
        <time>2018-02-28T14:05:23Z</time>
      </trkpt>
      <trkpt lat="47.72838" lon="6.03517">
        <ele>230.47</ele>
        <time>2018-02-28T14:05:25Z</time>
      </trkpt>
      <trkpt lat="47.72838" lon="6.03529">
        <ele>229.76</ele>
        <time>2018-02-28T14:05:27Z</time>
      </trkpt>
      <trkpt lat="47.72837" lon="6.0354">
        <ele>229.58</ele>
        <time>2018-02-28T14:05:29Z</time>
      </trkpt>
      <trkpt lat="47.72835" lon="6.03551">
        <ele>229.43</ele>
        <time>2018-02-28T14:05:31Z</time>
      </trkpt>
      <trkpt lat="47.72832" lon="6.03562">
        <ele>229.12</ele>
        <time>2018-02-28T14:05:33Z</time>
      </trkpt>
      <trkpt lat="47.72826" lon="6.03571">
        <ele>228.82</ele>
        <time>2018-02-28T14:05:35Z</time>
      </trkpt>
      <trkpt lat="47.7282" lon="6.03578">
        <ele>228.51</ele>
        <time>2018-02-28T14:05:37Z</time>
      </trkpt>
      <trkpt lat="47.72813" lon="6.03585">
        <ele>228.63</ele>
        <time>2018-02-28T14:05:39Z</time>
      </trkpt>
      <trkpt lat="47.72807" lon="6.03592">
        <ele>228.73</ele>
        <time>2018-02-28T14:05:41Z</time>
      </trkpt>
      <trkpt lat="47.72801" lon="6.03599">
        <ele>228.63</ele>
        <time>2018-02-28T14:05:43Z</time>
      </trkpt>
      <trkpt lat="47.72794" lon="6.03606">
        <ele>228.42</ele>
        <time>2018-02-28T14:05:45Z</time>
      </trkpt>
      <trkpt lat="47.72789" lon="6.0361">
        <ele>228.31</ele>
        <time>2018-02-28T14:05:46Z</time>
      </trkpt>
      <trkpt lat="47.72785" lon="6.03614">
        <ele>228.24</ele>
        <time>2018-02-28T14:05:47Z</time>
      </trkpt>
      <trkpt lat="47.72778" lon="6.03621">
        <ele>228.17</ele>
        <time>2018-02-28T14:05:49Z</time>
      </trkpt>
      <trkpt lat="47.72774" lon="6.03624">
        <ele>228.14</ele>
        <time>2018-02-28T14:05:50Z</time>
      </trkpt>
      <trkpt lat="47.72768" lon="6.03632">
        <ele>228.14</ele>
        <time>2018-02-28T14:05:52Z</time>
      </trkpt>
      <trkpt lat="47.72763" lon="6.03638">
        <ele>228.16</ele>
        <time>2018-02-28T14:05:54Z</time>
      </trkpt>
      <trkpt lat="47.72757" lon="6.03645">
        <ele>228.15</ele>
        <time>2018-02-28T14:05:56Z</time>
      </trkpt>
      <trkpt lat="47.72752" lon="6.03651">
        <ele>228.14</ele>
        <time>2018-02-28T14:05:58Z</time>
      </trkpt>
      <trkpt lat="47.72747" lon="6.03657">
        <ele>228.12</ele>
        <time>2018-02-28T14:06:00Z</time>
      </trkpt>
      <trkpt lat="47.72742" lon="6.03664">
        <ele>228.09</ele>
        <time>2018-02-28T14:06:02Z</time>
      </trkpt>
      <trkpt lat="47.72737" lon="6.03671">
        <ele>228.06</ele>
        <time>2018-02-28T14:06:04Z</time>
      </trkpt>
      <trkpt lat="47.72732" lon="6.03679">
        <ele>228.01</ele>
        <time>2018-02-28T14:06:06Z</time>
      </trkpt>
      <trkpt lat="47.72727" lon="6.03686">
        <ele>227.96</ele>
        <time>2018-02-28T14:06:08Z</time>
      </trkpt>
      <trkpt lat="47.72723" lon="6.03693">
        <ele>227.9</ele>
        <time>2018-02-28T14:06:10Z</time>
      </trkpt>
      <trkpt lat="47.72716" lon="6.03704">
        <ele>227.83</ele>
        <time>2018-02-28T14:06:13Z</time>
      </trkpt>
      <trkpt lat="47.72711" lon="6.03711">
        <ele>227.78</ele>
        <time>2018-02-28T14:06:15Z</time>
      </trkpt>
      <trkpt lat="47.72707" lon="6.03716">
        <ele>227.73</ele>
        <time>2018-02-28T14:06:17Z</time>
      </trkpt>
      <trkpt lat="47.72702" lon="6.03722">
        <ele>227.69</ele>
        <time>2018-02-28T14:06:19Z</time>
      </trkpt>
      <trkpt lat="47.72697" lon="6.0373">
        <ele>227.64</ele>
        <time>2018-02-28T14:06:21Z</time>
      </trkpt>
      <trkpt lat="47.72691" lon="6.03737">
        <ele>227.59</ele>
        <time>2018-02-28T14:06:23Z</time>
      </trkpt>
      <trkpt lat="47.72686" lon="6.03746">
        <ele>227.54</ele>
        <time>2018-02-28T14:06:25Z</time>
      </trkpt>
      <trkpt lat="47.72682" lon="6.03754">
        <ele>227.5</ele>
        <time>2018-02-28T14:06:27Z</time>
      </trkpt>
      <trkpt lat="47.72677" lon="6.03763">
        <ele>227.44</ele>
        <time>2018-02-28T14:06:29Z</time>
      </trkpt>
      <trkpt lat="47.72672" lon="6.03771">
        <ele>227.39</ele>
        <time>2018-02-28T14:06:31Z</time>
      </trkpt>
      <trkpt lat="47.72667" lon="6.0378">
        <ele>227.34</ele>
        <time>2018-02-28T14:06:33Z</time>
      </trkpt>
      <trkpt lat="47.72664" lon="6.03789">
        <ele>227.28</ele>
        <time>2018-02-28T14:06:35Z</time>
      </trkpt>
      <trkpt lat="47.72661" lon="6.03802">
        <ele>227.23</ele>
        <time>2018-02-28T14:06:37Z</time>
      </trkpt>
      <trkpt lat="47.72659" lon="6.03808">
        <ele>227.21</ele>
        <time>2018-02-28T14:06:38Z</time>
      </trkpt>
      <trkpt lat="47.72657" lon="6.03819">
        <ele>227.17</ele>
        <time>2018-02-28T14:06:40Z</time>
      </trkpt>
      <trkpt lat="47.72655" lon="6.0383">
        <ele>227.13</ele>
        <time>2018-02-28T14:06:42Z</time>
      </trkpt>
      <trkpt lat="47.72653" lon="6.03842">
        <ele>226.98</ele>
        <time>2018-02-28T14:06:44Z</time>
      </trkpt>
      <trkpt lat="47.72651" lon="6.03854">
        <ele>226.72</ele>
        <time>2018-02-28T14:06:46Z</time>
      </trkpt>
      <trkpt lat="47.72649" lon="6.03867">
        <ele>226.54</ele>
        <time>2018-02-28T14:06:48Z</time>
      </trkpt>
      <trkpt lat="47.72647" lon="6.03879">
        <ele>226.45</ele>
        <time>2018-02-28T14:06:50Z</time>
      </trkpt>
      <trkpt lat="47.72646" lon="6.03892">
        <ele>226.39</ele>
        <time>2018-02-28T14:06:52Z</time>
      </trkpt>
      <trkpt lat="47.72645" lon="6.03898">
        <ele>226.37</ele>
        <time>2018-02-28T14:06:53Z</time>
      </trkpt>
      <trkpt lat="47.72644" lon="6.03911">
        <ele>226.35</ele>
        <time>2018-02-28T14:06:55Z</time>
      </trkpt>
      <trkpt lat="47.72643" lon="6.03922">
        <ele>226.33</ele>
        <time>2018-02-28T14:06:57Z</time>
      </trkpt>
      <trkpt lat="47.72642" lon="6.03934">
        <ele>226.27</ele>
        <time>2018-02-28T14:06:59Z</time>
      </trkpt>
      <trkpt lat="47.72642" lon="6.03946">
        <ele>226.22</ele>
        <time>2018-02-28T14:07:01Z</time>
      </trkpt>
      <trkpt lat="47.72641" lon="6.03957">
        <ele>226.16</ele>
        <time>2018-02-28T14:07:03Z</time>
      </trkpt>
      <trkpt lat="47.7264" lon="6.03969">
        <ele>226.04</ele>
        <time>2018-02-28T14:07:05Z</time>
      </trkpt>
      <trkpt lat="47.7264" lon="6.03982">
        <ele>225.93</ele>
        <time>2018-02-28T14:07:07Z</time>
      </trkpt>
      <trkpt lat="47.7264" lon="6.03994">
        <ele>225.81</ele>
        <time>2018-02-28T14:07:09Z</time>
      </trkpt>
      <trkpt lat="47.7264" lon="6.04">
        <ele>225.75</ele>
        <time>2018-02-28T14:07:10Z</time>
      </trkpt>
      <trkpt lat="47.7264" lon="6.04007">
        <ele>225.7</ele>
        <time>2018-02-28T14:07:11Z</time>
      </trkpt>
      <trkpt lat="47.72641" lon="6.04014">
        <ele>225.65</ele>
        <time>2018-02-28T14:07:12Z</time>
      </trkpt>
      <trkpt lat="47.72641" lon="6.04021">
        <ele>225.61</ele>
        <time>2018-02-28T14:07:13Z</time>
      </trkpt>
      <trkpt lat="47.72642" lon="6.04028">
        <ele>225.57</ele>
        <time>2018-02-28T14:07:14Z</time>
      </trkpt>
      <trkpt lat="47.72643" lon="6.04039">
        <ele>225.55</ele>
        <time>2018-02-28T14:07:16Z</time>
      </trkpt>
      <trkpt lat="47.72643" lon="6.04049">
        <ele>225.54</ele>
        <time>2018-02-28T14:07:18Z</time>
      </trkpt>
      <trkpt lat="47.72643" lon="6.04057">
        <ele>225.53</ele>
        <time>2018-02-28T14:07:20Z</time>
      </trkpt>
      <trkpt lat="47.72645" lon="6.04066">
        <ele>225.51</ele>
        <time>2018-02-28T14:07:22Z</time>
      </trkpt>
      <trkpt lat="47.72646" lon="6.04077">
        <ele>225.41</ele>
        <time>2018-02-28T14:07:24Z</time>
      </trkpt>
      <trkpt lat="47.72648" lon="6.0409">
        <ele>225.21</ele>
        <time>2018-02-28T14:07:26Z</time>
      </trkpt>
      <trkpt lat="47.72651" lon="6.04103">
        <ele>225.02</ele>
        <time>2018-02-28T14:07:28Z</time>
      </trkpt>
      <trkpt lat="47.72653" lon="6.04109">
        <ele>224.91</ele>
        <time>2018-02-28T14:07:29Z</time>
      </trkpt>
      <trkpt lat="47.72655" lon="6.04116">
        <ele>224.8</ele>
        <time>2018-02-28T14:07:30Z</time>
      </trkpt>
      <trkpt lat="47.72657" lon="6.04123">
        <ele>224.69</ele>
        <time>2018-02-28T14:07:31Z</time>
      </trkpt>
      <trkpt lat="47.7266" lon="6.04134">
        <ele>224.46</ele>
        <time>2018-02-28T14:07:33Z</time>
      </trkpt>
      <trkpt lat="47.72661" lon="6.04146">
        <ele>224.23</ele>
        <time>2018-02-28T14:07:35Z</time>
      </trkpt>
      <trkpt lat="47.72661" lon="6.04153">
        <ele>224.12</ele>
        <time>2018-02-28T14:07:36Z</time>
      </trkpt>
      <trkpt lat="47.72663" lon="6.04166">
        <ele>223.93</ele>
        <time>2018-02-28T14:07:38Z</time>
      </trkpt>
      <trkpt lat="47.72665" lon="6.04177">
        <ele>223.77</ele>
        <time>2018-02-28T14:07:40Z</time>
      </trkpt>
      <trkpt lat="47.72667" lon="6.04188">
        <ele>223.62</ele>
        <time>2018-02-28T14:07:42Z</time>
      </trkpt>
      <trkpt lat="47.7267" lon="6.042">
        <ele>223.49</ele>
        <time>2018-02-28T14:07:44Z</time>
      </trkpt>
      <trkpt lat="47.72674" lon="6.04211">
        <ele>223.36</ele>
        <time>2018-02-28T14:07:46Z</time>
      </trkpt>
      <trkpt lat="47.72679" lon="6.04222">
        <ele>223.22</ele>
        <time>2018-02-28T14:07:48Z</time>
      </trkpt>
      <trkpt lat="47.72684" lon="6.04233">
        <ele>223.07</ele>
        <time>2018-02-28T14:07:50Z</time>
      </trkpt>
      <trkpt lat="47.72686" lon="6.04238">
        <ele>223</ele>
        <time>2018-02-28T14:07:51Z</time>
      </trkpt>
      <trkpt lat="47.72689" lon="6.04244">
        <ele>222.91</ele>
        <time>2018-02-28T14:07:52Z</time>
      </trkpt>
      <trkpt lat="47.72694" lon="6.04253">
        <ele>222.72</ele>
        <time>2018-02-28T14:07:54Z</time>
      </trkpt>
      <trkpt lat="47.727" lon="6.04261">
        <ele>222.67</ele>
        <time>2018-02-28T14:07:56Z</time>
      </trkpt>
      <trkpt lat="47.72706" lon="6.04269">
        <ele>222.45</ele>
        <time>2018-02-28T14:07:58Z</time>
      </trkpt>
      <trkpt lat="47.72711" lon="6.04278">
        <ele>222.38</ele>
        <time>2018-02-28T14:08:00Z</time>
      </trkpt>
      <trkpt lat="47.72717" lon="6.04285">
        <ele>222.21</ele>
        <time>2018-02-28T14:08:02Z</time>
      </trkpt>
      <trkpt lat="47.72723" lon="6.04293">
        <ele>222.17</ele>
        <time>2018-02-28T14:08:04Z</time>
      </trkpt>
      <trkpt lat="47.72727" lon="6.04299">
        <ele>222.13</ele>
        <time>2018-02-28T14:08:06Z</time>
      </trkpt>
      <trkpt lat="47.7273" lon="6.04304">
        <ele>222.11</ele>
        <time>2018-02-28T14:08:07Z</time>
      </trkpt>
      <trkpt lat="47.72734" lon="6.04313">
        <ele>222.07</ele>
        <time>2018-02-28T14:08:09Z</time>
      </trkpt>
      <trkpt lat="47.72737" lon="6.0432">
        <ele>222.03</ele>
        <time>2018-02-28T14:08:11Z</time>
      </trkpt>
      <trkpt lat="47.72741" lon="6.04326">
        <ele>221.99</ele>
        <time>2018-02-28T14:08:13Z</time>
      </trkpt>
      <trkpt lat="47.72745" lon="6.04335">
        <ele>221.95</ele>
        <time>2018-02-28T14:08:15Z</time>
      </trkpt>
      <trkpt lat="47.7275" lon="6.04344">
        <ele>221.91</ele>
        <time>2018-02-28T14:08:17Z</time>
      </trkpt>
      <trkpt lat="47.72755" lon="6.04355">
        <ele>221.58</ele>
        <time>2018-02-28T14:08:19Z</time>
      </trkpt>
      <trkpt lat="47.72759" lon="6.04366">
        <ele>221.26</ele>
        <time>2018-02-28T14:08:21Z</time>
      </trkpt>
      <trkpt lat="47.72762" lon="6.04377">
        <ele>221.07</ele>
        <time>2018-02-28T14:08:23Z</time>
      </trkpt>
      <trkpt lat="47.72765" lon="6.04388">
        <ele>220.95</ele>
        <time>2018-02-28T14:08:25Z</time>
      </trkpt>
      <trkpt lat="47.72768" lon="6.04399">
        <ele>220.8</ele>
        <time>2018-02-28T14:08:27Z</time>
      </trkpt>
      <trkpt lat="47.7277" lon="6.04411">
        <ele>220.69</ele>
        <time>2018-02-28T14:08:29Z</time>
      </trkpt>
      <trkpt lat="47.72771" lon="6.04419">
        <ele>220.59</ele>
        <time>2018-02-28T14:08:30Z</time>
      </trkpt>
      <trkpt lat="47.72772" lon="6.04428">
        <ele>220.5</ele>
        <time>2018-02-28T14:08:31Z</time>
      </trkpt>
      <trkpt lat="47.72774" lon="6.04436">
        <ele>220.43</ele>
        <time>2018-02-28T14:08:32Z</time>
      </trkpt>
      <trkpt lat="47.72776" lon="6.04444">
        <ele>220.36</ele>
        <time>2018-02-28T14:08:33Z</time>
      </trkpt>
      <trkpt lat="47.72778" lon="6.04451">
        <ele>220.29</ele>
        <time>2018-02-28T14:08:34Z</time>
      </trkpt>
      <trkpt lat="47.7278" lon="6.04457">
        <ele>220.23</ele>
        <time>2018-02-28T14:08:35Z</time>
      </trkpt>
      <trkpt lat="47.72783" lon="6.04462">
        <ele>220.21</ele>
        <time>2018-02-28T14:08:36Z</time>
      </trkpt>
      <trkpt lat="47.72787" lon="6.04474">
        <ele>220.09</ele>
        <time>2018-02-28T14:08:38Z</time>
      </trkpt>
      <trkpt lat="47.72789" lon="6.0448">
        <ele>220.02</ele>
        <time>2018-02-28T14:08:39Z</time>
      </trkpt>
      <trkpt lat="47.72792" lon="6.04485">
        <ele>219.96</ele>
        <time>2018-02-28T14:08:40Z</time>
      </trkpt>
      <trkpt lat="47.72795" lon="6.04491">
        <ele>219.94</ele>
        <time>2018-02-28T14:08:41Z</time>
      </trkpt>
      <trkpt lat="47.72799" lon="6.04502">
        <ele>219.91</ele>
        <time>2018-02-28T14:08:43Z</time>
      </trkpt>
      <trkpt lat="47.72802" lon="6.04512">
        <ele>219.9</ele>
        <time>2018-02-28T14:08:45Z</time>
      </trkpt>
      <trkpt lat="47.72806" lon="6.04521">
        <ele>219.79</ele>
        <time>2018-02-28T14:08:47Z</time>
      </trkpt>
      <trkpt lat="47.72811" lon="6.04528">
        <ele>219.69</ele>
        <time>2018-02-28T14:08:49Z</time>
      </trkpt>
      <trkpt lat="47.72817" lon="6.04536">
        <ele>219.64</ele>
        <time>2018-02-28T14:08:51Z</time>
      </trkpt>
      <trkpt lat="47.72822" lon="6.04544">
        <ele>219.61</ele>
        <time>2018-02-28T14:08:53Z</time>
      </trkpt>
      <trkpt lat="47.72825" lon="6.0455">
        <ele>219.58</ele>
        <time>2018-02-28T14:08:55Z</time>
      </trkpt>
      <trkpt lat="47.72827" lon="6.04558">
        <ele>219.55</ele>
        <time>2018-02-28T14:08:57Z</time>
      </trkpt>
      <trkpt lat="47.72832" lon="6.04562">
        <ele>219.52</ele>
        <time>2018-02-28T14:08:59Z</time>
      </trkpt>
      <trkpt lat="47.72837" lon="6.0457">
        <ele>219.48</ele>
        <time>2018-02-28T14:09:01Z</time>
      </trkpt>
      <trkpt lat="47.72842" lon="6.0458">
        <ele>219.44</ele>
        <time>2018-02-28T14:09:03Z</time>
      </trkpt>
      <trkpt lat="47.72847" lon="6.04591">
        <ele>219.12</ele>
        <time>2018-02-28T14:09:05Z</time>
      </trkpt>
      <trkpt lat="47.7285" lon="6.04599">
        <ele>218.97</ele>
        <time>2018-02-28T14:09:06Z</time>
      </trkpt>
      <trkpt lat="47.72852" lon="6.04607">
        <ele>218.83</ele>
        <time>2018-02-28T14:09:07Z</time>
      </trkpt>
      <trkpt lat="47.72853" lon="6.04617">
        <ele>218.7</ele>
        <time>2018-02-28T14:09:08Z</time>
      </trkpt>
      <trkpt lat="47.72855" lon="6.04626">
        <ele>218.59</ele>
        <time>2018-02-28T14:09:09Z</time>
      </trkpt>
      <trkpt lat="47.72857" lon="6.04635">
        <ele>218.49</ele>
        <time>2018-02-28T14:09:10Z</time>
      </trkpt>
      <trkpt lat="47.72859" lon="6.04645">
        <ele>218.39</ele>
        <time>2018-02-28T14:09:11Z</time>
      </trkpt>
      <trkpt lat="47.72862" lon="6.04654">
        <ele>218.3</ele>
        <time>2018-02-28T14:09:12Z</time>
      </trkpt>
      <trkpt lat="47.72864" lon="6.04662">
        <ele>218.21</ele>
        <time>2018-02-28T14:09:13Z</time>
      </trkpt>
      <trkpt lat="47.72865" lon="6.04673">
        <ele>218.12</ele>
        <time>2018-02-28T14:09:14Z</time>
      </trkpt>
      <trkpt lat="47.72867" lon="6.04682">
        <ele>218.03</ele>
        <time>2018-02-28T14:09:15Z</time>
      </trkpt>
      <trkpt lat="47.72869" lon="6.04692">
        <ele>217.94</ele>
        <time>2018-02-28T14:09:16Z</time>
      </trkpt>
      <trkpt lat="47.72872" lon="6.04701">
        <ele>217.87</ele>
        <time>2018-02-28T14:09:17Z</time>
      </trkpt>
      <trkpt lat="47.72877" lon="6.04709">
        <ele>217.81</ele>
        <time>2018-02-28T14:09:18Z</time>
      </trkpt>
      <trkpt lat="47.72882" lon="6.04717">
        <ele>217.75</ele>
        <time>2018-02-28T14:09:19Z</time>
      </trkpt>
      <trkpt lat="47.72888" lon="6.04721">
        <ele>217.71</ele>
        <time>2018-02-28T14:09:20Z</time>
      </trkpt>
      <trkpt lat="47.72895" lon="6.04724">
        <ele>217.69</ele>
        <time>2018-02-28T14:09:21Z</time>
      </trkpt>
      <trkpt lat="47.72902" lon="6.04726">
        <ele>217.67</ele>
        <time>2018-02-28T14:09:22Z</time>
      </trkpt>
      <trkpt lat="47.72908" lon="6.04725">
        <ele>217.66</ele>
        <time>2018-02-28T14:09:23Z</time>
      </trkpt>
      <trkpt lat="47.72914" lon="6.04724">
        <ele>217.65</ele>
        <time>2018-02-28T14:09:24Z</time>
      </trkpt>
      <trkpt lat="47.7292" lon="6.04721">
        <ele>217.64</ele>
        <time>2018-02-28T14:09:25Z</time>
      </trkpt>
      <trkpt lat="47.72926" lon="6.04721">
        <ele>217.62</ele>
        <time>2018-02-28T14:09:26Z</time>
      </trkpt>
      <trkpt lat="47.72933" lon="6.0472">
        <ele>217.61</ele>
        <time>2018-02-28T14:09:28Z</time>
      </trkpt>
      <trkpt lat="47.7294" lon="6.04717">
        <ele>217.57</ele>
        <time>2018-02-28T14:09:49Z</time>
      </trkpt>
      <trkpt lat="47.72943" lon="6.04724">
        <ele>216.87</ele>
        <time>2018-02-28T14:10:17Z</time>
      </trkpt>
      <trkpt lat="47.72945" lon="6.04729">
        <ele>216.54</ele>
        <time>2018-02-28T14:10:22Z</time>
      </trkpt>
      <trkpt lat="47.72949" lon="6.04738">
        <ele>216.1</ele>
        <time>2018-02-28T14:10:28Z</time>
      </trkpt>
      <trkpt lat="47.72951" lon="6.04745">
        <ele>215.63</ele>
        <time>2018-02-28T14:10:34Z</time>
      </trkpt>
      <trkpt lat="47.72954" lon="6.04751">
        <ele>215.32</ele>
        <time>2018-02-28T14:10:38Z</time>
      </trkpt>
      <trkpt lat="47.72956" lon="6.04757">
        <ele>214.99</ele>
        <time>2018-02-28T14:10:43Z</time>
      </trkpt>
      <trkpt lat="47.72959" lon="6.04765">
        <ele>214.68</ele>
        <time>2018-02-28T14:10:50Z</time>
      </trkpt>
      <trkpt lat="47.72962" lon="6.0477">
        <ele>214.5</ele>
        <time>2018-02-28T14:10:58Z</time>
      </trkpt>
      <trkpt lat="47.72966" lon="6.04776">
        <ele>214.38</ele>
        <time>2018-02-28T14:11:07Z</time>
      </trkpt>
      <trkpt lat="47.72969" lon="6.04782">
        <ele>214.23</ele>
        <time>2018-02-28T14:11:23Z</time>
      </trkpt>
      <trkpt lat="47.72974" lon="6.04789">
        <ele>214.23</ele>
        <time>2018-02-28T14:11:31Z</time>
      </trkpt>
      <trkpt lat="47.72979" lon="6.04793">
        <ele>214.25</ele>
        <time>2018-02-28T14:11:35Z</time>
      </trkpt>
      <trkpt lat="47.72984" lon="6.04796">
        <ele>214.27</ele>
        <time>2018-02-28T14:11:37Z</time>
      </trkpt>
      <trkpt lat="47.72989" lon="6.04801">
        <ele>214.34</ele>
        <time>2018-02-28T14:11:40Z</time>
      </trkpt>
      <trkpt lat="47.72993" lon="6.04804">
        <ele>214.41</ele>
        <time>2018-02-28T14:11:42Z</time>
      </trkpt>
      <trkpt lat="47.72999" lon="6.04808">
        <ele>214.53</ele>
        <time>2018-02-28T14:11:45Z</time>
      </trkpt>
      <trkpt lat="47.73003" lon="6.04811">
        <ele>214.66</ele>
        <time>2018-02-28T14:11:48Z</time>
      </trkpt>
      <trkpt lat="47.73013" lon="6.04819">
        <ele>214.74</ele>
        <time>2018-02-28T14:11:50Z</time>
      </trkpt>
      <trkpt lat="47.73018" lon="6.04821">
        <ele>214.78</ele>
        <time>2018-02-28T14:11:51Z</time>
      </trkpt>
      <trkpt lat="47.73023" lon="6.04823">
        <ele>214.83</ele>
        <time>2018-02-28T14:11:52Z</time>
      </trkpt>
      <trkpt lat="47.7303" lon="6.04825">
        <ele>214.91</ele>
        <time>2018-02-28T14:11:54Z</time>
      </trkpt>
      <trkpt lat="47.73036" lon="6.04827">
        <ele>215.04</ele>
        <time>2018-02-28T14:11:57Z</time>
      </trkpt>
      <trkpt lat="47.73041" lon="6.04832">
        <ele>215.13</ele>
        <time>2018-02-28T14:11:59Z</time>
      </trkpt>
      <trkpt lat="47.73045" lon="6.04836">
        <ele>215.26</ele>
        <time>2018-02-28T14:12:02Z</time>
      </trkpt>
      <trkpt lat="47.73048" lon="6.04842">
        <ele>215.36</ele>
        <time>2018-02-28T14:12:04Z</time>
      </trkpt>
      <trkpt lat="47.73051" lon="6.04847">
        <ele>215.45</ele>
        <time>2018-02-28T14:12:06Z</time>
      </trkpt>
      <trkpt lat="47.73057" lon="6.04854">
        <ele>215.55</ele>
        <time>2018-02-28T14:12:08Z</time>
      </trkpt>
      <trkpt lat="47.73061" lon="6.04862">
        <ele>215.65</ele>
        <time>2018-02-28T14:12:10Z</time>
      </trkpt>
      <trkpt lat="47.73065" lon="6.04869">
        <ele>215.74</ele>
        <time>2018-02-28T14:12:12Z</time>
      </trkpt>
      <trkpt lat="47.73068" lon="6.04875">
        <ele>215.83</ele>
        <time>2018-02-28T14:12:14Z</time>
      </trkpt>
      <trkpt lat="47.73071" lon="6.04881">
        <ele>215.91</ele>
        <time>2018-02-28T14:12:16Z</time>
      </trkpt>
      <trkpt lat="47.73075" lon="6.04887">
        <ele>215.99</ele>
        <time>2018-02-28T14:12:18Z</time>
      </trkpt>
      <trkpt lat="47.73079" lon="6.04893">
        <ele>216.06</ele>
        <time>2018-02-28T14:12:20Z</time>
      </trkpt>
      <trkpt lat="47.73085" lon="6.04901">
        <ele>216.13</ele>
        <time>2018-02-28T14:12:22Z</time>
      </trkpt>
      <trkpt lat="47.73089" lon="6.04907">
        <ele>216.19</ele>
        <time>2018-02-28T14:12:24Z</time>
      </trkpt>
      <trkpt lat="47.73094" lon="6.04913">
        <ele>216.24</ele>
        <time>2018-02-28T14:12:26Z</time>
      </trkpt>
      <trkpt lat="47.73098" lon="6.04922">
        <ele>216.28</ele>
        <time>2018-02-28T14:12:28Z</time>
      </trkpt>
      <trkpt lat="47.73101" lon="6.04927">
        <ele>216.33</ele>
        <time>2018-02-28T14:12:30Z</time>
      </trkpt>
      <trkpt lat="47.73106" lon="6.04933">
        <ele>216.36</ele>
        <time>2018-02-28T14:12:32Z</time>
      </trkpt>
      <trkpt lat="47.73111" lon="6.0494">
        <ele>216.38</ele>
        <time>2018-02-28T14:12:34Z</time>
      </trkpt>
      <trkpt lat="47.73115" lon="6.04948">
        <ele>216.4</ele>
        <time>2018-02-28T14:12:36Z</time>
      </trkpt>
      <trkpt lat="47.7312" lon="6.04958">
        <ele>216.42</ele>
        <time>2018-02-28T14:12:38Z</time>
      </trkpt>
      <trkpt lat="47.73125" lon="6.04967">
        <ele>216.43</ele>
        <time>2018-02-28T14:12:40Z</time>
      </trkpt>
      <trkpt lat="47.7313" lon="6.04976">
        <ele>216.43</ele>
        <time>2018-02-28T14:12:42Z</time>
      </trkpt>
      <trkpt lat="47.73132" lon="6.04987">
        <ele>216.43</ele>
        <time>2018-02-28T14:12:44Z</time>
      </trkpt>
      <trkpt lat="47.73133" lon="6.04996">
        <ele>216.43</ele>
        <time>2018-02-28T14:12:46Z</time>
      </trkpt>
      <trkpt lat="47.73132" lon="6.05006">
        <ele>216.41</ele>
        <time>2018-02-28T14:12:48Z</time>
      </trkpt>
      <trkpt lat="47.73132" lon="6.05016">
        <ele>216.39</ele>
        <time>2018-02-28T14:12:50Z</time>
      </trkpt>
      <trkpt lat="47.73131" lon="6.05028">
        <ele>216.37</ele>
        <time>2018-02-28T14:12:52Z</time>
      </trkpt>
      <trkpt lat="47.73131" lon="6.05041">
        <ele>216.21</ele>
        <time>2018-02-28T14:12:54Z</time>
      </trkpt>
      <trkpt lat="47.7313" lon="6.05053">
        <ele>216.17</ele>
        <time>2018-02-28T14:12:56Z</time>
      </trkpt>
      <trkpt lat="47.73128" lon="6.05065">
        <ele>216.14</ele>
        <time>2018-02-28T14:12:58Z</time>
      </trkpt>
      <trkpt lat="47.73127" lon="6.05075">
        <ele>216.11</ele>
        <time>2018-02-28T14:13:00Z</time>
      </trkpt>
      <trkpt lat="47.73125" lon="6.05084">
        <ele>216.08</ele>
        <time>2018-02-28T14:13:02Z</time>
      </trkpt>
      <trkpt lat="47.73124" lon="6.05094">
        <ele>216.04</ele>
        <time>2018-02-28T14:13:04Z</time>
      </trkpt>
      <trkpt lat="47.73123" lon="6.05103">
        <ele>216.01</ele>
        <time>2018-02-28T14:13:06Z</time>
      </trkpt>
      <trkpt lat="47.73122" lon="6.05113">
        <ele>215.98</ele>
        <time>2018-02-28T14:13:08Z</time>
      </trkpt>
      <trkpt lat="47.7312" lon="6.05122">
        <ele>215.94</ele>
        <time>2018-02-28T14:13:10Z</time>
      </trkpt>
      <trkpt lat="47.73119" lon="6.05131">
        <ele>215.91</ele>
        <time>2018-02-28T14:13:12Z</time>
      </trkpt>
      <trkpt lat="47.73117" lon="6.05141">
        <ele>215.88</ele>
        <time>2018-02-28T14:13:14Z</time>
      </trkpt>
      <trkpt lat="47.73115" lon="6.05148">
        <ele>215.85</ele>
        <time>2018-02-28T14:13:16Z</time>
      </trkpt>
      <trkpt lat="47.73114" lon="6.05158">
        <ele>215.82</ele>
        <time>2018-02-28T14:13:18Z</time>
      </trkpt>
      <trkpt lat="47.73112" lon="6.0517">
        <ele>215.79</ele>
        <time>2018-02-28T14:13:20Z</time>
      </trkpt>
      <trkpt lat="47.7311" lon="6.05181">
        <ele>215.76</ele>
        <time>2018-02-28T14:13:22Z</time>
      </trkpt>
      <trkpt lat="47.73108" lon="6.05192">
        <ele>215.73</ele>
        <time>2018-02-28T14:13:24Z</time>
      </trkpt>
      <trkpt lat="47.73106" lon="6.05202">
        <ele>215.7</ele>
        <time>2018-02-28T14:13:26Z</time>
      </trkpt>
      <trkpt lat="47.73104" lon="6.05212">
        <ele>215.68</ele>
        <time>2018-02-28T14:13:28Z</time>
      </trkpt>
      <trkpt lat="47.73102" lon="6.05221">
        <ele>215.65</ele>
        <time>2018-02-28T14:13:30Z</time>
      </trkpt>
      <trkpt lat="47.73099" lon="6.0523">
        <ele>215.62</ele>
        <time>2018-02-28T14:13:32Z</time>
      </trkpt>
      <trkpt lat="47.73097" lon="6.05238">
        <ele>215.59</ele>
        <time>2018-02-28T14:13:34Z</time>
      </trkpt>
      <trkpt lat="47.73096" lon="6.05248">
        <ele>215.57</ele>
        <time>2018-02-28T14:13:36Z</time>
      </trkpt>
      <trkpt lat="47.73094" lon="6.05256">
        <ele>215.46</ele>
        <time>2018-02-28T14:13:39Z</time>
      </trkpt>
      <trkpt lat="47.73093" lon="6.05263">
        <ele>215.36</ele>
        <time>2018-02-28T14:13:40Z</time>
      </trkpt>
      <trkpt lat="47.73093" lon="6.05271">
        <ele>215.27</ele>
        <time>2018-02-28T14:13:41Z</time>
      </trkpt>
      <trkpt lat="47.73092" lon="6.05278">
        <ele>215.24</ele>
        <time>2018-02-28T14:13:42Z</time>
      </trkpt>
      <trkpt lat="47.7309" lon="6.05284">
        <ele>215.23</ele>
        <time>2018-02-28T14:13:43Z</time>
      </trkpt>
      <trkpt lat="47.73086" lon="6.05292">
        <ele>215.21</ele>
        <time>2018-02-28T14:13:45Z</time>
      </trkpt>
      <trkpt lat="47.73082" lon="6.05301">
        <ele>215.2</ele>
        <time>2018-02-28T14:13:47Z</time>
      </trkpt>
      <trkpt lat="47.7308" lon="6.0531">
        <ele>215.2</ele>
        <time>2018-02-28T14:13:49Z</time>
      </trkpt>
      <trkpt lat="47.73077" lon="6.05319">
        <ele>215.19</ele>
        <time>2018-02-28T14:13:51Z</time>
      </trkpt>
      <trkpt lat="47.73075" lon="6.05329">
        <ele>215.18</ele>
        <time>2018-02-28T14:13:53Z</time>
      </trkpt>
      <trkpt lat="47.73073" lon="6.05339">
        <ele>215.18</ele>
        <time>2018-02-28T14:13:55Z</time>
      </trkpt>
      <trkpt lat="47.73071" lon="6.05351">
        <ele>215.18</ele>
        <time>2018-02-28T14:13:57Z</time>
      </trkpt>
      <trkpt lat="47.73068" lon="6.05363">
        <ele>215.19</ele>
        <time>2018-02-28T14:13:59Z</time>
      </trkpt>
      <trkpt lat="47.73065" lon="6.05373">
        <ele>215.2</ele>
        <time>2018-02-28T14:14:01Z</time>
      </trkpt>
      <trkpt lat="47.73063" lon="6.05384">
        <ele>215.21</ele>
        <time>2018-02-28T14:14:03Z</time>
      </trkpt>
      <trkpt lat="47.73061" lon="6.05394">
        <ele>215.22</ele>
        <time>2018-02-28T14:14:05Z</time>
      </trkpt>
      <trkpt lat="47.73058" lon="6.05404">
        <ele>215.23</ele>
        <time>2018-02-28T14:14:07Z</time>
      </trkpt>
      <trkpt lat="47.73056" lon="6.05415">
        <ele>215.25</ele>
        <time>2018-02-28T14:14:08Z</time>
      </trkpt>
      <trkpt lat="47.73053" lon="6.05425">
        <ele>215.26</ele>
        <time>2018-02-28T14:14:10Z</time>
      </trkpt>
      <trkpt lat="47.7305" lon="6.05435">
        <ele>215.28</ele>
        <time>2018-02-28T14:14:12Z</time>
      </trkpt>
      <trkpt lat="47.73047" lon="6.05444">
        <ele>215.29</ele>
        <time>2018-02-28T14:14:14Z</time>
      </trkpt>
      <trkpt lat="47.73043" lon="6.05454">
        <ele>215.37</ele>
        <time>2018-02-28T14:14:16Z</time>
      </trkpt>
      <trkpt lat="47.73039" lon="6.05463">
        <ele>215.41</ele>
        <time>2018-02-28T14:14:18Z</time>
      </trkpt>
      <trkpt lat="47.73034" lon="6.0547">
        <ele>215.43</ele>
        <time>2018-02-28T14:14:20Z</time>
      </trkpt>
      <trkpt lat="47.73028" lon="6.05477">
        <ele>215.44</ele>
        <time>2018-02-28T14:14:22Z</time>
      </trkpt>
      <trkpt lat="47.73023" lon="6.05484">
        <ele>215.46</ele>
        <time>2018-02-28T14:14:24Z</time>
      </trkpt>
      <trkpt lat="47.73018" lon="6.05489">
        <ele>215.48</ele>
        <time>2018-02-28T14:14:26Z</time>
      </trkpt>
      <trkpt lat="47.73013" lon="6.05493">
        <ele>215.5</ele>
        <time>2018-02-28T14:14:28Z</time>
      </trkpt>
      <trkpt lat="47.73007" lon="6.05496">
        <ele>215.52</ele>
        <time>2018-02-28T14:14:30Z</time>
      </trkpt>
      <trkpt lat="47.73002" lon="6.05498">
        <ele>215.54</ele>
        <time>2018-02-28T14:14:32Z</time>
      </trkpt>
      <trkpt lat="47.72996" lon="6.05498">
        <ele>215.56</ele>
        <time>2018-02-28T14:14:34Z</time>
      </trkpt>
      <trkpt lat="47.72991" lon="6.05501">
        <ele>215.58</ele>
        <time>2018-02-28T14:14:36Z</time>
      </trkpt>
      <trkpt lat="47.72987" lon="6.05506">
        <ele>215.6</ele>
        <time>2018-02-28T14:14:38Z</time>
      </trkpt>
      <trkpt lat="47.72982" lon="6.05511">
        <ele>215.62</ele>
        <time>2018-02-28T14:14:40Z</time>
      </trkpt>
      <trkpt lat="47.72978" lon="6.05516">
        <ele>215.63</ele>
        <time>2018-02-28T14:14:42Z</time>
      </trkpt>
      <trkpt lat="47.72974" lon="6.05521">
        <ele>215.65</ele>
        <time>2018-02-28T14:14:44Z</time>
      </trkpt>
      <trkpt lat="47.72969" lon="6.05526">
        <ele>215.66</ele>
        <time>2018-02-28T14:14:47Z</time>
      </trkpt>
      <trkpt lat="47.72966" lon="6.05535">
        <ele>215.68</ele>
        <time>2018-02-28T14:14:49Z</time>
      </trkpt>
      <trkpt lat="47.72964" lon="6.05541">
        <ele>215.69</ele>
        <time>2018-02-28T14:14:51Z</time>
      </trkpt>
      <trkpt lat="47.72961" lon="6.05551">
        <ele>215.71</ele>
        <time>2018-02-28T14:14:54Z</time>
      </trkpt>
      <trkpt lat="47.72959" lon="6.05559">
        <ele>215.72</ele>
        <time>2018-02-28T14:14:57Z</time>
      </trkpt>
      <trkpt lat="47.72957" lon="6.05568">
        <ele>215.73</ele>
        <time>2018-02-28T14:14:59Z</time>
      </trkpt>
      <trkpt lat="47.72955" lon="6.05576">
        <ele>215.74</ele>
        <time>2018-02-28T14:15:01Z</time>
      </trkpt>
      <trkpt lat="47.72954" lon="6.05586">
        <ele>215.75</ele>
        <time>2018-02-28T14:15:04Z</time>
      </trkpt>
      <trkpt lat="47.72953" lon="6.05594">
        <ele>215.75</ele>
        <time>2018-02-28T14:15:06Z</time>
      </trkpt>
      <trkpt lat="47.7295" lon="6.05601">
        <ele>215.76</ele>
        <time>2018-02-28T14:15:08Z</time>
      </trkpt>
      <trkpt lat="47.72947" lon="6.05608">
        <ele>215.78</ele>
        <time>2018-02-28T14:15:11Z</time>
      </trkpt>
      <trkpt lat="47.72945" lon="6.05617">
        <ele>215.8</ele>
        <time>2018-02-28T14:15:14Z</time>
      </trkpt>
      <trkpt lat="47.72943" lon="6.05625">
        <ele>215.84</ele>
        <time>2018-02-28T14:15:17Z</time>
      </trkpt>
      <trkpt lat="47.72942" lon="6.05633">
        <ele>215.87</ele>
        <time>2018-02-28T14:15:20Z</time>
      </trkpt>
      <trkpt lat="47.7294" lon="6.05642">
        <ele>215.91</ele>
        <time>2018-02-28T14:15:23Z</time>
      </trkpt>
      <trkpt lat="47.72938" lon="6.0565">
        <ele>215.94</ele>
        <time>2018-02-28T14:15:25Z</time>
      </trkpt>
      <trkpt lat="47.72936" lon="6.05658">
        <ele>215.96</ele>
        <time>2018-02-28T14:15:27Z</time>
      </trkpt>
      <trkpt lat="47.72935" lon="6.05667">
        <ele>216</ele>
        <time>2018-02-28T14:15:30Z</time>
      </trkpt>
      <trkpt lat="47.72935" lon="6.05675">
        <ele>216.03</ele>
        <time>2018-02-28T14:15:33Z</time>
      </trkpt>
      <trkpt lat="47.72935" lon="6.05682">
        <ele>216.05</ele>
        <time>2018-02-28T14:15:35Z</time>
      </trkpt>
      <trkpt lat="47.72935" lon="6.0569">
        <ele>216.06</ele>
        <time>2018-02-28T14:15:37Z</time>
      </trkpt>
      <trkpt lat="47.72935" lon="6.05698">
        <ele>216.06</ele>
        <time>2018-02-28T14:15:39Z</time>
      </trkpt>
      <trkpt lat="47.72934" lon="6.05709">
        <ele>216.05</ele>
        <time>2018-02-28T14:15:41Z</time>
      </trkpt>
      <trkpt lat="47.72934" lon="6.05718">
        <ele>216.04</ele>
        <time>2018-02-28T14:15:43Z</time>
      </trkpt>
      <trkpt lat="47.72934" lon="6.05726">
        <ele>216.04</ele>
        <time>2018-02-28T14:15:45Z</time>
      </trkpt>
      <trkpt lat="47.72934" lon="6.05733">
        <ele>216.04</ele>
        <time>2018-02-28T14:15:47Z</time>
      </trkpt>
      <trkpt lat="47.72934" lon="6.05744">
        <ele>216.06</ele>
        <time>2018-02-28T14:15:50Z</time>
      </trkpt>
      <trkpt lat="47.72934" lon="6.0575">
        <ele>216.08</ele>
        <time>2018-02-28T14:15:52Z</time>
      </trkpt>
      <trkpt lat="47.72935" lon="6.05759">
        <ele>216.12</ele>
        <time>2018-02-28T14:15:55Z</time>
      </trkpt>
      <trkpt lat="47.72936" lon="6.05767">
        <ele>216.15</ele>
        <time>2018-02-28T14:15:57Z</time>
      </trkpt>
      <trkpt lat="47.72937" lon="6.05775">
        <ele>216.2</ele>
        <time>2018-02-28T14:15:59Z</time>
      </trkpt>
      <trkpt lat="47.72938" lon="6.05783">
        <ele>216.24</ele>
        <time>2018-02-28T14:16:01Z</time>
      </trkpt>
      <trkpt lat="47.72939" lon="6.0579">
        <ele>216.28</ele>
        <time>2018-02-28T14:16:03Z</time>
      </trkpt>
      <trkpt lat="47.72939" lon="6.058">
        <ele>216.35</ele>
        <time>2018-02-28T14:16:06Z</time>
      </trkpt>
      <trkpt lat="47.72939" lon="6.05806">
        <ele>216.4</ele>
        <time>2018-02-28T14:16:08Z</time>
      </trkpt>
      <trkpt lat="47.7294" lon="6.05814">
        <ele>216.44</ele>
        <time>2018-02-28T14:16:10Z</time>
      </trkpt>
      <trkpt lat="47.7294" lon="6.05822">
        <ele>216.49</ele>
        <time>2018-02-28T14:16:12Z</time>
      </trkpt>
      <trkpt lat="47.72939" lon="6.05829">
        <ele>216.55</ele>
        <time>2018-02-28T14:16:14Z</time>
      </trkpt>
      <trkpt lat="47.72938" lon="6.05838">
        <ele>216.64</ele>
        <time>2018-02-28T14:16:17Z</time>
      </trkpt>
      <trkpt lat="47.72936" lon="6.05844">
        <ele>216.71</ele>
        <time>2018-02-28T14:16:19Z</time>
      </trkpt>
      <trkpt lat="47.72934" lon="6.05853">
        <ele>216.82</ele>
        <time>2018-02-28T14:16:22Z</time>
      </trkpt>
      <trkpt lat="47.72932" lon="6.05859">
        <ele>216.9</ele>
        <time>2018-02-28T14:16:24Z</time>
      </trkpt>
      <trkpt lat="47.7293" lon="6.05869">
        <ele>217.04</ele>
        <time>2018-02-28T14:16:27Z</time>
      </trkpt>
      <trkpt lat="47.72928" lon="6.05876">
        <ele>217.14</ele>
        <time>2018-02-28T14:16:29Z</time>
      </trkpt>
      <trkpt lat="47.72927" lon="6.05882">
        <ele>217.24</ele>
        <time>2018-02-28T14:16:31Z</time>
      </trkpt>
      <trkpt lat="47.72926" lon="6.0589">
        <ele>217.35</ele>
        <time>2018-02-28T14:16:33Z</time>
      </trkpt>
      <trkpt lat="47.72924" lon="6.05899">
        <ele>217.46</ele>
        <time>2018-02-28T14:16:35Z</time>
      </trkpt>
      <trkpt lat="47.72923" lon="6.05908">
        <ele>217.62</ele>
        <time>2018-02-28T14:16:38Z</time>
      </trkpt>
      <trkpt lat="47.72923" lon="6.05915">
        <ele>217.74</ele>
        <time>2018-02-28T14:16:40Z</time>
      </trkpt>
      <trkpt lat="47.72923" lon="6.05925">
        <ele>217.91</ele>
        <time>2018-02-28T14:16:43Z</time>
      </trkpt>
      <trkpt lat="47.72923" lon="6.05933">
        <ele>218.02</ele>
        <time>2018-02-28T14:16:45Z</time>
      </trkpt>
      <trkpt lat="47.72922" lon="6.0594">
        <ele>218.13</ele>
        <time>2018-02-28T14:16:47Z</time>
      </trkpt>
      <trkpt lat="47.72922" lon="6.05946">
        <ele>218.23</ele>
        <time>2018-02-28T14:16:49Z</time>
      </trkpt>
      <trkpt lat="47.72922" lon="6.05955">
        <ele>218.37</ele>
        <time>2018-02-28T14:16:52Z</time>
      </trkpt>
      <trkpt lat="47.72922" lon="6.05965">
        <ele>218.51</ele>
        <time>2018-02-28T14:16:55Z</time>
      </trkpt>
      <trkpt lat="47.72921" lon="6.05972">
        <ele>218.64</ele>
        <time>2018-02-28T14:16:58Z</time>
      </trkpt>
      <trkpt lat="47.72921" lon="6.0598">
        <ele>218.77</ele>
        <time>2018-02-28T14:17:01Z</time>
      </trkpt>
      <trkpt lat="47.7292" lon="6.05987">
        <ele>218.9</ele>
        <time>2018-02-28T14:17:04Z</time>
      </trkpt>
      <trkpt lat="47.72919" lon="6.05994">
        <ele>218.99</ele>
        <time>2018-02-28T14:17:06Z</time>
      </trkpt>
      <trkpt lat="47.72917" lon="6.06001">
        <ele>219.12</ele>
        <time>2018-02-28T14:17:09Z</time>
      </trkpt>
      <trkpt lat="47.72915" lon="6.06009">
        <ele>219.26</ele>
        <time>2018-02-28T14:17:12Z</time>
      </trkpt>
      <trkpt lat="47.72913" lon="6.06016">
        <ele>219.39</ele>
        <time>2018-02-28T14:17:15Z</time>
      </trkpt>
      <trkpt lat="47.7291" lon="6.06024">
        <ele>219.53</ele>
        <time>2018-02-28T14:17:18Z</time>
      </trkpt>
      <trkpt lat="47.72907" lon="6.06032">
        <ele>219.68</ele>
        <time>2018-02-28T14:17:21Z</time>
      </trkpt>
      <trkpt lat="47.72905" lon="6.06041">
        <ele>219.82</ele>
        <time>2018-02-28T14:17:24Z</time>
      </trkpt>
      <trkpt lat="47.72902" lon="6.06046">
        <ele>219.96</ele>
        <time>2018-02-28T14:17:27Z</time>
      </trkpt>
      <trkpt lat="47.72898" lon="6.06052">
        <ele>220.09</ele>
        <time>2018-02-28T14:17:30Z</time>
      </trkpt>
      <trkpt lat="47.72896" lon="6.06058">
        <ele>220.4</ele>
        <time>2018-02-28T14:17:42Z</time>
      </trkpt>
      <trkpt lat="47.72894" lon="6.06066">
        <ele>220.62</ele>
        <time>2018-02-28T14:17:47Z</time>
      </trkpt>
      <trkpt lat="47.72892" lon="6.06072">
        <ele>220.74</ele>
        <time>2018-02-28T14:17:50Z</time>
      </trkpt>
      <trkpt lat="47.72889" lon="6.06079">
        <ele>220.86</ele>
        <time>2018-02-28T14:17:53Z</time>
      </trkpt>
      <trkpt lat="47.72887" lon="6.06087">
        <ele>220.97</ele>
        <time>2018-02-28T14:17:56Z</time>
      </trkpt>
      <trkpt lat="47.72884" lon="6.06094">
        <ele>221.08</ele>
        <time>2018-02-28T14:17:59Z</time>
      </trkpt>
      <trkpt lat="47.72881" lon="6.06099">
        <ele>221.18</ele>
        <time>2018-02-28T14:18:02Z</time>
      </trkpt>
      <trkpt lat="47.72879" lon="6.06108">
        <ele>221.27</ele>
        <time>2018-02-28T14:18:05Z</time>
      </trkpt>
      <trkpt lat="47.72876" lon="6.06114">
        <ele>221.36</ele>
        <time>2018-02-28T14:18:08Z</time>
      </trkpt>
      <trkpt lat="47.72874" lon="6.0612">
        <ele>221.42</ele>
        <time>2018-02-28T14:18:10Z</time>
      </trkpt>
      <trkpt lat="47.72871" lon="6.06128">
        <ele>221.51</ele>
        <time>2018-02-28T14:18:13Z</time>
      </trkpt>
      <trkpt lat="47.72869" lon="6.06134">
        <ele>221.56</ele>
        <time>2018-02-28T14:18:15Z</time>
      </trkpt>
      <trkpt lat="47.72865" lon="6.06143">
        <ele>221.62</ele>
        <time>2018-02-28T14:18:17Z</time>
      </trkpt>
      <trkpt lat="47.72862" lon="6.06148">
        <ele>221.68</ele>
        <time>2018-02-28T14:18:19Z</time>
      </trkpt>
      <trkpt lat="47.72859" lon="6.06154">
        <ele>221.75</ele>
        <time>2018-02-28T14:18:21Z</time>
      </trkpt>
      <trkpt lat="47.72855" lon="6.06161">
        <ele>221.86</ele>
        <time>2018-02-28T14:18:24Z</time>
      </trkpt>
      <trkpt lat="47.72852" lon="6.06167">
        <ele>221.97</ele>
        <time>2018-02-28T14:18:27Z</time>
      </trkpt>
      <trkpt lat="47.72848" lon="6.06174">
        <ele>222.07</ele>
        <time>2018-02-28T14:18:30Z</time>
      </trkpt>
      <trkpt lat="47.72847" lon="6.0618">
        <ele>222.14</ele>
        <time>2018-02-28T14:18:32Z</time>
      </trkpt>
      <trkpt lat="47.72842" lon="6.06185">
        <ele>222.29</ele>
        <time>2018-02-28T14:18:38Z</time>
      </trkpt>
      <trkpt lat="47.72841" lon="6.06193">
        <ele>222.43</ele>
        <time>2018-02-28T14:18:42Z</time>
      </trkpt>
      <trkpt lat="47.7284" lon="6.062">
        <ele>222.55</ele>
        <time>2018-02-28T14:18:48Z</time>
      </trkpt>
      <trkpt lat="47.72836" lon="6.06204">
        <ele>222.95</ele>
        <time>2018-02-28T14:19:05Z</time>
      </trkpt>
      <trkpt lat="47.7283" lon="6.06207">
        <ele>223.17</ele>
        <time>2018-02-28T14:19:15Z</time>
      </trkpt>
      <trkpt lat="47.72825" lon="6.06207">
        <ele>223.34</ele>
        <time>2018-02-28T14:19:23Z</time>
      </trkpt>
      <trkpt lat="47.7282" lon="6.0621">
        <ele>223.54</ele>
        <time>2018-02-28T14:19:32Z</time>
      </trkpt>
      <trkpt lat="47.72819" lon="6.06217">
        <ele>223.66</ele>
        <time>2018-02-28T14:19:39Z</time>
      </trkpt>
      <trkpt lat="47.72824" lon="6.06222">
        <ele>223.74</ele>
        <time>2018-02-28T14:19:43Z</time>
      </trkpt>
      <trkpt lat="47.72826" lon="6.06229">
        <ele>223.92</ele>
        <time>2018-02-28T14:19:54Z</time>
      </trkpt>
      <trkpt lat="47.72827" lon="6.06237">
        <ele>224</ele>
        <time>2018-02-28T14:20:00Z</time>
      </trkpt>
      <trkpt lat="47.72823" lon="6.06242">
        <ele>224.21</ele>
        <time>2018-02-28T14:20:24Z</time>
      </trkpt>
      <trkpt lat="47.72821" lon="6.0625">
        <ele>224.32</ele>
        <time>2018-02-28T14:20:31Z</time>
      </trkpt>
      <trkpt lat="47.72819" lon="6.06256">
        <ele>224.39</ele>
        <time>2018-02-28T14:20:35Z</time>
      </trkpt>
      <trkpt lat="47.72817" lon="6.06262">
        <ele>224.46</ele>
        <time>2018-02-28T14:20:39Z</time>
      </trkpt>
      <trkpt lat="47.72815" lon="6.0627">
        <ele>224.55</ele>
        <time>2018-02-28T14:20:44Z</time>
      </trkpt>
      <trkpt lat="47.72813" lon="6.06278">
        <ele>224.62</ele>
        <time>2018-02-28T14:20:48Z</time>
      </trkpt>
      <trkpt lat="47.72811" lon="6.06285">
        <ele>224.71</ele>
        <time>2018-02-28T14:20:53Z</time>
      </trkpt>
      <trkpt lat="47.72809" lon="6.06293">
        <ele>224.82</ele>
        <time>2018-02-28T14:20:59Z</time>
      </trkpt>
      <trkpt lat="47.72808" lon="6.06301">
        <ele>224.86</ele>
        <time>2018-02-28T14:21:02Z</time>
      </trkpt>
      <trkpt lat="47.72807" lon="6.0631">
        <ele>224.94</ele>
        <time>2018-02-28T14:21:07Z</time>
      </trkpt>
      <trkpt lat="47.72806" lon="6.06317">
        <ele>225.02</ele>
        <time>2018-02-28T14:21:11Z</time>
      </trkpt>
      <trkpt lat="47.72804" lon="6.06324">
        <ele>225.11</ele>
        <time>2018-02-28T14:21:16Z</time>
      </trkpt>
      <trkpt lat="47.72804" lon="6.06331">
        <ele>225.29</ele>
        <time>2018-02-28T14:21:22Z</time>
      </trkpt>
      <trkpt lat="47.72808" lon="6.06336">
        <ele>225.59</ele>
        <time>2018-02-28T14:21:38Z</time>
      </trkpt>
      <trkpt lat="47.72812" lon="6.06339">
        <ele>225.78</ele>
        <time>2018-02-28T14:21:45Z</time>
      </trkpt>
      <trkpt lat="47.72812" lon="6.06346">
        <ele>226.03</ele>
        <time>2018-02-28T14:21:56Z</time>
      </trkpt>
      <trkpt lat="47.72808" lon="6.06351">
        <ele>226.21</ele>
        <time>2018-02-28T14:22:02Z</time>
      </trkpt>
      <trkpt lat="47.72804" lon="6.06355">
        <ele>226.35</ele>
        <time>2018-02-28T14:22:06Z</time>
      </trkpt>
      <trkpt lat="47.72803" lon="6.06361">
        <ele>226.54</ele>
        <time>2018-02-28T14:22:11Z</time>
      </trkpt>
      <trkpt lat="47.72802" lon="6.06368">
        <ele>226.74</ele>
        <time>2018-02-28T14:22:16Z</time>
      </trkpt>
      <trkpt lat="47.72803" lon="6.06376">
        <ele>226.9</ele>
        <time>2018-02-28T14:22:20Z</time>
      </trkpt>
      <trkpt lat="47.72807" lon="6.06381">
        <ele>227.23</ele>
        <time>2018-02-28T14:22:28Z</time>
      </trkpt>
      <trkpt lat="47.72801" lon="6.0638">
        <ele>227.34</ele>
        <time>2018-02-28T14:22:36Z</time>
      </trkpt>
      <trkpt lat="47.72796" lon="6.06382">
        <ele>227.47</ele>
        <time>2018-02-28T14:22:50Z</time>
      </trkpt>
      <trkpt lat="47.72792" lon="6.06388">
        <ele>227.97</ele>
        <time>2018-02-28T14:23:06Z</time>
      </trkpt>
      <trkpt lat="47.72788" lon="6.0639">
        <ele>228.12</ele>
        <time>2018-02-28T14:23:09Z</time>
      </trkpt>
      <trkpt lat="47.72784" lon="6.06393">
        <ele>228.26</ele>
        <time>2018-02-28T14:23:12Z</time>
      </trkpt>
      <trkpt lat="47.72778" lon="6.06397">
        <ele>228.4</ele>
        <time>2018-02-28T14:23:15Z</time>
      </trkpt>
      <trkpt lat="47.72773" lon="6.06399">
        <ele>228.53</ele>
        <time>2018-02-28T14:23:18Z</time>
      </trkpt>
      <trkpt lat="47.72769" lon="6.06401">
        <ele>228.65</ele>
        <time>2018-02-28T14:23:21Z</time>
      </trkpt>
      <trkpt lat="47.72763" lon="6.06401">
        <ele>228.81</ele>
        <time>2018-02-28T14:23:25Z</time>
      </trkpt>
      <trkpt lat="47.72757" lon="6.064">
        <ele>228.95</ele>
        <time>2018-02-28T14:23:29Z</time>
      </trkpt>
      <trkpt lat="47.72752" lon="6.06402">
        <ele>229.04</ele>
        <time>2018-02-28T14:23:32Z</time>
      </trkpt>
      <trkpt lat="47.72747" lon="6.06401">
        <ele>229.17</ele>
        <time>2018-02-28T14:23:36Z</time>
      </trkpt>
      <trkpt lat="47.72742" lon="6.064">
        <ele>229.26</ele>
        <time>2018-02-28T14:23:39Z</time>
      </trkpt>
      <trkpt lat="47.72737" lon="6.06397">
        <ele>229.35</ele>
        <time>2018-02-28T14:23:42Z</time>
      </trkpt>
      <trkpt lat="47.72733" lon="6.06396">
        <ele>229.43</ele>
        <time>2018-02-28T14:23:45Z</time>
      </trkpt>
      <trkpt lat="47.72727" lon="6.06395">
        <ele>229.52</ele>
        <time>2018-02-28T14:23:48Z</time>
      </trkpt>
      <trkpt lat="47.72722" lon="6.06395">
        <ele>229.58</ele>
        <time>2018-02-28T14:23:50Z</time>
      </trkpt>
      <trkpt lat="47.72717" lon="6.06394">
        <ele>229.64</ele>
        <time>2018-02-28T14:23:52Z</time>
      </trkpt>
      <trkpt lat="47.72711" lon="6.06392">
        <ele>229.73</ele>
        <time>2018-02-28T14:23:55Z</time>
      </trkpt>
      <trkpt lat="47.72705" lon="6.06389">
        <ele>229.83</ele>
        <time>2018-02-28T14:23:58Z</time>
      </trkpt>
      <trkpt lat="47.72699" lon="6.06386">
        <ele>229.94</ele>
        <time>2018-02-28T14:24:01Z</time>
      </trkpt>
      <trkpt lat="47.72694" lon="6.06383">
        <ele>230.04</ele>
        <time>2018-02-28T14:24:04Z</time>
      </trkpt>
      <trkpt lat="47.72689" lon="6.06381">
        <ele>230.11</ele>
        <time>2018-02-28T14:24:06Z</time>
      </trkpt>
      <trkpt lat="47.72682" lon="6.06373">
        <ele>230.47</ele>
        <time>2018-02-28T14:24:08Z</time>
      </trkpt>
      <trkpt lat="47.72676" lon="6.06369">
        <ele>230.56</ele>
        <time>2018-02-28T14:24:10Z</time>
      </trkpt>
      <trkpt lat="47.72669" lon="6.06365">
        <ele>230.62</ele>
        <time>2018-02-28T14:24:12Z</time>
      </trkpt>
      <trkpt lat="47.72662" lon="6.06365">
        <ele>230.69</ele>
        <time>2018-02-28T14:24:14Z</time>
      </trkpt>
      <trkpt lat="47.72656" lon="6.06361">
        <ele>230.76</ele>
        <time>2018-02-28T14:24:16Z</time>
      </trkpt>
      <trkpt lat="47.72652" lon="6.06357">
        <ele>230.83</ele>
        <time>2018-02-28T14:24:18Z</time>
      </trkpt>
      <trkpt lat="47.72648" lon="6.06352">
        <ele>230.95</ele>
        <time>2018-02-28T14:24:21Z</time>
      </trkpt>
      <trkpt lat="47.72643" lon="6.06347">
        <ele>231.07</ele>
        <time>2018-02-28T14:24:24Z</time>
      </trkpt>
      <trkpt lat="47.72639" lon="6.06342">
        <ele>231.19</ele>
        <time>2018-02-28T14:24:27Z</time>
      </trkpt>
      <trkpt lat="47.72635" lon="6.06338">
        <ele>231.31</ele>
        <time>2018-02-28T14:24:30Z</time>
      </trkpt>
      <trkpt lat="47.7263" lon="6.06333">
        <ele>231.48</ele>
        <time>2018-02-28T14:24:34Z</time>
      </trkpt>
      <trkpt lat="47.72626" lon="6.06328">
        <ele>231.57</ele>
        <time>2018-02-28T14:24:36Z</time>
      </trkpt>
      <trkpt lat="47.72622" lon="6.06324">
        <ele>231.65</ele>
        <time>2018-02-28T14:24:38Z</time>
      </trkpt>
      <trkpt lat="47.72617" lon="6.06317">
        <ele>231.78</ele>
        <time>2018-02-28T14:24:41Z</time>
      </trkpt>
      <trkpt lat="47.72613" lon="6.06313">
        <ele>231.91</ele>
        <time>2018-02-28T14:24:44Z</time>
      </trkpt>
      <trkpt lat="47.72609" lon="6.06307">
        <ele>232.05</ele>
        <time>2018-02-28T14:24:47Z</time>
      </trkpt>
      <trkpt lat="47.72605" lon="6.06301">
        <ele>232.19</ele>
        <time>2018-02-28T14:24:50Z</time>
      </trkpt>
      <trkpt lat="47.72605" lon="6.06293">
        <ele>232.33</ele>
        <time>2018-02-28T14:24:53Z</time>
      </trkpt>
      <trkpt lat="47.72602" lon="6.06288">
        <ele>232.47</ele>
        <time>2018-02-28T14:24:56Z</time>
      </trkpt>
      <trkpt lat="47.72599" lon="6.06292">
        <ele>232.81</ele>
        <time>2018-02-28T14:25:23Z</time>
      </trkpt>
      <trkpt lat="47.72593" lon="6.06292">
        <ele>233.14</ele>
        <time>2018-02-28T14:25:32Z</time>
      </trkpt>
      <trkpt lat="47.72588" lon="6.06288">
        <ele>233.28</ele>
        <time>2018-02-28T14:25:35Z</time>
      </trkpt>
      <trkpt lat="47.72584" lon="6.06285">
        <ele>233.37</ele>
        <time>2018-02-28T14:25:37Z</time>
      </trkpt>
      <trkpt lat="47.72578" lon="6.0628">
        <ele>233.51</ele>
        <time>2018-02-28T14:25:40Z</time>
      </trkpt>
      <trkpt lat="47.72573" lon="6.06275">
        <ele>233.64</ele>
        <time>2018-02-28T14:25:43Z</time>
      </trkpt>
      <trkpt lat="47.72568" lon="6.0627">
        <ele>233.78</ele>
        <time>2018-02-28T14:25:46Z</time>
      </trkpt>
      <trkpt lat="47.72563" lon="6.06266">
        <ele>233.86</ele>
        <time>2018-02-28T14:25:48Z</time>
      </trkpt>
      <trkpt lat="47.72559" lon="6.06263">
        <ele>233.94</ele>
        <time>2018-02-28T14:25:50Z</time>
      </trkpt>
      <trkpt lat="47.72554" lon="6.06259">
        <ele>234.02</ele>
        <time>2018-02-28T14:25:52Z</time>
      </trkpt>
      <trkpt lat="47.72549" lon="6.06255">
        <ele>234.1</ele>
        <time>2018-02-28T14:25:54Z</time>
      </trkpt>
      <trkpt lat="47.72544" lon="6.06251">
        <ele>234.17</ele>
        <time>2018-02-28T14:25:56Z</time>
      </trkpt>
      <trkpt lat="47.72539" lon="6.06247">
        <ele>234.25</ele>
        <time>2018-02-28T14:25:58Z</time>
      </trkpt>
      <trkpt lat="47.72534" lon="6.06244">
        <ele>234.33</ele>
        <time>2018-02-28T14:26:00Z</time>
      </trkpt>
      <trkpt lat="47.72528" lon="6.0624">
        <ele>234.4</ele>
        <time>2018-02-28T14:26:02Z</time>
      </trkpt>
      <trkpt lat="47.72523" lon="6.06237">
        <ele>234.48</ele>
        <time>2018-02-28T14:26:04Z</time>
      </trkpt>
      <trkpt lat="47.72517" lon="6.06232">
        <ele>234.56</ele>
        <time>2018-02-28T14:26:06Z</time>
      </trkpt>
      <trkpt lat="47.72511" lon="6.06228">
        <ele>234.64</ele>
        <time>2018-02-28T14:26:08Z</time>
      </trkpt>
      <trkpt lat="47.72505" lon="6.06224">
        <ele>234.72</ele>
        <time>2018-02-28T14:26:10Z</time>
      </trkpt>
      <trkpt lat="47.72499" lon="6.06221">
        <ele>234.79</ele>
        <time>2018-02-28T14:26:12Z</time>
      </trkpt>
      <trkpt lat="47.72493" lon="6.06218">
        <ele>234.87</ele>
        <time>2018-02-28T14:26:14Z</time>
      </trkpt>
      <trkpt lat="47.72486" lon="6.06214">
        <ele>234.94</ele>
        <time>2018-02-28T14:26:16Z</time>
      </trkpt>
      <trkpt lat="47.72479" lon="6.0621">
        <ele>235.25</ele>
        <time>2018-02-28T14:26:18Z</time>
      </trkpt>
      <trkpt lat="47.72475" lon="6.06208">
        <ele>235.53</ele>
        <time>2018-02-28T14:26:19Z</time>
      </trkpt>
      <trkpt lat="47.7247" lon="6.06205">
        <ele>235.79</ele>
        <time>2018-02-28T14:26:20Z</time>
      </trkpt>
      <trkpt lat="47.72465" lon="6.06202">
        <ele>236</ele>
        <time>2018-02-28T14:26:21Z</time>
      </trkpt>
      <trkpt lat="47.7246" lon="6.06199">
        <ele>236.18</ele>
        <time>2018-02-28T14:26:22Z</time>
      </trkpt>
      <trkpt lat="47.72455" lon="6.06195">
        <ele>236.33</ele>
        <time>2018-02-28T14:26:23Z</time>
      </trkpt>
      <trkpt lat="47.7245" lon="6.06192">
        <ele>236.44</ele>
        <time>2018-02-28T14:26:24Z</time>
      </trkpt>
      <trkpt lat="47.72446" lon="6.06189">
        <ele>236.54</ele>
        <time>2018-02-28T14:26:25Z</time>
      </trkpt>
      <trkpt lat="47.72438" lon="6.06184">
        <ele>236.69</ele>
        <time>2018-02-28T14:26:27Z</time>
      </trkpt>
      <trkpt lat="47.72432" lon="6.0618">
        <ele>236.72</ele>
        <time>2018-02-28T14:26:29Z</time>
      </trkpt>
      <trkpt lat="47.72425" lon="6.06177">
        <ele>236.81</ele>
        <time>2018-02-28T14:26:31Z</time>
      </trkpt>
      <trkpt lat="47.72421" lon="6.06174">
        <ele>236.85</ele>
        <time>2018-02-28T14:26:32Z</time>
      </trkpt>
      <trkpt lat="47.72417" lon="6.0617">
        <ele>236.89</ele>
        <time>2018-02-28T14:26:33Z</time>
      </trkpt>
      <trkpt lat="47.72413" lon="6.06166">
        <ele>236.92</ele>
        <time>2018-02-28T14:26:34Z</time>
      </trkpt>
      <trkpt lat="47.72408" lon="6.06163">
        <ele>236.94</ele>
        <time>2018-02-28T14:26:35Z</time>
      </trkpt>
      <trkpt lat="47.72403" lon="6.0616">
        <ele>236.96</ele>
        <time>2018-02-28T14:26:36Z</time>
      </trkpt>
      <trkpt lat="47.72398" lon="6.06156">
        <ele>236.97</ele>
        <time>2018-02-28T14:26:37Z</time>
      </trkpt>
      <trkpt lat="47.72394" lon="6.06154">
        <ele>236.98</ele>
        <time>2018-02-28T14:26:38Z</time>
      </trkpt>
      <trkpt lat="47.72389" lon="6.06151">
        <ele>236.99</ele>
        <time>2018-02-28T14:26:39Z</time>
      </trkpt>
      <trkpt lat="47.72381" lon="6.06149">
        <ele>236.99</ele>
        <time>2018-02-28T14:26:41Z</time>
      </trkpt>
      <trkpt lat="47.72374" lon="6.06147">
        <ele>236.99</ele>
        <time>2018-02-28T14:26:43Z</time>
      </trkpt>
      <trkpt lat="47.72367" lon="6.06145">
        <ele>236.99</ele>
        <time>2018-02-28T14:26:45Z</time>
      </trkpt>
      <trkpt lat="47.7236" lon="6.06144">
        <ele>236.99</ele>
        <time>2018-02-28T14:26:47Z</time>
      </trkpt>
      <trkpt lat="47.72352" lon="6.06143">
        <ele>237</ele>
        <time>2018-02-28T14:26:49Z</time>
      </trkpt>
      <trkpt lat="47.72343" lon="6.06142">
        <ele>237</ele>
        <time>2018-02-28T14:26:51Z</time>
      </trkpt>
      <trkpt lat="47.72335" lon="6.06141">
        <ele>237.01</ele>
        <time>2018-02-28T14:26:53Z</time>
      </trkpt>
      <trkpt lat="47.72326" lon="6.06139">
        <ele>237.02</ele>
        <time>2018-02-28T14:26:55Z</time>
      </trkpt>
      <trkpt lat="47.72319" lon="6.06137">
        <ele>237.02</ele>
        <time>2018-02-28T14:26:57Z</time>
      </trkpt>
      <trkpt lat="47.72311" lon="6.06136">
        <ele>237.02</ele>
        <time>2018-02-28T14:26:59Z</time>
      </trkpt>
      <trkpt lat="47.72304" lon="6.06135">
        <ele>237.02</ele>
        <time>2018-02-28T14:27:01Z</time>
      </trkpt>
      <trkpt lat="47.72298" lon="6.06135">
        <ele>237.02</ele>
        <time>2018-02-28T14:27:03Z</time>
      </trkpt>
      <trkpt lat="47.72291" lon="6.06133">
        <ele>237.02</ele>
        <time>2018-02-28T14:27:05Z</time>
      </trkpt>
      <trkpt lat="47.72286" lon="6.06133">
        <ele>237.01</ele>
        <time>2018-02-28T14:27:07Z</time>
      </trkpt>
      <trkpt lat="47.72281" lon="6.06135">
        <ele>237</ele>
        <time>2018-02-28T14:27:09Z</time>
      </trkpt>
      <trkpt lat="47.72276" lon="6.0614">
        <ele>237</ele>
        <time>2018-02-28T14:27:12Z</time>
      </trkpt>
      <trkpt lat="47.72271" lon="6.06145">
        <ele>236.99</ele>
        <time>2018-02-28T14:27:15Z</time>
      </trkpt>
      <trkpt lat="47.72266" lon="6.06148">
        <ele>236.98</ele>
        <time>2018-02-28T14:27:18Z</time>
      </trkpt>
      <trkpt lat="47.72261" lon="6.06147">
        <ele>236.96</ele>
        <time>2018-02-28T14:27:23Z</time>
      </trkpt>
      <trkpt lat="47.72256" lon="6.06147">
        <ele>236.95</ele>
        <time>2018-02-28T14:27:26Z</time>
      </trkpt>
      <trkpt lat="47.72249" lon="6.06147">
        <ele>236.95</ele>
        <time>2018-02-28T14:27:29Z</time>
      </trkpt>
      <trkpt lat="47.72242" lon="6.06149">
        <ele>236.94</ele>
        <time>2018-02-28T14:27:31Z</time>
      </trkpt>
      <trkpt lat="47.72236" lon="6.06149">
        <ele>236.94</ele>
        <time>2018-02-28T14:27:33Z</time>
      </trkpt>
      <trkpt lat="47.72231" lon="6.06147">
        <ele>236.93</ele>
        <time>2018-02-28T14:27:35Z</time>
      </trkpt>
      <trkpt lat="47.72224" lon="6.0614">
        <ele>236.93</ele>
        <time>2018-02-28T14:27:37Z</time>
      </trkpt>
      <trkpt lat="47.72219" lon="6.06139">
        <ele>236.93</ele>
        <time>2018-02-28T14:27:38Z</time>
      </trkpt>
      <trkpt lat="47.72213" lon="6.06138">
        <ele>236.93</ele>
        <time>2018-02-28T14:27:40Z</time>
      </trkpt>
      <trkpt lat="47.72207" lon="6.06137">
        <ele>236.93</ele>
        <time>2018-02-28T14:27:42Z</time>
      </trkpt>
      <trkpt lat="47.72199" lon="6.06134">
        <ele>236.93</ele>
        <time>2018-02-28T14:27:44Z</time>
      </trkpt>
      <trkpt lat="47.72194" lon="6.0613">
        <ele>236.93</ele>
        <time>2018-02-28T14:27:45Z</time>
      </trkpt>
      <trkpt lat="47.72189" lon="6.06126">
        <ele>236.96</ele>
        <time>2018-02-28T14:27:46Z</time>
      </trkpt>
      <trkpt lat="47.72185" lon="6.06123">
        <ele>236.97</ele>
        <time>2018-02-28T14:27:47Z</time>
      </trkpt>
      <trkpt lat="47.72178" lon="6.06116">
        <ele>236.98</ele>
        <time>2018-02-28T14:27:49Z</time>
      </trkpt>
      <trkpt lat="47.7217" lon="6.06109">
        <ele>237.03</ele>
        <time>2018-02-28T14:27:51Z</time>
      </trkpt>
      <trkpt lat="47.72164" lon="6.06103">
        <ele>237.05</ele>
        <time>2018-02-28T14:27:53Z</time>
      </trkpt>
      <trkpt lat="47.72159" lon="6.06098">
        <ele>237.06</ele>
        <time>2018-02-28T14:27:55Z</time>
      </trkpt>
      <trkpt lat="47.72156" lon="6.06091">
        <ele>237.08</ele>
        <time>2018-02-28T14:27:57Z</time>
      </trkpt>
      <trkpt lat="47.72153" lon="6.06085">
        <ele>237.09</ele>
        <time>2018-02-28T14:27:59Z</time>
      </trkpt>
      <trkpt lat="47.7215" lon="6.0608">
        <ele>237.11</ele>
        <time>2018-02-28T14:28:01Z</time>
      </trkpt>
      <trkpt lat="47.72146" lon="6.06074">
        <ele>237.13</ele>
        <time>2018-02-28T14:28:03Z</time>
      </trkpt>
      <trkpt lat="47.72141" lon="6.06069">
        <ele>237.15</ele>
        <time>2018-02-28T14:28:05Z</time>
      </trkpt>
      <trkpt lat="47.72136" lon="6.06062">
        <ele>237.17</ele>
        <time>2018-02-28T14:28:07Z</time>
      </trkpt>
      <trkpt lat="47.72133" lon="6.06056">
        <ele>237.2</ele>
        <time>2018-02-28T14:28:09Z</time>
      </trkpt>
      <trkpt lat="47.72129" lon="6.06052">
        <ele>237.22</ele>
        <time>2018-02-28T14:28:11Z</time>
      </trkpt>
      <trkpt lat="47.72123" lon="6.06047">
        <ele>237.26</ele>
        <time>2018-02-28T14:28:14Z</time>
      </trkpt>
      <trkpt lat="47.72117" lon="6.06041">
        <ele>237.3</ele>
        <time>2018-02-28T14:28:17Z</time>
      </trkpt>
      <trkpt lat="47.72113" lon="6.06036">
        <ele>237.33</ele>
        <time>2018-02-28T14:28:19Z</time>
      </trkpt>
      <trkpt lat="47.72109" lon="6.06033">
        <ele>237.36</ele>
        <time>2018-02-28T14:28:21Z</time>
      </trkpt>
      <trkpt lat="47.72104" lon="6.06027">
        <ele>237.38</ele>
        <time>2018-02-28T14:28:23Z</time>
      </trkpt>
      <trkpt lat="47.721" lon="6.06022">
        <ele>237.41</ele>
        <time>2018-02-28T14:28:25Z</time>
      </trkpt>
      <trkpt lat="47.72095" lon="6.06017">
        <ele>237.46</ele>
        <time>2018-02-28T14:28:28Z</time>
      </trkpt>
      <trkpt lat="47.72091" lon="6.06009">
        <ele>237.49</ele>
        <time>2018-02-28T14:28:30Z</time>
      </trkpt>
      <trkpt lat="47.72087" lon="6.06003">
        <ele>237.55</ele>
        <time>2018-02-28T14:28:33Z</time>
      </trkpt>
      <trkpt lat="47.72083" lon="6.06">
        <ele>237.61</ele>
        <time>2018-02-28T14:28:36Z</time>
      </trkpt>
      <trkpt lat="47.72078" lon="6.05997">
        <ele>237.69</ele>
        <time>2018-02-28T14:28:40Z</time>
      </trkpt>
      <trkpt lat="47.72073" lon="6.05993">
        <ele>237.78</ele>
        <time>2018-02-28T14:28:44Z</time>
      </trkpt>
      <trkpt lat="47.72068" lon="6.05989">
        <ele>237.84</ele>
        <time>2018-02-28T14:28:47Z</time>
      </trkpt>
      <trkpt lat="47.72064" lon="6.05985">
        <ele>237.93</ele>
        <time>2018-02-28T14:28:51Z</time>
      </trkpt>
      <trkpt lat="47.72058" lon="6.05978">
        <ele>238.01</ele>
        <time>2018-02-28T14:28:55Z</time>
      </trkpt>
      <trkpt lat="47.72052" lon="6.05973">
        <ele>238.13</ele>
        <time>2018-02-28T14:29:00Z</time>
      </trkpt>
      <trkpt lat="47.72048" lon="6.05969">
        <ele>238.21</ele>
        <time>2018-02-28T14:29:03Z</time>
      </trkpt>
      <trkpt lat="47.72043" lon="6.05965">
        <ele>238.26</ele>
        <time>2018-02-28T14:29:05Z</time>
      </trkpt>
      <trkpt lat="47.72038" lon="6.05963">
        <ele>238.32</ele>
        <time>2018-02-28T14:29:07Z</time>
      </trkpt>
      <trkpt lat="47.72032" lon="6.05964">
        <ele>238.41</ele>
        <time>2018-02-28T14:29:10Z</time>
      </trkpt>
      <trkpt lat="47.72027" lon="6.05962">
        <ele>238.55</ele>
        <time>2018-02-28T14:29:14Z</time>
      </trkpt>
      <trkpt lat="47.72021" lon="6.05961">
        <ele>238.73</ele>
        <time>2018-02-28T14:29:19Z</time>
      </trkpt>
      <trkpt lat="47.72016" lon="6.05959">
        <ele>238.89</ele>
        <time>2018-02-28T14:29:23Z</time>
      </trkpt>
      <trkpt lat="47.72012" lon="6.05956">
        <ele>239.02</ele>
        <time>2018-02-28T14:29:26Z</time>
      </trkpt>
      <trkpt lat="47.72008" lon="6.05953">
        <ele>239.16</ele>
        <time>2018-02-28T14:29:29Z</time>
      </trkpt>
      <trkpt lat="47.72002" lon="6.0595">
        <ele>239.36</ele>
        <time>2018-02-28T14:29:33Z</time>
      </trkpt>
      <trkpt lat="47.71997" lon="6.05949">
        <ele>239.51</ele>
        <time>2018-02-28T14:29:36Z</time>
      </trkpt>
      <trkpt lat="47.71993" lon="6.05945">
        <ele>239.68</ele>
        <time>2018-02-28T14:29:39Z</time>
      </trkpt>
      <trkpt lat="47.71988" lon="6.0594">
        <ele>239.86</ele>
        <time>2018-02-28T14:29:42Z</time>
      </trkpt>
      <trkpt lat="47.71984" lon="6.05935">
        <ele>240.05</ele>
        <time>2018-02-28T14:29:45Z</time>
      </trkpt>
      <trkpt lat="47.71978" lon="6.05932">
        <ele>240.18</ele>
        <time>2018-02-28T14:29:47Z</time>
      </trkpt>
      <trkpt lat="47.71973" lon="6.05929">
        <ele>240.31</ele>
        <time>2018-02-28T14:29:49Z</time>
      </trkpt>
      <trkpt lat="47.71968" lon="6.05927">
        <ele>240.45</ele>
        <time>2018-02-28T14:29:51Z</time>
      </trkpt>
      <trkpt lat="47.71963" lon="6.05928">
        <ele>240.58</ele>
        <time>2018-02-28T14:29:53Z</time>
      </trkpt>
      <trkpt lat="47.71956" lon="6.05928">
        <ele>240.71</ele>
        <time>2018-02-28T14:29:55Z</time>
      </trkpt>
      <trkpt lat="47.71949" lon="6.05924">
        <ele>240.84</ele>
        <time>2018-02-28T14:29:57Z</time>
      </trkpt>
      <trkpt lat="47.71942" lon="6.0592">
        <ele>240.98</ele>
        <time>2018-02-28T14:29:59Z</time>
      </trkpt>
      <trkpt lat="47.71937" lon="6.05918">
        <ele>241.11</ele>
        <time>2018-02-28T14:30:01Z</time>
      </trkpt>
      <trkpt lat="47.71932" lon="6.05916">
        <ele>241.32</ele>
        <time>2018-02-28T14:30:04Z</time>
      </trkpt>
      <trkpt lat="47.71924" lon="6.0591">
        <ele>241.45</ele>
        <time>2018-02-28T14:30:06Z</time>
      </trkpt>
      <trkpt lat="47.71919" lon="6.05908">
        <ele>241.59</ele>
        <time>2018-02-28T14:30:08Z</time>
      </trkpt>
      <trkpt lat="47.71913" lon="6.05907">
        <ele>241.73</ele>
        <time>2018-02-28T14:30:10Z</time>
      </trkpt>
      <trkpt lat="47.71908" lon="6.05905">
        <ele>241.86</ele>
        <time>2018-02-28T14:30:12Z</time>
      </trkpt>
      <trkpt lat="47.71903" lon="6.05902">
        <ele>242</ele>
        <time>2018-02-28T14:30:14Z</time>
      </trkpt>
      <trkpt lat="47.71897" lon="6.05898">
        <ele>242.06</ele>
        <time>2018-02-28T14:30:15Z</time>
      </trkpt>
      <trkpt lat="47.71887" lon="6.05888">
        <ele>242.2</ele>
        <time>2018-02-28T14:30:17Z</time>
      </trkpt>
      <trkpt lat="47.71881" lon="6.05887">
        <ele>242.33</ele>
        <time>2018-02-28T14:30:19Z</time>
      </trkpt>
      <trkpt lat="47.71873" lon="6.05876">
        <ele>242.46</ele>
        <time>2018-02-28T14:30:21Z</time>
      </trkpt>
      <trkpt lat="47.71868" lon="6.05867">
        <ele>242.59</ele>
        <time>2018-02-28T14:30:23Z</time>
      </trkpt>
      <trkpt lat="47.71865" lon="6.05861">
        <ele>242.65</ele>
        <time>2018-02-28T14:30:24Z</time>
      </trkpt>
      <trkpt lat="47.7186" lon="6.05854">
        <ele>242.78</ele>
        <time>2018-02-28T14:30:26Z</time>
      </trkpt>
      <trkpt lat="47.71855" lon="6.05847">
        <ele>242.9</ele>
        <time>2018-02-28T14:30:28Z</time>
      </trkpt>
      <trkpt lat="47.7185" lon="6.0584">
        <ele>243.02</ele>
        <time>2018-02-28T14:30:30Z</time>
      </trkpt>
      <trkpt lat="47.71846" lon="6.05834">
        <ele>243.14</ele>
        <time>2018-02-28T14:30:32Z</time>
      </trkpt>
      <trkpt lat="47.71842" lon="6.05829">
        <ele>243.26</ele>
        <time>2018-02-28T14:30:34Z</time>
      </trkpt>
      <trkpt lat="47.71837" lon="6.05821">
        <ele>243.32</ele>
        <time>2018-02-28T14:30:35Z</time>
      </trkpt>
      <trkpt lat="47.71832" lon="6.05815">
        <ele>243.43</ele>
        <time>2018-02-28T14:30:37Z</time>
      </trkpt>
      <trkpt lat="47.71826" lon="6.0581">
        <ele>243.55</ele>
        <time>2018-02-28T14:30:39Z</time>
      </trkpt>
      <trkpt lat="47.71822" lon="6.05805">
        <ele>243.61</ele>
        <time>2018-02-28T14:30:40Z</time>
      </trkpt>
      <trkpt lat="47.71817" lon="6.05802">
        <ele>243.72</ele>
        <time>2018-02-28T14:30:42Z</time>
      </trkpt>
      <trkpt lat="47.71812" lon="6.05798">
        <ele>243.84</ele>
        <time>2018-02-28T14:30:44Z</time>
      </trkpt>
      <trkpt lat="47.71806" lon="6.05795">
        <ele>243.96</ele>
        <time>2018-02-28T14:30:46Z</time>
      </trkpt>
      <trkpt lat="47.718" lon="6.0579">
        <ele>244.07</ele>
        <time>2018-02-28T14:30:48Z</time>
      </trkpt>
      <trkpt lat="47.71795" lon="6.05785">
        <ele>244.24</ele>
        <time>2018-02-28T14:30:51Z</time>
      </trkpt>
      <trkpt lat="47.71789" lon="6.05784">
        <ele>244.35</ele>
        <time>2018-02-28T14:30:53Z</time>
      </trkpt>
      <trkpt lat="47.71784" lon="6.05781">
        <ele>244.46</ele>
        <time>2018-02-28T14:30:55Z</time>
      </trkpt>
      <trkpt lat="47.71779" lon="6.05778">
        <ele>244.56</ele>
        <time>2018-02-28T14:30:57Z</time>
      </trkpt>
      <trkpt lat="47.71774" lon="6.05775">
        <ele>244.71</ele>
        <time>2018-02-28T14:31:00Z</time>
      </trkpt>
      <trkpt lat="47.71769" lon="6.05771">
        <ele>244.8</ele>
        <time>2018-02-28T14:31:02Z</time>
      </trkpt>
      <trkpt lat="47.71764" lon="6.05769">
        <ele>244.89</ele>
        <time>2018-02-28T14:31:04Z</time>
      </trkpt>
      <trkpt lat="47.71759" lon="6.05765">
        <ele>244.99</ele>
        <time>2018-02-28T14:31:06Z</time>
      </trkpt>
      <trkpt lat="47.71752" lon="6.05763">
        <ele>245.08</ele>
        <time>2018-02-28T14:31:08Z</time>
      </trkpt>
      <trkpt lat="47.71745" lon="6.05761">
        <ele>245.22</ele>
        <time>2018-02-28T14:31:11Z</time>
      </trkpt>
      <trkpt lat="47.71739" lon="6.05761">
        <ele>245.31</ele>
        <time>2018-02-28T14:31:13Z</time>
      </trkpt>
      <trkpt lat="47.71733" lon="6.05758">
        <ele>245.41</ele>
        <time>2018-02-28T14:31:15Z</time>
      </trkpt>
      <trkpt lat="47.71727" lon="6.05752">
        <ele>245.5</ele>
        <time>2018-02-28T14:31:17Z</time>
      </trkpt>
      <trkpt lat="47.71723" lon="6.05749">
        <ele>245.55</ele>
        <time>2018-02-28T14:31:18Z</time>
      </trkpt>
      <trkpt lat="47.71716" lon="6.05746">
        <ele>245.64</ele>
        <time>2018-02-28T14:31:20Z</time>
      </trkpt>
      <trkpt lat="47.71711" lon="6.05742">
        <ele>245.74</ele>
        <time>2018-02-28T14:31:22Z</time>
      </trkpt>
      <trkpt lat="47.71705" lon="6.05739">
        <ele>245.84</ele>
        <time>2018-02-28T14:31:24Z</time>
      </trkpt>
      <trkpt lat="47.717" lon="6.05735">
        <ele>245.95</ele>
        <time>2018-02-28T14:31:26Z</time>
      </trkpt>
      <trkpt lat="47.71693" lon="6.05736">
        <ele>246.1</ele>
        <time>2018-02-28T14:31:29Z</time>
      </trkpt>
      <trkpt lat="47.71686" lon="6.05738">
        <ele>246.2</ele>
        <time>2018-02-28T14:31:31Z</time>
      </trkpt>
      <trkpt lat="47.7168" lon="6.05738">
        <ele>246.3</ele>
        <time>2018-02-28T14:31:33Z</time>
      </trkpt>
      <trkpt lat="47.71673" lon="6.05734">
        <ele>246.41</ele>
        <time>2018-02-28T14:31:35Z</time>
      </trkpt>
      <trkpt lat="47.71665" lon="6.05732">
        <ele>246.51</ele>
        <time>2018-02-28T14:31:37Z</time>
      </trkpt>
      <trkpt lat="47.71658" lon="6.0573">
        <ele>246.62</ele>
        <time>2018-02-28T14:31:39Z</time>
      </trkpt>
      <trkpt lat="47.71652" lon="6.05728">
        <ele>246.73</ele>
        <time>2018-02-28T14:31:41Z</time>
      </trkpt>
      <trkpt lat="47.71646" lon="6.05729">
        <ele>246.84</ele>
        <time>2018-02-28T14:31:43Z</time>
      </trkpt>
      <trkpt lat="47.71639" lon="6.05731">
        <ele>246.94</ele>
        <time>2018-02-28T14:31:45Z</time>
      </trkpt>
      <trkpt lat="47.71633" lon="6.05731">
        <ele>247.05</ele>
        <time>2018-02-28T14:31:47Z</time>
      </trkpt>
      <trkpt lat="47.71627" lon="6.05731">
        <ele>247.16</ele>
        <time>2018-02-28T14:31:49Z</time>
      </trkpt>
      <trkpt lat="47.71621" lon="6.05731">
        <ele>247.26</ele>
        <time>2018-02-28T14:31:51Z</time>
      </trkpt>
      <trkpt lat="47.71614" lon="6.05731">
        <ele>247.37</ele>
        <time>2018-02-28T14:31:53Z</time>
      </trkpt>
      <trkpt lat="47.71607" lon="6.05733">
        <ele>247.47</ele>
        <time>2018-02-28T14:31:55Z</time>
      </trkpt>
      <trkpt lat="47.71601" lon="6.05732">
        <ele>247.61</ele>
        <time>2018-02-28T14:31:58Z</time>
      </trkpt>
      <trkpt lat="47.71597" lon="6.05737">
        <ele>247.71</ele>
        <time>2018-02-28T14:32:00Z</time>
      </trkpt>
      <trkpt lat="47.7159" lon="6.05738">
        <ele>247.84</ele>
        <time>2018-02-28T14:32:03Z</time>
      </trkpt>
      <trkpt lat="47.71584" lon="6.05736">
        <ele>248.2</ele>
        <time>2018-02-28T14:32:31Z</time>
      </trkpt>
      <trkpt lat="47.71578" lon="6.05734">
        <ele>248.32</ele>
        <time>2018-02-28T14:32:34Z</time>
      </trkpt>
      <trkpt lat="47.71573" lon="6.05732">
        <ele>248.4</ele>
        <time>2018-02-28T14:32:36Z</time>
      </trkpt>
      <trkpt lat="47.71567" lon="6.05732">
        <ele>248.47</ele>
        <time>2018-02-28T14:32:38Z</time>
      </trkpt>
      <trkpt lat="47.71562" lon="6.05733">
        <ele>248.55</ele>
        <time>2018-02-28T14:32:40Z</time>
      </trkpt>
      <trkpt lat="47.71556" lon="6.05733">
        <ele>248.62</ele>
        <time>2018-02-28T14:32:42Z</time>
      </trkpt>
      <trkpt lat="47.71551" lon="6.05733">
        <ele>248.69</ele>
        <time>2018-02-28T14:32:44Z</time>
      </trkpt>
      <trkpt lat="47.71546" lon="6.05733">
        <ele>248.76</ele>
        <time>2018-02-28T14:32:46Z</time>
      </trkpt>
      <trkpt lat="47.71541" lon="6.05732">
        <ele>248.83</ele>
        <time>2018-02-28T14:32:48Z</time>
      </trkpt>
      <trkpt lat="47.71536" lon="6.0573">
        <ele>248.9</ele>
        <time>2018-02-28T14:32:50Z</time>
      </trkpt>
      <trkpt lat="47.7153" lon="6.05729">
        <ele>248.96</ele>
        <time>2018-02-28T14:32:52Z</time>
      </trkpt>
      <trkpt lat="47.71525" lon="6.05728">
        <ele>249.03</ele>
        <time>2018-02-28T14:32:54Z</time>
      </trkpt>
      <trkpt lat="47.7152" lon="6.05726">
        <ele>249.09</ele>
        <time>2018-02-28T14:32:56Z</time>
      </trkpt>
      <trkpt lat="47.71514" lon="6.05725">
        <ele>249.15</ele>
        <time>2018-02-28T14:32:58Z</time>
      </trkpt>
      <trkpt lat="47.71507" lon="6.05722">
        <ele>249.23</ele>
        <time>2018-02-28T14:33:01Z</time>
      </trkpt>
      <trkpt lat="47.71502" lon="6.0572">
        <ele>249.29</ele>
        <time>2018-02-28T14:33:03Z</time>
      </trkpt>
      <trkpt lat="47.71497" lon="6.05716">
        <ele>249.34</ele>
        <time>2018-02-28T14:33:05Z</time>
      </trkpt>
      <trkpt lat="47.71492" lon="6.05713">
        <ele>249.38</ele>
        <time>2018-02-28T14:33:07Z</time>
      </trkpt>
      <trkpt lat="47.71487" lon="6.05709">
        <ele>249.43</ele>
        <time>2018-02-28T14:33:09Z</time>
      </trkpt>
      <trkpt lat="47.71482" lon="6.05706">
        <ele>249.49</ele>
        <time>2018-02-28T14:33:12Z</time>
      </trkpt>
      <trkpt lat="47.71477" lon="6.05703">
        <ele>249.54</ele>
        <time>2018-02-28T14:33:14Z</time>
      </trkpt>
      <trkpt lat="47.71471" lon="6.05698">
        <ele>249.59</ele>
        <time>2018-02-28T14:33:17Z</time>
      </trkpt>
      <trkpt lat="47.71467" lon="6.05694">
        <ele>249.63</ele>
        <time>2018-02-28T14:33:19Z</time>
      </trkpt>
      <trkpt lat="47.71463" lon="6.05691">
        <ele>249.68</ele>
        <time>2018-02-28T14:33:22Z</time>
      </trkpt>
      <trkpt lat="47.71458" lon="6.0569">
        <ele>249.75</ele>
        <time>2018-02-28T14:33:27Z</time>
      </trkpt>
      <trkpt lat="47.71453" lon="6.05687">
        <ele>249.84</ele>
        <time>2018-02-28T14:33:47Z</time>
      </trkpt>
      <trkpt lat="47.71449" lon="6.05683">
        <ele>249.88</ele>
        <time>2018-02-28T14:33:51Z</time>
      </trkpt>
      <trkpt lat="47.71446" lon="6.05676">
        <ele>249.93</ele>
        <time>2018-02-28T14:33:58Z</time>
      </trkpt>
      <trkpt lat="47.71441" lon="6.05675">
        <ele>249.94</ele>
        <time>2018-02-28T14:34:18Z</time>
      </trkpt>
      <trkpt lat="47.71436" lon="6.05676">
        <ele>249.9</ele>
        <time>2018-02-28T14:34:28Z</time>
      </trkpt>
      <trkpt lat="47.71436" lon="6.05668">
        <ele>249.86</ele>
        <time>2018-02-28T14:34:35Z</time>
      </trkpt>
      <trkpt lat="47.71435" lon="6.05661">
        <ele>249.82</ele>
        <time>2018-02-28T14:34:43Z</time>
      </trkpt>
      <trkpt lat="47.71439" lon="6.05656">
        <ele>249.73</ele>
        <time>2018-02-28T14:34:53Z</time>
      </trkpt>
      <trkpt lat="47.71439" lon="6.05648">
        <ele>249.66</ele>
        <time>2018-02-28T14:34:58Z</time>
      </trkpt>
      <trkpt lat="47.71438" lon="6.05642">
        <ele>249.6</ele>
        <time>2018-02-28T14:35:04Z</time>
      </trkpt>
      <trkpt lat="47.71431" lon="6.05632">
        <ele>249.57</ele>
        <time>2018-02-28T14:35:13Z</time>
      </trkpt>
      <trkpt lat="47.71427" lon="6.05627">
        <ele>249.58</ele>
        <time>2018-02-28T14:35:16Z</time>
      </trkpt>
      <trkpt lat="47.71424" lon="6.05622">
        <ele>249.63</ele>
        <time>2018-02-28T14:35:23Z</time>
      </trkpt>
      <trkpt lat="47.71418" lon="6.05622">
        <ele>249.71</ele>
        <time>2018-02-28T14:35:31Z</time>
      </trkpt>
      <trkpt lat="47.71415" lon="6.05627">
        <ele>249.79</ele>
        <time>2018-02-28T14:35:37Z</time>
      </trkpt>
      <trkpt lat="47.7141" lon="6.05629">
        <ele>249.86</ele>
        <time>2018-02-28T14:35:42Z</time>
      </trkpt>
      <trkpt lat="47.71405" lon="6.05628">
        <ele>249.96</ele>
        <time>2018-02-28T14:35:49Z</time>
      </trkpt>
      <trkpt lat="47.71402" lon="6.05623">
        <ele>250.09</ele>
        <time>2018-02-28T14:35:55Z</time>
      </trkpt>
      <trkpt lat="47.71398" lon="6.0562">
        <ele>250.41</ele>
        <time>2018-02-28T14:36:07Z</time>
      </trkpt>
      <trkpt lat="47.71393" lon="6.05621">
        <ele>250.61</ele>
        <time>2018-02-28T14:36:16Z</time>
      </trkpt>
      <trkpt lat="47.71389" lon="6.05619">
        <ele>250.7</ele>
        <time>2018-02-28T14:36:24Z</time>
      </trkpt>
      <trkpt lat="47.71384" lon="6.05615">
        <ele>250.78</ele>
        <time>2018-02-28T14:36:27Z</time>
      </trkpt>
      <trkpt lat="47.7138" lon="6.05612">
        <ele>250.84</ele>
        <time>2018-02-28T14:36:29Z</time>
      </trkpt>
      <trkpt lat="47.71375" lon="6.05608">
        <ele>250.91</ele>
        <time>2018-02-28T14:36:32Z</time>
      </trkpt>
      <trkpt lat="47.7137" lon="6.05604">
        <ele>250.98</ele>
        <time>2018-02-28T14:36:35Z</time>
      </trkpt>
      <trkpt lat="47.71364" lon="6.05599">
        <ele>251.06</ele>
        <time>2018-02-28T14:36:38Z</time>
      </trkpt>
      <trkpt lat="47.71359" lon="6.05595">
        <ele>251.13</ele>
        <time>2018-02-28T14:36:41Z</time>
      </trkpt>
      <trkpt lat="47.71354" lon="6.05592">
        <ele>251.18</ele>
        <time>2018-02-28T14:36:43Z</time>
      </trkpt>
      <trkpt lat="47.71347" lon="6.05588">
        <ele>251.26</ele>
        <time>2018-02-28T14:36:46Z</time>
      </trkpt>
      <trkpt lat="47.7134" lon="6.05584">
        <ele>251.31</ele>
        <time>2018-02-28T14:36:48Z</time>
      </trkpt>
      <trkpt lat="47.71333" lon="6.05582">
        <ele>251.35</ele>
        <time>2018-02-28T14:36:50Z</time>
      </trkpt>
      <trkpt lat="47.71328" lon="6.05577">
        <ele>251.4</ele>
        <time>2018-02-28T14:36:52Z</time>
      </trkpt>
      <trkpt lat="47.71324" lon="6.05574">
        <ele>251.45</ele>
        <time>2018-02-28T14:36:54Z</time>
      </trkpt>
      <trkpt lat="47.71319" lon="6.05569">
        <ele>251.51</ele>
        <time>2018-02-28T14:36:56Z</time>
      </trkpt>
      <trkpt lat="47.71315" lon="6.05564">
        <ele>251.59</ele>
        <time>2018-02-28T14:36:59Z</time>
      </trkpt>
      <trkpt lat="47.71312" lon="6.05559">
        <ele>251.7</ele>
        <time>2018-02-28T14:37:03Z</time>
      </trkpt>
      <trkpt lat="47.71307" lon="6.05555">
        <ele>251.82</ele>
        <time>2018-02-28T14:37:07Z</time>
      </trkpt>
      <trkpt lat="47.71301" lon="6.05553">
        <ele>251.88</ele>
        <time>2018-02-28T14:37:09Z</time>
      </trkpt>
      <trkpt lat="47.71295" lon="6.0555">
        <ele>251.94</ele>
        <time>2018-02-28T14:37:11Z</time>
      </trkpt>
      <trkpt lat="47.71289" lon="6.05548">
        <ele>252.01</ele>
        <time>2018-02-28T14:37:13Z</time>
      </trkpt>
      <trkpt lat="47.71284" lon="6.05546">
        <ele>252.07</ele>
        <time>2018-02-28T14:37:15Z</time>
      </trkpt>
      <trkpt lat="47.71278" lon="6.05541">
        <ele>252.24</ele>
        <time>2018-02-28T14:37:23Z</time>
      </trkpt>
      <trkpt lat="47.71274" lon="6.05537">
        <ele>252.63</ele>
        <time>2018-02-28T14:37:55Z</time>
      </trkpt>
      <trkpt lat="47.7127" lon="6.05538">
        <ele>253.55</ele>
        <time>2018-02-28T14:39:04Z</time>
      </trkpt>
      <trkpt lat="47.71266" lon="6.05534">
        <ele>253.73</ele>
        <time>2018-02-28T14:39:14Z</time>
      </trkpt>
      <trkpt lat="47.7126" lon="6.05532">
        <ele>253.81</ele>
        <time>2018-02-28T14:39:18Z</time>
      </trkpt>
      <trkpt lat="47.71256" lon="6.05529">
        <ele>253.88</ele>
        <time>2018-02-28T14:39:22Z</time>
      </trkpt>
      <trkpt lat="47.71251" lon="6.05528">
        <ele>253.96</ele>
        <time>2018-02-28T14:39:27Z</time>
      </trkpt>
      <trkpt lat="47.71247" lon="6.05527">
        <ele>254.07</ele>
        <time>2018-02-28T14:39:34Z</time>
      </trkpt>
      <trkpt lat="47.71241" lon="6.05524">
        <ele>254.16</ele>
        <time>2018-02-28T14:39:40Z</time>
      </trkpt>
      <trkpt lat="47.71237" lon="6.05521">
        <ele>254.35</ele>
        <time>2018-02-28T14:39:50Z</time>
      </trkpt>
      <trkpt lat="47.71232" lon="6.05516">
        <ele>254.5</ele>
        <time>2018-02-28T14:39:56Z</time>
      </trkpt>
      <trkpt lat="47.71228" lon="6.05511">
        <ele>254.68</ele>
        <time>2018-02-28T14:40:02Z</time>
      </trkpt>
      <trkpt lat="47.71223" lon="6.05512">
        <ele>255.01</ele>
        <time>2018-02-28T14:40:13Z</time>
      </trkpt>
      <trkpt lat="47.71218" lon="6.05508">
        <ele>255.16</ele>
        <time>2018-02-28T14:40:17Z</time>
      </trkpt>
      <trkpt lat="47.71213" lon="6.05503">
        <ele>255.33</ele>
        <time>2018-02-28T14:40:21Z</time>
      </trkpt>
      <trkpt lat="47.71209" lon="6.05501">
        <ele>255.56</ele>
        <time>2018-02-28T14:40:26Z</time>
      </trkpt>
      <trkpt lat="47.71204" lon="6.05503">
        <ele>255.96</ele>
        <time>2018-02-28T14:40:34Z</time>
      </trkpt>
      <trkpt lat="47.71198" lon="6.05505">
        <ele>256.26</ele>
        <time>2018-02-28T14:40:40Z</time>
      </trkpt>
      <trkpt lat="47.71194" lon="6.05501">
        <ele>256.62</ele>
        <time>2018-02-28T14:40:47Z</time>
      </trkpt>
      <trkpt lat="47.7119" lon="6.05496">
        <ele>256.78</ele>
        <time>2018-02-28T14:40:51Z</time>
      </trkpt>
      <trkpt lat="47.71185" lon="6.055">
        <ele>257.24</ele>
        <time>2018-02-28T14:41:34Z</time>
      </trkpt>
      <trkpt lat="47.7118" lon="6.05497">
        <ele>257.42</ele>
        <time>2018-02-28T14:41:37Z</time>
      </trkpt>
      <trkpt lat="47.71176" lon="6.05494">
        <ele>257.53</ele>
        <time>2018-02-28T14:41:39Z</time>
      </trkpt>
      <trkpt lat="47.7117" lon="6.05493">
        <ele>257.7</ele>
        <time>2018-02-28T14:41:42Z</time>
      </trkpt>
      <trkpt lat="47.71165" lon="6.05493">
        <ele>257.8</ele>
        <time>2018-02-28T14:41:44Z</time>
      </trkpt>
      <trkpt lat="47.7116" lon="6.05494">
        <ele>257.91</ele>
        <time>2018-02-28T14:41:46Z</time>
      </trkpt>
      <trkpt lat="47.71156" lon="6.05494">
        <ele>258.01</ele>
        <time>2018-02-28T14:41:48Z</time>
      </trkpt>
      <trkpt lat="47.71151" lon="6.05496">
        <ele>258.1</ele>
        <time>2018-02-28T14:41:50Z</time>
      </trkpt>
      <trkpt lat="47.71146" lon="6.05496">
        <ele>258.2</ele>
        <time>2018-02-28T14:41:52Z</time>
      </trkpt>
      <trkpt lat="47.71141" lon="6.05497">
        <ele>258.29</ele>
        <time>2018-02-28T14:41:54Z</time>
      </trkpt>
      <trkpt lat="47.71135" lon="6.05499">
        <ele>258.38</ele>
        <time>2018-02-28T14:41:56Z</time>
      </trkpt>
      <trkpt lat="47.71128" lon="6.05501">
        <ele>258.47</ele>
        <time>2018-02-28T14:41:58Z</time>
      </trkpt>
      <trkpt lat="47.71121" lon="6.05504">
        <ele>258.55</ele>
        <time>2018-02-28T14:42:00Z</time>
      </trkpt>
      <trkpt lat="47.71114" lon="6.05506">
        <ele>258.64</ele>
        <time>2018-02-28T14:42:02Z</time>
      </trkpt>
      <trkpt lat="47.71108" lon="6.05509">
        <ele>258.73</ele>
        <time>2018-02-28T14:42:04Z</time>
      </trkpt>
      <trkpt lat="47.71101" lon="6.05511">
        <ele>258.83</ele>
        <time>2018-02-28T14:42:06Z</time>
      </trkpt>
      <trkpt lat="47.71096" lon="6.05512">
        <ele>258.93</ele>
        <time>2018-02-28T14:42:08Z</time>
      </trkpt>
      <trkpt lat="47.7109" lon="6.05513">
        <ele>259.03</ele>
        <time>2018-02-28T14:42:10Z</time>
      </trkpt>
      <trkpt lat="47.71085" lon="6.05515">
        <ele>259.13</ele>
        <time>2018-02-28T14:42:12Z</time>
      </trkpt>
      <trkpt lat="47.71079" lon="6.05517">
        <ele>259.23</ele>
        <time>2018-02-28T14:42:14Z</time>
      </trkpt>
      <trkpt lat="47.71074" lon="6.05518">
        <ele>259.33</ele>
        <time>2018-02-28T14:42:16Z</time>
      </trkpt>
      <trkpt lat="47.71068" lon="6.0552">
        <ele>259.43</ele>
        <time>2018-02-28T14:42:18Z</time>
      </trkpt>
      <trkpt lat="47.71063" lon="6.05522">
        <ele>259.53</ele>
        <time>2018-02-28T14:42:20Z</time>
      </trkpt>
      <trkpt lat="47.71056" lon="6.05525">
        <ele>259.68</ele>
        <time>2018-02-28T14:42:23Z</time>
      </trkpt>
      <trkpt lat="47.7105" lon="6.05527">
        <ele>259.77</ele>
        <time>2018-02-28T14:42:25Z</time>
      </trkpt>
      <trkpt lat="47.71043" lon="6.05528">
        <ele>259.87</ele>
        <time>2018-02-28T14:42:27Z</time>
      </trkpt>
      <trkpt lat="47.71038" lon="6.05527">
        <ele>259.96</ele>
        <time>2018-02-28T14:42:29Z</time>
      </trkpt>
      <trkpt lat="47.71032" lon="6.05526">
        <ele>260.05</ele>
        <time>2018-02-28T14:42:31Z</time>
      </trkpt>
      <trkpt lat="47.71023" lon="6.05524">
        <ele>260.75</ele>
        <time>2018-02-28T14:42:33Z</time>
      </trkpt>
      <trkpt lat="47.71015" lon="6.05523">
        <ele>260.94</ele>
        <time>2018-02-28T14:42:35Z</time>
      </trkpt>
      <trkpt lat="47.71007" lon="6.05521">
        <ele>261.42</ele>
        <time>2018-02-28T14:42:37Z</time>
      </trkpt>
      <trkpt lat="47.71001" lon="6.05521">
        <ele>261.55</ele>
        <time>2018-02-28T14:42:39Z</time>
      </trkpt>
      <trkpt lat="47.70995" lon="6.05522">
        <ele>261.6</ele>
        <time>2018-02-28T14:42:41Z</time>
      </trkpt>
      <trkpt lat="47.70987" lon="6.05519">
        <ele>261.91</ele>
        <time>2018-02-28T14:42:43Z</time>
      </trkpt>
      <trkpt lat="47.70977" lon="6.05517">
        <ele>262.17</ele>
        <time>2018-02-28T14:42:45Z</time>
      </trkpt>
      <trkpt lat="47.70973" lon="6.05516">
        <ele>262.27</ele>
        <time>2018-02-28T14:42:46Z</time>
      </trkpt>
      <trkpt lat="47.70968" lon="6.05514">
        <ele>262.35</ele>
        <time>2018-02-28T14:42:47Z</time>
      </trkpt>
      <trkpt lat="47.70962" lon="6.05512">
        <ele>262.41</ele>
        <time>2018-02-28T14:42:48Z</time>
      </trkpt>
      <trkpt lat="47.70957" lon="6.0551">
        <ele>262.46</ele>
        <time>2018-02-28T14:42:49Z</time>
      </trkpt>
      <trkpt lat="47.70951" lon="6.05508">
        <ele>262.51</ele>
        <time>2018-02-28T14:42:50Z</time>
      </trkpt>
      <trkpt lat="47.70945" lon="6.05504">
        <ele>262.55</ele>
        <time>2018-02-28T14:42:51Z</time>
      </trkpt>
      <trkpt lat="47.70939" lon="6.055">
        <ele>262.59</ele>
        <time>2018-02-28T14:42:52Z</time>
      </trkpt>
      <trkpt lat="47.70933" lon="6.05496">
        <ele>262.63</ele>
        <time>2018-02-28T14:42:53Z</time>
      </trkpt>
      <trkpt lat="47.70928" lon="6.05494">
        <ele>262.67</ele>
        <time>2018-02-28T14:42:54Z</time>
      </trkpt>
      <trkpt lat="47.70921" lon="6.05491">
        <ele>262.71</ele>
        <time>2018-02-28T14:42:55Z</time>
      </trkpt>
      <trkpt lat="47.70916" lon="6.05488">
        <ele>262.74</ele>
        <time>2018-02-28T14:42:56Z</time>
      </trkpt>
      <trkpt lat="47.70911" lon="6.05486">
        <ele>262.76</ele>
        <time>2018-02-28T14:42:57Z</time>
      </trkpt>
      <trkpt lat="47.70906" lon="6.05484">
        <ele>262.79</ele>
        <time>2018-02-28T14:42:58Z</time>
      </trkpt>
      <trkpt lat="47.70901" lon="6.05481">
        <ele>262.8</ele>
        <time>2018-02-28T14:42:59Z</time>
      </trkpt>
      <trkpt lat="47.70896" lon="6.05478">
        <ele>262.82</ele>
        <time>2018-02-28T14:43:00Z</time>
      </trkpt>
      <trkpt lat="47.7089" lon="6.05475">
        <ele>262.84</ele>
        <time>2018-02-28T14:43:01Z</time>
      </trkpt>
      <trkpt lat="47.70883" lon="6.05472">
        <ele>262.86</ele>
        <time>2018-02-28T14:43:02Z</time>
      </trkpt>
      <trkpt lat="47.70875" lon="6.05467">
        <ele>262.88</ele>
        <time>2018-02-28T14:43:03Z</time>
      </trkpt>
      <trkpt lat="47.70868" lon="6.05463">
        <ele>262.91</ele>
        <time>2018-02-28T14:43:04Z</time>
      </trkpt>
      <trkpt lat="47.70862" lon="6.0546">
        <ele>262.93</ele>
        <time>2018-02-28T14:43:05Z</time>
      </trkpt>
      <trkpt lat="47.70856" lon="6.05456">
        <ele>262.95</ele>
        <time>2018-02-28T14:43:06Z</time>
      </trkpt>
      <trkpt lat="47.70851" lon="6.05453">
        <ele>262.95</ele>
        <time>2018-02-28T14:43:07Z</time>
      </trkpt>
      <trkpt lat="47.70845" lon="6.05451">
        <ele>262.93</ele>
        <time>2018-02-28T14:43:08Z</time>
      </trkpt>
      <trkpt lat="47.70839" lon="6.05447">
        <ele>262.92</ele>
        <time>2018-02-28T14:43:09Z</time>
      </trkpt>
      <trkpt lat="47.70832" lon="6.05443">
        <ele>262.91</ele>
        <time>2018-02-28T14:43:10Z</time>
      </trkpt>
      <trkpt lat="47.70826" lon="6.0544">
        <ele>262.9</ele>
        <time>2018-02-28T14:43:11Z</time>
      </trkpt>
      <trkpt lat="47.70819" lon="6.05436">
        <ele>262.89</ele>
        <time>2018-02-28T14:43:12Z</time>
      </trkpt>
      <trkpt lat="47.70813" lon="6.05434">
        <ele>262.87</ele>
        <time>2018-02-28T14:43:13Z</time>
      </trkpt>
      <trkpt lat="47.70806" lon="6.0543">
        <ele>262.85</ele>
        <time>2018-02-28T14:43:14Z</time>
      </trkpt>
      <trkpt lat="47.708" lon="6.05427">
        <ele>262.83</ele>
        <time>2018-02-28T14:43:15Z</time>
      </trkpt>
      <trkpt lat="47.70794" lon="6.05423">
        <ele>262.8</ele>
        <time>2018-02-28T14:43:16Z</time>
      </trkpt>
      <trkpt lat="47.70787" lon="6.05419">
        <ele>262.78</ele>
        <time>2018-02-28T14:43:17Z</time>
      </trkpt>
      <trkpt lat="47.7078" lon="6.05417">
        <ele>262.75</ele>
        <time>2018-02-28T14:43:18Z</time>
      </trkpt>
      <trkpt lat="47.70774" lon="6.05415">
        <ele>262.71</ele>
        <time>2018-02-28T14:43:19Z</time>
      </trkpt>
      <trkpt lat="47.70767" lon="6.05413">
        <ele>262.67</ele>
        <time>2018-02-28T14:43:20Z</time>
      </trkpt>
      <trkpt lat="47.70761" lon="6.05412">
        <ele>262.62</ele>
        <time>2018-02-28T14:43:21Z</time>
      </trkpt>
      <trkpt lat="47.70755" lon="6.05411">
        <ele>262.57</ele>
        <time>2018-02-28T14:43:22Z</time>
      </trkpt>
      <trkpt lat="47.70751" lon="6.05411">
        <ele>262.51</ele>
        <time>2018-02-28T14:43:23Z</time>
      </trkpt>
      <trkpt lat="47.70746" lon="6.05411">
        <ele>262.45</ele>
        <time>2018-02-28T14:43:24Z</time>
      </trkpt>
      <trkpt lat="47.70741" lon="6.05411">
        <ele>262.39</ele>
        <time>2018-02-28T14:43:25Z</time>
      </trkpt>
      <trkpt lat="47.70732" lon="6.0541">
        <ele>262.27</ele>
        <time>2018-02-28T14:43:27Z</time>
      </trkpt>
      <trkpt lat="47.70728" lon="6.0541">
        <ele>262.21</ele>
        <time>2018-02-28T14:43:28Z</time>
      </trkpt>
      <trkpt lat="47.70723" lon="6.0541">
        <ele>262.14</ele>
        <time>2018-02-28T14:43:29Z</time>
      </trkpt>
      <trkpt lat="47.70719" lon="6.0541">
        <ele>262.07</ele>
        <time>2018-02-28T14:43:30Z</time>
      </trkpt>
      <trkpt lat="47.70713" lon="6.0541">
        <ele>262</ele>
        <time>2018-02-28T14:43:31Z</time>
      </trkpt>
      <trkpt lat="47.70708" lon="6.0541">
        <ele>261.93</ele>
        <time>2018-02-28T14:43:32Z</time>
      </trkpt>
      <trkpt lat="47.70704" lon="6.0541">
        <ele>261.86</ele>
        <time>2018-02-28T14:43:33Z</time>
      </trkpt>
      <trkpt lat="47.70695" lon="6.05411">
        <ele>261.76</ele>
        <time>2018-02-28T14:43:35Z</time>
      </trkpt>
      <trkpt lat="47.70688" lon="6.05412">
        <ele>261.73</ele>
        <time>2018-02-28T14:43:37Z</time>
      </trkpt>
      <trkpt lat="47.70681" lon="6.05412">
        <ele>261.7</ele>
        <time>2018-02-28T14:43:39Z</time>
      </trkpt>
      <trkpt lat="47.70673" lon="6.05411">
        <ele>261.66</ele>
        <time>2018-02-28T14:43:41Z</time>
      </trkpt>
      <trkpt lat="47.70665" lon="6.0541">
        <ele>261.63</ele>
        <time>2018-02-28T14:43:43Z</time>
      </trkpt>
      <trkpt lat="47.70659" lon="6.05408">
        <ele>261.59</ele>
        <time>2018-02-28T14:43:45Z</time>
      </trkpt>
      <trkpt lat="47.70651" lon="6.05407">
        <ele>261.54</ele>
        <time>2018-02-28T14:43:47Z</time>
      </trkpt>
      <trkpt lat="47.70644" lon="6.05407">
        <ele>261.49</ele>
        <time>2018-02-28T14:43:49Z</time>
      </trkpt>
      <trkpt lat="47.70639" lon="6.05407">
        <ele>261.46</ele>
        <time>2018-02-28T14:43:50Z</time>
      </trkpt>
      <trkpt lat="47.70634" lon="6.05406">
        <ele>261.43</ele>
        <time>2018-02-28T14:43:51Z</time>
      </trkpt>
      <trkpt lat="47.70626" lon="6.05405">
        <ele>261.38</ele>
        <time>2018-02-28T14:43:53Z</time>
      </trkpt>
      <trkpt lat="47.70619" lon="6.05403">
        <ele>261.32</ele>
        <time>2018-02-28T14:43:55Z</time>
      </trkpt>
      <trkpt lat="47.70612" lon="6.054">
        <ele>261.27</ele>
        <time>2018-02-28T14:43:57Z</time>
      </trkpt>
      <trkpt lat="47.70605" lon="6.05397">
        <ele>261.22</ele>
        <time>2018-02-28T14:43:59Z</time>
      </trkpt>
      <trkpt lat="47.70599" lon="6.05395">
        <ele>261.17</ele>
        <time>2018-02-28T14:44:01Z</time>
      </trkpt>
      <trkpt lat="47.70593" lon="6.05392">
        <ele>261.13</ele>
        <time>2018-02-28T14:44:03Z</time>
      </trkpt>
      <trkpt lat="47.70588" lon="6.05389">
        <ele>261.09</ele>
        <time>2018-02-28T14:44:05Z</time>
      </trkpt>
      <trkpt lat="47.70583" lon="6.05387">
        <ele>261.06</ele>
        <time>2018-02-28T14:44:07Z</time>
      </trkpt>
      <trkpt lat="47.70577" lon="6.05386">
        <ele>261.03</ele>
        <time>2018-02-28T14:44:09Z</time>
      </trkpt>
      <trkpt lat="47.70572" lon="6.05387">
        <ele>261</ele>
        <time>2018-02-28T14:44:11Z</time>
      </trkpt>
      <trkpt lat="47.70565" lon="6.05385">
        <ele>260.98</ele>
        <time>2018-02-28T14:44:13Z</time>
      </trkpt>
      <trkpt lat="47.7056" lon="6.05382">
        <ele>260.97</ele>
        <time>2018-02-28T14:44:14Z</time>
      </trkpt>
      <trkpt lat="47.70553" lon="6.05382">
        <ele>260.95</ele>
        <time>2018-02-28T14:44:16Z</time>
      </trkpt>
      <trkpt lat="47.70548" lon="6.05379">
        <ele>260.93</ele>
        <time>2018-02-28T14:44:19Z</time>
      </trkpt>
      <trkpt lat="47.70542" lon="6.05379">
        <ele>260.91</ele>
        <time>2018-02-28T14:44:21Z</time>
      </trkpt>
      <trkpt lat="47.70536" lon="6.05377">
        <ele>260.9</ele>
        <time>2018-02-28T14:44:23Z</time>
      </trkpt>
      <trkpt lat="47.70531" lon="6.05375">
        <ele>260.88</ele>
        <time>2018-02-28T14:44:25Z</time>
      </trkpt>
      <trkpt lat="47.70527" lon="6.05374">
        <ele>260.87</ele>
        <time>2018-02-28T14:44:26Z</time>
      </trkpt>
      <trkpt lat="47.7052" lon="6.05372">
        <ele>260.85</ele>
        <time>2018-02-28T14:44:28Z</time>
      </trkpt>
      <trkpt lat="47.70516" lon="6.0537">
        <ele>260.84</ele>
        <time>2018-02-28T14:44:29Z</time>
      </trkpt>
      <trkpt lat="47.7051" lon="6.05367">
        <ele>260.83</ele>
        <time>2018-02-28T14:44:31Z</time>
      </trkpt>
      <trkpt lat="47.70505" lon="6.05363">
        <ele>260.81</ele>
        <time>2018-02-28T14:44:33Z</time>
      </trkpt>
      <trkpt lat="47.70501" lon="6.0536">
        <ele>260.8</ele>
        <time>2018-02-28T14:44:34Z</time>
      </trkpt>
      <trkpt lat="47.70497" lon="6.05358">
        <ele>260.8</ele>
        <time>2018-02-28T14:44:35Z</time>
      </trkpt>
      <trkpt lat="47.70493" lon="6.05354">
        <ele>260.79</ele>
        <time>2018-02-28T14:44:36Z</time>
      </trkpt>
      <trkpt lat="47.70487" lon="6.05349">
        <ele>260.78</ele>
        <time>2018-02-28T14:44:38Z</time>
      </trkpt>
      <trkpt lat="47.70482" lon="6.05343">
        <ele>260.77</ele>
        <time>2018-02-28T14:44:40Z</time>
      </trkpt>
      <trkpt lat="47.70477" lon="6.05335">
        <ele>260.76</ele>
        <time>2018-02-28T14:44:42Z</time>
      </trkpt>
      <trkpt lat="47.70472" lon="6.05327">
        <ele>260.75</ele>
        <time>2018-02-28T14:44:44Z</time>
      </trkpt>
      <trkpt lat="47.70465" lon="6.05318">
        <ele>260.74</ele>
        <time>2018-02-28T14:44:46Z</time>
      </trkpt>
      <trkpt lat="47.70459" lon="6.05312">
        <ele>260.74</ele>
        <time>2018-02-28T14:44:48Z</time>
      </trkpt>
      <trkpt lat="47.70452" lon="6.05305">
        <ele>260.74</ele>
        <time>2018-02-28T14:44:50Z</time>
      </trkpt>
      <trkpt lat="47.70446" lon="6.05302">
        <ele>260.75</ele>
        <time>2018-02-28T14:44:52Z</time>
      </trkpt>
      <trkpt lat="47.70441" lon="6.053">
        <ele>260.76</ele>
        <time>2018-02-28T14:44:54Z</time>
      </trkpt>
      <trkpt lat="47.70435" lon="6.05297">
        <ele>260.77</ele>
        <time>2018-02-28T14:44:56Z</time>
      </trkpt>
      <trkpt lat="47.70429" lon="6.05295">
        <ele>260.78</ele>
        <time>2018-02-28T14:44:58Z</time>
      </trkpt>
      <trkpt lat="47.70421" lon="6.05294">
        <ele>260.79</ele>
        <time>2018-02-28T14:45:00Z</time>
      </trkpt>
      <trkpt lat="47.70413" lon="6.05289">
        <ele>260.8</ele>
        <time>2018-02-28T14:45:02Z</time>
      </trkpt>
      <trkpt lat="47.70407" lon="6.05286">
        <ele>260.82</ele>
        <time>2018-02-28T14:45:04Z</time>
      </trkpt>
      <trkpt lat="47.704" lon="6.05284">
        <ele>260.84</ele>
        <time>2018-02-28T14:45:06Z</time>
      </trkpt>
      <trkpt lat="47.7039" lon="6.05281">
        <ele>260.86</ele>
        <time>2018-02-28T14:45:09Z</time>
      </trkpt>
      <trkpt lat="47.70384" lon="6.05281">
        <ele>260.89</ele>
        <time>2018-02-28T14:45:11Z</time>
      </trkpt>
      <trkpt lat="47.70377" lon="6.05279">
        <ele>260.91</ele>
        <time>2018-02-28T14:45:13Z</time>
      </trkpt>
      <trkpt lat="47.7037" lon="6.05278">
        <ele>260.92</ele>
        <time>2018-02-28T14:45:15Z</time>
      </trkpt>
      <trkpt lat="47.70363" lon="6.05278">
        <ele>260.94</ele>
        <time>2018-02-28T14:45:17Z</time>
      </trkpt>
      <trkpt lat="47.70356" lon="6.05279">
        <ele>260.95</ele>
        <time>2018-02-28T14:45:19Z</time>
      </trkpt>
      <trkpt lat="47.70349" lon="6.05279">
        <ele>260.96</ele>
        <time>2018-02-28T14:45:21Z</time>
      </trkpt>
      <trkpt lat="47.70343" lon="6.05278">
        <ele>260.97</ele>
        <time>2018-02-28T14:45:23Z</time>
      </trkpt>
      <trkpt lat="47.70335" lon="6.05277">
        <ele>260.97</ele>
        <time>2018-02-28T14:45:25Z</time>
      </trkpt>
      <trkpt lat="47.70327" lon="6.05277">
        <ele>260.99</ele>
        <time>2018-02-28T14:45:27Z</time>
      </trkpt>
      <trkpt lat="47.70319" lon="6.05276">
        <ele>260.99</ele>
        <time>2018-02-28T14:45:29Z</time>
      </trkpt>
      <trkpt lat="47.7031" lon="6.05276">
        <ele>260.95</ele>
        <time>2018-02-28T14:45:31Z</time>
      </trkpt>
      <trkpt lat="47.70305" lon="6.05276">
        <ele>260.92</ele>
        <time>2018-02-28T14:45:32Z</time>
      </trkpt>
      <trkpt lat="47.703" lon="6.05277">
        <ele>260.87</ele>
        <time>2018-02-28T14:45:33Z</time>
      </trkpt>
      <trkpt lat="47.70294" lon="6.05277">
        <ele>260.83</ele>
        <time>2018-02-28T14:45:34Z</time>
      </trkpt>
      <trkpt lat="47.70287" lon="6.05277">
        <ele>260.77</ele>
        <time>2018-02-28T14:45:35Z</time>
      </trkpt>
      <trkpt lat="47.70282" lon="6.05278">
        <ele>260.71</ele>
        <time>2018-02-28T14:45:36Z</time>
      </trkpt>
      <trkpt lat="47.70277" lon="6.05278">
        <ele>260.66</ele>
        <time>2018-02-28T14:45:37Z</time>
      </trkpt>
      <trkpt lat="47.70272" lon="6.05278">
        <ele>260.6</ele>
        <time>2018-02-28T14:45:38Z</time>
      </trkpt>
      <trkpt lat="47.70267" lon="6.05278">
        <ele>260.55</ele>
        <time>2018-02-28T14:45:39Z</time>
      </trkpt>
      <trkpt lat="47.70262" lon="6.05277">
        <ele>260.5</ele>
        <time>2018-02-28T14:45:40Z</time>
      </trkpt>
      <trkpt lat="47.70256" lon="6.05277">
        <ele>260.46</ele>
        <time>2018-02-28T14:45:41Z</time>
      </trkpt>
      <trkpt lat="47.70249" lon="6.05277">
        <ele>260.41</ele>
        <time>2018-02-28T14:45:42Z</time>
      </trkpt>
      <trkpt lat="47.70243" lon="6.05278">
        <ele>260.36</ele>
        <time>2018-02-28T14:45:43Z</time>
      </trkpt>
      <trkpt lat="47.70237" lon="6.05279">
        <ele>260.32</ele>
        <time>2018-02-28T14:45:44Z</time>
      </trkpt>
      <trkpt lat="47.70232" lon="6.05281">
        <ele>260.28</ele>
        <time>2018-02-28T14:45:45Z</time>
      </trkpt>
      <trkpt lat="47.70227" lon="6.05282">
        <ele>260.24</ele>
        <time>2018-02-28T14:45:46Z</time>
      </trkpt>
      <trkpt lat="47.70221" lon="6.05284">
        <ele>260.2</ele>
        <time>2018-02-28T14:45:47Z</time>
      </trkpt>
      <trkpt lat="47.70214" lon="6.05288">
        <ele>260.17</ele>
        <time>2018-02-28T14:45:48Z</time>
      </trkpt>
      <trkpt lat="47.70208" lon="6.05294">
        <ele>260.14</ele>
        <time>2018-02-28T14:45:49Z</time>
      </trkpt>
      <trkpt lat="47.70202" lon="6.05301">
        <ele>260.09</ele>
        <time>2018-02-28T14:45:50Z</time>
      </trkpt>
      <trkpt lat="47.70197" lon="6.05308">
        <ele>260.03</ele>
        <time>2018-02-28T14:45:51Z</time>
      </trkpt>
      <trkpt lat="47.70191" lon="6.05314">
        <ele>259.97</ele>
        <time>2018-02-28T14:45:52Z</time>
      </trkpt>
      <trkpt lat="47.70185" lon="6.05319">
        <ele>259.9</ele>
        <time>2018-02-28T14:45:53Z</time>
      </trkpt>
      <trkpt lat="47.7018" lon="6.05323">
        <ele>259.8</ele>
        <time>2018-02-28T14:45:54Z</time>
      </trkpt>
      <trkpt lat="47.70174" lon="6.05326">
        <ele>259.72</ele>
        <time>2018-02-28T14:45:55Z</time>
      </trkpt>
      <trkpt lat="47.70169" lon="6.05329">
        <ele>259.62</ele>
        <time>2018-02-28T14:45:56Z</time>
      </trkpt>
      <trkpt lat="47.70164" lon="6.05332">
        <ele>259.52</ele>
        <time>2018-02-28T14:45:57Z</time>
      </trkpt>
      <trkpt lat="47.7016" lon="6.05335">
        <ele>259.41</ele>
        <time>2018-02-28T14:45:58Z</time>
      </trkpt>
      <trkpt lat="47.70155" lon="6.05337">
        <ele>259.31</ele>
        <time>2018-02-28T14:45:59Z</time>
      </trkpt>
      <trkpt lat="47.70147" lon="6.05341">
        <ele>259.11</ele>
        <time>2018-02-28T14:46:01Z</time>
      </trkpt>
      <trkpt lat="47.70143" lon="6.05344">
        <ele>259</ele>
        <time>2018-02-28T14:46:02Z</time>
      </trkpt>
      <trkpt lat="47.70135" lon="6.05348">
        <ele>258.8</ele>
        <time>2018-02-28T14:46:04Z</time>
      </trkpt>
      <trkpt lat="47.70128" lon="6.05352">
        <ele>258.64</ele>
        <time>2018-02-28T14:46:06Z</time>
      </trkpt>
      <trkpt lat="47.70121" lon="6.05356">
        <ele>258.6</ele>
        <time>2018-02-28T14:46:08Z</time>
      </trkpt>
      <trkpt lat="47.70114" lon="6.05359">
        <ele>258.58</ele>
        <time>2018-02-28T14:46:10Z</time>
      </trkpt>
      <trkpt lat="47.70108" lon="6.05361">
        <ele>258.56</ele>
        <time>2018-02-28T14:46:12Z</time>
      </trkpt>
      <trkpt lat="47.70101" lon="6.05365">
        <ele>258.53</ele>
        <time>2018-02-28T14:46:14Z</time>
      </trkpt>
      <trkpt lat="47.70095" lon="6.05367">
        <ele>258.5</ele>
        <time>2018-02-28T14:46:16Z</time>
      </trkpt>
      <trkpt lat="47.70089" lon="6.05369">
        <ele>258.46</ele>
        <time>2018-02-28T14:46:18Z</time>
      </trkpt>
      <trkpt lat="47.70083" lon="6.05371">
        <ele>258.42</ele>
        <time>2018-02-28T14:46:20Z</time>
      </trkpt>
      <trkpt lat="47.70076" lon="6.05372">
        <ele>258.38</ele>
        <time>2018-02-28T14:46:22Z</time>
      </trkpt>
      <trkpt lat="47.70069" lon="6.05374">
        <ele>258.07</ele>
        <time>2018-02-28T14:46:24Z</time>
      </trkpt>
      <trkpt lat="47.70061" lon="6.05375">
        <ele>257.86</ele>
        <time>2018-02-28T14:46:26Z</time>
      </trkpt>
      <trkpt lat="47.70053" lon="6.05375">
        <ele>257.83</ele>
        <time>2018-02-28T14:46:28Z</time>
      </trkpt>
      <trkpt lat="47.70046" lon="6.05375">
        <ele>257.81</ele>
        <time>2018-02-28T14:46:30Z</time>
      </trkpt>
      <trkpt lat="47.70039" lon="6.05376">
        <ele>257.78</ele>
        <time>2018-02-28T14:46:32Z</time>
      </trkpt>
      <trkpt lat="47.70033" lon="6.05377">
        <ele>257.75</ele>
        <time>2018-02-28T14:46:34Z</time>
      </trkpt>
      <trkpt lat="47.70026" lon="6.05377">
        <ele>257.7</ele>
        <time>2018-02-28T14:46:36Z</time>
      </trkpt>
      <trkpt lat="47.70021" lon="6.05378">
        <ele>257.66</ele>
        <time>2018-02-28T14:46:38Z</time>
      </trkpt>
      <trkpt lat="47.70016" lon="6.05378">
        <ele>257.61</ele>
        <time>2018-02-28T14:46:40Z</time>
      </trkpt>
      <trkpt lat="47.70009" lon="6.05378">
        <ele>257.53</ele>
        <time>2018-02-28T14:46:43Z</time>
      </trkpt>
      <trkpt lat="47.70003" lon="6.05378">
        <ele>257.48</ele>
        <time>2018-02-28T14:46:45Z</time>
      </trkpt>
      <trkpt lat="47.69997" lon="6.05379">
        <ele>257.44</ele>
        <time>2018-02-28T14:46:47Z</time>
      </trkpt>
      <trkpt lat="47.69992" lon="6.0538">
        <ele>257.39</ele>
        <time>2018-02-28T14:46:49Z</time>
      </trkpt>
      <trkpt lat="47.69987" lon="6.05381">
        <ele>257.35</ele>
        <time>2018-02-28T14:46:51Z</time>
      </trkpt>
      <trkpt lat="47.69982" lon="6.05382">
        <ele>257.31</ele>
        <time>2018-02-28T14:46:53Z</time>
      </trkpt>
      <trkpt lat="47.69976" lon="6.05383">
        <ele>257.27</ele>
        <time>2018-02-28T14:46:55Z</time>
      </trkpt>
      <trkpt lat="47.6997" lon="6.05384">
        <ele>257.22</ele>
        <time>2018-02-28T14:46:57Z</time>
      </trkpt>
      <trkpt lat="47.69963" lon="6.05386">
        <ele>257.18</ele>
        <time>2018-02-28T14:46:59Z</time>
      </trkpt>
      <trkpt lat="47.69957" lon="6.05389">
        <ele>256.97</ele>
        <time>2018-02-28T14:47:01Z</time>
      </trkpt>
      <trkpt lat="47.69949" lon="6.05393">
        <ele>256.58</ele>
        <time>2018-02-28T14:47:03Z</time>
      </trkpt>
      <trkpt lat="47.69941" lon="6.05395">
        <ele>256.3</ele>
        <time>2018-02-28T14:47:05Z</time>
      </trkpt>
      <trkpt lat="47.69936" lon="6.05397">
        <ele>256.2</ele>
        <time>2018-02-28T14:47:06Z</time>
      </trkpt>
      <trkpt lat="47.69932" lon="6.05399">
        <ele>256.11</ele>
        <time>2018-02-28T14:47:07Z</time>
      </trkpt>
      <trkpt lat="47.69927" lon="6.05401">
        <ele>256.03</ele>
        <time>2018-02-28T14:47:08Z</time>
      </trkpt>
      <trkpt lat="47.69923" lon="6.05403">
        <ele>255.96</ele>
        <time>2018-02-28T14:47:09Z</time>
      </trkpt>
      <trkpt lat="47.69914" lon="6.05406">
        <ele>255.83</ele>
        <time>2018-02-28T14:47:11Z</time>
      </trkpt>
      <trkpt lat="47.6991" lon="6.05408">
        <ele>255.78</ele>
        <time>2018-02-28T14:47:12Z</time>
      </trkpt>
      <trkpt lat="47.69905" lon="6.0541">
        <ele>255.72</ele>
        <time>2018-02-28T14:47:13Z</time>
      </trkpt>
      <trkpt lat="47.699" lon="6.05413">
        <ele>255.67</ele>
        <time>2018-02-28T14:47:14Z</time>
      </trkpt>
      <trkpt lat="47.69895" lon="6.05415">
        <ele>255.62</ele>
        <time>2018-02-28T14:47:15Z</time>
      </trkpt>
      <trkpt lat="47.69891" lon="6.05418">
        <ele>255.57</ele>
        <time>2018-02-28T14:47:16Z</time>
      </trkpt>
      <trkpt lat="47.69886" lon="6.05419">
        <ele>255.52</ele>
        <time>2018-02-28T14:47:17Z</time>
      </trkpt>
      <trkpt lat="47.69881" lon="6.0542">
        <ele>255.47</ele>
        <time>2018-02-28T14:47:18Z</time>
      </trkpt>
      <trkpt lat="47.69876" lon="6.05421">
        <ele>255.41</ele>
        <time>2018-02-28T14:47:19Z</time>
      </trkpt>
      <trkpt lat="47.6987" lon="6.05422">
        <ele>255.35</ele>
        <time>2018-02-28T14:47:20Z</time>
      </trkpt>
      <trkpt lat="47.69865" lon="6.05424">
        <ele>255.29</ele>
        <time>2018-02-28T14:47:21Z</time>
      </trkpt>
      <trkpt lat="47.69859" lon="6.05427">
        <ele>255.22</ele>
        <time>2018-02-28T14:47:22Z</time>
      </trkpt>
      <trkpt lat="47.69853" lon="6.05428">
        <ele>255.16</ele>
        <time>2018-02-28T14:47:23Z</time>
      </trkpt>
      <trkpt lat="47.69846" lon="6.05431">
        <ele>255.1</ele>
        <time>2018-02-28T14:47:24Z</time>
      </trkpt>
      <trkpt lat="47.69839" lon="6.05432">
        <ele>255.04</ele>
        <time>2018-02-28T14:47:25Z</time>
      </trkpt>
      <trkpt lat="47.69831" lon="6.05434">
        <ele>254.99</ele>
        <time>2018-02-28T14:47:26Z</time>
      </trkpt>
      <trkpt lat="47.69822" lon="6.05436">
        <ele>254.92</ele>
        <time>2018-02-28T14:47:27Z</time>
      </trkpt>
      <trkpt lat="47.69813" lon="6.05438">
        <ele>254.85</ele>
        <time>2018-02-28T14:47:28Z</time>
      </trkpt>
      <trkpt lat="47.69804" lon="6.05437">
        <ele>254.79</ele>
        <time>2018-02-28T14:47:29Z</time>
      </trkpt>
      <trkpt lat="47.69795" lon="6.05438">
        <ele>254.7</ele>
        <time>2018-02-28T14:47:30Z</time>
      </trkpt>
      <trkpt lat="47.69787" lon="6.05441">
        <ele>254.6</ele>
        <time>2018-02-28T14:47:31Z</time>
      </trkpt>
      <trkpt lat="47.6978" lon="6.05444">
        <ele>254.49</ele>
        <time>2018-02-28T14:47:32Z</time>
      </trkpt>
      <trkpt lat="47.69774" lon="6.05452">
        <ele>254.43</ele>
        <time>2018-02-28T14:47:33Z</time>
      </trkpt>
      <trkpt lat="47.69769" lon="6.05459">
        <ele>254.38</ele>
        <time>2018-02-28T14:47:34Z</time>
      </trkpt>
      <trkpt lat="47.69764" lon="6.05465">
        <ele>254.32</ele>
        <time>2018-02-28T14:47:35Z</time>
      </trkpt>
      <trkpt lat="47.69759" lon="6.05471">
        <ele>254.23</ele>
        <time>2018-02-28T14:47:36Z</time>
      </trkpt>
      <trkpt lat="47.69756" lon="6.05477">
        <ele>254.15</ele>
        <time>2018-02-28T14:47:37Z</time>
      </trkpt>
      <trkpt lat="47.69749" lon="6.05485">
        <ele>253.98</ele>
        <time>2018-02-28T14:47:39Z</time>
      </trkpt>
      <trkpt lat="47.69744" lon="6.05494">
        <ele>253.93</ele>
        <time>2018-02-28T14:47:41Z</time>
      </trkpt>
      <trkpt lat="47.69739" lon="6.05501">
        <ele>253.9</ele>
        <time>2018-02-28T14:47:43Z</time>
      </trkpt>
      <trkpt lat="47.69736" lon="6.05507">
        <ele>253.88</ele>
        <time>2018-02-28T14:47:45Z</time>
      </trkpt>
      <trkpt lat="47.69731" lon="6.05513">
        <ele>253.88</ele>
        <time>2018-02-28T14:47:47Z</time>
      </trkpt>
      <trkpt lat="47.69726" lon="6.05519">
        <ele>253.87</ele>
        <time>2018-02-28T14:47:49Z</time>
      </trkpt>
      <trkpt lat="47.69721" lon="6.05526">
        <ele>253.86</ele>
        <time>2018-02-28T14:47:51Z</time>
      </trkpt>
      <trkpt lat="47.69716" lon="6.05533">
        <ele>253.86</ele>
        <time>2018-02-28T14:47:53Z</time>
      </trkpt>
      <trkpt lat="47.69711" lon="6.05538">
        <ele>253.83</ele>
        <time>2018-02-28T14:47:55Z</time>
      </trkpt>
      <trkpt lat="47.69706" lon="6.05543">
        <ele>253.79</ele>
        <time>2018-02-28T14:47:57Z</time>
      </trkpt>
      <trkpt lat="47.69701" lon="6.05549">
        <ele>253.74</ele>
        <time>2018-02-28T14:47:59Z</time>
      </trkpt>
      <trkpt lat="47.69696" lon="6.05553">
        <ele>253.68</ele>
        <time>2018-02-28T14:48:01Z</time>
      </trkpt>
      <trkpt lat="47.69691" lon="6.05558">
        <ele>253.62</ele>
        <time>2018-02-28T14:48:03Z</time>
      </trkpt>
      <trkpt lat="47.69686" lon="6.05563">
        <ele>253.56</ele>
        <time>2018-02-28T14:48:05Z</time>
      </trkpt>
      <trkpt lat="47.69681" lon="6.05566">
        <ele>253.5</ele>
        <time>2018-02-28T14:48:07Z</time>
      </trkpt>
      <trkpt lat="47.69675" lon="6.0557">
        <ele>253.45</ele>
        <time>2018-02-28T14:48:09Z</time>
      </trkpt>
      <trkpt lat="47.6967" lon="6.05573">
        <ele>253.39</ele>
        <time>2018-02-28T14:48:11Z</time>
      </trkpt>
      <trkpt lat="47.69665" lon="6.05576">
        <ele>253.33</ele>
        <time>2018-02-28T14:48:13Z</time>
      </trkpt>
      <trkpt lat="47.6966" lon="6.05578">
        <ele>253.28</ele>
        <time>2018-02-28T14:48:15Z</time>
      </trkpt>
      <trkpt lat="47.69655" lon="6.0558">
        <ele>253.22</ele>
        <time>2018-02-28T14:48:17Z</time>
      </trkpt>
      <trkpt lat="47.6965" lon="6.0558">
        <ele>253.16</ele>
        <time>2018-02-28T14:48:19Z</time>
      </trkpt>
      <trkpt lat="47.69646" lon="6.05581">
        <ele>253.1</ele>
        <time>2018-02-28T14:48:21Z</time>
      </trkpt>
      <trkpt lat="47.69641" lon="6.05581">
        <ele>253.03</ele>
        <time>2018-02-28T14:48:23Z</time>
      </trkpt>
      <trkpt lat="47.69636" lon="6.05579">
        <ele>252.97</ele>
        <time>2018-02-28T14:48:25Z</time>
      </trkpt>
      <trkpt lat="47.69631" lon="6.05577">
        <ele>252.89</ele>
        <time>2018-02-28T14:48:27Z</time>
      </trkpt>
      <trkpt lat="47.69627" lon="6.05575">
        <ele>252.81</ele>
        <time>2018-02-28T14:48:29Z</time>
      </trkpt>
      <trkpt lat="47.69622" lon="6.05572">
        <ele>252.73</ele>
        <time>2018-02-28T14:48:31Z</time>
      </trkpt>
      <trkpt lat="47.69617" lon="6.05569">
        <ele>252.64</ele>
        <time>2018-02-28T14:48:33Z</time>
      </trkpt>
      <trkpt lat="47.69612" lon="6.05566">
        <ele>252.55</ele>
        <time>2018-02-28T14:48:35Z</time>
      </trkpt>
      <trkpt lat="47.69608" lon="6.05563">
        <ele>252.46</ele>
        <time>2018-02-28T14:48:37Z</time>
      </trkpt>
      <trkpt lat="47.69603" lon="6.0556">
        <ele>252.38</ele>
        <time>2018-02-28T14:48:39Z</time>
      </trkpt>
      <trkpt lat="47.69599" lon="6.05556">
        <ele>252.3</ele>
        <time>2018-02-28T14:48:41Z</time>
      </trkpt>
      <trkpt lat="47.69594" lon="6.05552">
        <ele>252.22</ele>
        <time>2018-02-28T14:48:43Z</time>
      </trkpt>
      <trkpt lat="47.6959" lon="6.05547">
        <ele>252.14</ele>
        <time>2018-02-28T14:48:45Z</time>
      </trkpt>
      <trkpt lat="47.69586" lon="6.05544">
        <ele>252.07</ele>
        <time>2018-02-28T14:48:47Z</time>
      </trkpt>
      <trkpt lat="47.69581" lon="6.0554">
        <ele>252.01</ele>
        <time>2018-02-28T14:48:49Z</time>
      </trkpt>
      <trkpt lat="47.69576" lon="6.05538">
        <ele>251.94</ele>
        <time>2018-02-28T14:48:51Z</time>
      </trkpt>
      <trkpt lat="47.69572" lon="6.05537">
        <ele>251.88</ele>
        <time>2018-02-28T14:48:53Z</time>
      </trkpt>
      <trkpt lat="47.69567" lon="6.05536">
        <ele>251.83</ele>
        <time>2018-02-28T14:48:55Z</time>
      </trkpt>
      <trkpt lat="47.69561" lon="6.05534">
        <ele>251.77</ele>
        <time>2018-02-28T14:48:57Z</time>
      </trkpt>
      <trkpt lat="47.69557" lon="6.05532">
        <ele>251.72</ele>
        <time>2018-02-28T14:48:59Z</time>
      </trkpt>
      <trkpt lat="47.69552" lon="6.05532">
        <ele>251.67</ele>
        <time>2018-02-28T14:49:01Z</time>
      </trkpt>
      <trkpt lat="47.69548" lon="6.05531">
        <ele>251.62</ele>
        <time>2018-02-28T14:49:03Z</time>
      </trkpt>
      <trkpt lat="47.69541" lon="6.05531">
        <ele>251.55</ele>
        <time>2018-02-28T14:49:06Z</time>
      </trkpt>
      <trkpt lat="47.69537" lon="6.05531">
        <ele>251.51</ele>
        <time>2018-02-28T14:49:08Z</time>
      </trkpt>
      <trkpt lat="47.69531" lon="6.05529">
        <ele>251.44</ele>
        <time>2018-02-28T14:49:11Z</time>
      </trkpt>
      <trkpt lat="47.69525" lon="6.05526">
        <ele>251.38</ele>
        <time>2018-02-28T14:49:14Z</time>
      </trkpt>
      <trkpt lat="47.69519" lon="6.05523">
        <ele>251.47</ele>
        <time>2018-02-28T14:49:55Z</time>
      </trkpt>
      <trkpt lat="47.69513" lon="6.05518">
        <ele>251.51</ele>
        <time>2018-02-28T14:49:57Z</time>
      </trkpt>
      <trkpt lat="47.69507" lon="6.05512">
        <ele>251.56</ele>
        <time>2018-02-28T14:49:59Z</time>
      </trkpt>
      <trkpt lat="47.69501" lon="6.05506">
        <ele>251.7</ele>
        <time>2018-02-28T14:50:01Z</time>
      </trkpt>
      <trkpt lat="47.69494" lon="6.05499">
        <ele>251.93</ele>
        <time>2018-02-28T14:50:03Z</time>
      </trkpt>
      <trkpt lat="47.69489" lon="6.05496">
        <ele>252</ele>
        <time>2018-02-28T14:50:04Z</time>
      </trkpt>
      <trkpt lat="47.69485" lon="6.05493">
        <ele>252.06</ele>
        <time>2018-02-28T14:50:05Z</time>
      </trkpt>
      <trkpt lat="47.6948" lon="6.05489">
        <ele>252.1</ele>
        <time>2018-02-28T14:50:06Z</time>
      </trkpt>
      <trkpt lat="47.69475" lon="6.05484">
        <ele>252.12</ele>
        <time>2018-02-28T14:50:07Z</time>
      </trkpt>
      <trkpt lat="47.6947" lon="6.0548">
        <ele>252.12</ele>
        <time>2018-02-28T14:50:08Z</time>
      </trkpt>
      <trkpt lat="47.69464" lon="6.05475">
        <ele>252.12</ele>
        <time>2018-02-28T14:50:09Z</time>
      </trkpt>
      <trkpt lat="47.69459" lon="6.05471">
        <ele>252.1</ele>
        <time>2018-02-28T14:50:10Z</time>
      </trkpt>
      <trkpt lat="47.69454" lon="6.05467">
        <ele>252.08</ele>
        <time>2018-02-28T14:50:11Z</time>
      </trkpt>
      <trkpt lat="47.69449" lon="6.05462">
        <ele>252.06</ele>
        <time>2018-02-28T14:50:12Z</time>
      </trkpt>
      <trkpt lat="47.69443" lon="6.05458">
        <ele>252.03</ele>
        <time>2018-02-28T14:50:13Z</time>
      </trkpt>
      <trkpt lat="47.69438" lon="6.05453">
        <ele>252</ele>
        <time>2018-02-28T14:50:14Z</time>
      </trkpt>
      <trkpt lat="47.69433" lon="6.05449">
        <ele>251.97</ele>
        <time>2018-02-28T14:50:15Z</time>
      </trkpt>
      <trkpt lat="47.69428" lon="6.05444">
        <ele>251.94</ele>
        <time>2018-02-28T14:50:16Z</time>
      </trkpt>
      <trkpt lat="47.69423" lon="6.0544">
        <ele>251.9</ele>
        <time>2018-02-28T14:50:17Z</time>
      </trkpt>
      <trkpt lat="47.69418" lon="6.05435">
        <ele>251.86</ele>
        <time>2018-02-28T14:50:18Z</time>
      </trkpt>
      <trkpt lat="47.69413" lon="6.0543">
        <ele>251.81</ele>
        <time>2018-02-28T14:50:19Z</time>
      </trkpt>
      <trkpt lat="47.69409" lon="6.05426">
        <ele>251.76</ele>
        <time>2018-02-28T14:50:20Z</time>
      </trkpt>
      <trkpt lat="47.69404" lon="6.05422">
        <ele>251.71</ele>
        <time>2018-02-28T14:50:21Z</time>
      </trkpt>
      <trkpt lat="47.694" lon="6.05418">
        <ele>251.66</ele>
        <time>2018-02-28T14:50:22Z</time>
      </trkpt>
      <trkpt lat="47.69396" lon="6.05415">
        <ele>251.61</ele>
        <time>2018-02-28T14:50:23Z</time>
      </trkpt>
      <trkpt lat="47.69392" lon="6.05412">
        <ele>251.56</ele>
        <time>2018-02-28T14:50:24Z</time>
      </trkpt>
      <trkpt lat="47.69387" lon="6.05408">
        <ele>251.51</ele>
        <time>2018-02-28T14:50:25Z</time>
      </trkpt>
      <trkpt lat="47.69382" lon="6.05404">
        <ele>251.45</ele>
        <time>2018-02-28T14:50:26Z</time>
      </trkpt>
      <trkpt lat="47.69377" lon="6.054">
        <ele>251.39</ele>
        <time>2018-02-28T14:50:27Z</time>
      </trkpt>
      <trkpt lat="47.69372" lon="6.05397">
        <ele>251.33</ele>
        <time>2018-02-28T14:50:28Z</time>
      </trkpt>
      <trkpt lat="47.69367" lon="6.05393">
        <ele>251.27</ele>
        <time>2018-02-28T14:50:29Z</time>
      </trkpt>
      <trkpt lat="47.69361" lon="6.05388">
        <ele>251.2</ele>
        <time>2018-02-28T14:50:30Z</time>
      </trkpt>
      <trkpt lat="47.69356" lon="6.05384">
        <ele>251.14</ele>
        <time>2018-02-28T14:50:31Z</time>
      </trkpt>
      <trkpt lat="47.69351" lon="6.0538">
        <ele>251.06</ele>
        <time>2018-02-28T14:50:32Z</time>
      </trkpt>
      <trkpt lat="47.69346" lon="6.05376">
        <ele>250.96</ele>
        <time>2018-02-28T14:50:33Z</time>
      </trkpt>
      <trkpt lat="47.69341" lon="6.05372">
        <ele>250.86</ele>
        <time>2018-02-28T14:50:34Z</time>
      </trkpt>
      <trkpt lat="47.69336" lon="6.05367">
        <ele>250.77</ele>
        <time>2018-02-28T14:50:35Z</time>
      </trkpt>
      <trkpt lat="47.6933" lon="6.05363">
        <ele>250.68</ele>
        <time>2018-02-28T14:50:36Z</time>
      </trkpt>
      <trkpt lat="47.69325" lon="6.05359">
        <ele>250.61</ele>
        <time>2018-02-28T14:50:37Z</time>
      </trkpt>
      <trkpt lat="47.6932" lon="6.05355">
        <ele>250.54</ele>
        <time>2018-02-28T14:50:38Z</time>
      </trkpt>
      <trkpt lat="47.69315" lon="6.05352">
        <ele>250.48</ele>
        <time>2018-02-28T14:50:39Z</time>
      </trkpt>
      <trkpt lat="47.69311" lon="6.05348">
        <ele>250.42</ele>
        <time>2018-02-28T14:50:40Z</time>
      </trkpt>
      <trkpt lat="47.69307" lon="6.05345">
        <ele>250.37</ele>
        <time>2018-02-28T14:50:41Z</time>
      </trkpt>
      <trkpt lat="47.69303" lon="6.05341">
        <ele>250.31</ele>
        <time>2018-02-28T14:50:42Z</time>
      </trkpt>
      <trkpt lat="47.69299" lon="6.05337">
        <ele>250.26</ele>
        <time>2018-02-28T14:50:43Z</time>
      </trkpt>
      <trkpt lat="47.69294" lon="6.05334">
        <ele>250.21</ele>
        <time>2018-02-28T14:50:44Z</time>
      </trkpt>
      <trkpt lat="47.69286" lon="6.05329">
        <ele>250.04</ele>
        <time>2018-02-28T14:50:46Z</time>
      </trkpt>
      <trkpt lat="47.69282" lon="6.05325">
        <ele>249.94</ele>
        <time>2018-02-28T14:50:47Z</time>
      </trkpt>
      <trkpt lat="47.69277" lon="6.05322">
        <ele>249.84</ele>
        <time>2018-02-28T14:50:48Z</time>
      </trkpt>
      <trkpt lat="47.69272" lon="6.05318">
        <ele>249.76</ele>
        <time>2018-02-28T14:50:49Z</time>
      </trkpt>
      <trkpt lat="47.69269" lon="6.05314">
        <ele>249.67</ele>
        <time>2018-02-28T14:50:50Z</time>
      </trkpt>
      <trkpt lat="47.69264" lon="6.05311">
        <ele>249.58</ele>
        <time>2018-02-28T14:50:51Z</time>
      </trkpt>
      <trkpt lat="47.6926" lon="6.05307">
        <ele>249.48</ele>
        <time>2018-02-28T14:50:52Z</time>
      </trkpt>
      <trkpt lat="47.69256" lon="6.05303">
        <ele>249.38</ele>
        <time>2018-02-28T14:50:53Z</time>
      </trkpt>
      <trkpt lat="47.69251" lon="6.05299">
        <ele>249.28</ele>
        <time>2018-02-28T14:50:54Z</time>
      </trkpt>
      <trkpt lat="47.69247" lon="6.05294">
        <ele>249.19</ele>
        <time>2018-02-28T14:50:55Z</time>
      </trkpt>
      <trkpt lat="47.69243" lon="6.0529">
        <ele>249.1</ele>
        <time>2018-02-28T14:50:56Z</time>
      </trkpt>
      <trkpt lat="47.69239" lon="6.05286">
        <ele>249.02</ele>
        <time>2018-02-28T14:50:57Z</time>
      </trkpt>
      <trkpt lat="47.69232" lon="6.05278">
        <ele>248.88</ele>
        <time>2018-02-28T14:50:59Z</time>
      </trkpt>
      <trkpt lat="47.69225" lon="6.05271">
        <ele>248.84</ele>
        <time>2018-02-28T14:51:01Z</time>
      </trkpt>
      <trkpt lat="47.69219" lon="6.05265">
        <ele>248.81</ele>
        <time>2018-02-28T14:51:03Z</time>
      </trkpt>
      <trkpt lat="47.69213" lon="6.05258">
        <ele>248.78</ele>
        <time>2018-02-28T14:51:05Z</time>
      </trkpt>
      <trkpt lat="47.69207" lon="6.05249">
        <ele>248.59</ele>
        <time>2018-02-28T14:51:07Z</time>
      </trkpt>
      <trkpt lat="47.69203" lon="6.05245">
        <ele>248.4</ele>
        <time>2018-02-28T14:51:08Z</time>
      </trkpt>
      <trkpt lat="47.69196" lon="6.05238">
        <ele>248.04</ele>
        <time>2018-02-28T14:51:10Z</time>
      </trkpt>
      <trkpt lat="47.69192" lon="6.05234">
        <ele>247.88</ele>
        <time>2018-02-28T14:51:11Z</time>
      </trkpt>
      <trkpt lat="47.69189" lon="6.05229">
        <ele>247.76</ele>
        <time>2018-02-28T14:51:12Z</time>
      </trkpt>
      <trkpt lat="47.69185" lon="6.05224">
        <ele>247.67</ele>
        <time>2018-02-28T14:51:13Z</time>
      </trkpt>
      <trkpt lat="47.69179" lon="6.05217">
        <ele>247.5</ele>
        <time>2018-02-28T14:51:15Z</time>
      </trkpt>
      <trkpt lat="47.69173" lon="6.0521">
        <ele>247.39</ele>
        <time>2018-02-28T14:51:17Z</time>
      </trkpt>
      <trkpt lat="47.69167" lon="6.05204">
        <ele>247.36</ele>
        <time>2018-02-28T14:51:19Z</time>
      </trkpt>
      <trkpt lat="47.69159" lon="6.05196">
        <ele>247.33</ele>
        <time>2018-02-28T14:51:21Z</time>
      </trkpt>
      <trkpt lat="47.69152" lon="6.05189">
        <ele>247.18</ele>
        <time>2018-02-28T14:51:23Z</time>
      </trkpt>
      <trkpt lat="47.69147" lon="6.05185">
        <ele>247.11</ele>
        <time>2018-02-28T14:51:24Z</time>
      </trkpt>
      <trkpt lat="47.69143" lon="6.05181">
        <ele>247.06</ele>
        <time>2018-02-28T14:51:25Z</time>
      </trkpt>
      <trkpt lat="47.69138" lon="6.05177">
        <ele>247.03</ele>
        <time>2018-02-28T14:51:26Z</time>
      </trkpt>
      <trkpt lat="47.69134" lon="6.05174">
        <ele>247</ele>
        <time>2018-02-28T14:51:27Z</time>
      </trkpt>
      <trkpt lat="47.6913" lon="6.05169">
        <ele>246.97</ele>
        <time>2018-02-28T14:51:28Z</time>
      </trkpt>
      <trkpt lat="47.69125" lon="6.05164">
        <ele>246.94</ele>
        <time>2018-02-28T14:51:29Z</time>
      </trkpt>
      <trkpt lat="47.6912" lon="6.0516">
        <ele>246.95</ele>
        <time>2018-02-28T14:51:30Z</time>
      </trkpt>
      <trkpt lat="47.69116" lon="6.05156">
        <ele>246.95</ele>
        <time>2018-02-28T14:51:31Z</time>
      </trkpt>
      <trkpt lat="47.6911" lon="6.05152">
        <ele>246.93</ele>
        <time>2018-02-28T14:51:32Z</time>
      </trkpt>
      <trkpt lat="47.69106" lon="6.05147">
        <ele>246.91</ele>
        <time>2018-02-28T14:51:33Z</time>
      </trkpt>
      <trkpt lat="47.69101" lon="6.05144">
        <ele>246.88</ele>
        <time>2018-02-28T14:51:34Z</time>
      </trkpt>
      <trkpt lat="47.69095" lon="6.05139">
        <ele>246.85</ele>
        <time>2018-02-28T14:51:35Z</time>
      </trkpt>
      <trkpt lat="47.69089" lon="6.05135">
        <ele>246.83</ele>
        <time>2018-02-28T14:51:36Z</time>
      </trkpt>
      <trkpt lat="47.69083" lon="6.05131">
        <ele>246.8</ele>
        <time>2018-02-28T14:51:37Z</time>
      </trkpt>
      <trkpt lat="47.69078" lon="6.05125">
        <ele>246.78</ele>
        <time>2018-02-28T14:51:38Z</time>
      </trkpt>
      <trkpt lat="47.69071" lon="6.05119">
        <ele>246.76</ele>
        <time>2018-02-28T14:51:39Z</time>
      </trkpt>
      <trkpt lat="47.69065" lon="6.05114">
        <ele>246.74</ele>
        <time>2018-02-28T14:51:40Z</time>
      </trkpt>
      <trkpt lat="47.6906" lon="6.0511">
        <ele>246.71</ele>
        <time>2018-02-28T14:51:41Z</time>
      </trkpt>
      <trkpt lat="47.69053" lon="6.05105">
        <ele>246.67</ele>
        <time>2018-02-28T14:51:42Z</time>
      </trkpt>
      <trkpt lat="47.69046" lon="6.05102">
        <ele>246.59</ele>
        <time>2018-02-28T14:51:43Z</time>
      </trkpt>
      <trkpt lat="47.69038" lon="6.05097">
        <ele>246.48</ele>
        <time>2018-02-28T14:51:44Z</time>
      </trkpt>
      <trkpt lat="47.6903" lon="6.05092">
        <ele>246.35</ele>
        <time>2018-02-28T14:51:45Z</time>
      </trkpt>
      <trkpt lat="47.69022" lon="6.05087">
        <ele>246.2</ele>
        <time>2018-02-28T14:51:46Z</time>
      </trkpt>
      <trkpt lat="47.69014" lon="6.05083">
        <ele>246.02</ele>
        <time>2018-02-28T14:51:47Z</time>
      </trkpt>
      <trkpt lat="47.69006" lon="6.05078">
        <ele>245.8</ele>
        <time>2018-02-28T14:51:48Z</time>
      </trkpt>
      <trkpt lat="47.68997" lon="6.05074">
        <ele>245.58</ele>
        <time>2018-02-28T14:51:49Z</time>
      </trkpt>
      <trkpt lat="47.68988" lon="6.05069">
        <ele>245.34</ele>
        <time>2018-02-28T14:51:50Z</time>
      </trkpt>
      <trkpt lat="47.68979" lon="6.05063">
        <ele>245.04</ele>
        <time>2018-02-28T14:51:51Z</time>
      </trkpt>
      <trkpt lat="47.68969" lon="6.05057">
        <ele>244.73</ele>
        <time>2018-02-28T14:51:52Z</time>
      </trkpt>
      <trkpt lat="47.6896" lon="6.05051">
        <ele>244.39</ele>
        <time>2018-02-28T14:51:53Z</time>
      </trkpt>
      <trkpt lat="47.6895" lon="6.05045">
        <ele>243.99</ele>
        <time>2018-02-28T14:51:54Z</time>
      </trkpt>
      <trkpt lat="47.6894" lon="6.05039">
        <ele>243.58</ele>
        <time>2018-02-28T14:51:55Z</time>
      </trkpt>
      <trkpt lat="47.68931" lon="6.05032">
        <ele>243.15</ele>
        <time>2018-02-28T14:51:56Z</time>
      </trkpt>
      <trkpt lat="47.68922" lon="6.05025">
        <ele>242.72</ele>
        <time>2018-02-28T14:51:57Z</time>
      </trkpt>
      <trkpt lat="47.68913" lon="6.05019">
        <ele>242.27</ele>
        <time>2018-02-28T14:51:58Z</time>
      </trkpt>
      <trkpt lat="47.68905" lon="6.0501">
        <ele>241.79</ele>
        <time>2018-02-28T14:51:59Z</time>
      </trkpt>
      <trkpt lat="47.68896" lon="6.05002">
        <ele>241.3</ele>
        <time>2018-02-28T14:52:00Z</time>
      </trkpt>
      <trkpt lat="47.68888" lon="6.04992">
        <ele>240.73</ele>
        <time>2018-02-28T14:52:01Z</time>
      </trkpt>
      <trkpt lat="47.68881" lon="6.04981">
        <ele>240.14</ele>
        <time>2018-02-28T14:52:02Z</time>
      </trkpt>
      <trkpt lat="47.68875" lon="6.0497">
        <ele>239.46</ele>
        <time>2018-02-28T14:52:03Z</time>
      </trkpt>
      <trkpt lat="47.68869" lon="6.04958">
        <ele>238.72</ele>
        <time>2018-02-28T14:52:04Z</time>
      </trkpt>
      <trkpt lat="47.68863" lon="6.04946">
        <ele>237.92</ele>
        <time>2018-02-28T14:52:05Z</time>
      </trkpt>
      <trkpt lat="47.68858" lon="6.04935">
        <ele>237.11</ele>
        <time>2018-02-28T14:52:06Z</time>
      </trkpt>
      <trkpt lat="47.68853" lon="6.04926">
        <ele>236.49</ele>
        <time>2018-02-28T14:52:07Z</time>
      </trkpt>
      <trkpt lat="47.68848" lon="6.04916">
        <ele>235.96</ele>
        <time>2018-02-28T14:52:08Z</time>
      </trkpt>
      <trkpt lat="47.68843" lon="6.04907">
        <ele>235.44</ele>
        <time>2018-02-28T14:52:09Z</time>
      </trkpt>
      <trkpt lat="47.68839" lon="6.04899">
        <ele>234.9</ele>
        <time>2018-02-28T14:52:10Z</time>
      </trkpt>
      <trkpt lat="47.68835" lon="6.04893">
        <ele>234.39</ele>
        <time>2018-02-28T14:52:11Z</time>
      </trkpt>
      <trkpt lat="47.6883" lon="6.04887">
        <ele>234.11</ele>
        <time>2018-02-28T14:52:13Z</time>
      </trkpt>
      <trkpt lat="47.68825" lon="6.04882">
        <ele>233.97</ele>
        <time>2018-02-28T14:52:15Z</time>
      </trkpt>
      <trkpt lat="47.68817" lon="6.04876">
        <ele>234.95</ele>
        <time>2018-02-28T14:52:30Z</time>
      </trkpt>
      <trkpt lat="47.68812" lon="6.04877">
        <ele>235.55</ele>
        <time>2018-02-28T14:52:33Z</time>
      </trkpt>
      <trkpt lat="47.68807" lon="6.04877">
        <ele>236.07</ele>
        <time>2018-02-28T14:52:36Z</time>
      </trkpt>
      <trkpt lat="47.68802" lon="6.04878">
        <ele>236.34</ele>
        <time>2018-02-28T14:52:38Z</time>
      </trkpt>
      <trkpt lat="47.68796" lon="6.0488">
        <ele>236.58</ele>
        <time>2018-02-28T14:52:40Z</time>
      </trkpt>
      <trkpt lat="47.6879" lon="6.04879">
        <ele>236.83</ele>
        <time>2018-02-28T14:52:43Z</time>
      </trkpt>
      <trkpt lat="47.68784" lon="6.04875">
        <ele>236.91</ele>
        <time>2018-02-28T14:52:45Z</time>
      </trkpt>
      <trkpt lat="47.6878" lon="6.04868">
        <ele>236.93</ele>
        <time>2018-02-28T14:52:47Z</time>
      </trkpt>
      <trkpt lat="47.68777" lon="6.04857">
        <ele>236.8</ele>
        <time>2018-02-28T14:52:49Z</time>
      </trkpt>
      <trkpt lat="47.68773" lon="6.04845">
        <ele>236.32</ele>
        <time>2018-02-28T14:52:51Z</time>
      </trkpt>
      <trkpt lat="47.6877" lon="6.04839">
        <ele>236.03</ele>
        <time>2018-02-28T14:52:52Z</time>
      </trkpt>
      <trkpt lat="47.68768" lon="6.04834">
        <ele>235.75</ele>
        <time>2018-02-28T14:52:53Z</time>
      </trkpt>
      <trkpt lat="47.68764" lon="6.04824">
        <ele>235.35</ele>
        <time>2018-02-28T14:52:55Z</time>
      </trkpt>
      <trkpt lat="47.68761" lon="6.04816">
        <ele>235.26</ele>
        <time>2018-02-28T14:52:57Z</time>
      </trkpt>
      <trkpt lat="47.68759" lon="6.04805">
        <ele>235.02</ele>
        <time>2018-02-28T14:52:59Z</time>
      </trkpt>
      <trkpt lat="47.68755" lon="6.04795">
        <ele>234.96</ele>
        <time>2018-02-28T14:53:01Z</time>
      </trkpt>
      <trkpt lat="47.68752" lon="6.04784">
        <ele>234.92</ele>
        <time>2018-02-28T14:53:03Z</time>
      </trkpt>
      <trkpt lat="47.6875" lon="6.04775">
        <ele>234.87</ele>
        <time>2018-02-28T14:53:05Z</time>
      </trkpt>
      <trkpt lat="47.68748" lon="6.04766">
        <ele>234.83</ele>
        <time>2018-02-28T14:53:07Z</time>
      </trkpt>
      <trkpt lat="47.68745" lon="6.04756">
        <ele>234.79</ele>
        <time>2018-02-28T14:53:09Z</time>
      </trkpt>
      <trkpt lat="47.68742" lon="6.04748">
        <ele>234.76</ele>
        <time>2018-02-28T14:53:11Z</time>
      </trkpt>
      <trkpt lat="47.68739" lon="6.04739">
        <ele>234.73</ele>
        <time>2018-02-28T14:53:13Z</time>
      </trkpt>
      <trkpt lat="47.68737" lon="6.04731">
        <ele>234.7</ele>
        <time>2018-02-28T14:53:15Z</time>
      </trkpt>
      <trkpt lat="47.68734" lon="6.04722">
        <ele>234.67</ele>
        <time>2018-02-28T14:53:17Z</time>
      </trkpt>
      <trkpt lat="47.6873" lon="6.04712">
        <ele>234.64</ele>
        <time>2018-02-28T14:53:19Z</time>
      </trkpt>
      <trkpt lat="47.68727" lon="6.04703">
        <ele>234.62</ele>
        <time>2018-02-28T14:53:21Z</time>
      </trkpt>
      <trkpt lat="47.68723" lon="6.04696">
        <ele>234.6</ele>
        <time>2018-02-28T14:53:23Z</time>
      </trkpt>
      <trkpt lat="47.6872" lon="6.04688">
        <ele>234.59</ele>
        <time>2018-02-28T14:53:25Z</time>
      </trkpt>
      <trkpt lat="47.68715" lon="6.04679">
        <ele>234.58</ele>
        <time>2018-02-28T14:53:27Z</time>
      </trkpt>
      <trkpt lat="47.68712" lon="6.04672">
        <ele>234.57</ele>
        <time>2018-02-28T14:53:29Z</time>
      </trkpt>
      <trkpt lat="47.68708" lon="6.04665">
        <ele>234.56</ele>
        <time>2018-02-28T14:53:31Z</time>
      </trkpt>
      <trkpt lat="47.68704" lon="6.04656">
        <ele>234.55</ele>
        <time>2018-02-28T14:53:33Z</time>
      </trkpt>
      <trkpt lat="47.68701" lon="6.04648">
        <ele>234.54</ele>
        <time>2018-02-28T14:53:35Z</time>
      </trkpt>
      <trkpt lat="47.68695" lon="6.04638">
        <ele>234.54</ele>
        <time>2018-02-28T14:53:37Z</time>
      </trkpt>
      <trkpt lat="47.68693" lon="6.04632">
        <ele>234.54</ele>
        <time>2018-02-28T14:53:38Z</time>
      </trkpt>
      <trkpt lat="47.68689" lon="6.04622">
        <ele>234.58</ele>
        <time>2018-02-28T14:53:40Z</time>
      </trkpt>
      <trkpt lat="47.68685" lon="6.04612">
        <ele>234.6</ele>
        <time>2018-02-28T14:53:42Z</time>
      </trkpt>
      <trkpt lat="47.68681" lon="6.046">
        <ele>234.69</ele>
        <time>2018-02-28T14:53:44Z</time>
      </trkpt>
      <trkpt lat="47.68677" lon="6.04588">
        <ele>234.76</ele>
        <time>2018-02-28T14:53:46Z</time>
      </trkpt>
      <trkpt lat="47.68675" lon="6.04582">
        <ele>234.79</ele>
        <time>2018-02-28T14:53:47Z</time>
      </trkpt>
      <trkpt lat="47.6867" lon="6.04572">
        <ele>234.81</ele>
        <time>2018-02-28T14:53:49Z</time>
      </trkpt>
      <trkpt lat="47.68667" lon="6.04564">
        <ele>234.81</ele>
        <time>2018-02-28T14:53:51Z</time>
      </trkpt>
      <trkpt lat="47.68661" lon="6.04558">
        <ele>234.78</ele>
        <time>2018-02-28T14:53:53Z</time>
      </trkpt>
      <trkpt lat="47.68654" lon="6.04551">
        <ele>234.7</ele>
        <time>2018-02-28T14:53:55Z</time>
      </trkpt>
      <trkpt lat="47.68647" lon="6.04545">
        <ele>234.65</ele>
        <time>2018-02-28T14:53:57Z</time>
      </trkpt>
      <trkpt lat="47.6864" lon="6.04539">
        <ele>234.63</ele>
        <time>2018-02-28T14:53:59Z</time>
      </trkpt>
      <trkpt lat="47.68632" lon="6.04537">
        <ele>234.62</ele>
        <time>2018-02-28T14:54:01Z</time>
      </trkpt>
      <trkpt lat="47.68628" lon="6.04541">
        <ele>234.61</ele>
        <time>2018-02-28T14:54:03Z</time>
      </trkpt>
      <trkpt lat="47.68626" lon="6.04548">
        <ele>234.59</ele>
        <time>2018-02-28T14:54:05Z</time>
      </trkpt>
      <trkpt lat="47.68624" lon="6.04555">
        <ele>234.53</ele>
        <time>2018-02-28T14:54:19Z</time>
      </trkpt>
      <trkpt lat="47.68628" lon="6.04549">
        <ele>234.4</ele>
        <time>2018-02-28T14:54:39Z</time>
      </trkpt>
    </trkseg>
  </trk>
</gpx>